﻿<?xml version="1.0" encoding="UTF-8"?>
<gpx xmlns="http://www.topografix.com/GPX/1/1" creator="HOLUX ezTour Plus" version="1.1">
<metadata>
<link href="http://www.holux.com"><text>HOLUX Technology, Inc.</text></link>
<time>2013-11-27T20:33:22Z</time></metadata>
<trk>
<name><![CDATA[Holux2013/11/21_08:20]]></name>
<trkseg>
<trkpt lat="30.853422165" lon="34.781932831">
<ele>532.625000</ele>
<time>2013-11-21T06:20:57Z</time>
<speed>0.040000</speed>
<extensions>
<speed>0.0</speed>
<temp>0.00</temp>
<bpm>0</bpm>
<rpm>0.00</rpm>
</extensions>
</trkpt>
<trkpt lat="30.853437424" lon="34.781818390">
<ele>519.250000</ele>
<time>2013-11-21T06:21:02Z</time>
<speed>0.070000</speed>
<extensions>
<speed>0.1</speed>
<temp>0.00</temp>
<bpm>0</bpm>
<rpm>0.00</rpm>
</extensions>
</trkpt>
<trkpt lat="30.853437424" lon="34.781791687">
<ele>517.890625</ele>
<time>2013-11-21T06:21:07Z</time>
<speed>0.160000</speed>
<extensions>
<speed>0.2</speed>
<temp>0.00</temp>
<bpm>0</bpm>
<rpm>0.00</rpm>
</extensions>
</trkpt>
<trkpt lat="30.853439331" lon="34.781803131">
<ele>517.875000</ele>
<time>2013-11-21T06:21:12Z</time>
<speed>0.050000</speed>
<extensions>
<speed>0.1</speed>
<temp>0.00</temp>
<bpm>0</bpm>
<rpm>0.00</rpm>
</extensions>
</trkpt>
<trkpt lat="30.853450775" lon="34.781795502">
<ele>513.156250</ele>
<time>2013-11-21T06:21:17Z</time>
<speed>0.160000</speed>
<extensions>
<speed>0.2</speed>
<temp>0.00</temp>
<bpm>0</bpm>
<rpm>0.00</rpm>
</extensions>
</trkpt>
<trkpt lat="30.853454590" lon="34.781757355">
<ele>509.664063</ele>
<time>2013-11-21T06:21:22Z</time>
<speed>0.040000</speed>
<extensions>
<speed>0.0</speed>
<temp>0.00</temp>
<bpm>0</bpm>
<rpm>0.00</rpm>
</extensions>
</trkpt>
<trkpt lat="30.853458405" lon="34.781726837">
<ele>506.906250</ele>
<time>2013-11-21T06:21:27Z</time>
<speed>0.120000</speed>
<extensions>
<speed>0.1</speed>
<temp>0.00</temp>
<bpm>0</bpm>
<rpm>0.00</rpm>
</extensions>
</trkpt>
<trkpt lat="30.853458405" lon="34.781726837">
<ele>506.757813</ele>
<time>2013-11-21T06:21:32Z</time>
<speed>0.080000</speed>
<extensions>
<speed>0.1</speed>
<temp>0.00</temp>
<bpm>0</bpm>
<rpm>0.00</rpm>
</extensions>
</trkpt>
<trkpt lat="30.853458405" lon="34.781726837">
<ele>506.562500</ele>
<time>2013-11-21T06:21:37Z</time>
<speed>0.070000</speed>
<extensions>
<speed>0.1</speed>
<temp>0.00</temp>
<bpm>0</bpm>
<rpm>0.00</rpm>
</extensions>
</trkpt>
<trkpt lat="30.853458405" lon="34.781723022">
<ele>506.468750</ele>
<time>2013-11-21T06:21:42Z</time>
<speed>0.070000</speed>
<extensions>
<speed>0.1</speed>
<temp>0.00</temp>
<bpm>0</bpm>
<rpm>0.00</rpm>
</extensions>
</trkpt>
<trkpt lat="30.853456497" lon="34.781719208">
<ele>506.351563</ele>
<time>2013-11-21T06:21:47Z</time>
<speed>0.010000</speed>
<extensions>
<speed>0.0</speed>
<temp>0.00</temp>
<bpm>0</bpm>
<rpm>0.00</rpm>
</extensions>
</trkpt>
<trkpt lat="30.853456497" lon="34.781715393">
<ele>506.250000</ele>
<time>2013-11-21T06:21:52Z</time>
<speed>0.020000</speed>
<extensions>
<speed>0.0</speed>
<temp>0.00</temp>
<bpm>0</bpm>
<rpm>0.00</rpm>
</extensions>
</trkpt>
<trkpt lat="30.853456497" lon="34.781711578">
<ele>506.171875</ele>
<time>2013-11-21T06:21:57Z</time>
<speed>0.150000</speed>
<extensions>
<speed>0.2</speed>
<temp>0.00</temp>
<bpm>0</bpm>
<rpm>0.00</rpm>
</extensions>
</trkpt>
<trkpt lat="30.853454590" lon="34.781703949">
<ele>506.101563</ele>
<time>2013-11-21T06:22:02Z</time>
<speed>0.010000</speed>
<extensions>
<speed>0.0</speed>
<temp>0.00</temp>
<bpm>0</bpm>
<rpm>0.00</rpm>
</extensions>
</trkpt>
<trkpt lat="30.853454590" lon="34.781703949">
<ele>506.062500</ele>
<time>2013-11-21T06:22:07Z</time>
<speed>0.050000</speed>
<extensions>
<speed>0.1</speed>
<temp>0.00</temp>
<bpm>0</bpm>
<rpm>0.00</rpm>
</extensions>
</trkpt>
<trkpt lat="30.853454590" lon="34.781703949">
<ele>506.015625</ele>
<time>2013-11-21T06:22:12Z</time>
<speed>0.060000</speed>
<extensions>
<speed>0.1</speed>
<temp>0.00</temp>
<bpm>0</bpm>
<rpm>0.00</rpm>
</extensions>
</trkpt>
<trkpt lat="30.853454590" lon="34.781707764">
<ele>505.992188</ele>
<time>2013-11-21T06:22:17Z</time>
<speed>0.060000</speed>
<extensions>
<speed>0.1</speed>
<temp>0.00</temp>
<bpm>0</bpm>
<rpm>0.00</rpm>
</extensions>
</trkpt>
<trkpt lat="30.853456497" lon="34.781700134">
<ele>505.937500</ele>
<time>2013-11-21T06:22:22Z</time>
<speed>0.120000</speed>
<extensions>
<speed>0.1</speed>
<temp>0.00</temp>
<bpm>0</bpm>
<rpm>0.00</rpm>
</extensions>
</trkpt>
<trkpt lat="30.853460312" lon="34.781696320">
<ele>505.953125</ele>
<time>2013-11-21T06:22:27Z</time>
<speed>0.090000</speed>
<extensions>
<speed>0.1</speed>
<temp>0.00</temp>
<bpm>0</bpm>
<rpm>0.00</rpm>
</extensions>
</trkpt>
<trkpt lat="30.853462219" lon="34.781692505">
<ele>506.031250</ele>
<time>2013-11-21T06:22:32Z</time>
<speed>0.120000</speed>
<extensions>
<speed>0.1</speed>
<temp>0.00</temp>
<bpm>0</bpm>
<rpm>0.00</rpm>
</extensions>
</trkpt>
<trkpt lat="30.853466034" lon="34.781688690">
<ele>506.078125</ele>
<time>2013-11-21T06:22:37Z</time>
<speed>0.220000</speed>
<extensions>
<speed>0.2</speed>
<temp>0.00</temp>
<bpm>0</bpm>
<rpm>0.00</rpm>
</extensions>
</trkpt>
<trkpt lat="30.853467941" lon="34.781681061">
<ele>506.039063</ele>
<time>2013-11-21T06:22:42Z</time>
<speed>0.070000</speed>
<extensions>
<speed>0.1</speed>
<temp>0.00</temp>
<bpm>0</bpm>
<rpm>0.00</rpm>
</extensions>
</trkpt>
<trkpt lat="30.853467941" lon="34.781677246">
<ele>506.000000</ele>
<time>2013-11-21T06:22:47Z</time>
<speed>0.100000</speed>
<extensions>
<speed>0.1</speed>
<temp>0.00</temp>
<bpm>0</bpm>
<rpm>0.00</rpm>
</extensions>
</trkpt>
<trkpt lat="30.853462219" lon="34.781681061">
<ele>505.898438</ele>
<time>2013-11-21T06:22:52Z</time>
<speed>0.110000</speed>
<extensions>
<speed>0.1</speed>
<temp>0.00</temp>
<bpm>0</bpm>
<rpm>0.00</rpm>
</extensions>
</trkpt>
<trkpt lat="30.853456497" lon="34.781681061">
<ele>505.757813</ele>
<time>2013-11-21T06:22:57Z</time>
<speed>0.020000</speed>
<extensions>
<speed>0.0</speed>
<temp>0.00</temp>
<bpm>0</bpm>
<rpm>0.00</rpm>
</extensions>
</trkpt>
<trkpt lat="30.853458405" lon="34.781681061">
<ele>505.656250</ele>
<time>2013-11-21T06:23:02Z</time>
<speed>0.010000</speed>
<extensions>
<speed>0.0</speed>
<temp>0.00</temp>
<bpm>0</bpm>
<rpm>0.00</rpm>
</extensions>
</trkpt>
<trkpt lat="30.853460312" lon="34.781681061">
<ele>505.617188</ele>
<time>2013-11-21T06:23:07Z</time>
<speed>0.060000</speed>
<extensions>
<speed>0.1</speed>
<temp>0.00</temp>
<bpm>0</bpm>
<rpm>0.00</rpm>
</extensions>
</trkpt>
<trkpt lat="30.853456497" lon="34.781681061">
<ele>505.578125</ele>
<time>2013-11-21T06:23:12Z</time>
<speed>0.060000</speed>
<extensions>
<speed>0.1</speed>
<temp>0.00</temp>
<bpm>0</bpm>
<rpm>0.00</rpm>
</extensions>
</trkpt>
<trkpt lat="30.853452682" lon="34.781677246">
<ele>505.539063</ele>
<time>2013-11-21T06:23:17Z</time>
<speed>0.020000</speed>
<extensions>
<speed>0.0</speed>
<temp>0.00</temp>
<bpm>0</bpm>
<rpm>0.00</rpm>
</extensions>
</trkpt>
<trkpt lat="30.853454590" lon="34.781677246">
<ele>505.515625</ele>
<time>2013-11-21T06:23:22Z</time>
<speed>0.190000</speed>
<extensions>
<speed>0.2</speed>
<temp>0.00</temp>
<bpm>0</bpm>
<rpm>0.00</rpm>
</extensions>
</trkpt>
<trkpt lat="30.853460312" lon="34.781669617">
<ele>505.523438</ele>
<time>2013-11-21T06:23:27Z</time>
<speed>0.170000</speed>
<extensions>
<speed>0.2</speed>
<temp>0.00</temp>
<bpm>0</bpm>
<rpm>0.00</rpm>
</extensions>
</trkpt>
<trkpt lat="30.853464127" lon="34.781661987">
<ele>505.492188</ele>
<time>2013-11-21T06:23:32Z</time>
<speed>0.140000</speed>
<extensions>
<speed>0.1</speed>
<temp>0.00</temp>
<bpm>0</bpm>
<rpm>0.00</rpm>
</extensions>
</trkpt>
<trkpt lat="30.853466034" lon="34.781658173">
<ele>505.460938</ele>
<time>2013-11-21T06:23:37Z</time>
<speed>0.150000</speed>
<extensions>
<speed>0.2</speed>
<temp>0.00</temp>
<bpm>0</bpm>
<rpm>0.00</rpm>
</extensions>
</trkpt>
<trkpt lat="30.853469849" lon="34.781650543">
<ele>505.398438</ele>
<time>2013-11-21T06:23:42Z</time>
<speed>0.110000</speed>
<extensions>
<speed>0.1</speed>
<temp>0.00</temp>
<bpm>0</bpm>
<rpm>0.00</rpm>
</extensions>
</trkpt>
<trkpt lat="30.853477478" lon="34.781646729">
<ele>505.335938</ele>
<time>2013-11-21T06:23:47Z</time>
<speed>0.250000</speed>
<extensions>
<speed>0.2</speed>
<temp>0.00</temp>
<bpm>0</bpm>
<rpm>0.00</rpm>
</extensions>
</trkpt>
<trkpt lat="30.853483200" lon="34.781642914">
<ele>505.226563</ele>
<time>2013-11-21T06:23:52Z</time>
<speed>0.160000</speed>
<extensions>
<speed>0.2</speed>
<temp>0.00</temp>
<bpm>0</bpm>
<rpm>0.00</rpm>
</extensions>
</trkpt>
<trkpt lat="30.853494644" lon="34.781642914">
<ele>505.281250</ele>
<time>2013-11-21T06:23:57Z</time>
<speed>0.260000</speed>
<extensions>
<speed>0.3</speed>
<temp>0.00</temp>
<bpm>0</bpm>
<rpm>0.00</rpm>
</extensions>
</trkpt>
<trkpt lat="30.853498459" lon="34.781635284">
<ele>505.359375</ele>
<time>2013-11-21T06:24:02Z</time>
<speed>0.090000</speed>
<extensions>
<speed>0.1</speed>
<temp>0.00</temp>
<bpm>0</bpm>
<rpm>0.00</rpm>
</extensions>
</trkpt>
<trkpt lat="30.853496552" lon="34.781631470">
<ele>505.296875</ele>
<time>2013-11-21T06:24:07Z</time>
<speed>0.060000</speed>
<extensions>
<speed>0.1</speed>
<temp>0.00</temp>
<bpm>0</bpm>
<rpm>0.00</rpm>
</extensions>
</trkpt>
<trkpt lat="30.853500366" lon="34.781631470">
<ele>505.218750</ele>
<time>2013-11-21T06:24:12Z</time>
<speed>0.270000</speed>
<extensions>
<speed>0.3</speed>
<temp>0.00</temp>
<bpm>0</bpm>
<rpm>0.00</rpm>
</extensions>
</trkpt>
<trkpt lat="30.853507996" lon="34.781627655">
<ele>505.007813</ele>
<time>2013-11-21T06:24:17Z</time>
<speed>0.150000</speed>
<extensions>
<speed>0.2</speed>
<temp>0.00</temp>
<bpm>0</bpm>
<rpm>0.00</rpm>
</extensions>
</trkpt>
<trkpt lat="30.853513718" lon="34.781623840">
<ele>504.820313</ele>
<time>2013-11-21T06:24:22Z</time>
<speed>0.060000</speed>
<extensions>
<speed>0.1</speed>
<temp>0.00</temp>
<bpm>0</bpm>
<rpm>0.00</rpm>
</extensions>
</trkpt>
<trkpt lat="30.853511810" lon="34.781623840">
<ele>504.695313</ele>
<time>2013-11-21T06:24:27Z</time>
<speed>0.260000</speed>
<extensions>
<speed>0.3</speed>
<temp>0.00</temp>
<bpm>0</bpm>
<rpm>0.00</rpm>
</extensions>
</trkpt>
<trkpt lat="30.853496552" lon="34.781612396">
<ele>503.929688</ele>
<time>2013-11-21T06:24:32Z</time>
<speed>0.390000</speed>
<extensions>
<speed>0.4</speed>
<temp>0.00</temp>
<bpm>0</bpm>
<rpm>0.00</rpm>
</extensions>
</trkpt>
<trkpt lat="30.853488922" lon="34.781600952">
<ele>503.140625</ele>
<time>2013-11-21T06:24:37Z</time>
<speed>0.160000</speed>
<extensions>
<speed>0.2</speed>
<temp>0.00</temp>
<bpm>0</bpm>
<rpm>0.00</rpm>
</extensions>
</trkpt>
<trkpt lat="30.853483200" lon="34.781597137">
<ele>502.906250</ele>
<time>2013-11-21T06:24:42Z</time>
<speed>0.210000</speed>
<extensions>
<speed>0.2</speed>
<temp>0.00</temp>
<bpm>0</bpm>
<rpm>0.00</rpm>
</extensions>
</trkpt>
<trkpt lat="30.853471756" lon="34.781589508">
<ele>501.765625</ele>
<time>2013-11-21T06:24:47Z</time>
<speed>0.170000</speed>
<extensions>
<speed>0.2</speed>
<temp>0.00</temp>
<bpm>0</bpm>
<rpm>0.00</rpm>
</extensions>
</trkpt>
<trkpt lat="30.853471756" lon="34.781589508">
<ele>501.132813</ele>
<time>2013-11-21T06:24:52Z</time>
<speed>0.040000</speed>
<extensions>
<speed>0.0</speed>
<temp>0.00</temp>
<bpm>0</bpm>
<rpm>0.00</rpm>
</extensions>
</trkpt>
<trkpt lat="30.853479385" lon="34.781593323">
<ele>500.875000</ele>
<time>2013-11-21T06:24:57Z</time>
<speed>0.230000</speed>
<extensions>
<speed>0.2</speed>
<temp>0.00</temp>
<bpm>0</bpm>
<rpm>0.00</rpm>
</extensions>
</trkpt>
<trkpt lat="30.853490829" lon="34.781593323">
<ele>500.601563</ele>
<time>2013-11-21T06:25:02Z</time>
<speed>0.220000</speed>
<extensions>
<speed>0.2</speed>
<temp>0.00</temp>
<bpm>0</bpm>
<rpm>0.00</rpm>
</extensions>
</trkpt>
<trkpt lat="30.853500366" lon="34.781597137">
<ele>500.351563</ele>
<time>2013-11-21T06:25:07Z</time>
<speed>0.150000</speed>
<extensions>
<speed>0.2</speed>
<temp>0.00</temp>
<bpm>0</bpm>
<rpm>0.00</rpm>
</extensions>
</trkpt>
<trkpt lat="30.853506088" lon="34.781593323">
<ele>500.093750</ele>
<time>2013-11-21T06:25:12Z</time>
<speed>0.210000</speed>
<extensions>
<speed>0.2</speed>
<temp>0.00</temp>
<bpm>0</bpm>
<rpm>0.00</rpm>
</extensions>
</trkpt>
<trkpt lat="30.853511810" lon="34.781581879">
<ele>499.835938</ele>
<time>2013-11-21T06:25:17Z</time>
<speed>0.290000</speed>
<extensions>
<speed>0.3</speed>
<temp>0.00</temp>
<bpm>0</bpm>
<rpm>0.00</rpm>
</extensions>
</trkpt>
<trkpt lat="30.853519440" lon="34.781562805">
<ele>499.476563</ele>
<time>2013-11-21T06:25:22Z</time>
<speed>0.330000</speed>
<extensions>
<speed>0.3</speed>
<temp>0.00</temp>
<bpm>0</bpm>
<rpm>0.00</rpm>
</extensions>
</trkpt>
<trkpt lat="30.853515625" lon="34.781528473">
<ele>499.054688</ele>
<time>2013-11-21T06:25:27Z</time>
<speed>0.340000</speed>
<extensions>
<speed>0.3</speed>
<temp>0.00</temp>
<bpm>0</bpm>
<rpm>0.00</rpm>
</extensions>
</trkpt>
<trkpt lat="30.853496552" lon="34.781501770">
<ele>498.734375</ele>
<time>2013-11-21T06:25:32Z</time>
<speed>0.370000</speed>
<extensions>
<speed>0.4</speed>
<temp>0.00</temp>
<bpm>0</bpm>
<rpm>0.00</rpm>
</extensions>
</trkpt>
<trkpt lat="30.853502274" lon="34.781478882">
<ele>498.460938</ele>
<time>2013-11-21T06:25:37Z</time>
<speed>0.330000</speed>
<extensions>
<speed>0.3</speed>
<temp>0.00</temp>
<bpm>0</bpm>
<rpm>0.00</rpm>
</extensions>
</trkpt>
<trkpt lat="30.853511810" lon="34.781463623">
<ele>498.148438</ele>
<time>2013-11-21T06:25:42Z</time>
<speed>0.290000</speed>
<extensions>
<speed>0.3</speed>
<temp>0.00</temp>
<bpm>0</bpm>
<rpm>0.00</rpm>
</extensions>
</trkpt>
<trkpt lat="30.853513718" lon="34.781448364">
<ele>497.859375</ele>
<time>2013-11-21T06:25:47Z</time>
<speed>0.310000</speed>
<extensions>
<speed>0.3</speed>
<temp>0.00</temp>
<bpm>0</bpm>
<rpm>0.00</rpm>
</extensions>
</trkpt>
<trkpt lat="30.853498459" lon="34.781433105">
<ele>497.570313</ele>
<time>2013-11-21T06:25:52Z</time>
<speed>0.250000</speed>
<extensions>
<speed>0.2</speed>
<temp>0.00</temp>
<bpm>0</bpm>
<rpm>0.00</rpm>
</extensions>
</trkpt>
<trkpt lat="30.853477478" lon="34.781425476">
<ele>497.289063</ele>
<time>2013-11-21T06:25:57Z</time>
<speed>0.300000</speed>
<extensions>
<speed>0.3</speed>
<temp>0.00</temp>
<bpm>0</bpm>
<rpm>0.00</rpm>
</extensions>
</trkpt>
<trkpt lat="30.853469849" lon="34.781436920">
<ele>497.000000</ele>
<time>2013-11-21T06:26:02Z</time>
<speed>0.160000</speed>
<extensions>
<speed>0.2</speed>
<temp>0.00</temp>
<bpm>0</bpm>
<rpm>0.00</rpm>
</extensions>
</trkpt>
<trkpt lat="30.853467941" lon="34.781425476">
<ele>496.718750</ele>
<time>2013-11-21T06:26:07Z</time>
<speed>0.170000</speed>
<extensions>
<speed>0.2</speed>
<temp>0.00</temp>
<bpm>0</bpm>
<rpm>0.00</rpm>
</extensions>
</trkpt>
<trkpt lat="30.853464127" lon="34.781425476">
<ele>496.429688</ele>
<time>2013-11-21T06:26:12Z</time>
<speed>0.040000</speed>
<extensions>
<speed>0.0</speed>
<temp>0.00</temp>
<bpm>0</bpm>
<rpm>0.00</rpm>
</extensions>
</trkpt>
<trkpt lat="30.853462219" lon="34.781429291">
<ele>496.132813</ele>
<time>2013-11-21T06:26:17Z</time>
<speed>0.090000</speed>
<extensions>
<speed>0.1</speed>
<temp>0.00</temp>
<bpm>0</bpm>
<rpm>0.00</rpm>
</extensions>
</trkpt>
<trkpt lat="30.853464127" lon="34.781436920">
<ele>495.843750</ele>
<time>2013-11-21T06:26:22Z</time>
<speed>0.170000</speed>
<extensions>
<speed>0.2</speed>
<temp>0.00</temp>
<bpm>0</bpm>
<rpm>0.00</rpm>
</extensions>
</trkpt>
<trkpt lat="30.853469849" lon="34.781444550">
<ele>495.531250</ele>
<time>2013-11-21T06:26:27Z</time>
<speed>0.220000</speed>
<extensions>
<speed>0.2</speed>
<temp>0.00</temp>
<bpm>0</bpm>
<rpm>0.00</rpm>
</extensions>
</trkpt>
<trkpt lat="30.853475571" lon="34.781452179">
<ele>495.226563</ele>
<time>2013-11-21T06:26:32Z</time>
<speed>0.100000</speed>
<extensions>
<speed>0.1</speed>
<temp>0.00</temp>
<bpm>0</bpm>
<rpm>0.00</rpm>
</extensions>
</trkpt>
<trkpt lat="30.853475571" lon="34.781455994">
<ele>494.921875</ele>
<time>2013-11-21T06:26:37Z</time>
<speed>0.060000</speed>
<extensions>
<speed>0.1</speed>
<temp>0.00</temp>
<bpm>0</bpm>
<rpm>0.00</rpm>
</extensions>
</trkpt>
<trkpt lat="30.853477478" lon="34.781459808">
<ele>494.609375</ele>
<time>2013-11-21T06:26:42Z</time>
<speed>0.030000</speed>
<extensions>
<speed>0.0</speed>
<temp>0.00</temp>
<bpm>0</bpm>
<rpm>0.00</rpm>
</extensions>
</trkpt>
<trkpt lat="30.853475571" lon="34.781459808">
<ele>494.289063</ele>
<time>2013-11-21T06:26:47Z</time>
<speed>0.080000</speed>
<extensions>
<speed>0.1</speed>
<temp>0.00</temp>
<bpm>0</bpm>
<rpm>0.00</rpm>
</extensions>
</trkpt>
<trkpt lat="30.853473663" lon="34.781467438">
<ele>493.976563</ele>
<time>2013-11-21T06:26:52Z</time>
<speed>0.150000</speed>
<extensions>
<speed>0.2</speed>
<temp>0.00</temp>
<bpm>0</bpm>
<rpm>0.00</rpm>
</extensions>
</trkpt>
<trkpt lat="30.853471756" lon="34.781471252">
<ele>493.656250</ele>
<time>2013-11-21T06:26:57Z</time>
<speed>0.130000</speed>
<extensions>
<speed>0.1</speed>
<temp>0.00</temp>
<bpm>0</bpm>
<rpm>0.00</rpm>
</extensions>
</trkpt>
<trkpt lat="30.853469849" lon="34.781482697">
<ele>493.343750</ele>
<time>2013-11-21T06:27:02Z</time>
<speed>0.190000</speed>
<extensions>
<speed>0.2</speed>
<temp>0.00</temp>
<bpm>0</bpm>
<rpm>0.00</rpm>
</extensions>
</trkpt>
<trkpt lat="30.853469849" lon="34.781486511">
<ele>493.015625</ele>
<time>2013-11-21T06:27:07Z</time>
<speed>0.090000</speed>
<extensions>
<speed>0.1</speed>
<temp>0.00</temp>
<bpm>0</bpm>
<rpm>0.00</rpm>
</extensions>
</trkpt>
<trkpt lat="30.853467941" lon="34.781490326">
<ele>492.695313</ele>
<time>2013-11-21T06:27:12Z</time>
<speed>0.100000</speed>
<extensions>
<speed>0.1</speed>
<temp>0.00</temp>
<bpm>0</bpm>
<rpm>0.00</rpm>
</extensions>
</trkpt>
<trkpt lat="30.853469849" lon="34.781497955">
<ele>492.367188</ele>
<time>2013-11-21T06:27:17Z</time>
<speed>0.090000</speed>
<extensions>
<speed>0.1</speed>
<temp>0.00</temp>
<bpm>0</bpm>
<rpm>0.00</rpm>
</extensions>
</trkpt>
<trkpt lat="30.853469849" lon="34.781497955">
<ele>492.031250</ele>
<time>2013-11-21T06:27:22Z</time>
<speed>0.070000</speed>
<extensions>
<speed>0.1</speed>
<temp>0.00</temp>
<bpm>0</bpm>
<rpm>0.00</rpm>
</extensions>
</trkpt>
<trkpt lat="30.853471756" lon="34.781490326">
<ele>491.695313</ele>
<time>2013-11-21T06:27:27Z</time>
<speed>0.190000</speed>
<extensions>
<speed>0.2</speed>
<temp>0.00</temp>
<bpm>0</bpm>
<rpm>0.00</rpm>
</extensions>
</trkpt>
<trkpt lat="30.853473663" lon="34.781486511">
<ele>491.359375</ele>
<time>2013-11-21T06:27:32Z</time>
<speed>0.330000</speed>
<extensions>
<speed>0.3</speed>
<temp>0.00</temp>
<bpm>0</bpm>
<rpm>0.00</rpm>
</extensions>
</trkpt>
<trkpt lat="30.853448868" lon="34.781475067">
<ele>491.039063</ele>
<time>2013-11-21T06:27:37Z</time>
<speed>0.250000</speed>
<extensions>
<speed>0.2</speed>
<temp>0.00</temp>
<bpm>0</bpm>
<rpm>0.00</rpm>
</extensions>
</trkpt>
<trkpt lat="30.853448868" lon="34.781463623">
<ele>490.679688</ele>
<time>2013-11-21T06:27:42Z</time>
<speed>0.230000</speed>
<extensions>
<speed>0.2</speed>
<temp>0.00</temp>
<bpm>0</bpm>
<rpm>0.00</rpm>
</extensions>
</trkpt>
<trkpt lat="30.853452682" lon="34.781455994">
<ele>490.320313</ele>
<time>2013-11-21T06:27:47Z</time>
<speed>0.230000</speed>
<extensions>
<speed>0.2</speed>
<temp>0.00</temp>
<bpm>0</bpm>
<rpm>0.00</rpm>
</extensions>
</trkpt>
<trkpt lat="30.853456497" lon="34.781406403">
<ele>489.945313</ele>
<time>2013-11-21T06:27:52Z</time>
<speed>0.600000</speed>
<extensions>
<speed>0.6</speed>
<temp>0.00</temp>
<bpm>0</bpm>
<rpm>0.00</rpm>
</extensions>
</trkpt>
<trkpt lat="30.853460312" lon="34.781352997">
<ele>489.687500</ele>
<time>2013-11-21T06:27:57Z</time>
<speed>1.200000</speed>
<extensions>
<speed>1.2</speed>
<temp>0.00</temp>
<bpm>0</bpm>
<rpm>0.00</rpm>
</extensions>
</trkpt>
<trkpt lat="30.853382111" lon="34.781368256">
<ele>489.250000</ele>
<time>2013-11-21T06:28:02Z</time>
<speed>1.140000</speed>
<extensions>
<speed>1.1</speed>
<temp>0.00</temp>
<bpm>0</bpm>
<rpm>0.00</rpm>
</extensions>
</trkpt>
<trkpt lat="30.853193283" lon="34.781379700">
<ele>488.648438</ele>
<time>2013-11-21T06:28:07Z</time>
<speed>2.350000</speed>
<extensions>
<speed>2.4</speed>
<temp>0.00</temp>
<bpm>0</bpm>
<rpm>0.00</rpm>
</extensions>
</trkpt>
<trkpt lat="30.853103638" lon="34.781455994">
<ele>488.054688</ele>
<time>2013-11-21T06:28:12Z</time>
<speed>2.950000</speed>
<extensions>
<speed>2.9</speed>
<temp>0.00</temp>
<bpm>0</bpm>
<rpm>0.00</rpm>
</extensions>
</trkpt>
<trkpt lat="30.853151321" lon="34.781566620">
<ele>487.757813</ele>
<time>2013-11-21T06:28:17Z</time>
<speed>2.630000</speed>
<extensions>
<speed>2.6</speed>
<temp>0.00</temp>
<bpm>0</bpm>
<rpm>0.00</rpm>
</extensions>
</trkpt>
<trkpt lat="30.853172302" lon="34.781696320">
<ele>487.039063</ele>
<time>2013-11-21T06:28:22Z</time>
<speed>2.390000</speed>
<extensions>
<speed>2.4</speed>
<temp>0.00</temp>
<bpm>0</bpm>
<rpm>0.00</rpm>
</extensions>
</trkpt>
<trkpt lat="30.853065491" lon="34.781761169">
<ele>485.781250</ele>
<time>2013-11-21T06:28:27Z</time>
<speed>2.310000</speed>
<extensions>
<speed>2.3</speed>
<temp>0.00</temp>
<bpm>0</bpm>
<rpm>0.00</rpm>
</extensions>
</trkpt>
<trkpt lat="30.852937698" lon="34.781822205">
<ele>484.304688</ele>
<time>2013-11-21T06:28:32Z</time>
<speed>1.650000</speed>
<extensions>
<speed>1.7</speed>
<temp>0.00</temp>
<bpm>0</bpm>
<rpm>0.00</rpm>
</extensions>
</trkpt>
<trkpt lat="30.852930069" lon="34.781833649">
<ele>482.382813</ele>
<time>2013-11-21T06:28:37Z</time>
<speed>0.340000</speed>
<extensions>
<speed>0.3</speed>
<temp>0.00</temp>
<bpm>0</bpm>
<rpm>0.00</rpm>
</extensions>
</trkpt>
<trkpt lat="30.852931976" lon="34.781848907">
<ele>480.617188</ele>
<time>2013-11-21T06:28:42Z</time>
<speed>0.220000</speed>
<extensions>
<speed>0.2</speed>
<temp>0.00</temp>
<bpm>0</bpm>
<rpm>0.00</rpm>
</extensions>
</trkpt>
<trkpt lat="30.852941513" lon="34.781867981">
<ele>479.234375</ele>
<time>2013-11-21T06:28:47Z</time>
<speed>0.430000</speed>
<extensions>
<speed>0.4</speed>
<temp>0.00</temp>
<bpm>0</bpm>
<rpm>0.00</rpm>
</extensions>
</trkpt>
<trkpt lat="30.852819443" lon="34.781860352">
<ele>477.382813</ele>
<time>2013-11-21T06:28:52Z</time>
<speed>1.950000</speed>
<extensions>
<speed>1.9</speed>
<temp>0.00</temp>
<bpm>0</bpm>
<rpm>0.00</rpm>
</extensions>
</trkpt>
<trkpt lat="30.852640152" lon="34.781879425">
<ele>475.578125</ele>
<time>2013-11-21T06:28:57Z</time>
<speed>3.430000</speed>
<extensions>
<speed>3.4</speed>
<temp>0.00</temp>
<bpm>0</bpm>
<rpm>0.00</rpm>
</extensions>
</trkpt>
<trkpt lat="30.852447510" lon="34.781944275">
<ele>473.585938</ele>
<time>2013-11-21T06:29:02Z</time>
<speed>4.370000</speed>
<extensions>
<speed>4.4</speed>
<temp>0.00</temp>
<bpm>0</bpm>
<rpm>0.00</rpm>
</extensions>
</trkpt>
<trkpt lat="30.852249146" lon="34.781993866">
<ele>471.320313</ele>
<time>2013-11-21T06:29:07Z</time>
<speed>4.100000</speed>
<extensions>
<speed>4.1</speed>
<temp>0.00</temp>
<bpm>0</bpm>
<rpm>0.00</rpm>
</extensions>
</trkpt>
<trkpt lat="30.852054596" lon="34.782020569">
<ele>469.085938</ele>
<time>2013-11-21T06:29:12Z</time>
<speed>4.620000</speed>
<extensions>
<speed>4.6</speed>
<temp>0.00</temp>
<bpm>0</bpm>
<rpm>0.00</rpm>
</extensions>
</trkpt>
<trkpt lat="30.851867676" lon="34.782054901">
<ele>467.289063</ele>
<time>2013-11-21T06:29:17Z</time>
<speed>3.730000</speed>
<extensions>
<speed>3.7</speed>
<temp>0.00</temp>
<bpm>0</bpm>
<rpm>0.00</rpm>
</extensions>
</trkpt>
<trkpt lat="30.851701736" lon="34.782115936">
<ele>465.718750</ele>
<time>2013-11-21T06:29:22Z</time>
<speed>1.940000</speed>
<extensions>
<speed>1.9</speed>
<temp>0.00</temp>
<bpm>0</bpm>
<rpm>0.00</rpm>
</extensions>
</trkpt>
<trkpt lat="30.851579666" lon="34.782207489">
<ele>463.656250</ele>
<time>2013-11-21T06:29:27Z</time>
<speed>3.380000</speed>
<extensions>
<speed>3.4</speed>
<temp>0.00</temp>
<bpm>0</bpm>
<rpm>0.00</rpm>
</extensions>
</trkpt>
<trkpt lat="30.851421356" lon="34.782226563">
<ele>461.710938</ele>
<time>2013-11-21T06:29:32Z</time>
<speed>2.910000</speed>
<extensions>
<speed>2.9</speed>
<temp>0.00</temp>
<bpm>0</bpm>
<rpm>0.00</rpm>
</extensions>
</trkpt>
<trkpt lat="30.851301193" lon="34.782260895">
<ele>459.671875</ele>
<time>2013-11-21T06:29:37Z</time>
<speed>2.110000</speed>
<extensions>
<speed>2.1</speed>
<temp>0.00</temp>
<bpm>0</bpm>
<rpm>0.00</rpm>
</extensions>
</trkpt>
<trkpt lat="30.851173401" lon="34.782375336">
<ele>458.242188</ele>
<time>2013-11-21T06:29:42Z</time>
<speed>1.940000</speed>
<extensions>
<speed>1.9</speed>
<temp>0.00</temp>
<bpm>0</bpm>
<rpm>0.00</rpm>
</extensions>
</trkpt>
<trkpt lat="30.851127625" lon="34.782409668">
<ele>457.265625</ele>
<time>2013-11-21T06:29:47Z</time>
<speed>0.810000</speed>
<extensions>
<speed>0.8</speed>
<temp>0.00</temp>
<bpm>0</bpm>
<rpm>0.00</rpm>
</extensions>
</trkpt>
<trkpt lat="30.851036072" lon="34.782424927">
<ele>456.156250</ele>
<time>2013-11-21T06:29:52Z</time>
<speed>2.680000</speed>
<extensions>
<speed>2.7</speed>
<temp>0.00</temp>
<bpm>0</bpm>
<rpm>0.00</rpm>
</extensions>
</trkpt>
<trkpt lat="30.850883484" lon="34.782440186">
<ele>454.921875</ele>
<time>2013-11-21T06:29:57Z</time>
<speed>3.760000</speed>
<extensions>
<speed>3.8</speed>
<temp>0.00</temp>
<bpm>0</bpm>
<rpm>0.00</rpm>
</extensions>
</trkpt>
<trkpt lat="30.850721359" lon="34.782451630">
<ele>453.851563</ele>
<time>2013-11-21T06:30:02Z</time>
<speed>3.710000</speed>
<extensions>
<speed>3.7</speed>
<temp>0.00</temp>
<bpm>0</bpm>
<rpm>0.00</rpm>
</extensions>
</trkpt>
<trkpt lat="30.850564957" lon="34.782482147">
<ele>452.828125</ele>
<time>2013-11-21T06:30:07Z</time>
<speed>2.630000</speed>
<extensions>
<speed>2.6</speed>
<temp>0.00</temp>
<bpm>0</bpm>
<rpm>0.00</rpm>
</extensions>
</trkpt>
<trkpt lat="30.850477219" lon="34.782546997">
<ele>450.757813</ele>
<time>2013-11-21T06:30:12Z</time>
<speed>1.390000</speed>
<extensions>
<speed>1.4</speed>
<temp>0.00</temp>
<bpm>0</bpm>
<rpm>0.00</rpm>
</extensions>
</trkpt>
<trkpt lat="30.850482941" lon="34.782546997">
<ele>450.796875</ele>
<time>2013-11-21T06:30:17Z</time>
<speed>0.880000</speed>
<extensions>
<speed>0.9</speed>
<temp>0.00</temp>
<bpm>0</bpm>
<rpm>0.00</rpm>
</extensions>
</trkpt>
<trkpt lat="30.850519180" lon="34.782581329">
<ele>450.210938</ele>
<time>2013-11-21T06:30:22Z</time>
<speed>1.060000</speed>
<extensions>
<speed>1.1</speed>
<temp>0.00</temp>
<bpm>0</bpm>
<rpm>0.00</rpm>
</extensions>
</trkpt>
<trkpt lat="30.850612640" lon="34.782588959">
<ele>449.906250</ele>
<time>2013-11-21T06:30:27Z</time>
<speed>2.010000</speed>
<extensions>
<speed>2.0</speed>
<temp>0.00</temp>
<bpm>0</bpm>
<rpm>0.00</rpm>
</extensions>
</trkpt>
<trkpt lat="30.850751877" lon="34.782562256">
<ele>449.406250</ele>
<time>2013-11-21T06:30:32Z</time>
<speed>2.010000</speed>
<extensions>
<speed>2.0</speed>
<temp>0.00</temp>
<bpm>0</bpm>
<rpm>0.00</rpm>
</extensions>
</trkpt>
<trkpt lat="30.850841522" lon="34.782535553">
<ele>448.507813</ele>
<time>2013-11-21T06:30:37Z</time>
<speed>1.210000</speed>
<extensions>
<speed>1.2</speed>
<temp>0.00</temp>
<bpm>0</bpm>
<rpm>0.00</rpm>
</extensions>
</trkpt>
<trkpt lat="30.850929260" lon="34.782535553">
<ele>447.773438</ele>
<time>2013-11-21T06:30:42Z</time>
<speed>0.850000</speed>
<extensions>
<speed>0.8</speed>
<temp>0.00</temp>
<bpm>0</bpm>
<rpm>0.00</rpm>
</extensions>
</trkpt>
<trkpt lat="30.851005554" lon="34.782569885">
<ele>446.554688</ele>
<time>2013-11-21T06:30:47Z</time>
<speed>0.500000</speed>
<extensions>
<speed>0.5</speed>
<temp>0.00</temp>
<bpm>0</bpm>
<rpm>0.00</rpm>
</extensions>
</trkpt>
<trkpt lat="30.851015091" lon="34.782611847">
<ele>445.710938</ele>
<time>2013-11-21T06:30:52Z</time>
<speed>0.970000</speed>
<extensions>
<speed>1.0</speed>
<temp>0.00</temp>
<bpm>0</bpm>
<rpm>0.00</rpm>
</extensions>
</trkpt>
<trkpt lat="30.851066589" lon="34.782585144">
<ele>445.523438</ele>
<time>2013-11-21T06:30:57Z</time>
<speed>0.760000</speed>
<extensions>
<speed>0.8</speed>
<temp>0.00</temp>
<bpm>0</bpm>
<rpm>0.00</rpm>
</extensions>
</trkpt>
<trkpt lat="30.851099014" lon="34.782604218">
<ele>444.867188</ele>
<time>2013-11-21T06:31:02Z</time>
<speed>0.870000</speed>
<extensions>
<speed>0.9</speed>
<temp>0.00</temp>
<bpm>0</bpm>
<rpm>0.00</rpm>
</extensions>
</trkpt>
<trkpt lat="30.851270676" lon="34.782539368">
<ele>443.968750</ele>
<time>2013-11-21T06:31:07Z</time>
<speed>4.040000</speed>
<extensions>
<speed>4.0</speed>
<temp>0.00</temp>
<bpm>0</bpm>
<rpm>0.00</rpm>
</extensions>
</trkpt>
<trkpt lat="30.851501465" lon="34.782485962">
<ele>442.250000</ele>
<time>2013-11-21T06:31:12Z</time>
<speed>4.130000</speed>
<extensions>
<speed>4.1</speed>
<temp>0.00</temp>
<bpm>0</bpm>
<rpm>0.00</rpm>
</extensions>
</trkpt>
<trkpt lat="30.851745605" lon="34.782455444">
<ele>440.625000</ele>
<time>2013-11-21T06:31:17Z</time>
<speed>3.460000</speed>
<extensions>
<speed>3.5</speed>
<temp>0.00</temp>
<bpm>0</bpm>
<rpm>0.00</rpm>
</extensions>
</trkpt>
<trkpt lat="30.851814270" lon="34.782466888">
<ele>441.039063</ele>
<time>2013-11-21T06:31:22Z</time>
<speed>0.800000</speed>
<extensions>
<speed>0.8</speed>
<temp>0.00</temp>
<bpm>0</bpm>
<rpm>0.00</rpm>
</extensions>
</trkpt>
<trkpt lat="30.851921082" lon="34.782444000">
<ele>442.476563</ele>
<time>2013-11-21T06:31:27Z</time>
<speed>2.670000</speed>
<extensions>
<speed>2.7</speed>
<temp>0.00</temp>
<bpm>0</bpm>
<rpm>0.00</rpm>
</extensions>
</trkpt>
<trkpt lat="30.852014542" lon="34.782436371">
<ele>445.687500</ele>
<time>2013-11-21T06:31:32Z</time>
<speed>1.420000</speed>
<extensions>
<speed>1.4</speed>
<temp>0.00</temp>
<bpm>0</bpm>
<rpm>0.00</rpm>
</extensions>
</trkpt>
<trkpt lat="30.852058411" lon="34.782489777">
<ele>452.062500</ele>
<time>2013-11-21T06:31:37Z</time>
<speed>0.630000</speed>
<extensions>
<speed>0.6</speed>
<temp>0.00</temp>
<bpm>0</bpm>
<rpm>0.00</rpm>
</extensions>
</trkpt>
<trkpt lat="30.852113724" lon="34.782497406">
<ele>454.039063</ele>
<time>2013-11-21T06:31:42Z</time>
<speed>1.360000</speed>
<extensions>
<speed>1.4</speed>
<temp>0.00</temp>
<bpm>0</bpm>
<rpm>0.00</rpm>
</extensions>
</trkpt>
<trkpt lat="30.852228165" lon="34.782428741">
<ele>455.898438</ele>
<time>2013-11-21T06:31:47Z</time>
<speed>2.790000</speed>
<extensions>
<speed>2.8</speed>
<temp>0.00</temp>
<bpm>0</bpm>
<rpm>0.00</rpm>
</extensions>
</trkpt>
<trkpt lat="30.852598190" lon="34.782283783">
<ele>458.750000</ele>
<time>2013-11-21T06:31:52Z</time>
<speed>2.010000</speed>
<extensions>
<speed>2.0</speed>
<temp>0.00</temp>
<bpm>0</bpm>
<rpm>0.00</rpm>
</extensions>
</trkpt>
<trkpt lat="30.852680206" lon="34.782295227">
<ele>460.804688</ele>
<time>2013-11-21T06:31:57Z</time>
<speed>1.340000</speed>
<extensions>
<speed>1.3</speed>
<temp>0.00</temp>
<bpm>0</bpm>
<rpm>0.00</rpm>
</extensions>
</trkpt>
<trkpt lat="30.852695465" lon="34.782379150">
<ele>461.546875</ele>
<time>2013-11-21T06:32:02Z</time>
<speed>0.750000</speed>
<extensions>
<speed>0.8</speed>
<temp>0.00</temp>
<bpm>0</bpm>
<rpm>0.00</rpm>
</extensions>
</trkpt>
<trkpt lat="30.852750778" lon="34.782272339">
<ele>459.968750</ele>
<time>2013-11-21T06:32:07Z</time>
<speed>0.890000</speed>
<extensions>
<speed>0.9</speed>
<temp>0.00</temp>
<bpm>0</bpm>
<rpm>0.00</rpm>
</extensions>
</trkpt>
<trkpt lat="30.852771759" lon="34.782207489">
<ele>458.718750</ele>
<time>2013-11-21T06:32:12Z</time>
<speed>0.710000</speed>
<extensions>
<speed>0.7</speed>
<temp>0.00</temp>
<bpm>0</bpm>
<rpm>0.00</rpm>
</extensions>
</trkpt>
<trkpt lat="30.852779388" lon="34.782154083">
<ele>457.539063</ele>
<time>2013-11-21T06:32:17Z</time>
<speed>1.040000</speed>
<extensions>
<speed>1.0</speed>
<temp>0.00</temp>
<bpm>0</bpm>
<rpm>0.00</rpm>
</extensions>
</trkpt>
<trkpt lat="30.852714539" lon="34.782100677">
<ele>457.632813</ele>
<time>2013-11-21T06:32:22Z</time>
<speed>1.150000</speed>
<extensions>
<speed>1.1</speed>
<temp>0.00</temp>
<bpm>0</bpm>
<rpm>0.00</rpm>
</extensions>
</trkpt>
<trkpt lat="30.852710724" lon="34.782096863">
<ele>457.359375</ele>
<time>2013-11-21T06:32:27Z</time>
<speed>0.100000</speed>
<extensions>
<speed>0.1</speed>
<temp>0.00</temp>
<bpm>0</bpm>
<rpm>0.00</rpm>
</extensions>
</trkpt>
<trkpt lat="30.852722168" lon="34.782108307">
<ele>457.015625</ele>
<time>2013-11-21T06:32:32Z</time>
<speed>0.160000</speed>
<extensions>
<speed>0.2</speed>
<temp>0.00</temp>
<bpm>0</bpm>
<rpm>0.00</rpm>
</extensions>
</trkpt>
<trkpt lat="30.852731705" lon="34.782127380">
<ele>457.250000</ele>
<time>2013-11-21T06:32:37Z</time>
<speed>0.140000</speed>
<extensions>
<speed>0.1</speed>
<temp>0.00</temp>
<bpm>0</bpm>
<rpm>0.00</rpm>
</extensions>
</trkpt>
<trkpt lat="30.852743149" lon="34.782123566">
<ele>457.195313</ele>
<time>2013-11-21T06:32:42Z</time>
<speed>0.070000</speed>
<extensions>
<speed>0.1</speed>
<temp>0.00</temp>
<bpm>0</bpm>
<rpm>0.00</rpm>
</extensions>
</trkpt>
<trkpt lat="30.852781296" lon="34.782135010">
<ele>457.460938</ele>
<time>2013-11-21T06:32:47Z</time>
<speed>0.960000</speed>
<extensions>
<speed>1.0</speed>
<temp>0.00</temp>
<bpm>0</bpm>
<rpm>0.00</rpm>
</extensions>
</trkpt>
<trkpt lat="30.852790833" lon="34.782100677">
<ele>457.414063</ele>
<time>2013-11-21T06:32:52Z</time>
<speed>3.320000</speed>
<extensions>
<speed>3.3</speed>
<temp>0.00</temp>
<bpm>0</bpm>
<rpm>0.00</rpm>
</extensions>
</trkpt>
<trkpt lat="30.852857590" lon="34.782024384">
<ele>456.437500</ele>
<time>2013-11-21T06:32:57Z</time>
<speed>5.040000</speed>
<extensions>
<speed>5.0</speed>
<temp>0.00</temp>
<bpm>0</bpm>
<rpm>0.00</rpm>
</extensions>
</trkpt>
<trkpt lat="30.852731705" lon="34.782012939">
<ele>456.226563</ele>
<time>2013-11-21T06:33:02Z</time>
<speed>4.860000</speed>
<extensions>
<speed>4.9</speed>
<temp>0.00</temp>
<bpm>0</bpm>
<rpm>0.00</rpm>
</extensions>
</trkpt>
<trkpt lat="30.852632523" lon="34.781997681">
<ele>455.593750</ele>
<time>2013-11-21T06:33:07Z</time>
<speed>4.290000</speed>
<extensions>
<speed>4.3</speed>
<temp>0.00</temp>
<bpm>0</bpm>
<rpm>0.00</rpm>
</extensions>
</trkpt>
<trkpt lat="30.852571487" lon="34.781993866">
<ele>455.617188</ele>
<time>2013-11-21T06:33:12Z</time>
<speed>3.020000</speed>
<extensions>
<speed>3.0</speed>
<temp>0.00</temp>
<bpm>0</bpm>
<rpm>0.00</rpm>
</extensions>
</trkpt>
<trkpt lat="30.852479935" lon="34.782020569">
<ele>455.617188</ele>
<time>2013-11-21T06:33:17Z</time>
<speed>3.060000</speed>
<extensions>
<speed>3.1</speed>
<temp>0.00</temp>
<bpm>0</bpm>
<rpm>0.00</rpm>
</extensions>
</trkpt>
<trkpt lat="30.852468491" lon="34.781967163">
<ele>457.703125</ele>
<time>2013-11-21T06:33:22Z</time>
<speed>4.280000</speed>
<extensions>
<speed>4.3</speed>
<temp>0.00</temp>
<bpm>0</bpm>
<rpm>0.00</rpm>
</extensions>
</trkpt>
<trkpt lat="30.852302551" lon="34.781997681">
<ele>458.585938</ele>
<time>2013-11-21T06:33:27Z</time>
<speed>4.590000</speed>
<extensions>
<speed>4.6</speed>
<temp>0.00</temp>
<bpm>0</bpm>
<rpm>0.00</rpm>
</extensions>
</trkpt>
<trkpt lat="30.852096558" lon="34.782051086">
<ele>458.726563</ele>
<time>2013-11-21T06:33:32Z</time>
<speed>5.060000</speed>
<extensions>
<speed>5.1</speed>
<temp>0.00</temp>
<bpm>0</bpm>
<rpm>0.00</rpm>
</extensions>
</trkpt>
<trkpt lat="30.851833344" lon="34.782119751">
<ele>458.531250</ele>
<time>2013-11-21T06:33:37Z</time>
<speed>5.400000</speed>
<extensions>
<speed>5.4</speed>
<temp>0.00</temp>
<bpm>0</bpm>
<rpm>0.00</rpm>
</extensions>
</trkpt>
<trkpt lat="30.851572037" lon="34.782203674">
<ele>458.375000</ele>
<time>2013-11-21T06:33:42Z</time>
<speed>5.210000</speed>
<extensions>
<speed>5.2</speed>
<temp>0.00</temp>
<bpm>0</bpm>
<rpm>0.00</rpm>
</extensions>
</trkpt>
<trkpt lat="30.851346970" lon="34.782268524">
<ele>458.515625</ele>
<time>2013-11-21T06:33:47Z</time>
<speed>4.880000</speed>
<extensions>
<speed>4.9</speed>
<temp>0.00</temp>
<bpm>0</bpm>
<rpm>0.00</rpm>
</extensions>
</trkpt>
<trkpt lat="30.851139069" lon="34.782318115">
<ele>459.156250</ele>
<time>2013-11-21T06:33:52Z</time>
<speed>4.060000</speed>
<extensions>
<speed>4.1</speed>
<temp>0.00</temp>
<bpm>0</bpm>
<rpm>0.00</rpm>
</extensions>
</trkpt>
<trkpt lat="30.850942612" lon="34.782356262">
<ele>459.484375</ele>
<time>2013-11-21T06:33:57Z</time>
<speed>3.900000</speed>
<extensions>
<speed>3.9</speed>
<temp>0.00</temp>
<bpm>0</bpm>
<rpm>0.00</rpm>
</extensions>
</trkpt>
<trkpt lat="30.850742340" lon="34.782386780">
<ele>459.953125</ele>
<time>2013-11-21T06:34:02Z</time>
<speed>3.940000</speed>
<extensions>
<speed>3.9</speed>
<temp>0.00</temp>
<bpm>0</bpm>
<rpm>0.00</rpm>
</extensions>
</trkpt>
<trkpt lat="30.850509644" lon="34.782417297">
<ele>460.453125</ele>
<time>2013-11-21T06:34:07Z</time>
<speed>5.060000</speed>
<extensions>
<speed>5.1</speed>
<temp>0.00</temp>
<bpm>0</bpm>
<rpm>0.00</rpm>
</extensions>
</trkpt>
<trkpt lat="30.850265503" lon="34.782505035">
<ele>460.953125</ele>
<time>2013-11-21T06:34:12Z</time>
<speed>4.570000</speed>
<extensions>
<speed>4.6</speed>
<temp>0.00</temp>
<bpm>0</bpm>
<rpm>0.00</rpm>
</extensions>
</trkpt>
<trkpt lat="30.850028992" lon="34.782554626">
<ele>460.906250</ele>
<time>2013-11-21T06:34:17Z</time>
<speed>4.790000</speed>
<extensions>
<speed>4.8</speed>
<temp>0.00</temp>
<bpm>0</bpm>
<rpm>0.00</rpm>
</extensions>
</trkpt>
<trkpt lat="30.849893570" lon="34.782588959">
<ele>460.539063</ele>
<time>2013-11-21T06:34:22Z</time>
<speed>3.020000</speed>
<extensions>
<speed>3.0</speed>
<temp>0.00</temp>
<bpm>0</bpm>
<rpm>0.00</rpm>
</extensions>
</trkpt>
<trkpt lat="30.849714279" lon="34.782634735">
<ele>460.031250</ele>
<time>2013-11-21T06:34:27Z</time>
<speed>3.990000</speed>
<extensions>
<speed>4.0</speed>
<temp>0.00</temp>
<bpm>0</bpm>
<rpm>0.00</rpm>
</extensions>
</trkpt>
<trkpt lat="30.849512100" lon="34.782630920">
<ele>459.625000</ele>
<time>2013-11-21T06:34:32Z</time>
<speed>4.540000</speed>
<extensions>
<speed>4.5</speed>
<temp>0.00</temp>
<bpm>0</bpm>
<rpm>0.00</rpm>
</extensions>
</trkpt>
<trkpt lat="30.849361420" lon="34.782573700">
<ele>459.742188</ele>
<time>2013-11-21T06:34:37Z</time>
<speed>2.750000</speed>
<extensions>
<speed>2.7</speed>
<temp>0.00</temp>
<bpm>0</bpm>
<rpm>0.00</rpm>
</extensions>
</trkpt>
<trkpt lat="30.849369049" lon="34.782455444">
<ele>459.984375</ele>
<time>2013-11-21T06:34:42Z</time>
<speed>2.410000</speed>
<extensions>
<speed>2.4</speed>
<temp>0.00</temp>
<bpm>0</bpm>
<rpm>0.00</rpm>
</extensions>
</trkpt>
<trkpt lat="30.849327087" lon="34.782398224">
<ele>460.226563</ele>
<time>2013-11-21T06:34:47Z</time>
<speed>0.720000</speed>
<extensions>
<speed>0.7</speed>
<temp>0.00</temp>
<bpm>0</bpm>
<rpm>0.00</rpm>
</extensions>
</trkpt>
<trkpt lat="30.849302292" lon="34.782382965">
<ele>462.203125</ele>
<time>2013-11-21T06:34:52Z</time>
<speed>0.440000</speed>
<extensions>
<speed>0.4</speed>
<temp>0.00</temp>
<bpm>0</bpm>
<rpm>0.00</rpm>
</extensions>
</trkpt>
<trkpt lat="30.849296570" lon="34.782337189">
<ele>462.359375</ele>
<time>2013-11-21T06:34:57Z</time>
<speed>1.470000</speed>
<extensions>
<speed>1.5</speed>
<temp>0.00</temp>
<bpm>0</bpm>
<rpm>0.00</rpm>
</extensions>
</trkpt>
<trkpt lat="30.849319458" lon="34.782230377">
<ele>461.570313</ele>
<time>2013-11-21T06:35:02Z</time>
<speed>0.640000</speed>
<extensions>
<speed>0.6</speed>
<temp>0.00</temp>
<bpm>0</bpm>
<rpm>0.00</rpm>
</extensions>
</trkpt>
<trkpt lat="30.849306107" lon="34.782211304">
<ele>461.914063</ele>
<time>2013-11-21T06:35:07Z</time>
<speed>0.050000</speed>
<extensions>
<speed>0.1</speed>
<temp>0.00</temp>
<bpm>0</bpm>
<rpm>0.00</rpm>
</extensions>
</trkpt>
<trkpt lat="30.849288940" lon="34.782192230">
<ele>462.351563</ele>
<time>2013-11-21T06:35:12Z</time>
<speed>0.110000</speed>
<extensions>
<speed>0.1</speed>
<temp>0.00</temp>
<bpm>0</bpm>
<rpm>0.00</rpm>
</extensions>
</trkpt>
<trkpt lat="30.849298477" lon="34.782180786">
<ele>462.359375</ele>
<time>2013-11-21T06:35:17Z</time>
<speed>0.470000</speed>
<extensions>
<speed>0.5</speed>
<temp>0.00</temp>
<bpm>0</bpm>
<rpm>0.00</rpm>
</extensions>
</trkpt>
<trkpt lat="30.849239349" lon="34.782146454">
<ele>462.953125</ele>
<time>2013-11-21T06:35:22Z</time>
<speed>1.180000</speed>
<extensions>
<speed>1.2</speed>
<temp>0.00</temp>
<bpm>0</bpm>
<rpm>0.00</rpm>
</extensions>
</trkpt>
<trkpt lat="30.849102020" lon="34.782135010">
<ele>463.195313</ele>
<time>2013-11-21T06:35:27Z</time>
<speed>0.220000</speed>
<extensions>
<speed>0.2</speed>
<temp>0.00</temp>
<bpm>0</bpm>
<rpm>0.00</rpm>
</extensions>
</trkpt>
<trkpt lat="30.849042892" lon="34.782146454">
<ele>463.375000</ele>
<time>2013-11-21T06:35:32Z</time>
<speed>1.250000</speed>
<extensions>
<speed>1.3</speed>
<temp>0.00</temp>
<bpm>0</bpm>
<rpm>0.00</rpm>
</extensions>
</trkpt>
<trkpt lat="30.848981857" lon="34.782127380">
<ele>463.320313</ele>
<time>2013-11-21T06:35:37Z</time>
<speed>1.880000</speed>
<extensions>
<speed>1.9</speed>
<temp>0.00</temp>
<bpm>0</bpm>
<rpm>0.00</rpm>
</extensions>
</trkpt>
<trkpt lat="30.848972321" lon="34.782028198">
<ele>463.460938</ele>
<time>2013-11-21T06:35:42Z</time>
<speed>0.670000</speed>
<extensions>
<speed>0.7</speed>
<temp>0.00</temp>
<bpm>0</bpm>
<rpm>0.00</rpm>
</extensions>
</trkpt>
<trkpt lat="30.848972321" lon="34.782020569">
<ele>464.687500</ele>
<time>2013-11-21T06:35:47Z</time>
<speed>1.290000</speed>
<extensions>
<speed>1.3</speed>
<temp>0.00</temp>
<bpm>0</bpm>
<rpm>0.00</rpm>
</extensions>
</trkpt>
<trkpt lat="30.849008560" lon="34.781970978">
<ele>465.296875</ele>
<time>2013-11-21T06:35:52Z</time>
<speed>2.600000</speed>
<extensions>
<speed>2.6</speed>
<temp>0.00</temp>
<bpm>0</bpm>
<rpm>0.00</rpm>
</extensions>
</trkpt>
<trkpt lat="30.849100113" lon="34.781814575">
<ele>465.640625</ele>
<time>2013-11-21T06:35:57Z</time>
<speed>2.610000</speed>
<extensions>
<speed>2.6</speed>
<temp>0.00</temp>
<bpm>0</bpm>
<rpm>0.00</rpm>
</extensions>
</trkpt>
<trkpt lat="30.849227905" lon="34.781612396">
<ele>465.484375</ele>
<time>2013-11-21T06:36:02Z</time>
<speed>3.840000</speed>
<extensions>
<speed>3.8</speed>
<temp>0.00</temp>
<bpm>0</bpm>
<rpm>0.00</rpm>
</extensions>
</trkpt>
<trkpt lat="30.849313736" lon="34.781364441">
<ele>464.640625</ele>
<time>2013-11-21T06:36:07Z</time>
<speed>4.420000</speed>
<extensions>
<speed>4.4</speed>
<temp>0.00</temp>
<bpm>0</bpm>
<rpm>0.00</rpm>
</extensions>
</trkpt>
<trkpt lat="30.849336624" lon="34.781154633">
<ele>463.984375</ele>
<time>2013-11-21T06:36:12Z</time>
<speed>3.970000</speed>
<extensions>
<speed>4.0</speed>
<temp>0.00</temp>
<bpm>0</bpm>
<rpm>0.00</rpm>
</extensions>
</trkpt>
<trkpt lat="30.849367142" lon="34.781002045">
<ele>463.593750</ele>
<time>2013-11-21T06:36:17Z</time>
<speed>1.510000</speed>
<extensions>
<speed>1.5</speed>
<temp>0.00</temp>
<bpm>0</bpm>
<rpm>0.00</rpm>
</extensions>
</trkpt>
<trkpt lat="30.849323273" lon="34.780952454">
<ele>464.015625</ele>
<time>2013-11-21T06:36:22Z</time>
<speed>0.720000</speed>
<extensions>
<speed>0.7</speed>
<temp>0.00</temp>
<bpm>0</bpm>
<rpm>0.00</rpm>
</extensions>
</trkpt>
<trkpt lat="30.849315643" lon="34.780963898">
<ele>464.007813</ele>
<time>2013-11-21T06:36:27Z</time>
<speed>0.100000</speed>
<extensions>
<speed>0.1</speed>
<temp>0.00</temp>
<bpm>0</bpm>
<rpm>0.00</rpm>
</extensions>
</trkpt>
<trkpt lat="30.849323273" lon="34.780971527">
<ele>463.976563</ele>
<time>2013-11-21T06:36:32Z</time>
<speed>0.210000</speed>
<extensions>
<speed>0.2</speed>
<temp>0.00</temp>
<bpm>0</bpm>
<rpm>0.00</rpm>
</extensions>
</trkpt>
<trkpt lat="30.849334717" lon="34.780971527">
<ele>463.984375</ele>
<time>2013-11-21T06:36:37Z</time>
<speed>0.540000</speed>
<extensions>
<speed>0.5</speed>
<temp>0.00</temp>
<bpm>0</bpm>
<rpm>0.00</rpm>
</extensions>
</trkpt>
<trkpt lat="30.849357605" lon="34.780929565">
<ele>464.054688</ele>
<time>2013-11-21T06:36:42Z</time>
<speed>1.170000</speed>
<extensions>
<speed>1.2</speed>
<temp>0.00</temp>
<bpm>0</bpm>
<rpm>0.00</rpm>
</extensions>
</trkpt>
<trkpt lat="30.849386215" lon="34.780769348">
<ele>463.429688</ele>
<time>2013-11-21T06:36:47Z</time>
<speed>2.550000</speed>
<extensions>
<speed>2.6</speed>
<temp>0.00</temp>
<bpm>0</bpm>
<rpm>0.00</rpm>
</extensions>
</trkpt>
<trkpt lat="30.849439621" lon="34.780609131">
<ele>463.351563</ele>
<time>2013-11-21T06:36:52Z</time>
<speed>2.440000</speed>
<extensions>
<speed>2.4</speed>
<temp>0.00</temp>
<bpm>0</bpm>
<rpm>0.00</rpm>
</extensions>
</trkpt>
<trkpt lat="30.849527359" lon="34.780513763">
<ele>463.523438</ele>
<time>2013-11-21T06:36:57Z</time>
<speed>2.280000</speed>
<extensions>
<speed>2.3</speed>
<temp>0.00</temp>
<bpm>0</bpm>
<rpm>0.00</rpm>
</extensions>
</trkpt>
<trkpt lat="30.849575043" lon="34.780464172">
<ele>463.890625</ele>
<time>2013-11-21T06:37:02Z</time>
<speed>0.460000</speed>
<extensions>
<speed>0.5</speed>
<temp>0.00</temp>
<bpm>0</bpm>
<rpm>0.00</rpm>
</extensions>
</trkpt>
<trkpt lat="30.849634171" lon="34.780395508">
<ele>463.523438</ele>
<time>2013-11-21T06:37:07Z</time>
<speed>1.370000</speed>
<extensions>
<speed>1.4</speed>
<temp>0.00</temp>
<bpm>0</bpm>
<rpm>0.00</rpm>
</extensions>
</trkpt>
<trkpt lat="30.849714279" lon="34.780357361">
<ele>463.468750</ele>
<time>2013-11-21T06:37:12Z</time>
<speed>1.120000</speed>
<extensions>
<speed>1.1</speed>
<temp>0.00</temp>
<bpm>0</bpm>
<rpm>0.00</rpm>
</extensions>
</trkpt>
<trkpt lat="30.849786758" lon="34.780292511">
<ele>463.906250</ele>
<time>2013-11-21T06:37:17Z</time>
<speed>1.320000</speed>
<extensions>
<speed>1.3</speed>
<temp>0.00</temp>
<bpm>0</bpm>
<rpm>0.00</rpm>
</extensions>
</trkpt>
<trkpt lat="30.849897385" lon="34.780097961">
<ele>464.171875</ele>
<time>2013-11-21T06:37:22Z</time>
<speed>2.530000</speed>
<extensions>
<speed>2.5</speed>
<temp>0.00</temp>
<bpm>0</bpm>
<rpm>0.00</rpm>
</extensions>
</trkpt>
<trkpt lat="30.849977493" lon="34.779968262">
<ele>464.226563</ele>
<time>2013-11-21T06:37:27Z</time>
<speed>2.930000</speed>
<extensions>
<speed>2.9</speed>
<temp>0.00</temp>
<bpm>0</bpm>
<rpm>0.00</rpm>
</extensions>
</trkpt>
<trkpt lat="30.849954605" lon="34.779811859">
<ele>463.468750</ele>
<time>2013-11-21T06:37:32Z</time>
<speed>0.750000</speed>
<extensions>
<speed>0.8</speed>
<temp>0.00</temp>
<bpm>0</bpm>
<rpm>0.00</rpm>
</extensions>
</trkpt>
<trkpt lat="30.849967957" lon="34.779754639">
<ele>461.429688</ele>
<time>2013-11-21T06:37:37Z</time>
<speed>0.140000</speed>
<extensions>
<speed>0.1</speed>
<temp>0.00</temp>
<bpm>0</bpm>
<rpm>0.00</rpm>
</extensions>
</trkpt>
<trkpt lat="30.849967957" lon="34.779735565">
<ele>460.585938</ele>
<time>2013-11-21T06:37:42Z</time>
<speed>0.050000</speed>
<extensions>
<speed>0.1</speed>
<temp>0.00</temp>
<bpm>0</bpm>
<rpm>0.00</rpm>
</extensions>
</trkpt>
<trkpt lat="30.849941254" lon="34.779647827">
<ele>460.835938</ele>
<time>2013-11-21T06:37:47Z</time>
<speed>0.990000</speed>
<extensions>
<speed>1.0</speed>
<temp>0.00</temp>
<bpm>0</bpm>
<rpm>0.00</rpm>
</extensions>
</trkpt>
<trkpt lat="30.849925995" lon="34.779560089">
<ele>461.382813</ele>
<time>2013-11-21T06:37:52Z</time>
<speed>1.370000</speed>
<extensions>
<speed>1.4</speed>
<temp>0.00</temp>
<bpm>0</bpm>
<rpm>0.00</rpm>
</extensions>
</trkpt>
<trkpt lat="30.849922180" lon="34.779453278">
<ele>461.414063</ele>
<time>2013-11-21T06:37:57Z</time>
<speed>1.340000</speed>
<extensions>
<speed>1.3</speed>
<temp>0.00</temp>
<bpm>0</bpm>
<rpm>0.00</rpm>
</extensions>
</trkpt>
<trkpt lat="30.849973679" lon="34.779411316">
<ele>461.109375</ele>
<time>2013-11-21T06:38:02Z</time>
<speed>0.500000</speed>
<extensions>
<speed>0.5</speed>
<temp>0.00</temp>
<bpm>0</bpm>
<rpm>0.00</rpm>
</extensions>
</trkpt>
<trkpt lat="30.850002289" lon="34.779392242">
<ele>460.695313</ele>
<time>2013-11-21T06:38:07Z</time>
<speed>0.100000</speed>
<extensions>
<speed>0.1</speed>
<temp>0.00</temp>
<bpm>0</bpm>
<rpm>0.00</rpm>
</extensions>
</trkpt>
<trkpt lat="30.850006104" lon="34.779335022">
<ele>461.554688</ele>
<time>2013-11-21T06:38:12Z</time>
<speed>0.850000</speed>
<extensions>
<speed>0.8</speed>
<temp>0.00</temp>
<bpm>0</bpm>
<rpm>0.00</rpm>
</extensions>
</trkpt>
<trkpt lat="30.850053787" lon="34.779209137">
<ele>461.601563</ele>
<time>2013-11-21T06:38:17Z</time>
<speed>2.390000</speed>
<extensions>
<speed>2.4</speed>
<temp>0.00</temp>
<bpm>0</bpm>
<rpm>0.00</rpm>
</extensions>
</trkpt>
<trkpt lat="30.850072861" lon="34.779045105">
<ele>462.117188</ele>
<time>2013-11-21T06:38:22Z</time>
<speed>3.240000</speed>
<extensions>
<speed>3.2</speed>
<temp>0.00</temp>
<bpm>0</bpm>
<rpm>0.00</rpm>
</extensions>
</trkpt>
<trkpt lat="30.849946976" lon="34.779003143">
<ele>462.554688</ele>
<time>2013-11-21T06:38:27Z</time>
<speed>1.010000</speed>
<extensions>
<speed>1.0</speed>
<temp>0.00</temp>
<bpm>0</bpm>
<rpm>0.00</rpm>
</extensions>
</trkpt>
<trkpt lat="30.849920273" lon="34.778953552">
<ele>462.710938</ele>
<time>2013-11-21T06:38:32Z</time>
<speed>0.640000</speed>
<extensions>
<speed>0.6</speed>
<temp>0.00</temp>
<bpm>0</bpm>
<rpm>0.00</rpm>
</extensions>
</trkpt>
<trkpt lat="30.849851608" lon="34.778942108">
<ele>462.914063</ele>
<time>2013-11-21T06:38:37Z</time>
<speed>1.330000</speed>
<extensions>
<speed>1.3</speed>
<temp>0.00</temp>
<bpm>0</bpm>
<rpm>0.00</rpm>
</extensions>
</trkpt>
<trkpt lat="30.849769592" lon="34.778938293">
<ele>464.359375</ele>
<time>2013-11-21T06:38:42Z</time>
<speed>1.310000</speed>
<extensions>
<speed>1.3</speed>
<temp>0.00</temp>
<bpm>0</bpm>
<rpm>0.00</rpm>
</extensions>
</trkpt>
<trkpt lat="30.849660873" lon="34.778896332">
<ele>464.726563</ele>
<time>2013-11-21T06:38:47Z</time>
<speed>2.240000</speed>
<extensions>
<speed>2.2</speed>
<temp>0.00</temp>
<bpm>0</bpm>
<rpm>0.00</rpm>
</extensions>
</trkpt>
<trkpt lat="30.849584579" lon="34.778835297">
<ele>465.656250</ele>
<time>2013-11-21T06:38:52Z</time>
<speed>1.190000</speed>
<extensions>
<speed>1.2</speed>
<temp>0.00</temp>
<bpm>0</bpm>
<rpm>0.00</rpm>
</extensions>
</trkpt>
<trkpt lat="30.849510193" lon="34.778774261">
<ele>466.210938</ele>
<time>2013-11-21T06:38:57Z</time>
<speed>2.330000</speed>
<extensions>
<speed>2.3</speed>
<temp>0.00</temp>
<bpm>0</bpm>
<rpm>0.00</rpm>
</extensions>
</trkpt>
<trkpt lat="30.849361420" lon="34.778694153">
<ele>467.820313</ele>
<time>2013-11-21T06:39:02Z</time>
<speed>3.440000</speed>
<extensions>
<speed>3.4</speed>
<temp>0.00</temp>
<bpm>0</bpm>
<rpm>0.00</rpm>
</extensions>
</trkpt>
<trkpt lat="30.849224091" lon="34.778667450">
<ele>467.773438</ele>
<time>2013-11-21T06:39:07Z</time>
<speed>2.370000</speed>
<extensions>
<speed>2.4</speed>
<temp>0.00</temp>
<bpm>0</bpm>
<rpm>0.00</rpm>
</extensions>
</trkpt>
<trkpt lat="30.849050522" lon="34.778678894">
<ele>468.710938</ele>
<time>2013-11-21T06:39:12Z</time>
<speed>3.320000</speed>
<extensions>
<speed>3.3</speed>
<temp>0.00</temp>
<bpm>0</bpm>
<rpm>0.00</rpm>
</extensions>
</trkpt>
<trkpt lat="30.848934174" lon="34.778732300">
<ele>468.023438</ele>
<time>2013-11-21T06:39:17Z</time>
<speed>1.450000</speed>
<extensions>
<speed>1.4</speed>
<temp>0.00</temp>
<bpm>0</bpm>
<rpm>0.00</rpm>
</extensions>
</trkpt>
<trkpt lat="30.848861694" lon="34.778770447">
<ele>468.296875</ele>
<time>2013-11-21T06:39:22Z</time>
<speed>1.600000</speed>
<extensions>
<speed>1.6</speed>
<temp>0.00</temp>
<bpm>0</bpm>
<rpm>0.00</rpm>
</extensions>
</trkpt>
<trkpt lat="30.848831177" lon="34.778808594">
<ele>468.789063</ele>
<time>2013-11-21T06:39:27Z</time>
<speed>1.270000</speed>
<extensions>
<speed>1.3</speed>
<temp>0.00</temp>
<bpm>0</bpm>
<rpm>0.00</rpm>
</extensions>
</trkpt>
<trkpt lat="30.848783493" lon="34.778873444">
<ele>468.500000</ele>
<time>2013-11-21T06:39:32Z</time>
<speed>1.680000</speed>
<extensions>
<speed>1.7</speed>
<temp>0.00</temp>
<bpm>0</bpm>
<rpm>0.00</rpm>
</extensions>
</trkpt>
<trkpt lat="30.848747253" lon="34.778930664">
<ele>468.093750</ele>
<time>2013-11-21T06:39:37Z</time>
<speed>1.980000</speed>
<extensions>
<speed>2.0</speed>
<temp>0.00</temp>
<bpm>0</bpm>
<rpm>0.00</rpm>
</extensions>
</trkpt>
<trkpt lat="30.848649979" lon="34.779045105">
<ele>467.578125</ele>
<time>2013-11-21T06:39:42Z</time>
<speed>3.750000</speed>
<extensions>
<speed>3.8</speed>
<temp>0.00</temp>
<bpm>0</bpm>
<rpm>0.00</rpm>
</extensions>
</trkpt>
<trkpt lat="30.848508835" lon="34.779220581">
<ele>467.281250</ele>
<time>2013-11-21T06:39:47Z</time>
<speed>4.710000</speed>
<extensions>
<speed>4.7</speed>
<temp>0.00</temp>
<bpm>0</bpm>
<rpm>0.00</rpm>
</extensions>
</trkpt>
<trkpt lat="30.848354340" lon="34.779392242">
<ele>466.312500</ele>
<time>2013-11-21T06:39:52Z</time>
<speed>4.180000</speed>
<extensions>
<speed>4.2</speed>
<temp>0.00</temp>
<bpm>0</bpm>
<rpm>0.00</rpm>
</extensions>
</trkpt>
<trkpt lat="30.848220825" lon="34.779529572">
<ele>465.210938</ele>
<time>2013-11-21T06:39:57Z</time>
<speed>3.570000</speed>
<extensions>
<speed>3.6</speed>
<temp>0.00</temp>
<bpm>0</bpm>
<rpm>0.00</rpm>
</extensions>
</trkpt>
<trkpt lat="30.848081589" lon="34.779666901">
<ele>463.156250</ele>
<time>2013-11-21T06:40:02Z</time>
<speed>4.060000</speed>
<extensions>
<speed>4.1</speed>
<temp>0.00</temp>
<bpm>0</bpm>
<rpm>0.00</rpm>
</extensions>
</trkpt>
<trkpt lat="30.847938538" lon="34.779800415">
<ele>460.898438</ele>
<time>2013-11-21T06:40:07Z</time>
<speed>3.880000</speed>
<extensions>
<speed>3.9</speed>
<temp>0.00</temp>
<bpm>0</bpm>
<rpm>0.00</rpm>
</extensions>
</trkpt>
<trkpt lat="30.847784042" lon="34.779945374">
<ele>458.304688</ele>
<time>2013-11-21T06:40:12Z</time>
<speed>4.250000</speed>
<extensions>
<speed>4.3</speed>
<temp>0.00</temp>
<bpm>0</bpm>
<rpm>0.00</rpm>
</extensions>
</trkpt>
<trkpt lat="30.847640991" lon="34.780075073">
<ele>455.062500</ele>
<time>2013-11-21T06:40:17Z</time>
<speed>4.160000</speed>
<extensions>
<speed>4.2</speed>
<temp>0.00</temp>
<bpm>0</bpm>
<rpm>0.00</rpm>
</extensions>
</trkpt>
<trkpt lat="30.847501755" lon="34.780204773">
<ele>450.843750</ele>
<time>2013-11-21T06:40:22Z</time>
<speed>3.760000</speed>
<extensions>
<speed>3.8</speed>
<temp>0.00</temp>
<bpm>0</bpm>
<rpm>0.00</rpm>
</extensions>
</trkpt>
<trkpt lat="30.847385406" lon="34.780361176">
<ele>448.445313</ele>
<time>2013-11-21T06:40:27Z</time>
<speed>3.750000</speed>
<extensions>
<speed>3.8</speed>
<temp>0.00</temp>
<bpm>0</bpm>
<rpm>0.00</rpm>
</extensions>
</trkpt>
<trkpt lat="30.847343445" lon="34.780586243">
<ele>446.421875</ele>
<time>2013-11-21T06:40:32Z</time>
<speed>4.950000</speed>
<extensions>
<speed>4.9</speed>
<temp>0.00</temp>
<bpm>0</bpm>
<rpm>0.00</rpm>
</extensions>
</trkpt>
<trkpt lat="30.847360611" lon="34.780868530">
<ele>445.171875</ele>
<time>2013-11-21T06:40:37Z</time>
<speed>5.350000</speed>
<extensions>
<speed>5.4</speed>
<temp>0.00</temp>
<bpm>0</bpm>
<rpm>0.00</rpm>
</extensions>
</trkpt>
<trkpt lat="30.847421646" lon="34.781185150">
<ele>443.492188</ele>
<time>2013-11-21T06:40:42Z</time>
<speed>5.810000</speed>
<extensions>
<speed>5.8</speed>
<temp>0.00</temp>
<bpm>0</bpm>
<rpm>0.00</rpm>
</extensions>
</trkpt>
<trkpt lat="30.847457886" lon="34.781524658">
<ele>442.343750</ele>
<time>2013-11-21T06:40:47Z</time>
<speed>6.200000</speed>
<extensions>
<speed>6.2</speed>
<temp>0.00</temp>
<bpm>0</bpm>
<rpm>0.00</rpm>
</extensions>
</trkpt>
<trkpt lat="30.847511292" lon="34.781879425">
<ele>439.898438</ele>
<time>2013-11-21T06:40:52Z</time>
<speed>6.730000</speed>
<extensions>
<speed>6.7</speed>
<temp>0.00</temp>
<bpm>0</bpm>
<rpm>0.00</rpm>
</extensions>
</trkpt>
<trkpt lat="30.847467422" lon="34.782192230">
<ele>437.492188</ele>
<time>2013-11-21T06:40:57Z</time>
<speed>6.750000</speed>
<extensions>
<speed>6.7</speed>
<temp>0.00</temp>
<bpm>0</bpm>
<rpm>0.00</rpm>
</extensions>
</trkpt>
<trkpt lat="30.847223282" lon="34.782337189">
<ele>435.687500</ele>
<time>2013-11-21T06:41:02Z</time>
<speed>6.080000</speed>
<extensions>
<speed>6.1</speed>
<temp>0.00</temp>
<bpm>0</bpm>
<rpm>0.00</rpm>
</extensions>
</trkpt>
<trkpt lat="30.847030640" lon="34.782142639">
<ele>434.335938</ele>
<time>2013-11-21T06:41:07Z</time>
<speed>6.460000</speed>
<extensions>
<speed>6.5</speed>
<temp>0.00</temp>
<bpm>0</bpm>
<rpm>0.00</rpm>
</extensions>
</trkpt>
<trkpt lat="30.846977234" lon="34.781806946">
<ele>433.320313</ele>
<time>2013-11-21T06:41:12Z</time>
<speed>6.410000</speed>
<extensions>
<speed>6.4</speed>
<temp>0.00</temp>
<bpm>0</bpm>
<rpm>0.00</rpm>
</extensions>
</trkpt>
<trkpt lat="30.846948624" lon="34.781482697">
<ele>432.523438</ele>
<time>2013-11-21T06:41:17Z</time>
<speed>6.530000</speed>
<extensions>
<speed>6.5</speed>
<temp>0.00</temp>
<bpm>0</bpm>
<rpm>0.00</rpm>
</extensions>
</trkpt>
<trkpt lat="30.846923828" lon="34.781124115">
<ele>431.429688</ele>
<time>2013-11-21T06:41:22Z</time>
<speed>7.220000</speed>
<extensions>
<speed>7.2</speed>
<temp>0.00</temp>
<bpm>0</bpm>
<rpm>0.00</rpm>
</extensions>
</trkpt>
<trkpt lat="30.846883774" lon="34.780750275">
<ele>429.921875</ele>
<time>2013-11-21T06:41:27Z</time>
<speed>5.520000</speed>
<extensions>
<speed>5.5</speed>
<temp>0.00</temp>
<bpm>0</bpm>
<rpm>0.00</rpm>
</extensions>
</trkpt>
<trkpt lat="30.846845627" lon="34.780582428">
<ele>428.437500</ele>
<time>2013-11-21T06:41:32Z</time>
<speed>1.630000</speed>
<extensions>
<speed>1.6</speed>
<temp>0.00</temp>
<bpm>0</bpm>
<rpm>0.00</rpm>
</extensions>
</trkpt>
<trkpt lat="30.846817017" lon="34.780483246">
<ele>427.531250</ele>
<time>2013-11-21T06:41:37Z</time>
<speed>2.730000</speed>
<extensions>
<speed>2.7</speed>
<temp>0.00</temp>
<bpm>0</bpm>
<rpm>0.00</rpm>
</extensions>
</trkpt>
<trkpt lat="30.846735001" lon="34.780384064">
<ele>426.640625</ele>
<time>2013-11-21T06:41:42Z</time>
<speed>3.240000</speed>
<extensions>
<speed>3.2</speed>
<temp>0.00</temp>
<bpm>0</bpm>
<rpm>0.00</rpm>
</extensions>
</trkpt>
<trkpt lat="30.846618652" lon="34.780323029">
<ele>425.453125</ele>
<time>2013-11-21T06:41:47Z</time>
<speed>0.720000</speed>
<extensions>
<speed>0.7</speed>
<temp>0.00</temp>
<bpm>0</bpm>
<rpm>0.00</rpm>
</extensions>
</trkpt>
<trkpt lat="30.846607208" lon="34.780326843">
<ele>425.843750</ele>
<time>2013-11-21T06:41:52Z</time>
<speed>0.090000</speed>
<extensions>
<speed>0.1</speed>
<temp>0.00</temp>
<bpm>0</bpm>
<rpm>0.00</rpm>
</extensions>
</trkpt>
<trkpt lat="30.846612930" lon="34.780326843">
<ele>425.632813</ele>
<time>2013-11-21T06:41:57Z</time>
<speed>0.090000</speed>
<extensions>
<speed>0.1</speed>
<temp>0.00</temp>
<bpm>0</bpm>
<rpm>0.00</rpm>
</extensions>
</trkpt>
<trkpt lat="30.846614838" lon="34.780330658">
<ele>425.632813</ele>
<time>2013-11-21T06:42:02Z</time>
<speed>0.060000</speed>
<extensions>
<speed>0.1</speed>
<temp>0.00</temp>
<bpm>0</bpm>
<rpm>0.00</rpm>
</extensions>
</trkpt>
<trkpt lat="30.846612930" lon="34.780334473">
<ele>425.640625</ele>
<time>2013-11-21T06:42:07Z</time>
<speed>0.040000</speed>
<extensions>
<speed>0.0</speed>
<temp>0.00</temp>
<bpm>0</bpm>
<rpm>0.00</rpm>
</extensions>
</trkpt>
<trkpt lat="30.846611023" lon="34.780334473">
<ele>425.585938</ele>
<time>2013-11-21T06:42:12Z</time>
<speed>0.040000</speed>
<extensions>
<speed>0.0</speed>
<temp>0.00</temp>
<bpm>0</bpm>
<rpm>0.00</rpm>
</extensions>
</trkpt>
<trkpt lat="30.846609116" lon="34.780334473">
<ele>425.570313</ele>
<time>2013-11-21T06:42:17Z</time>
<speed>0.080000</speed>
<extensions>
<speed>0.1</speed>
<temp>0.00</temp>
<bpm>0</bpm>
<rpm>0.00</rpm>
</extensions>
</trkpt>
<trkpt lat="30.846605301" lon="34.780338287">
<ele>425.554688</ele>
<time>2013-11-21T06:42:22Z</time>
<speed>0.010000</speed>
<extensions>
<speed>0.0</speed>
<temp>0.00</temp>
<bpm>0</bpm>
<rpm>0.00</rpm>
</extensions>
</trkpt>
<trkpt lat="30.846605301" lon="34.780338287">
<ele>425.593750</ele>
<time>2013-11-21T06:42:27Z</time>
<speed>0.030000</speed>
<extensions>
<speed>0.0</speed>
<temp>0.00</temp>
<bpm>0</bpm>
<rpm>0.00</rpm>
</extensions>
</trkpt>
<trkpt lat="30.846605301" lon="34.780338287">
<ele>425.632813</ele>
<time>2013-11-21T06:42:32Z</time>
<extensions>
<speed>0.0</speed>
<temp>0.00</temp>
<bpm>0</bpm>
<rpm>0.00</rpm>
</extensions>
</trkpt>
<trkpt lat="30.846605301" lon="34.780338287">
<ele>425.656250</ele>
<time>2013-11-21T06:42:37Z</time>
<speed>0.010000</speed>
<extensions>
<speed>0.0</speed>
<temp>0.00</temp>
<bpm>0</bpm>
<rpm>0.00</rpm>
</extensions>
</trkpt>
<trkpt lat="30.846605301" lon="34.780338287">
<ele>425.664063</ele>
<time>2013-11-21T06:42:42Z</time>
<extensions>
<speed>0.0</speed>
<temp>0.00</temp>
<bpm>0</bpm>
<rpm>0.00</rpm>
</extensions>
</trkpt>
<trkpt lat="30.846605301" lon="34.780338287">
<ele>425.632813</ele>
<time>2013-11-21T06:42:47Z</time>
<speed>0.050000</speed>
<extensions>
<speed>0.1</speed>
<temp>0.00</temp>
<bpm>0</bpm>
<rpm>0.00</rpm>
</extensions>
</trkpt>
<trkpt lat="30.846603394" lon="34.780338287">
<ele>425.648438</ele>
<time>2013-11-21T06:42:52Z</time>
<speed>0.100000</speed>
<extensions>
<speed>0.1</speed>
<temp>0.00</temp>
<bpm>0</bpm>
<rpm>0.00</rpm>
</extensions>
</trkpt>
<trkpt lat="30.846599579" lon="34.780338287">
<ele>425.726563</ele>
<time>2013-11-21T06:42:57Z</time>
<speed>0.230000</speed>
<extensions>
<speed>0.2</speed>
<temp>0.00</temp>
<bpm>0</bpm>
<rpm>0.00</rpm>
</extensions>
</trkpt>
<trkpt lat="30.846584320" lon="34.780342102">
<ele>426.015625</ele>
<time>2013-11-21T06:43:02Z</time>
<speed>0.520000</speed>
<extensions>
<speed>0.5</speed>
<temp>0.00</temp>
<bpm>0</bpm>
<rpm>0.00</rpm>
</extensions>
</trkpt>
<trkpt lat="30.846578598" lon="34.780391693">
<ele>426.218750</ele>
<time>2013-11-21T06:43:07Z</time>
<speed>1.760000</speed>
<extensions>
<speed>1.8</speed>
<temp>0.00</temp>
<bpm>0</bpm>
<rpm>0.00</rpm>
</extensions>
</trkpt>
<trkpt lat="30.846607208" lon="34.780677795">
<ele>425.335938</ele>
<time>2013-11-21T06:43:12Z</time>
<speed>5.460000</speed>
<extensions>
<speed>5.5</speed>
<temp>0.00</temp>
<bpm>0</bpm>
<rpm>0.00</rpm>
</extensions>
</trkpt>
<trkpt lat="30.846633911" lon="34.781070709">
<ele>423.976563</ele>
<time>2013-11-21T06:43:17Z</time>
<speed>6.770000</speed>
<extensions>
<speed>6.8</speed>
<temp>0.00</temp>
<bpm>0</bpm>
<rpm>0.00</rpm>
</extensions>
</trkpt>
<trkpt lat="30.846616745" lon="34.781520844">
<ele>422.062500</ele>
<time>2013-11-21T06:43:22Z</time>
<speed>6.400000</speed>
<extensions>
<speed>6.4</speed>
<temp>0.00</temp>
<bpm>0</bpm>
<rpm>0.00</rpm>
</extensions>
</trkpt>
<trkpt lat="30.846336365" lon="34.781787872">
<ele>419.460938</ele>
<time>2013-11-21T06:43:27Z</time>
<speed>6.400000</speed>
<extensions>
<speed>6.4</speed>
<temp>0.00</temp>
<bpm>0</bpm>
<rpm>0.00</rpm>
</extensions>
</trkpt>
<trkpt lat="30.846061707" lon="34.781631470">
<ele>416.757813</ele>
<time>2013-11-21T06:43:32Z</time>
<speed>8.170000</speed>
<extensions>
<speed>8.2</speed>
<temp>0.00</temp>
<bpm>0</bpm>
<rpm>0.00</rpm>
</extensions>
</trkpt>
<trkpt lat="30.845914841" lon="34.781402588">
<ele>413.851563</ele>
<time>2013-11-21T06:43:37Z</time>
<speed>0.720000</speed>
<extensions>
<speed>0.7</speed>
<temp>0.00</temp>
<bpm>0</bpm>
<rpm>0.00</rpm>
</extensions>
</trkpt>
<trkpt lat="30.845880508" lon="34.781436920">
<ele>410.398438</ele>
<time>2013-11-21T06:43:42Z</time>
<speed>1.020000</speed>
<extensions>
<speed>1.0</speed>
<temp>0.00</temp>
<bpm>0</bpm>
<rpm>0.00</rpm>
</extensions>
</trkpt>
<trkpt lat="30.845788956" lon="34.781410217">
<ele>412.039063</ele>
<time>2013-11-21T06:43:47Z</time>
<speed>4.300000</speed>
<extensions>
<speed>4.3</speed>
<temp>0.00</temp>
<bpm>0</bpm>
<rpm>0.00</rpm>
</extensions>
</trkpt>
<trkpt lat="30.845743179" lon="34.781093597">
<ele>410.703125</ele>
<time>2013-11-21T06:43:52Z</time>
<speed>7.180000</speed>
<extensions>
<speed>7.2</speed>
<temp>0.00</temp>
<bpm>0</bpm>
<rpm>0.00</rpm>
</extensions>
</trkpt>
<trkpt lat="30.845726013" lon="34.780643463">
<ele>408.656250</ele>
<time>2013-11-21T06:43:57Z</time>
<speed>8.870000</speed>
<extensions>
<speed>8.9</speed>
<temp>0.00</temp>
<bpm>0</bpm>
<rpm>0.00</rpm>
</extensions>
</trkpt>
<trkpt lat="30.845508575" lon="34.780345917">
<ele>406.445313</ele>
<time>2013-11-21T06:44:02Z</time>
<speed>8.120000</speed>
<extensions>
<speed>8.1</speed>
<temp>0.00</temp>
<bpm>0</bpm>
<rpm>0.00</rpm>
</extensions>
</trkpt>
<trkpt lat="30.845254898" lon="34.780601501">
<ele>404.281250</ele>
<time>2013-11-21T06:44:07Z</time>
<speed>7.250000</speed>
<extensions>
<speed>7.3</speed>
<temp>0.00</temp>
<bpm>0</bpm>
<rpm>0.00</rpm>
</extensions>
</trkpt>
<trkpt lat="30.845325470" lon="34.781131744">
<ele>401.851563</ele>
<time>2013-11-21T06:44:12Z</time>
<speed>10.560000</speed>
<extensions>
<speed>10.6</speed>
<temp>0.00</temp>
<bpm>0</bpm>
<rpm>0.00</rpm>
</extensions>
</trkpt>
<trkpt lat="30.845129013" lon="34.781475067">
<ele>398.632813</ele>
<time>2013-11-21T06:44:17Z</time>
<speed>7.910000</speed>
<extensions>
<speed>7.9</speed>
<temp>0.00</temp>
<bpm>0</bpm>
<rpm>0.00</rpm>
</extensions>
</trkpt>
<trkpt lat="30.844890594" lon="34.781150818">
<ele>395.554688</ele>
<time>2013-11-21T06:44:22Z</time>
<speed>9.930000</speed>
<extensions>
<speed>9.9</speed>
<temp>0.00</temp>
<bpm>0</bpm>
<rpm>0.00</rpm>
</extensions>
</trkpt>
<trkpt lat="30.844741821" lon="34.780551910">
<ele>391.625000</ele>
<time>2013-11-21T06:44:27Z</time>
<speed>13.180001</speed>
<extensions>
<speed>13.2</speed>
<temp>0.00</temp>
<bpm>0</bpm>
<rpm>0.00</rpm>
</extensions>
</trkpt>
<trkpt lat="30.844554901" lon="34.779853821">
<ele>386.875000</ele>
<time>2013-11-21T06:44:32Z</time>
<speed>13.520000</speed>
<extensions>
<speed>13.5</speed>
<temp>0.00</temp>
<bpm>0</bpm>
<rpm>0.00</rpm>
</extensions>
</trkpt>
<trkpt lat="30.844167709" lon="34.779369354">
<ele>383.523438</ele>
<time>2013-11-21T06:44:37Z</time>
<speed>12.300000</speed>
<extensions>
<speed>12.3</speed>
<temp>0.00</temp>
<bpm>0</bpm>
<rpm>0.00</rpm>
</extensions>
</trkpt>
<trkpt lat="30.843677521" lon="34.779151917">
<ele>379.039063</ele>
<time>2013-11-21T06:44:42Z</time>
<speed>10.340000</speed>
<extensions>
<speed>10.3</speed>
<temp>0.00</temp>
<bpm>0</bpm>
<rpm>0.00</rpm>
</extensions>
</trkpt>
<trkpt lat="30.843345642" lon="34.779033661">
<ele>374.664063</ele>
<time>2013-11-21T06:44:47Z</time>
<speed>5.610000</speed>
<extensions>
<speed>5.6</speed>
<temp>0.00</temp>
<bpm>0</bpm>
<rpm>0.00</rpm>
</extensions>
</trkpt>
<trkpt lat="30.843118668" lon="34.778961182">
<ele>371.851563</ele>
<time>2013-11-21T06:44:52Z</time>
<speed>4.590000</speed>
<extensions>
<speed>4.6</speed>
<temp>0.00</temp>
<bpm>0</bpm>
<rpm>0.00</rpm>
</extensions>
</trkpt>
<trkpt lat="30.842945099" lon="34.778903961">
<ele>370.406250</ele>
<time>2013-11-21T06:44:57Z</time>
<speed>3.380000</speed>
<extensions>
<speed>3.4</speed>
<temp>0.00</temp>
<bpm>0</bpm>
<rpm>0.00</rpm>
</extensions>
</trkpt>
<trkpt lat="30.842809677" lon="34.778869629">
<ele>366.664063</ele>
<time>2013-11-21T06:45:02Z</time>
<speed>2.140000</speed>
<extensions>
<speed>2.1</speed>
<temp>0.00</temp>
<bpm>0</bpm>
<rpm>0.00</rpm>
</extensions>
</trkpt>
<trkpt lat="30.842773438" lon="34.778846741">
<ele>363.187500</ele>
<time>2013-11-21T06:45:07Z</time>
<speed>0.840000</speed>
<extensions>
<speed>0.8</speed>
<temp>0.00</temp>
<bpm>0</bpm>
<rpm>0.00</rpm>
</extensions>
</trkpt>
<trkpt lat="30.842760086" lon="34.778877258">
<ele>359.328125</ele>
<time>2013-11-21T06:45:12Z</time>
<speed>0.340000</speed>
<extensions>
<speed>0.3</speed>
<temp>0.00</temp>
<bpm>0</bpm>
<rpm>0.00</rpm>
</extensions>
</trkpt>
<trkpt lat="30.842761993" lon="34.778858185">
<ele>358.718750</ele>
<time>2013-11-21T06:45:17Z</time>
<speed>0.240000</speed>
<extensions>
<speed>0.2</speed>
<temp>0.00</temp>
<bpm>0</bpm>
<rpm>0.00</rpm>
</extensions>
</trkpt>
<trkpt lat="30.842763901" lon="34.778850555">
<ele>358.289063</ele>
<time>2013-11-21T06:45:22Z</time>
<speed>0.060000</speed>
<extensions>
<speed>0.1</speed>
<temp>0.00</temp>
<bpm>0</bpm>
<rpm>0.00</rpm>
</extensions>
</trkpt>
<trkpt lat="30.842761993" lon="34.778854370">
<ele>358.093750</ele>
<time>2013-11-21T06:45:27Z</time>
<speed>0.040000</speed>
<extensions>
<speed>0.0</speed>
<temp>0.00</temp>
<bpm>0</bpm>
<rpm>0.00</rpm>
</extensions>
</trkpt>
<trkpt lat="30.842761993" lon="34.778850555">
<ele>358.015625</ele>
<time>2013-11-21T06:45:32Z</time>
<speed>0.060000</speed>
<extensions>
<speed>0.1</speed>
<temp>0.00</temp>
<bpm>0</bpm>
<rpm>0.00</rpm>
</extensions>
</trkpt>
<trkpt lat="30.842763901" lon="34.778850555">
<ele>358.023438</ele>
<time>2013-11-21T06:45:37Z</time>
<extensions>
<speed>0.0</speed>
<temp>0.00</temp>
<bpm>0</bpm>
<rpm>0.00</rpm>
</extensions>
</trkpt>
<trkpt lat="30.842761993" lon="34.778854370">
<ele>358.046875</ele>
<time>2013-11-21T06:45:42Z</time>
<speed>0.020000</speed>
<extensions>
<speed>0.0</speed>
<temp>0.00</temp>
<bpm>0</bpm>
<rpm>0.00</rpm>
</extensions>
</trkpt>
<trkpt lat="30.842761993" lon="34.778854370">
<ele>358.085938</ele>
<time>2013-11-21T06:45:47Z</time>
<speed>0.010000</speed>
<extensions>
<speed>0.0</speed>
<temp>0.00</temp>
<bpm>0</bpm>
<rpm>0.00</rpm>
</extensions>
</trkpt>
<trkpt lat="30.842761993" lon="34.778854370">
<ele>358.062500</ele>
<time>2013-11-21T06:45:52Z</time>
<speed>0.020000</speed>
<extensions>
<speed>0.0</speed>
<temp>0.00</temp>
<bpm>0</bpm>
<rpm>0.00</rpm>
</extensions>
</trkpt>
<trkpt lat="30.842761993" lon="34.778854370">
<ele>358.046875</ele>
<time>2013-11-21T06:45:57Z</time>
<speed>0.010000</speed>
<extensions>
<speed>0.0</speed>
<temp>0.00</temp>
<bpm>0</bpm>
<rpm>0.00</rpm>
</extensions>
</trkpt>
<trkpt lat="30.842761993" lon="34.778854370">
<ele>358.046875</ele>
<time>2013-11-21T06:46:02Z</time>
<extensions>
<speed>0.0</speed>
<temp>0.00</temp>
<bpm>0</bpm>
<rpm>0.00</rpm>
</extensions>
</trkpt>
<trkpt lat="30.842761993" lon="34.778854370">
<ele>358.039063</ele>
<time>2013-11-21T06:46:07Z</time>
<speed>0.010000</speed>
<extensions>
<speed>0.0</speed>
<temp>0.00</temp>
<bpm>0</bpm>
<rpm>0.00</rpm>
</extensions>
</trkpt>
<trkpt lat="30.842761993" lon="34.778854370">
<ele>358.046875</ele>
<time>2013-11-21T06:46:12Z</time>
<extensions>
<speed>0.0</speed>
<temp>0.00</temp>
<bpm>0</bpm>
<rpm>0.00</rpm>
</extensions>
</trkpt>
<trkpt lat="30.842761993" lon="34.778854370">
<ele>358.054688</ele>
<time>2013-11-21T06:46:17Z</time>
<speed>0.040000</speed>
<extensions>
<speed>0.0</speed>
<temp>0.00</temp>
<bpm>0</bpm>
<rpm>0.00</rpm>
</extensions>
</trkpt>
<trkpt lat="30.842761993" lon="34.778858185">
<ele>358.054688</ele>
<time>2013-11-21T06:46:22Z</time>
<speed>0.030000</speed>
<extensions>
<speed>0.0</speed>
<temp>0.00</temp>
<bpm>0</bpm>
<rpm>0.00</rpm>
</extensions>
</trkpt>
<trkpt lat="30.842765808" lon="34.778865814">
<ele>358.148438</ele>
<time>2013-11-21T06:46:27Z</time>
<speed>0.270000</speed>
<extensions>
<speed>0.3</speed>
<temp>0.00</temp>
<bpm>0</bpm>
<rpm>0.00</rpm>
</extensions>
</trkpt>
<trkpt lat="30.842773438" lon="34.778877258">
<ele>358.351563</ele>
<time>2013-11-21T06:46:32Z</time>
<speed>0.350000</speed>
<extensions>
<speed>0.3</speed>
<temp>0.00</temp>
<bpm>0</bpm>
<rpm>0.00</rpm>
</extensions>
</trkpt>
<trkpt lat="30.842781067" lon="34.778900146">
<ele>358.718750</ele>
<time>2013-11-21T06:46:37Z</time>
<speed>0.550000</speed>
<extensions>
<speed>0.6</speed>
<temp>0.00</temp>
<bpm>0</bpm>
<rpm>0.00</rpm>
</extensions>
</trkpt>
<trkpt lat="30.842819214" lon="34.778964996">
<ele>359.601563</ele>
<time>2013-11-21T06:46:42Z</time>
<speed>1.460000</speed>
<extensions>
<speed>1.5</speed>
<temp>0.00</temp>
<bpm>0</bpm>
<rpm>0.00</rpm>
</extensions>
</trkpt>
<trkpt lat="30.842908859" lon="34.779087067">
<ele>360.304688</ele>
<time>2013-11-21T06:46:47Z</time>
<speed>1.620000</speed>
<extensions>
<speed>1.6</speed>
<temp>0.00</temp>
<bpm>0</bpm>
<rpm>0.00</rpm>
</extensions>
</trkpt>
<trkpt lat="30.842977524" lon="34.779277802">
<ele>360.796875</ele>
<time>2013-11-21T06:46:52Z</time>
<speed>2.960000</speed>
<extensions>
<speed>3.0</speed>
<temp>0.00</temp>
<bpm>0</bpm>
<rpm>0.00</rpm>
</extensions>
</trkpt>
<trkpt lat="30.843019485" lon="34.779453278">
<ele>360.468750</ele>
<time>2013-11-21T06:46:57Z</time>
<speed>2.150000</speed>
<extensions>
<speed>2.1</speed>
<temp>0.00</temp>
<bpm>0</bpm>
<rpm>0.00</rpm>
</extensions>
</trkpt>
<trkpt lat="30.843044281" lon="34.779644012">
<ele>359.671875</ele>
<time>2013-11-21T06:47:02Z</time>
<speed>3.570000</speed>
<extensions>
<speed>3.6</speed>
<temp>0.00</temp>
<bpm>0</bpm>
<rpm>0.00</rpm>
</extensions>
</trkpt>
<trkpt lat="30.843095779" lon="34.779853821">
<ele>359.023438</ele>
<time>2013-11-21T06:47:07Z</time>
<speed>2.760000</speed>
<extensions>
<speed>2.8</speed>
<temp>0.00</temp>
<bpm>0</bpm>
<rpm>0.00</rpm>
</extensions>
</trkpt>
<trkpt lat="30.843153000" lon="34.780033112">
<ele>358.171875</ele>
<time>2013-11-21T06:47:12Z</time>
<speed>2.830000</speed>
<extensions>
<speed>2.8</speed>
<temp>0.00</temp>
<bpm>0</bpm>
<rpm>0.00</rpm>
</extensions>
</trkpt>
<trkpt lat="30.843198776" lon="34.780200958">
<ele>356.906250</ele>
<time>2013-11-21T06:47:17Z</time>
<speed>3.090000</speed>
<extensions>
<speed>3.1</speed>
<temp>0.00</temp>
<bpm>0</bpm>
<rpm>0.00</rpm>
</extensions>
</trkpt>
<trkpt lat="30.843250275" lon="34.780357361">
<ele>355.218750</ele>
<time>2013-11-21T06:47:22Z</time>
<speed>2.830000</speed>
<extensions>
<speed>2.8</speed>
<temp>0.00</temp>
<bpm>0</bpm>
<rpm>0.00</rpm>
</extensions>
</trkpt>
<trkpt lat="30.843297958" lon="34.780555725">
<ele>354.085938</ele>
<time>2013-11-21T06:47:27Z</time>
<speed>4.010000</speed>
<extensions>
<speed>4.0</speed>
<temp>0.00</temp>
<bpm>0</bpm>
<rpm>0.00</rpm>
</extensions>
</trkpt>
<trkpt lat="30.843296051" lon="34.780700684">
<ele>352.343750</ele>
<time>2013-11-21T06:47:32Z</time>
<speed>2.810000</speed>
<extensions>
<speed>2.8</speed>
<temp>0.00</temp>
<bpm>0</bpm>
<rpm>0.00</rpm>
</extensions>
</trkpt>
<trkpt lat="30.843343735" lon="34.780765533">
<ele>351.765625</ele>
<time>2013-11-21T06:47:37Z</time>
<speed>0.570000</speed>
<extensions>
<speed>0.6</speed>
<temp>0.00</temp>
<bpm>0</bpm>
<rpm>0.00</rpm>
</extensions>
</trkpt>
<trkpt lat="30.843349457" lon="34.780750275">
<ele>353.679688</ele>
<time>2013-11-21T06:47:42Z</time>
<speed>0.100000</speed>
<extensions>
<speed>0.1</speed>
<temp>0.00</temp>
<bpm>0</bpm>
<rpm>0.00</rpm>
</extensions>
</trkpt>
<trkpt lat="30.843351364" lon="34.780742645">
<ele>353.570313</ele>
<time>2013-11-21T06:47:47Z</time>
<speed>0.150000</speed>
<extensions>
<speed>0.2</speed>
<temp>0.00</temp>
<bpm>0</bpm>
<rpm>0.00</rpm>
</extensions>
</trkpt>
<trkpt lat="30.843353271" lon="34.780742645">
<ele>353.421875</ele>
<time>2013-11-21T06:47:52Z</time>
<speed>0.100000</speed>
<extensions>
<speed>0.1</speed>
<temp>0.00</temp>
<bpm>0</bpm>
<rpm>0.00</rpm>
</extensions>
</trkpt>
<trkpt lat="30.843357086" lon="34.780784607">
<ele>353.296875</ele>
<time>2013-11-21T06:47:57Z</time>
<speed>1.620000</speed>
<extensions>
<speed>1.6</speed>
<temp>0.00</temp>
<bpm>0</bpm>
<rpm>0.00</rpm>
</extensions>
</trkpt>
<trkpt lat="30.843355179" lon="34.780914307">
<ele>352.914063</ele>
<time>2013-11-21T06:48:02Z</time>
<speed>2.580000</speed>
<extensions>
<speed>2.6</speed>
<temp>0.00</temp>
<bpm>0</bpm>
<rpm>0.00</rpm>
</extensions>
</trkpt>
<trkpt lat="30.843370438" lon="34.781032562">
<ele>353.031250</ele>
<time>2013-11-21T06:48:07Z</time>
<speed>2.920000</speed>
<extensions>
<speed>2.9</speed>
<temp>0.00</temp>
<bpm>0</bpm>
<rpm>0.00</rpm>
</extensions>
</trkpt>
<trkpt lat="30.843395233" lon="34.781192780">
<ele>353.296875</ele>
<time>2013-11-21T06:48:12Z</time>
<speed>3.920000</speed>
<extensions>
<speed>3.9</speed>
<temp>0.00</temp>
<bpm>0</bpm>
<rpm>0.00</rpm>
</extensions>
</trkpt>
<trkpt lat="30.843393326" lon="34.781372070">
<ele>352.843750</ele>
<time>2013-11-21T06:48:17Z</time>
<speed>3.010000</speed>
<extensions>
<speed>3.0</speed>
<temp>0.00</temp>
<bpm>0</bpm>
<rpm>0.00</rpm>
</extensions>
</trkpt>
<trkpt lat="30.843412399" lon="34.781497955">
<ele>352.234375</ele>
<time>2013-11-21T06:48:22Z</time>
<speed>1.780000</speed>
<extensions>
<speed>1.8</speed>
<temp>0.00</temp>
<bpm>0</bpm>
<rpm>0.00</rpm>
</extensions>
</trkpt>
<trkpt lat="30.843414307" lon="34.781604767">
<ele>351.632813</ele>
<time>2013-11-21T06:48:27Z</time>
<speed>0.680000</speed>
<extensions>
<speed>0.7</speed>
<temp>0.00</temp>
<bpm>0</bpm>
<rpm>0.00</rpm>
</extensions>
</trkpt>
<trkpt lat="30.843418121" lon="34.781589508">
<ele>350.421875</ele>
<time>2013-11-21T06:48:32Z</time>
<speed>0.230000</speed>
<extensions>
<speed>0.2</speed>
<temp>0.00</temp>
<bpm>0</bpm>
<rpm>0.00</rpm>
</extensions>
</trkpt>
<trkpt lat="30.843421936" lon="34.781589508">
<ele>350.335938</ele>
<time>2013-11-21T06:48:37Z</time>
<speed>0.090000</speed>
<extensions>
<speed>0.1</speed>
<temp>0.00</temp>
<bpm>0</bpm>
<rpm>0.00</rpm>
</extensions>
</trkpt>
<trkpt lat="30.843421936" lon="34.781593323">
<ele>350.304688</ele>
<time>2013-11-21T06:48:42Z</time>
<speed>0.190000</speed>
<extensions>
<speed>0.2</speed>
<temp>0.00</temp>
<bpm>0</bpm>
<rpm>0.00</rpm>
</extensions>
</trkpt>
<trkpt lat="30.843421936" lon="34.781604767">
<ele>350.273438</ele>
<time>2013-11-21T06:48:47Z</time>
<speed>0.160000</speed>
<extensions>
<speed>0.2</speed>
<temp>0.00</temp>
<bpm>0</bpm>
<rpm>0.00</rpm>
</extensions>
</trkpt>
<trkpt lat="30.843420029" lon="34.781608582">
<ele>350.203125</ele>
<time>2013-11-21T06:48:52Z</time>
<speed>0.070000</speed>
<extensions>
<speed>0.1</speed>
<temp>0.00</temp>
<bpm>0</bpm>
<rpm>0.00</rpm>
</extensions>
</trkpt>
<trkpt lat="30.843421936" lon="34.781608582">
<ele>350.132813</ele>
<time>2013-11-21T06:48:57Z</time>
<speed>0.100000</speed>
<extensions>
<speed>0.1</speed>
<temp>0.00</temp>
<bpm>0</bpm>
<rpm>0.00</rpm>
</extensions>
</trkpt>
<trkpt lat="30.843420029" lon="34.781608582">
<ele>350.093750</ele>
<time>2013-11-21T06:49:02Z</time>
<speed>0.060000</speed>
<extensions>
<speed>0.1</speed>
<temp>0.00</temp>
<bpm>0</bpm>
<rpm>0.00</rpm>
</extensions>
</trkpt>
<trkpt lat="30.843418121" lon="34.781600952">
<ele>350.093750</ele>
<time>2013-11-21T06:49:07Z</time>
<speed>0.090000</speed>
<extensions>
<speed>0.1</speed>
<temp>0.00</temp>
<bpm>0</bpm>
<rpm>0.00</rpm>
</extensions>
</trkpt>
<trkpt lat="30.843420029" lon="34.781597137">
<ele>350.093750</ele>
<time>2013-11-21T06:49:12Z</time>
<speed>0.140000</speed>
<extensions>
<speed>0.1</speed>
<temp>0.00</temp>
<bpm>0</bpm>
<rpm>0.00</rpm>
</extensions>
</trkpt>
<trkpt lat="30.843421936" lon="34.781589508">
<ele>350.109375</ele>
<time>2013-11-21T06:49:17Z</time>
<speed>0.020000</speed>
<extensions>
<speed>0.0</speed>
<temp>0.00</temp>
<bpm>0</bpm>
<rpm>0.00</rpm>
</extensions>
</trkpt>
<trkpt lat="30.843420029" lon="34.781593323">
<ele>350.156250</ele>
<time>2013-11-21T06:49:22Z</time>
<speed>0.060000</speed>
<extensions>
<speed>0.1</speed>
<temp>0.00</temp>
<bpm>0</bpm>
<rpm>0.00</rpm>
</extensions>
</trkpt>
<trkpt lat="30.843420029" lon="34.781593323">
<ele>350.203125</ele>
<time>2013-11-21T06:49:27Z</time>
<speed>0.070000</speed>
<extensions>
<speed>0.1</speed>
<temp>0.00</temp>
<bpm>0</bpm>
<rpm>0.00</rpm>
</extensions>
</trkpt>
<trkpt lat="30.843421936" lon="34.781593323">
<ele>350.210938</ele>
<time>2013-11-21T06:49:32Z</time>
<speed>0.020000</speed>
<extensions>
<speed>0.0</speed>
<temp>0.00</temp>
<bpm>0</bpm>
<rpm>0.00</rpm>
</extensions>
</trkpt>
<trkpt lat="30.843420029" lon="34.781593323">
<ele>350.210938</ele>
<time>2013-11-21T06:49:37Z</time>
<speed>0.080000</speed>
<extensions>
<speed>0.1</speed>
<temp>0.00</temp>
<bpm>0</bpm>
<rpm>0.00</rpm>
</extensions>
</trkpt>
<trkpt lat="30.843420029" lon="34.781597137">
<ele>350.328125</ele>
<time>2013-11-21T06:49:42Z</time>
<speed>0.090000</speed>
<extensions>
<speed>0.1</speed>
<temp>0.00</temp>
<bpm>0</bpm>
<rpm>0.00</rpm>
</extensions>
</trkpt>
<trkpt lat="30.843418121" lon="34.781597137">
<ele>350.406250</ele>
<time>2013-11-21T06:49:47Z</time>
<speed>0.070000</speed>
<extensions>
<speed>0.1</speed>
<temp>0.00</temp>
<bpm>0</bpm>
<rpm>0.00</rpm>
</extensions>
</trkpt>
<trkpt lat="30.843414307" lon="34.781597137">
<ele>350.406250</ele>
<time>2013-11-21T06:49:52Z</time>
<speed>0.270000</speed>
<extensions>
<speed>0.3</speed>
<temp>0.00</temp>
<bpm>0</bpm>
<rpm>0.00</rpm>
</extensions>
</trkpt>
<trkpt lat="30.843406677" lon="34.781620026">
<ele>350.398438</ele>
<time>2013-11-21T06:49:57Z</time>
<speed>0.770000</speed>
<extensions>
<speed>0.8</speed>
<temp>0.00</temp>
<bpm>0</bpm>
<rpm>0.00</rpm>
</extensions>
</trkpt>
<trkpt lat="30.843406677" lon="34.781753540">
<ele>350.429688</ele>
<time>2013-11-21T06:50:02Z</time>
<speed>2.900000</speed>
<extensions>
<speed>2.9</speed>
<temp>0.00</temp>
<bpm>0</bpm>
<rpm>0.00</rpm>
</extensions>
</trkpt>
<trkpt lat="30.843400955" lon="34.781867981">
<ele>350.492188</ele>
<time>2013-11-21T06:50:07Z</time>
<speed>1.550000</speed>
<extensions>
<speed>1.5</speed>
<temp>0.00</temp>
<bpm>0</bpm>
<rpm>0.00</rpm>
</extensions>
</trkpt>
<trkpt lat="30.843406677" lon="34.781955719">
<ele>350.445313</ele>
<time>2013-11-21T06:50:12Z</time>
<speed>0.830000</speed>
<extensions>
<speed>0.8</speed>
<temp>0.00</temp>
<bpm>0</bpm>
<rpm>0.00</rpm>
</extensions>
</trkpt>
<trkpt lat="30.843418121" lon="34.782058716">
<ele>350.546875</ele>
<time>2013-11-21T06:50:17Z</time>
<speed>2.060000</speed>
<extensions>
<speed>2.1</speed>
<temp>0.00</temp>
<bpm>0</bpm>
<rpm>0.00</rpm>
</extensions>
</trkpt>
<trkpt lat="30.843442917" lon="34.782169342">
<ele>350.851563</ele>
<time>2013-11-21T06:50:22Z</time>
<speed>1.740000</speed>
<extensions>
<speed>1.7</speed>
<temp>0.00</temp>
<bpm>0</bpm>
<rpm>0.00</rpm>
</extensions>
</trkpt>
<trkpt lat="30.843444824" lon="34.782287598">
<ele>351.031250</ele>
<time>2013-11-21T06:50:27Z</time>
<speed>1.900000</speed>
<extensions>
<speed>1.9</speed>
<temp>0.00</temp>
<bpm>0</bpm>
<rpm>0.00</rpm>
</extensions>
</trkpt>
<trkpt lat="30.843486786" lon="34.782470703">
<ele>350.398438</ele>
<time>2013-11-21T06:50:32Z</time>
<speed>2.920000</speed>
<extensions>
<speed>2.9</speed>
<temp>0.00</temp>
<bpm>0</bpm>
<rpm>0.00</rpm>
</extensions>
</trkpt>
<trkpt lat="30.843536377" lon="34.782665253">
<ele>349.992188</ele>
<time>2013-11-21T06:50:37Z</time>
<speed>3.660000</speed>
<extensions>
<speed>3.7</speed>
<temp>0.00</temp>
<bpm>0</bpm>
<rpm>0.00</rpm>
</extensions>
</trkpt>
<trkpt lat="30.843564987" lon="34.782875061">
<ele>349.820313</ele>
<time>2013-11-21T06:50:42Z</time>
<speed>4.510000</speed>
<extensions>
<speed>4.5</speed>
<temp>0.00</temp>
<bpm>0</bpm>
<rpm>0.00</rpm>
</extensions>
</trkpt>
<trkpt lat="30.843561172" lon="34.783061981">
<ele>349.195313</ele>
<time>2013-11-21T06:50:47Z</time>
<speed>3.330000</speed>
<extensions>
<speed>3.3</speed>
<temp>0.00</temp>
<bpm>0</bpm>
<rpm>0.00</rpm>
</extensions>
</trkpt>
<trkpt lat="30.843559265" lon="34.783252716">
<ele>348.500000</ele>
<time>2013-11-21T06:50:52Z</time>
<speed>2.730000</speed>
<extensions>
<speed>2.7</speed>
<temp>0.00</temp>
<bpm>0</bpm>
<rpm>0.00</rpm>
</extensions>
</trkpt>
<trkpt lat="30.843578339" lon="34.783374786">
<ele>348.726563</ele>
<time>2013-11-21T06:50:57Z</time>
<speed>1.950000</speed>
<extensions>
<speed>1.9</speed>
<temp>0.00</temp>
<bpm>0</bpm>
<rpm>0.00</rpm>
</extensions>
</trkpt>
<trkpt lat="30.843582153" lon="34.783462524">
<ele>347.531250</ele>
<time>2013-11-21T06:51:02Z</time>
<speed>1.440000</speed>
<extensions>
<speed>1.4</speed>
<temp>0.00</temp>
<bpm>0</bpm>
<rpm>0.00</rpm>
</extensions>
</trkpt>
<trkpt lat="30.843603134" lon="34.783515930">
<ele>347.250000</ele>
<time>2013-11-21T06:51:07Z</time>
<speed>1.120000</speed>
<extensions>
<speed>1.1</speed>
<temp>0.00</temp>
<bpm>0</bpm>
<rpm>0.00</rpm>
</extensions>
</trkpt>
<trkpt lat="30.843631744" lon="34.783645630">
<ele>348.250000</ele>
<time>2013-11-21T06:51:12Z</time>
<speed>2.580000</speed>
<extensions>
<speed>2.6</speed>
<temp>0.00</temp>
<bpm>0</bpm>
<rpm>0.00</rpm>
</extensions>
</trkpt>
<trkpt lat="30.843656540" lon="34.783794403">
<ele>347.539063</ele>
<time>2013-11-21T06:51:17Z</time>
<speed>2.660000</speed>
<extensions>
<speed>2.7</speed>
<temp>0.00</temp>
<bpm>0</bpm>
<rpm>0.00</rpm>
</extensions>
</trkpt>
<trkpt lat="30.843656540" lon="34.783958435">
<ele>346.218750</ele>
<time>2013-11-21T06:51:22Z</time>
<speed>1.740000</speed>
<extensions>
<speed>1.7</speed>
<temp>0.00</temp>
<bpm>0</bpm>
<rpm>0.00</rpm>
</extensions>
</trkpt>
<trkpt lat="30.843641281" lon="34.784099579">
<ele>348.164063</ele>
<time>2013-11-21T06:51:27Z</time>
<speed>2.770000</speed>
<extensions>
<speed>2.8</speed>
<temp>0.00</temp>
<bpm>0</bpm>
<rpm>0.00</rpm>
</extensions>
</trkpt>
<trkpt lat="30.843648911" lon="34.784286499">
<ele>349.875000</ele>
<time>2013-11-21T06:51:32Z</time>
<speed>4.200000</speed>
<extensions>
<speed>4.2</speed>
<temp>0.00</temp>
<bpm>0</bpm>
<rpm>0.00</rpm>
</extensions>
</trkpt>
<trkpt lat="30.843660355" lon="34.784526825">
<ele>350.265625</ele>
<time>2013-11-21T06:51:37Z</time>
<speed>4.170000</speed>
<extensions>
<speed>4.2</speed>
<temp>0.00</temp>
<bpm>0</bpm>
<rpm>0.00</rpm>
</extensions>
</trkpt>
<trkpt lat="30.843679428" lon="34.784767151">
<ele>350.914063</ele>
<time>2013-11-21T06:51:42Z</time>
<speed>4.430000</speed>
<extensions>
<speed>4.4</speed>
<temp>0.00</temp>
<bpm>0</bpm>
<rpm>0.00</rpm>
</extensions>
</trkpt>
<trkpt lat="30.843673706" lon="34.784934998">
<ele>351.460938</ele>
<time>2013-11-21T06:51:47Z</time>
<speed>3.570000</speed>
<extensions>
<speed>3.6</speed>
<temp>0.00</temp>
<bpm>0</bpm>
<rpm>0.00</rpm>
</extensions>
</trkpt>
<trkpt lat="30.843648911" lon="34.785079956">
<ele>352.640625</ele>
<time>2013-11-21T06:51:52Z</time>
<speed>3.500000</speed>
<extensions>
<speed>3.5</speed>
<temp>0.00</temp>
<bpm>0</bpm>
<rpm>0.00</rpm>
</extensions>
</trkpt>
<trkpt lat="30.843606949" lon="34.785224915">
<ele>352.554688</ele>
<time>2013-11-21T06:51:57Z</time>
<speed>2.150000</speed>
<extensions>
<speed>2.1</speed>
<temp>0.00</temp>
<bpm>0</bpm>
<rpm>0.00</rpm>
</extensions>
</trkpt>
<trkpt lat="30.843559265" lon="34.785293579">
<ele>352.218750</ele>
<time>2013-11-21T06:52:02Z</time>
<speed>1.730000</speed>
<extensions>
<speed>1.7</speed>
<temp>0.00</temp>
<bpm>0</bpm>
<rpm>0.00</rpm>
</extensions>
</trkpt>
<trkpt lat="30.843513489" lon="34.785350800">
<ele>352.554688</ele>
<time>2013-11-21T06:52:07Z</time>
<speed>1.360000</speed>
<extensions>
<speed>1.4</speed>
<temp>0.00</temp>
<bpm>0</bpm>
<rpm>0.00</rpm>
</extensions>
</trkpt>
<trkpt lat="30.843477249" lon="34.785411835">
<ele>351.882813</ele>
<time>2013-11-21T06:52:12Z</time>
<speed>2.060000</speed>
<extensions>
<speed>2.1</speed>
<temp>0.00</temp>
<bpm>0</bpm>
<rpm>0.00</rpm>
</extensions>
</trkpt>
<trkpt lat="30.843416214" lon="34.785484314">
<ele>352.984375</ele>
<time>2013-11-21T06:52:17Z</time>
<speed>1.780000</speed>
<extensions>
<speed>1.8</speed>
<temp>0.00</temp>
<bpm>0</bpm>
<rpm>0.00</rpm>
</extensions>
</trkpt>
<trkpt lat="30.843362808" lon="34.785560608">
<ele>354.687500</ele>
<time>2013-11-21T06:52:22Z</time>
<speed>1.960000</speed>
<extensions>
<speed>2.0</speed>
<temp>0.00</temp>
<bpm>0</bpm>
<rpm>0.00</rpm>
</extensions>
</trkpt>
<trkpt lat="30.843296051" lon="34.785663605">
<ele>354.398438</ele>
<time>2013-11-21T06:52:27Z</time>
<speed>2.120000</speed>
<extensions>
<speed>2.1</speed>
<temp>0.00</temp>
<bpm>0</bpm>
<rpm>0.00</rpm>
</extensions>
</trkpt>
<trkpt lat="30.843252182" lon="34.785793304">
<ele>355.343750</ele>
<time>2013-11-21T06:52:32Z</time>
<speed>2.630000</speed>
<extensions>
<speed>2.6</speed>
<temp>0.00</temp>
<bpm>0</bpm>
<rpm>0.00</rpm>
</extensions>
</trkpt>
<trkpt lat="30.843219757" lon="34.785919189">
<ele>356.109375</ele>
<time>2013-11-21T06:52:37Z</time>
<speed>1.960000</speed>
<extensions>
<speed>2.0</speed>
<temp>0.00</temp>
<bpm>0</bpm>
<rpm>0.00</rpm>
</extensions>
</trkpt>
<trkpt lat="30.843204498" lon="34.786094666">
<ele>356.648438</ele>
<time>2013-11-21T06:52:42Z</time>
<speed>3.470000</speed>
<extensions>
<speed>3.5</speed>
<temp>0.00</temp>
<bpm>0</bpm>
<rpm>0.00</rpm>
</extensions>
</trkpt>
<trkpt lat="30.843143463" lon="34.786312103">
<ele>356.796875</ele>
<time>2013-11-21T06:52:47Z</time>
<speed>4.210000</speed>
<extensions>
<speed>4.2</speed>
<temp>0.00</temp>
<bpm>0</bpm>
<rpm>0.00</rpm>
</extensions>
</trkpt>
<trkpt lat="30.843030930" lon="34.786491394">
<ele>356.875000</ele>
<time>2013-11-21T06:52:52Z</time>
<speed>5.690000</speed>
<extensions>
<speed>5.7</speed>
<temp>0.00</temp>
<bpm>0</bpm>
<rpm>0.00</rpm>
</extensions>
</trkpt>
<trkpt lat="30.842931747" lon="34.786731720">
<ele>355.593750</ele>
<time>2013-11-21T06:52:57Z</time>
<speed>4.960000</speed>
<extensions>
<speed>5.0</speed>
<temp>0.00</temp>
<bpm>0</bpm>
<rpm>0.00</rpm>
</extensions>
</trkpt>
<trkpt lat="30.842880249" lon="34.786933899">
<ele>355.789063</ele>
<time>2013-11-21T06:53:02Z</time>
<speed>2.630000</speed>
<extensions>
<speed>2.6</speed>
<temp>0.00</temp>
<bpm>0</bpm>
<rpm>0.00</rpm>
</extensions>
</trkpt>
<trkpt lat="30.842811584" lon="34.787059784">
<ele>356.015625</ele>
<time>2013-11-21T06:53:07Z</time>
<speed>2.780000</speed>
<extensions>
<speed>2.8</speed>
<temp>0.00</temp>
<bpm>0</bpm>
<rpm>0.00</rpm>
</extensions>
</trkpt>
<trkpt lat="30.842714310" lon="34.787158966">
<ele>355.664063</ele>
<time>2013-11-21T06:53:12Z</time>
<speed>2.700000</speed>
<extensions>
<speed>2.7</speed>
<temp>0.00</temp>
<bpm>0</bpm>
<rpm>0.00</rpm>
</extensions>
</trkpt>
<trkpt lat="30.842592239" lon="34.787178040">
<ele>354.609375</ele>
<time>2013-11-21T06:53:17Z</time>
<speed>2.770000</speed>
<extensions>
<speed>2.8</speed>
<temp>0.00</temp>
<bpm>0</bpm>
<rpm>0.00</rpm>
</extensions>
</trkpt>
<trkpt lat="30.842466354" lon="34.787193298">
<ele>350.453125</ele>
<time>2013-11-21T06:53:22Z</time>
<speed>3.020000</speed>
<extensions>
<speed>3.0</speed>
<temp>0.00</temp>
<bpm>0</bpm>
<rpm>0.00</rpm>
</extensions>
</trkpt>
<trkpt lat="30.842342377" lon="34.787197113">
<ele>352.718750</ele>
<time>2013-11-21T06:53:27Z</time>
<speed>2.780000</speed>
<extensions>
<speed>2.8</speed>
<temp>0.00</temp>
<bpm>0</bpm>
<rpm>0.00</rpm>
</extensions>
</trkpt>
<trkpt lat="30.842210770" lon="34.787170410">
<ele>353.562500</ele>
<time>2013-11-21T06:53:32Z</time>
<speed>2.940000</speed>
<extensions>
<speed>2.9</speed>
<temp>0.00</temp>
<bpm>0</bpm>
<rpm>0.00</rpm>
</extensions>
</trkpt>
<trkpt lat="30.842086792" lon="34.787185669">
<ele>355.921875</ele>
<time>2013-11-21T06:53:37Z</time>
<speed>2.150000</speed>
<extensions>
<speed>2.1</speed>
<temp>0.00</temp>
<bpm>0</bpm>
<rpm>0.00</rpm>
</extensions>
</trkpt>
<trkpt lat="30.841989517" lon="34.787185669">
<ele>357.726563</ele>
<time>2013-11-21T06:53:42Z</time>
<speed>1.890000</speed>
<extensions>
<speed>1.9</speed>
<temp>0.00</temp>
<bpm>0</bpm>
<rpm>0.00</rpm>
</extensions>
</trkpt>
<trkpt lat="30.841888428" lon="34.787242889">
<ele>357.476563</ele>
<time>2013-11-21T06:53:47Z</time>
<speed>2.510000</speed>
<extensions>
<speed>2.5</speed>
<temp>0.00</temp>
<bpm>0</bpm>
<rpm>0.00</rpm>
</extensions>
</trkpt>
<trkpt lat="30.841812134" lon="34.787364960">
<ele>358.203125</ele>
<time>2013-11-21T06:53:52Z</time>
<speed>2.840000</speed>
<extensions>
<speed>2.8</speed>
<temp>0.00</temp>
<bpm>0</bpm>
<rpm>0.00</rpm>
</extensions>
</trkpt>
<trkpt lat="30.841758728" lon="34.787490845">
<ele>357.195313</ele>
<time>2013-11-21T06:53:57Z</time>
<speed>2.160000</speed>
<extensions>
<speed>2.2</speed>
<temp>0.00</temp>
<bpm>0</bpm>
<rpm>0.00</rpm>
</extensions>
</trkpt>
<trkpt lat="30.841741562" lon="34.787605286">
<ele>356.921875</ele>
<time>2013-11-21T06:54:02Z</time>
<speed>2.460000</speed>
<extensions>
<speed>2.5</speed>
<temp>0.00</temp>
<bpm>0</bpm>
<rpm>0.00</rpm>
</extensions>
</trkpt>
<trkpt lat="30.841714859" lon="34.787742615">
<ele>357.164063</ele>
<time>2013-11-21T06:54:07Z</time>
<speed>2.940000</speed>
<extensions>
<speed>2.9</speed>
<temp>0.00</temp>
<bpm>0</bpm>
<rpm>0.00</rpm>
</extensions>
</trkpt>
<trkpt lat="30.841703415" lon="34.787925720">
<ele>356.539063</ele>
<time>2013-11-21T06:54:12Z</time>
<speed>3.020000</speed>
<extensions>
<speed>3.0</speed>
<temp>0.00</temp>
<bpm>0</bpm>
<rpm>0.00</rpm>
</extensions>
</trkpt>
<trkpt lat="30.841754913" lon="34.788135529">
<ele>357.570313</ele>
<time>2013-11-21T06:54:17Z</time>
<speed>4.730000</speed>
<extensions>
<speed>4.7</speed>
<temp>0.00</temp>
<bpm>0</bpm>
<rpm>0.00</rpm>
</extensions>
</trkpt>
<trkpt lat="30.841779709" lon="34.788429260">
<ele>358.843750</ele>
<time>2013-11-21T06:54:22Z</time>
<speed>5.830000</speed>
<extensions>
<speed>5.8</speed>
<temp>0.00</temp>
<bpm>0</bpm>
<rpm>0.00</rpm>
</extensions>
</trkpt>
<trkpt lat="30.841793060" lon="34.788749695">
<ele>358.546875</ele>
<time>2013-11-21T06:54:27Z</time>
<speed>5.680000</speed>
<extensions>
<speed>5.7</speed>
<temp>0.00</temp>
<bpm>0</bpm>
<rpm>0.00</rpm>
</extensions>
</trkpt>
<trkpt lat="30.841823578" lon="34.789096832">
<ele>357.101563</ele>
<time>2013-11-21T06:54:32Z</time>
<speed>6.390000</speed>
<extensions>
<speed>6.4</speed>
<temp>0.00</temp>
<bpm>0</bpm>
<rpm>0.00</rpm>
</extensions>
</trkpt>
<trkpt lat="30.841783524" lon="34.789489746">
<ele>354.312500</ele>
<time>2013-11-21T06:54:37Z</time>
<speed>6.930000</speed>
<extensions>
<speed>6.9</speed>
<temp>0.00</temp>
<bpm>0</bpm>
<rpm>0.00</rpm>
</extensions>
</trkpt>
<trkpt lat="30.841716766" lon="34.789875031">
<ele>350.484375</ele>
<time>2013-11-21T06:54:42Z</time>
<speed>7.410000</speed>
<extensions>
<speed>7.4</speed>
<temp>0.00</temp>
<bpm>0</bpm>
<rpm>0.00</rpm>
</extensions>
</trkpt>
<trkpt lat="30.841661453" lon="34.790237427">
<ele>348.398438</ele>
<time>2013-11-21T06:54:47Z</time>
<speed>6.070000</speed>
<extensions>
<speed>6.1</speed>
<temp>0.00</temp>
<bpm>0</bpm>
<rpm>0.00</rpm>
</extensions>
</trkpt>
<trkpt lat="30.841630936" lon="34.790496826">
<ele>349.054688</ele>
<time>2013-11-21T06:54:52Z</time>
<speed>4.090000</speed>
<extensions>
<speed>4.1</speed>
<temp>0.00</temp>
<bpm>0</bpm>
<rpm>0.00</rpm>
</extensions>
</trkpt>
<trkpt lat="30.841617584" lon="34.790737152">
<ele>350.046875</ele>
<time>2013-11-21T06:54:57Z</time>
<speed>5.350000</speed>
<extensions>
<speed>5.4</speed>
<temp>0.00</temp>
<bpm>0</bpm>
<rpm>0.00</rpm>
</extensions>
</trkpt>
<trkpt lat="30.841665268" lon="34.790981293">
<ele>347.281250</ele>
<time>2013-11-21T06:55:02Z</time>
<speed>4.860000</speed>
<extensions>
<speed>4.9</speed>
<temp>0.00</temp>
<bpm>0</bpm>
<rpm>0.00</rpm>
</extensions>
</trkpt>
<trkpt lat="30.841724396" lon="34.791191101">
<ele>348.085938</ele>
<time>2013-11-21T06:55:07Z</time>
<speed>4.530000</speed>
<extensions>
<speed>4.5</speed>
<temp>0.00</temp>
<bpm>0</bpm>
<rpm>0.00</rpm>
</extensions>
</trkpt>
<trkpt lat="30.841810226" lon="34.791450500">
<ele>349.960938</ele>
<time>2013-11-21T06:55:12Z</time>
<speed>5.520000</speed>
<extensions>
<speed>5.5</speed>
<temp>0.00</temp>
<bpm>0</bpm>
<rpm>0.00</rpm>
</extensions>
</trkpt>
<trkpt lat="30.841854095" lon="34.791740417">
<ele>351.859375</ele>
<time>2013-11-21T06:55:17Z</time>
<speed>5.940000</speed>
<extensions>
<speed>5.9</speed>
<temp>0.00</temp>
<bpm>0</bpm>
<rpm>0.00</rpm>
</extensions>
</trkpt>
<trkpt lat="30.841903687" lon="34.792060852">
<ele>353.773438</ele>
<time>2013-11-21T06:55:22Z</time>
<speed>5.180000</speed>
<extensions>
<speed>5.2</speed>
<temp>0.00</temp>
<bpm>0</bpm>
<rpm>0.00</rpm>
</extensions>
</trkpt>
<trkpt lat="30.841922760" lon="34.792331696">
<ele>353.632813</ele>
<time>2013-11-21T06:55:27Z</time>
<speed>6.040000</speed>
<extensions>
<speed>6.0</speed>
<temp>0.00</temp>
<bpm>0</bpm>
<rpm>0.00</rpm>
</extensions>
</trkpt>
<trkpt lat="30.841833115" lon="34.792526245">
<ele>353.820313</ele>
<time>2013-11-21T06:55:32Z</time>
<speed>4.710000</speed>
<extensions>
<speed>4.7</speed>
<temp>0.00</temp>
<bpm>0</bpm>
<rpm>0.00</rpm>
</extensions>
</trkpt>
<trkpt lat="30.841640472" lon="34.792655945">
<ele>355.984375</ele>
<time>2013-11-21T06:55:37Z</time>
<speed>4.740000</speed>
<extensions>
<speed>4.7</speed>
<temp>0.00</temp>
<bpm>0</bpm>
<rpm>0.00</rpm>
</extensions>
</trkpt>
<trkpt lat="30.841659546" lon="34.792877197">
<ele>355.328125</ele>
<time>2013-11-21T06:55:42Z</time>
<speed>3.230000</speed>
<extensions>
<speed>3.2</speed>
<temp>0.00</temp>
<bpm>0</bpm>
<rpm>0.00</rpm>
</extensions>
</trkpt>
<trkpt lat="30.841655731" lon="34.793014526">
<ele>355.070313</ele>
<time>2013-11-21T06:55:47Z</time>
<speed>2.010000</speed>
<extensions>
<speed>2.0</speed>
<temp>0.00</temp>
<bpm>0</bpm>
<rpm>0.00</rpm>
</extensions>
</trkpt>
<trkpt lat="30.841581345" lon="34.793159485">
<ele>353.101563</ele>
<time>2013-11-21T06:55:52Z</time>
<speed>2.550000</speed>
<extensions>
<speed>2.6</speed>
<temp>0.00</temp>
<bpm>0</bpm>
<rpm>0.00</rpm>
</extensions>
</trkpt>
<trkpt lat="30.841560364" lon="34.793231964">
<ele>352.804688</ele>
<time>2013-11-21T06:55:57Z</time>
<speed>0.300000</speed>
<extensions>
<speed>0.3</speed>
<temp>0.00</temp>
<bpm>0</bpm>
<rpm>0.00</rpm>
</extensions>
</trkpt>
<trkpt lat="30.841567993" lon="34.793251038">
<ele>352.062500</ele>
<time>2013-11-21T06:56:02Z</time>
<speed>0.110000</speed>
<extensions>
<speed>0.1</speed>
<temp>0.00</temp>
<bpm>0</bpm>
<rpm>0.00</rpm>
</extensions>
</trkpt>
<trkpt lat="30.841566086" lon="34.793251038">
<ele>352.078125</ele>
<time>2013-11-21T06:56:07Z</time>
<speed>0.090000</speed>
<extensions>
<speed>0.1</speed>
<temp>0.00</temp>
<bpm>0</bpm>
<rpm>0.00</rpm>
</extensions>
</trkpt>
<trkpt lat="30.841564178" lon="34.793262482">
<ele>352.101563</ele>
<time>2013-11-21T06:56:12Z</time>
<speed>0.380000</speed>
<extensions>
<speed>0.4</speed>
<temp>0.00</temp>
<bpm>0</bpm>
<rpm>0.00</rpm>
</extensions>
</trkpt>
<trkpt lat="30.841556549" lon="34.793292999">
<ele>352.156250</ele>
<time>2013-11-21T06:56:17Z</time>
<speed>0.720000</speed>
<extensions>
<speed>0.7</speed>
<temp>0.00</temp>
<bpm>0</bpm>
<rpm>0.00</rpm>
</extensions>
</trkpt>
<trkpt lat="30.841476440" lon="34.793346405">
<ele>351.843750</ele>
<time>2013-11-21T06:56:22Z</time>
<speed>2.240000</speed>
<extensions>
<speed>2.2</speed>
<temp>0.00</temp>
<bpm>0</bpm>
<rpm>0.00</rpm>
</extensions>
</trkpt>
<trkpt lat="30.841350555" lon="34.793403625">
<ele>351.585938</ele>
<time>2013-11-21T06:56:27Z</time>
<speed>2.400000</speed>
<extensions>
<speed>2.4</speed>
<temp>0.00</temp>
<bpm>0</bpm>
<rpm>0.00</rpm>
</extensions>
</trkpt>
<trkpt lat="30.841209412" lon="34.793491364">
<ele>351.195313</ele>
<time>2013-11-21T06:56:32Z</time>
<speed>3.150000</speed>
<extensions>
<speed>3.2</speed>
<temp>0.00</temp>
<bpm>0</bpm>
<rpm>0.00</rpm>
</extensions>
</trkpt>
<trkpt lat="30.841079712" lon="34.793579102">
<ele>350.781250</ele>
<time>2013-11-21T06:56:37Z</time>
<speed>3.490000</speed>
<extensions>
<speed>3.5</speed>
<temp>0.00</temp>
<bpm>0</bpm>
<rpm>0.00</rpm>
</extensions>
</trkpt>
<trkpt lat="30.840961456" lon="34.793720245">
<ele>350.210938</ele>
<time>2013-11-21T06:56:42Z</time>
<speed>3.400000</speed>
<extensions>
<speed>3.4</speed>
<temp>0.00</temp>
<bpm>0</bpm>
<rpm>0.00</rpm>
</extensions>
</trkpt>
<trkpt lat="30.840856552" lon="34.793876648">
<ele>349.835938</ele>
<time>2013-11-21T06:56:47Z</time>
<speed>2.890000</speed>
<extensions>
<speed>2.9</speed>
<temp>0.00</temp>
<bpm>0</bpm>
<rpm>0.00</rpm>
</extensions>
</trkpt>
<trkpt lat="30.840785980" lon="34.793987274">
<ele>349.125000</ele>
<time>2013-11-21T06:56:52Z</time>
<speed>2.950000</speed>
<extensions>
<speed>2.9</speed>
<temp>0.00</temp>
<bpm>0</bpm>
<rpm>0.00</rpm>
</extensions>
</trkpt>
<trkpt lat="30.840740204" lon="34.794143677">
<ele>348.257813</ele>
<time>2013-11-21T06:56:57Z</time>
<speed>3.460000</speed>
<extensions>
<speed>3.5</speed>
<temp>0.00</temp>
<bpm>0</bpm>
<rpm>0.00</rpm>
</extensions>
</trkpt>
<trkpt lat="30.840690613" lon="34.794338226">
<ele>347.531250</ele>
<time>2013-11-21T06:57:02Z</time>
<speed>3.950000</speed>
<extensions>
<speed>4.0</speed>
<temp>0.00</temp>
<bpm>0</bpm>
<rpm>0.00</rpm>
</extensions>
</trkpt>
<trkpt lat="30.840595245" lon="34.794536591">
<ele>346.921875</ele>
<time>2013-11-21T06:57:07Z</time>
<speed>3.440000</speed>
<extensions>
<speed>3.4</speed>
<temp>0.00</temp>
<bpm>0</bpm>
<rpm>0.00</rpm>
</extensions>
</trkpt>
<trkpt lat="30.840570450" lon="34.794715881">
<ele>345.882813</ele>
<time>2013-11-21T06:57:12Z</time>
<speed>3.610000</speed>
<extensions>
<speed>3.6</speed>
<temp>0.00</temp>
<bpm>0</bpm>
<rpm>0.00</rpm>
</extensions>
</trkpt>
<trkpt lat="30.840599060" lon="34.794876099">
<ele>345.835938</ele>
<time>2013-11-21T06:57:17Z</time>
<speed>3.330000</speed>
<extensions>
<speed>3.3</speed>
<temp>0.00</temp>
<bpm>0</bpm>
<rpm>0.00</rpm>
</extensions>
</trkpt>
<trkpt lat="30.840604782" lon="34.795021057">
<ele>345.937500</ele>
<time>2013-11-21T06:57:22Z</time>
<speed>3.220000</speed>
<extensions>
<speed>3.2</speed>
<temp>0.00</temp>
<bpm>0</bpm>
<rpm>0.00</rpm>
</extensions>
</trkpt>
<trkpt lat="30.840593338" lon="34.795253754">
<ele>345.281250</ele>
<time>2013-11-21T06:57:27Z</time>
<speed>3.860000</speed>
<extensions>
<speed>3.9</speed>
<temp>0.00</temp>
<bpm>0</bpm>
<rpm>0.00</rpm>
</extensions>
</trkpt>
<trkpt lat="30.840572357" lon="34.795486450">
<ele>344.789063</ele>
<time>2013-11-21T06:57:32Z</time>
<speed>4.140000</speed>
<extensions>
<speed>4.1</speed>
<temp>0.00</temp>
<bpm>0</bpm>
<rpm>0.00</rpm>
</extensions>
</trkpt>
<trkpt lat="30.840566635" lon="34.795688629">
<ele>343.414063</ele>
<time>2013-11-21T06:57:37Z</time>
<speed>4.110000</speed>
<extensions>
<speed>4.1</speed>
<temp>0.00</temp>
<bpm>0</bpm>
<rpm>0.00</rpm>
</extensions>
</trkpt>
<trkpt lat="30.840623856" lon="34.795898438">
<ele>342.609375</ele>
<time>2013-11-21T06:57:42Z</time>
<speed>3.680000</speed>
<extensions>
<speed>3.7</speed>
<temp>0.00</temp>
<bpm>0</bpm>
<rpm>0.00</rpm>
</extensions>
</trkpt>
<trkpt lat="30.840761185" lon="34.796058655">
<ele>343.093750</ele>
<time>2013-11-21T06:57:47Z</time>
<speed>4.050000</speed>
<extensions>
<speed>4.0</speed>
<temp>0.00</temp>
<bpm>0</bpm>
<rpm>0.00</rpm>
</extensions>
</trkpt>
<trkpt lat="30.840841293" lon="34.796272278">
<ele>342.429688</ele>
<time>2013-11-21T06:57:52Z</time>
<speed>4.400000</speed>
<extensions>
<speed>4.4</speed>
<temp>0.00</temp>
<bpm>0</bpm>
<rpm>0.00</rpm>
</extensions>
</trkpt>
<trkpt lat="30.840927124" lon="34.796459198">
<ele>342.171875</ele>
<time>2013-11-21T06:57:57Z</time>
<speed>4.340000</speed>
<extensions>
<speed>4.3</speed>
<temp>0.00</temp>
<bpm>0</bpm>
<rpm>0.00</rpm>
</extensions>
</trkpt>
<trkpt lat="30.841091156" lon="34.796619415">
<ele>341.867188</ele>
<time>2013-11-21T06:58:02Z</time>
<speed>4.230000</speed>
<extensions>
<speed>4.2</speed>
<temp>0.00</temp>
<bpm>0</bpm>
<rpm>0.00</rpm>
</extensions>
</trkpt>
<trkpt lat="30.841184616" lon="34.796806335">
<ele>342.039063</ele>
<time>2013-11-21T06:58:07Z</time>
<speed>4.020000</speed>
<extensions>
<speed>4.0</speed>
<temp>0.00</temp>
<bpm>0</bpm>
<rpm>0.00</rpm>
</extensions>
</trkpt>
<trkpt lat="30.841333389" lon="34.796955109">
<ele>342.117188</ele>
<time>2013-11-21T06:58:12Z</time>
<speed>3.790000</speed>
<extensions>
<speed>3.8</speed>
<temp>0.00</temp>
<bpm>0</bpm>
<rpm>0.00</rpm>
</extensions>
</trkpt>
<trkpt lat="30.841506958" lon="34.797050476">
<ele>342.234375</ele>
<time>2013-11-21T06:58:17Z</time>
<speed>3.720000</speed>
<extensions>
<speed>3.7</speed>
<temp>0.00</temp>
<bpm>0</bpm>
<rpm>0.00</rpm>
</extensions>
</trkpt>
<trkpt lat="30.841682434" lon="34.797088623">
<ele>343.054688</ele>
<time>2013-11-21T06:58:22Z</time>
<speed>4.360000</speed>
<extensions>
<speed>4.4</speed>
<temp>0.00</temp>
<bpm>0</bpm>
<rpm>0.00</rpm>
</extensions>
</trkpt>
<trkpt lat="30.841867447" lon="34.797039032">
<ele>342.570313</ele>
<time>2013-11-21T06:58:27Z</time>
<speed>3.630000</speed>
<extensions>
<speed>3.6</speed>
<temp>0.00</temp>
<bpm>0</bpm>
<rpm>0.00</rpm>
</extensions>
</trkpt>
<trkpt lat="30.842037201" lon="34.797080994">
<ele>341.093750</ele>
<time>2013-11-21T06:58:32Z</time>
<speed>3.750000</speed>
<extensions>
<speed>3.8</speed>
<temp>0.00</temp>
<bpm>0</bpm>
<rpm>0.00</rpm>
</extensions>
</trkpt>
<trkpt lat="30.842185974" lon="34.797241211">
<ele>341.382813</ele>
<time>2013-11-21T06:58:37Z</time>
<speed>4.930000</speed>
<extensions>
<speed>4.9</speed>
<temp>0.00</temp>
<bpm>0</bpm>
<rpm>0.00</rpm>
</extensions>
</trkpt>
<trkpt lat="30.842319489" lon="34.797473907">
<ele>341.304688</ele>
<time>2013-11-21T06:58:42Z</time>
<speed>4.030000</speed>
<extensions>
<speed>4.0</speed>
<temp>0.00</temp>
<bpm>0</bpm>
<rpm>0.00</rpm>
</extensions>
</trkpt>
<trkpt lat="30.842512131" lon="34.797622681">
<ele>340.375000</ele>
<time>2013-11-21T06:58:47Z</time>
<speed>4.960000</speed>
<extensions>
<speed>5.0</speed>
<temp>0.00</temp>
<bpm>0</bpm>
<rpm>0.00</rpm>
</extensions>
</trkpt>
<trkpt lat="30.842639923" lon="34.797710419">
<ele>338.914063</ele>
<time>2013-11-21T06:58:52Z</time>
<speed>2.800000</speed>
<extensions>
<speed>2.8</speed>
<temp>0.00</temp>
<bpm>0</bpm>
<rpm>0.00</rpm>
</extensions>
</trkpt>
<trkpt lat="30.842720032" lon="34.797866821">
<ele>339.632813</ele>
<time>2013-11-21T06:58:57Z</time>
<speed>3.320000</speed>
<extensions>
<speed>3.3</speed>
<temp>0.00</temp>
<bpm>0</bpm>
<rpm>0.00</rpm>
</extensions>
</trkpt>
<trkpt lat="30.842775345" lon="34.797962189">
<ele>338.515625</ele>
<time>2013-11-21T06:59:02Z</time>
<speed>0.100000</speed>
<extensions>
<speed>0.1</speed>
<temp>0.00</temp>
<bpm>0</bpm>
<rpm>0.00</rpm>
</extensions>
</trkpt>
<trkpt lat="30.842771530" lon="34.797958374">
<ele>339.171875</ele>
<time>2013-11-21T06:59:07Z</time>
<speed>0.040000</speed>
<extensions>
<speed>0.0</speed>
<temp>0.00</temp>
<bpm>0</bpm>
<rpm>0.00</rpm>
</extensions>
</trkpt>
<trkpt lat="30.842773438" lon="34.797962189">
<ele>339.093750</ele>
<time>2013-11-21T06:59:12Z</time>
<speed>0.110000</speed>
<extensions>
<speed>0.1</speed>
<temp>0.00</temp>
<bpm>0</bpm>
<rpm>0.00</rpm>
</extensions>
</trkpt>
<trkpt lat="30.842773438" lon="34.797962189">
<ele>339.000000</ele>
<time>2013-11-21T06:59:17Z</time>
<speed>0.030000</speed>
<extensions>
<speed>0.0</speed>
<temp>0.00</temp>
<bpm>0</bpm>
<rpm>0.00</rpm>
</extensions>
</trkpt>
<trkpt lat="30.842781067" lon="34.797958374">
<ele>338.976563</ele>
<time>2013-11-21T06:59:22Z</time>
<speed>0.310000</speed>
<extensions>
<speed>0.3</speed>
<temp>0.00</temp>
<bpm>0</bpm>
<rpm>0.00</rpm>
</extensions>
</trkpt>
<trkpt lat="30.842805862" lon="34.797973633">
<ele>339.000000</ele>
<time>2013-11-21T06:59:27Z</time>
<speed>1.150000</speed>
<extensions>
<speed>1.1</speed>
<temp>0.00</temp>
<bpm>0</bpm>
<rpm>0.00</rpm>
</extensions>
</trkpt>
<trkpt lat="30.842805862" lon="34.798156738">
<ele>338.703125</ele>
<time>2013-11-21T06:59:32Z</time>
<speed>3.800000</speed>
<extensions>
<speed>3.8</speed>
<temp>0.00</temp>
<bpm>0</bpm>
<rpm>0.00</rpm>
</extensions>
</trkpt>
<trkpt lat="30.842771530" lon="34.798385620">
<ele>338.632813</ele>
<time>2013-11-21T06:59:37Z</time>
<speed>4.310000</speed>
<extensions>
<speed>4.3</speed>
<temp>0.00</temp>
<bpm>0</bpm>
<rpm>0.00</rpm>
</extensions>
</trkpt>
<trkpt lat="30.842725754" lon="34.798603058">
<ele>339.031250</ele>
<time>2013-11-21T06:59:42Z</time>
<speed>2.910000</speed>
<extensions>
<speed>2.9</speed>
<temp>0.00</temp>
<bpm>0</bpm>
<rpm>0.00</rpm>
</extensions>
</trkpt>
<trkpt lat="30.842714310" lon="34.798686981">
<ele>339.718750</ele>
<time>2013-11-21T06:59:47Z</time>
<speed>1.460000</speed>
<extensions>
<speed>1.5</speed>
<temp>0.00</temp>
<bpm>0</bpm>
<rpm>0.00</rpm>
</extensions>
</trkpt>
<trkpt lat="30.842685699" lon="34.798801422">
<ele>340.320313</ele>
<time>2013-11-21T06:59:52Z</time>
<speed>1.770000</speed>
<extensions>
<speed>1.8</speed>
<temp>0.00</temp>
<bpm>0</bpm>
<rpm>0.00</rpm>
</extensions>
</trkpt>
<trkpt lat="30.842693329" lon="34.798912048">
<ele>341.312500</ele>
<time>2013-11-21T06:59:57Z</time>
<speed>2.690000</speed>
<extensions>
<speed>2.7</speed>
<temp>0.00</temp>
<bpm>0</bpm>
<rpm>0.00</rpm>
</extensions>
</trkpt>
<trkpt lat="30.842685699" lon="34.799083710">
<ele>342.140625</ele>
<time>2013-11-21T07:00:02Z</time>
<speed>4.180000</speed>
<extensions>
<speed>4.2</speed>
<temp>0.00</temp>
<bpm>0</bpm>
<rpm>0.00</rpm>
</extensions>
</trkpt>
<trkpt lat="30.842689514" lon="34.799308777">
<ele>343.023438</ele>
<time>2013-11-21T07:00:07Z</time>
<speed>4.570000</speed>
<extensions>
<speed>4.6</speed>
<temp>0.00</temp>
<bpm>0</bpm>
<rpm>0.00</rpm>
</extensions>
</trkpt>
<trkpt lat="30.842653275" lon="34.799545288">
<ele>342.093750</ele>
<time>2013-11-21T07:00:12Z</time>
<speed>5.150000</speed>
<extensions>
<speed>5.2</speed>
<temp>0.00</temp>
<bpm>0</bpm>
<rpm>0.00</rpm>
</extensions>
</trkpt>
<trkpt lat="30.842575073" lon="34.799808502">
<ele>340.921875</ele>
<time>2013-11-21T07:00:17Z</time>
<speed>5.220000</speed>
<extensions>
<speed>5.2</speed>
<temp>0.00</temp>
<bpm>0</bpm>
<rpm>0.00</rpm>
</extensions>
</trkpt>
<trkpt lat="30.842447281" lon="34.800029755">
<ele>343.476563</ele>
<time>2013-11-21T07:00:22Z</time>
<speed>5.240000</speed>
<extensions>
<speed>5.2</speed>
<temp>0.00</temp>
<bpm>0</bpm>
<rpm>0.00</rpm>
</extensions>
</trkpt>
<trkpt lat="30.842348099" lon="34.800247192">
<ele>343.234375</ele>
<time>2013-11-21T07:00:27Z</time>
<speed>4.670000</speed>
<extensions>
<speed>4.7</speed>
<temp>0.00</temp>
<bpm>0</bpm>
<rpm>0.00</rpm>
</extensions>
</trkpt>
<trkpt lat="30.842288971" lon="34.800449371">
<ele>343.773438</ele>
<time>2013-11-21T07:00:32Z</time>
<speed>4.310000</speed>
<extensions>
<speed>4.3</speed>
<temp>0.00</temp>
<bpm>0</bpm>
<rpm>0.00</rpm>
</extensions>
</trkpt>
<trkpt lat="30.842252731" lon="34.800697327">
<ele>344.796875</ele>
<time>2013-11-21T07:00:37Z</time>
<speed>4.820000</speed>
<extensions>
<speed>4.8</speed>
<temp>0.00</temp>
<bpm>0</bpm>
<rpm>0.00</rpm>
</extensions>
</trkpt>
<trkpt lat="30.842203140" lon="34.800907135">
<ele>344.984375</ele>
<time>2013-11-21T07:00:42Z</time>
<speed>4.590000</speed>
<extensions>
<speed>4.6</speed>
<temp>0.00</temp>
<bpm>0</bpm>
<rpm>0.00</rpm>
</extensions>
</trkpt>
<trkpt lat="30.842159271" lon="34.801113129">
<ele>344.992188</ele>
<time>2013-11-21T07:00:47Z</time>
<speed>3.860000</speed>
<extensions>
<speed>3.9</speed>
<temp>0.00</temp>
<bpm>0</bpm>
<rpm>0.00</rpm>
</extensions>
</trkpt>
<trkpt lat="30.842111588" lon="34.801288605">
<ele>341.492188</ele>
<time>2013-11-21T07:00:52Z</time>
<speed>3.330000</speed>
<extensions>
<speed>3.3</speed>
<temp>0.00</temp>
<bpm>0</bpm>
<rpm>0.00</rpm>
</extensions>
</trkpt>
<trkpt lat="30.842000961" lon="34.801349640">
<ele>338.929688</ele>
<time>2013-11-21T07:00:57Z</time>
<speed>2.890000</speed>
<extensions>
<speed>2.9</speed>
<temp>0.00</temp>
<bpm>0</bpm>
<rpm>0.00</rpm>
</extensions>
</trkpt>
<trkpt lat="30.841802597" lon="34.801334381">
<ele>337.960938</ele>
<time>2013-11-21T07:01:02Z</time>
<speed>5.720000</speed>
<extensions>
<speed>5.7</speed>
<temp>0.00</temp>
<bpm>0</bpm>
<rpm>0.00</rpm>
</extensions>
</trkpt>
<trkpt lat="30.841625214" lon="34.801464081">
<ele>342.085938</ele>
<time>2013-11-21T07:01:07Z</time>
<speed>3.190000</speed>
<extensions>
<speed>3.2</speed>
<temp>0.00</temp>
<bpm>0</bpm>
<rpm>0.00</rpm>
</extensions>
</trkpt>
<trkpt lat="30.841590881" lon="34.801696777">
<ele>343.265625</ele>
<time>2013-11-21T07:01:12Z</time>
<speed>4.240000</speed>
<extensions>
<speed>4.2</speed>
<temp>0.00</temp>
<bpm>0</bpm>
<rpm>0.00</rpm>
</extensions>
</trkpt>
<trkpt lat="30.841600418" lon="34.801925659">
<ele>342.875000</ele>
<time>2013-11-21T07:01:17Z</time>
<speed>3.910000</speed>
<extensions>
<speed>3.9</speed>
<temp>0.00</temp>
<bpm>0</bpm>
<rpm>0.00</rpm>
</extensions>
</trkpt>
<trkpt lat="30.841501236" lon="34.802093506">
<ele>342.859375</ele>
<time>2013-11-21T07:01:22Z</time>
<speed>3.750000</speed>
<extensions>
<speed>3.8</speed>
<temp>0.00</temp>
<bpm>0</bpm>
<rpm>0.00</rpm>
</extensions>
</trkpt>
<trkpt lat="30.841409683" lon="34.802204132">
<ele>341.835938</ele>
<time>2013-11-21T07:01:27Z</time>
<speed>2.340000</speed>
<extensions>
<speed>2.3</speed>
<temp>0.00</temp>
<bpm>0</bpm>
<rpm>0.00</rpm>
</extensions>
</trkpt>
<trkpt lat="30.841400146" lon="34.802211761">
<ele>337.523438</ele>
<time>2013-11-21T07:01:32Z</time>
<speed>0.340000</speed>
<extensions>
<speed>0.3</speed>
<temp>0.00</temp>
<bpm>0</bpm>
<rpm>0.00</rpm>
</extensions>
</trkpt>
<trkpt lat="30.841411591" lon="34.802207947">
<ele>338.015625</ele>
<time>2013-11-21T07:01:37Z</time>
<speed>0.430000</speed>
<extensions>
<speed>0.4</speed>
<temp>0.00</temp>
<bpm>0</bpm>
<rpm>0.00</rpm>
</extensions>
</trkpt>
<trkpt lat="30.841430664" lon="34.802204132">
<ele>338.601563</ele>
<time>2013-11-21T07:01:42Z</time>
<speed>0.360000</speed>
<extensions>
<speed>0.4</speed>
<temp>0.00</temp>
<bpm>0</bpm>
<rpm>0.00</rpm>
</extensions>
</trkpt>
<trkpt lat="30.841440201" lon="34.802211761">
<ele>339.164063</ele>
<time>2013-11-21T07:01:47Z</time>
<speed>0.140000</speed>
<extensions>
<speed>0.1</speed>
<temp>0.00</temp>
<bpm>0</bpm>
<rpm>0.00</rpm>
</extensions>
</trkpt>
<trkpt lat="30.841449738" lon="34.802215576">
<ele>339.640625</ele>
<time>2013-11-21T07:01:52Z</time>
<speed>0.980000</speed>
<extensions>
<speed>1.0</speed>
<temp>0.00</temp>
<bpm>0</bpm>
<rpm>0.00</rpm>
</extensions>
</trkpt>
<trkpt lat="30.841455460" lon="34.802288055">
<ele>339.453125</ele>
<time>2013-11-21T07:01:57Z</time>
<speed>2.670000</speed>
<extensions>
<speed>2.7</speed>
<temp>0.00</temp>
<bpm>0</bpm>
<rpm>0.00</rpm>
</extensions>
</trkpt>
<trkpt lat="30.841379166" lon="34.802455902">
<ele>338.664063</ele>
<time>2013-11-21T07:02:02Z</time>
<speed>3.390000</speed>
<extensions>
<speed>3.4</speed>
<temp>0.00</temp>
<bpm>0</bpm>
<rpm>0.00</rpm>
</extensions>
</trkpt>
<trkpt lat="30.841230392" lon="34.802646637">
<ele>337.312500</ele>
<time>2013-11-21T07:02:07Z</time>
<speed>4.070000</speed>
<extensions>
<speed>4.1</speed>
<temp>0.00</temp>
<bpm>0</bpm>
<rpm>0.00</rpm>
</extensions>
</trkpt>
<trkpt lat="30.841073990" lon="34.802806854">
<ele>336.570313</ele>
<time>2013-11-21T07:02:12Z</time>
<speed>4.650000</speed>
<extensions>
<speed>4.6</speed>
<temp>0.00</temp>
<bpm>0</bpm>
<rpm>0.00</rpm>
</extensions>
</trkpt>
<trkpt lat="30.840969086" lon="34.802963257">
<ele>334.687500</ele>
<time>2013-11-21T07:02:17Z</time>
<speed>2.920000</speed>
<extensions>
<speed>2.9</speed>
<temp>0.00</temp>
<bpm>0</bpm>
<rpm>0.00</rpm>
</extensions>
</trkpt>
<trkpt lat="30.840854645" lon="34.803077698">
<ele>333.500000</ele>
<time>2013-11-21T07:02:22Z</time>
<speed>3.360000</speed>
<extensions>
<speed>3.4</speed>
<temp>0.00</temp>
<bpm>0</bpm>
<rpm>0.00</rpm>
</extensions>
</trkpt>
<trkpt lat="30.840717316" lon="34.803180695">
<ele>334.601563</ele>
<time>2013-11-21T07:02:27Z</time>
<speed>3.310000</speed>
<extensions>
<speed>3.3</speed>
<temp>0.00</temp>
<bpm>0</bpm>
<rpm>0.00</rpm>
</extensions>
</trkpt>
<trkpt lat="30.840642929" lon="34.803256989">
<ele>333.804688</ele>
<time>2013-11-21T07:02:32Z</time>
<speed>1.390000</speed>
<extensions>
<speed>1.4</speed>
<temp>0.00</temp>
<bpm>0</bpm>
<rpm>0.00</rpm>
</extensions>
</trkpt>
<trkpt lat="30.840591431" lon="34.803340912">
<ele>331.117188</ele>
<time>2013-11-21T07:02:37Z</time>
<speed>1.670000</speed>
<extensions>
<speed>1.7</speed>
<temp>0.00</temp>
<bpm>0</bpm>
<rpm>0.00</rpm>
</extensions>
</trkpt>
<trkpt lat="30.840526581" lon="34.803405762">
<ele>329.367188</ele>
<time>2013-11-21T07:02:42Z</time>
<speed>1.910000</speed>
<extensions>
<speed>1.9</speed>
<temp>0.00</temp>
<bpm>0</bpm>
<rpm>0.00</rpm>
</extensions>
</trkpt>
<trkpt lat="30.840461731" lon="34.803466797">
<ele>327.367188</ele>
<time>2013-11-21T07:02:47Z</time>
<speed>2.190000</speed>
<extensions>
<speed>2.2</speed>
<temp>0.00</temp>
<bpm>0</bpm>
<rpm>0.00</rpm>
</extensions>
</trkpt>
<trkpt lat="30.840404510" lon="34.803531647">
<ele>327.742188</ele>
<time>2013-11-21T07:02:52Z</time>
<speed>2.840000</speed>
<extensions>
<speed>2.8</speed>
<temp>0.00</temp>
<bpm>0</bpm>
<rpm>0.00</rpm>
</extensions>
</trkpt>
<trkpt lat="30.840303421" lon="34.803600311">
<ele>328.125000</ele>
<time>2013-11-21T07:02:57Z</time>
<speed>3.110000</speed>
<extensions>
<speed>3.1</speed>
<temp>0.00</temp>
<bpm>0</bpm>
<rpm>0.00</rpm>
</extensions>
</trkpt>
<trkpt lat="30.840188980" lon="34.803695679">
<ele>327.820313</ele>
<time>2013-11-21T07:03:02Z</time>
<speed>3.230000</speed>
<extensions>
<speed>3.2</speed>
<temp>0.00</temp>
<bpm>0</bpm>
<rpm>0.00</rpm>
</extensions>
</trkpt>
<trkpt lat="30.840017319" lon="34.803821564">
<ele>326.429688</ele>
<time>2013-11-21T07:03:07Z</time>
<speed>4.030000</speed>
<extensions>
<speed>4.0</speed>
<temp>0.00</temp>
<bpm>0</bpm>
<rpm>0.00</rpm>
</extensions>
</trkpt>
<trkpt lat="30.839857101" lon="34.803955078">
<ele>326.515625</ele>
<time>2013-11-21T07:03:12Z</time>
<speed>4.390000</speed>
<extensions>
<speed>4.4</speed>
<temp>0.00</temp>
<bpm>0</bpm>
<rpm>0.00</rpm>
</extensions>
</trkpt>
<trkpt lat="30.839721680" lon="34.804111481">
<ele>326.109375</ele>
<time>2013-11-21T07:03:17Z</time>
<speed>5.000000</speed>
<extensions>
<speed>5.0</speed>
<temp>0.00</temp>
<bpm>0</bpm>
<rpm>0.00</rpm>
</extensions>
</trkpt>
<trkpt lat="30.839582443" lon="34.804283142">
<ele>326.921875</ele>
<time>2013-11-21T07:03:22Z</time>
<speed>4.510000</speed>
<extensions>
<speed>4.5</speed>
<temp>0.00</temp>
<bpm>0</bpm>
<rpm>0.00</rpm>
</extensions>
</trkpt>
<trkpt lat="30.839443207" lon="34.804428101">
<ele>326.039063</ele>
<time>2013-11-21T07:03:27Z</time>
<speed>4.350000</speed>
<extensions>
<speed>4.3</speed>
<temp>0.00</temp>
<bpm>0</bpm>
<rpm>0.00</rpm>
</extensions>
</trkpt>
<trkpt lat="30.839317322" lon="34.804611206">
<ele>325.867188</ele>
<time>2013-11-21T07:03:32Z</time>
<speed>4.340000</speed>
<extensions>
<speed>4.3</speed>
<temp>0.00</temp>
<bpm>0</bpm>
<rpm>0.00</rpm>
</extensions>
</trkpt>
<trkpt lat="30.839183807" lon="34.804801941">
<ele>323.726563</ele>
<time>2013-11-21T07:03:37Z</time>
<speed>4.270000</speed>
<extensions>
<speed>4.3</speed>
<temp>0.00</temp>
<bpm>0</bpm>
<rpm>0.00</rpm>
</extensions>
</trkpt>
<trkpt lat="30.839075089" lon="34.804962158">
<ele>323.656250</ele>
<time>2013-11-21T07:03:42Z</time>
<speed>4.200000</speed>
<extensions>
<speed>4.2</speed>
<temp>0.00</temp>
<bpm>0</bpm>
<rpm>0.00</rpm>
</extensions>
</trkpt>
<trkpt lat="30.838991165" lon="34.805156708">
<ele>323.234375</ele>
<time>2013-11-21T07:03:47Z</time>
<speed>4.320000</speed>
<extensions>
<speed>4.3</speed>
<temp>0.00</temp>
<bpm>0</bpm>
<rpm>0.00</rpm>
</extensions>
</trkpt>
<trkpt lat="30.838914871" lon="34.805358887">
<ele>323.250000</ele>
<time>2013-11-21T07:03:52Z</time>
<speed>4.020000</speed>
<extensions>
<speed>4.0</speed>
<temp>0.00</temp>
<bpm>0</bpm>
<rpm>0.00</rpm>
</extensions>
</trkpt>
<trkpt lat="30.838811874" lon="34.805561066">
<ele>322.078125</ele>
<time>2013-11-21T07:03:57Z</time>
<speed>4.520000</speed>
<extensions>
<speed>4.5</speed>
<temp>0.00</temp>
<bpm>0</bpm>
<rpm>0.00</rpm>
</extensions>
</trkpt>
<trkpt lat="30.838695526" lon="34.805755615">
<ele>321.820313</ele>
<time>2013-11-21T07:04:02Z</time>
<speed>4.780000</speed>
<extensions>
<speed>4.8</speed>
<temp>0.00</temp>
<bpm>0</bpm>
<rpm>0.00</rpm>
</extensions>
</trkpt>
<trkpt lat="30.838644028" lon="34.805904388">
<ele>325.375000</ele>
<time>2013-11-21T07:04:07Z</time>
<speed>3.190000</speed>
<extensions>
<speed>3.2</speed>
<temp>0.00</temp>
<bpm>0</bpm>
<rpm>0.00</rpm>
</extensions>
</trkpt>
<trkpt lat="30.838619232" lon="34.806018829">
<ele>327.601563</ele>
<time>2013-11-21T07:04:12Z</time>
<speed>2.270000</speed>
<extensions>
<speed>2.3</speed>
<temp>0.00</temp>
<bpm>0</bpm>
<rpm>0.00</rpm>
</extensions>
</trkpt>
<trkpt lat="30.838546753" lon="34.806163788">
<ele>329.195313</ele>
<time>2013-11-21T07:04:17Z</time>
<speed>3.350000</speed>
<extensions>
<speed>3.4</speed>
<temp>0.00</temp>
<bpm>0</bpm>
<rpm>0.00</rpm>
</extensions>
</trkpt>
<trkpt lat="30.838422775" lon="34.806362152">
<ele>329.164063</ele>
<time>2013-11-21T07:04:22Z</time>
<speed>3.750000</speed>
<extensions>
<speed>3.8</speed>
<temp>0.00</temp>
<bpm>0</bpm>
<rpm>0.00</rpm>
</extensions>
</trkpt>
<trkpt lat="30.838375092" lon="34.806568146">
<ele>328.179688</ele>
<time>2013-11-21T07:04:27Z</time>
<speed>4.420000</speed>
<extensions>
<speed>4.4</speed>
<temp>0.00</temp>
<bpm>0</bpm>
<rpm>0.00</rpm>
</extensions>
</trkpt>
<trkpt lat="30.838424683" lon="34.806743622">
<ele>327.851563</ele>
<time>2013-11-21T07:04:32Z</time>
<speed>3.750000</speed>
<extensions>
<speed>3.8</speed>
<temp>0.00</temp>
<bpm>0</bpm>
<rpm>0.00</rpm>
</extensions>
</trkpt>
<trkpt lat="30.838478088" lon="34.806953430">
<ele>329.492188</ele>
<time>2013-11-21T07:04:37Z</time>
<speed>4.070000</speed>
<extensions>
<speed>4.1</speed>
<temp>0.00</temp>
<bpm>0</bpm>
<rpm>0.00</rpm>
</extensions>
</trkpt>
<trkpt lat="30.838520050" lon="34.807189941">
<ele>329.781250</ele>
<time>2013-11-21T07:04:42Z</time>
<speed>4.380000</speed>
<extensions>
<speed>4.4</speed>
<temp>0.00</temp>
<bpm>0</bpm>
<rpm>0.00</rpm>
</extensions>
</trkpt>
<trkpt lat="30.838567734" lon="34.807399750">
<ele>329.195313</ele>
<time>2013-11-21T07:04:47Z</time>
<speed>3.520000</speed>
<extensions>
<speed>3.5</speed>
<temp>0.00</temp>
<bpm>0</bpm>
<rpm>0.00</rpm>
</extensions>
</trkpt>
<trkpt lat="30.838632584" lon="34.807590485">
<ele>328.875000</ele>
<time>2013-11-21T07:04:52Z</time>
<speed>3.860000</speed>
<extensions>
<speed>3.9</speed>
<temp>0.00</temp>
<bpm>0</bpm>
<rpm>0.00</rpm>
</extensions>
</trkpt>
<trkpt lat="30.838733673" lon="34.807785034">
<ele>330.390625</ele>
<time>2013-11-21T07:04:57Z</time>
<speed>4.250000</speed>
<extensions>
<speed>4.3</speed>
<temp>0.00</temp>
<bpm>0</bpm>
<rpm>0.00</rpm>
</extensions>
</trkpt>
<trkpt lat="30.838817596" lon="34.807968140">
<ele>330.296875</ele>
<time>2013-11-21T07:05:02Z</time>
<speed>4.050000</speed>
<extensions>
<speed>4.0</speed>
<temp>0.00</temp>
<bpm>0</bpm>
<rpm>0.00</rpm>
</extensions>
</trkpt>
<trkpt lat="30.838911057" lon="34.808128357">
<ele>331.156250</ele>
<time>2013-11-21T07:05:07Z</time>
<speed>4.200000</speed>
<extensions>
<speed>4.2</speed>
<temp>0.00</temp>
<bpm>0</bpm>
<rpm>0.00</rpm>
</extensions>
</trkpt>
<trkpt lat="30.838939667" lon="34.808338165">
<ele>333.375000</ele>
<time>2013-11-21T07:05:12Z</time>
<speed>3.350000</speed>
<extensions>
<speed>3.4</speed>
<temp>0.00</temp>
<bpm>0</bpm>
<rpm>0.00</rpm>
</extensions>
</trkpt>
<trkpt lat="30.838933945" lon="34.808486938">
<ele>332.218750</ele>
<time>2013-11-21T07:05:17Z</time>
<speed>2.020000</speed>
<extensions>
<speed>2.0</speed>
<temp>0.00</temp>
<bpm>0</bpm>
<rpm>0.00</rpm>
</extensions>
</trkpt>
<trkpt lat="30.838932037" lon="34.808601379">
<ele>329.945313</ele>
<time>2013-11-21T07:05:22Z</time>
<speed>2.720000</speed>
<extensions>
<speed>2.7</speed>
<temp>0.00</temp>
<bpm>0</bpm>
<rpm>0.00</rpm>
</extensions>
</trkpt>
<trkpt lat="30.838964462" lon="34.808738708">
<ele>328.484375</ele>
<time>2013-11-21T07:05:27Z</time>
<speed>2.720000</speed>
<extensions>
<speed>2.7</speed>
<temp>0.00</temp>
<bpm>0</bpm>
<rpm>0.00</rpm>
</extensions>
</trkpt>
<trkpt lat="30.839021683" lon="34.808860779">
<ele>327.601563</ele>
<time>2013-11-21T07:05:32Z</time>
<speed>2.190000</speed>
<extensions>
<speed>2.2</speed>
<temp>0.00</temp>
<bpm>0</bpm>
<rpm>0.00</rpm>
</extensions>
</trkpt>
<trkpt lat="30.839075089" lon="34.808994293">
<ele>325.531250</ele>
<time>2013-11-21T07:05:37Z</time>
<speed>2.890000</speed>
<extensions>
<speed>2.9</speed>
<temp>0.00</temp>
<bpm>0</bpm>
<rpm>0.00</rpm>
</extensions>
</trkpt>
<trkpt lat="30.839117050" lon="34.809169769">
<ele>325.617188</ele>
<time>2013-11-21T07:05:42Z</time>
<speed>2.390000</speed>
<extensions>
<speed>2.4</speed>
<temp>0.00</temp>
<bpm>0</bpm>
<rpm>0.00</rpm>
</extensions>
</trkpt>
<trkpt lat="30.839115143" lon="34.809329987">
<ele>327.023438</ele>
<time>2013-11-21T07:05:47Z</time>
<speed>3.300000</speed>
<extensions>
<speed>3.3</speed>
<temp>0.00</temp>
<bpm>0</bpm>
<rpm>0.00</rpm>
</extensions>
</trkpt>
<trkpt lat="30.839105606" lon="34.809547424">
<ele>326.648438</ele>
<time>2013-11-21T07:05:52Z</time>
<speed>3.830000</speed>
<extensions>
<speed>3.8</speed>
<temp>0.00</temp>
<bpm>0</bpm>
<rpm>0.00</rpm>
</extensions>
</trkpt>
<trkpt lat="30.839082718" lon="34.809791565">
<ele>326.179688</ele>
<time>2013-11-21T07:05:57Z</time>
<speed>4.970000</speed>
<extensions>
<speed>5.0</speed>
<temp>0.00</temp>
<bpm>0</bpm>
<rpm>0.00</rpm>
</extensions>
</trkpt>
<trkpt lat="30.839092255" lon="34.810009003">
<ele>324.515625</ele>
<time>2013-11-21T07:06:02Z</time>
<speed>2.880000</speed>
<extensions>
<speed>2.9</speed>
<temp>0.00</temp>
<bpm>0</bpm>
<rpm>0.00</rpm>
</extensions>
</trkpt>
<trkpt lat="30.839071274" lon="34.810165405">
<ele>323.554688</ele>
<time>2013-11-21T07:06:07Z</time>
<speed>2.480000</speed>
<extensions>
<speed>2.5</speed>
<temp>0.00</temp>
<bpm>0</bpm>
<rpm>0.00</rpm>
</extensions>
</trkpt>
<trkpt lat="30.838998795" lon="34.810317993">
<ele>325.859375</ele>
<time>2013-11-21T07:06:12Z</time>
<speed>2.310000</speed>
<extensions>
<speed>2.3</speed>
<temp>0.00</temp>
<bpm>0</bpm>
<rpm>0.00</rpm>
</extensions>
</trkpt>
<trkpt lat="30.838901520" lon="34.810317993">
<ele>326.718750</ele>
<time>2013-11-21T07:06:17Z</time>
<speed>2.230000</speed>
<extensions>
<speed>2.2</speed>
<temp>0.00</temp>
<bpm>0</bpm>
<rpm>0.00</rpm>
</extensions>
</trkpt>
<trkpt lat="30.838769913" lon="34.810295105">
<ele>327.929688</ele>
<time>2013-11-21T07:06:22Z</time>
<speed>2.740000</speed>
<extensions>
<speed>2.7</speed>
<temp>0.00</temp>
<bpm>0</bpm>
<rpm>0.00</rpm>
</extensions>
</trkpt>
<trkpt lat="30.838651657" lon="34.810230255">
<ele>329.492188</ele>
<time>2013-11-21T07:06:27Z</time>
<speed>3.510000</speed>
<extensions>
<speed>3.5</speed>
<temp>0.00</temp>
<bpm>0</bpm>
<rpm>0.00</rpm>
</extensions>
</trkpt>
<trkpt lat="30.838472366" lon="34.810234070">
<ele>330.671875</ele>
<time>2013-11-21T07:06:32Z</time>
<speed>4.100000</speed>
<extensions>
<speed>4.1</speed>
<temp>0.00</temp>
<bpm>0</bpm>
<rpm>0.00</rpm>
</extensions>
</trkpt>
<trkpt lat="30.838294983" lon="34.810268402">
<ele>331.984375</ele>
<time>2013-11-21T07:06:37Z</time>
<speed>3.830000</speed>
<extensions>
<speed>3.8</speed>
<temp>0.00</temp>
<bpm>0</bpm>
<rpm>0.00</rpm>
</extensions>
</trkpt>
<trkpt lat="30.838125229" lon="34.810333252">
<ele>333.687500</ele>
<time>2013-11-21T07:06:42Z</time>
<speed>3.440000</speed>
<extensions>
<speed>3.4</speed>
<temp>0.00</temp>
<bpm>0</bpm>
<rpm>0.00</rpm>
</extensions>
</trkpt>
<trkpt lat="30.837963104" lon="34.810371399">
<ele>332.164063</ele>
<time>2013-11-21T07:06:47Z</time>
<speed>3.780000</speed>
<extensions>
<speed>3.8</speed>
<temp>0.00</temp>
<bpm>0</bpm>
<rpm>0.00</rpm>
</extensions>
</trkpt>
<trkpt lat="30.837816238" lon="34.810363770">
<ele>331.718750</ele>
<time>2013-11-21T07:06:52Z</time>
<speed>3.060000</speed>
<extensions>
<speed>3.1</speed>
<temp>0.00</temp>
<bpm>0</bpm>
<rpm>0.00</rpm>
</extensions>
</trkpt>
<trkpt lat="30.837661743" lon="34.810390472">
<ele>333.812500</ele>
<time>2013-11-21T07:06:57Z</time>
<speed>3.580000</speed>
<extensions>
<speed>3.6</speed>
<temp>0.00</temp>
<bpm>0</bpm>
<rpm>0.00</rpm>
</extensions>
</trkpt>
<trkpt lat="30.837491989" lon="34.810420990">
<ele>330.648438</ele>
<time>2013-11-21T07:07:02Z</time>
<speed>4.100000</speed>
<extensions>
<speed>4.1</speed>
<temp>0.00</temp>
<bpm>0</bpm>
<rpm>0.00</rpm>
</extensions>
</trkpt>
<trkpt lat="30.837301254" lon="34.810478210">
<ele>331.085938</ele>
<time>2013-11-21T07:07:07Z</time>
<speed>4.140000</speed>
<extensions>
<speed>4.1</speed>
<temp>0.00</temp>
<bpm>0</bpm>
<rpm>0.00</rpm>
</extensions>
</trkpt>
<trkpt lat="30.837125778" lon="34.810535431">
<ele>336.335938</ele>
<time>2013-11-21T07:07:12Z</time>
<speed>3.600000</speed>
<extensions>
<speed>3.6</speed>
<temp>0.00</temp>
<bpm>0</bpm>
<rpm>0.00</rpm>
</extensions>
</trkpt>
<trkpt lat="30.836944580" lon="34.810588837">
<ele>337.187500</ele>
<time>2013-11-21T07:07:17Z</time>
<speed>3.920000</speed>
<extensions>
<speed>3.9</speed>
<temp>0.00</temp>
<bpm>0</bpm>
<rpm>0.00</rpm>
</extensions>
</trkpt>
<trkpt lat="30.836761475" lon="34.810611725">
<ele>335.742188</ele>
<time>2013-11-21T07:07:22Z</time>
<speed>3.970000</speed>
<extensions>
<speed>4.0</speed>
<temp>0.00</temp>
<bpm>0</bpm>
<rpm>0.00</rpm>
</extensions>
</trkpt>
<trkpt lat="30.836572647" lon="34.810638428">
<ele>336.742188</ele>
<time>2013-11-21T07:07:27Z</time>
<speed>3.920000</speed>
<extensions>
<speed>3.9</speed>
<temp>0.00</temp>
<bpm>0</bpm>
<rpm>0.00</rpm>
</extensions>
</trkpt>
<trkpt lat="30.836420059" lon="34.810684204">
<ele>339.070313</ele>
<time>2013-11-21T07:07:32Z</time>
<speed>3.890000</speed>
<extensions>
<speed>3.9</speed>
<temp>0.00</temp>
<bpm>0</bpm>
<rpm>0.00</rpm>
</extensions>
</trkpt>
<trkpt lat="30.836267471" lon="34.810825348">
<ele>340.039063</ele>
<time>2013-11-21T07:07:37Z</time>
<speed>3.810000</speed>
<extensions>
<speed>3.8</speed>
<temp>0.00</temp>
<bpm>0</bpm>
<rpm>0.00</rpm>
</extensions>
</trkpt>
<trkpt lat="30.836160660" lon="34.810962677">
<ele>339.859375</ele>
<time>2013-11-21T07:07:42Z</time>
<speed>2.550000</speed>
<extensions>
<speed>2.6</speed>
<temp>0.00</temp>
<bpm>0</bpm>
<rpm>0.00</rpm>
</extensions>
</trkpt>
<trkpt lat="30.836065292" lon="34.811054230">
<ele>339.546875</ele>
<time>2013-11-21T07:07:47Z</time>
<speed>3.150000</speed>
<extensions>
<speed>3.2</speed>
<temp>0.00</temp>
<bpm>0</bpm>
<rpm>0.00</rpm>
</extensions>
</trkpt>
<trkpt lat="30.835966110" lon="34.811183929">
<ele>339.992188</ele>
<time>2013-11-21T07:07:52Z</time>
<speed>3.050000</speed>
<extensions>
<speed>3.0</speed>
<temp>0.00</temp>
<bpm>0</bpm>
<rpm>0.00</rpm>
</extensions>
</trkpt>
<trkpt lat="30.835906982" lon="34.811302185">
<ele>338.031250</ele>
<time>2013-11-21T07:07:57Z</time>
<speed>2.300000</speed>
<extensions>
<speed>2.3</speed>
<temp>0.00</temp>
<bpm>0</bpm>
<rpm>0.00</rpm>
</extensions>
</trkpt>
<trkpt lat="30.835870743" lon="34.811405182">
<ele>337.617188</ele>
<time>2013-11-21T07:08:02Z</time>
<speed>1.750000</speed>
<extensions>
<speed>1.8</speed>
<temp>0.00</temp>
<bpm>0</bpm>
<rpm>0.00</rpm>
</extensions>
</trkpt>
<trkpt lat="30.835859299" lon="34.811439514">
<ele>336.039063</ele>
<time>2013-11-21T07:08:07Z</time>
<speed>0.920000</speed>
<extensions>
<speed>0.9</speed>
<temp>0.00</temp>
<bpm>0</bpm>
<rpm>0.00</rpm>
</extensions>
</trkpt>
<trkpt lat="30.835859299" lon="34.811439514">
<ele>336.218750</ele>
<time>2013-11-21T07:08:12Z</time>
<speed>1.040000</speed>
<extensions>
<speed>1.0</speed>
<temp>0.00</temp>
<bpm>0</bpm>
<rpm>0.00</rpm>
</extensions>
</trkpt>
<trkpt lat="30.835878372" lon="34.811435699">
<ele>332.648438</ele>
<time>2013-11-21T07:08:17Z</time>
<speed>0.940000</speed>
<extensions>
<speed>0.9</speed>
<temp>0.00</temp>
<bpm>0</bpm>
<rpm>0.00</rpm>
</extensions>
</trkpt>
<trkpt lat="30.835908890" lon="34.811473846">
<ele>329.617188</ele>
<time>2013-11-21T07:08:22Z</time>
<speed>1.050000</speed>
<extensions>
<speed>1.0</speed>
<temp>0.00</temp>
<bpm>0</bpm>
<rpm>0.00</rpm>
</extensions>
</trkpt>
<trkpt lat="30.835975647" lon="34.811485291">
<ele>329.234375</ele>
<time>2013-11-21T07:08:27Z</time>
<speed>1.420000</speed>
<extensions>
<speed>1.4</speed>
<temp>0.00</temp>
<bpm>0</bpm>
<rpm>0.00</rpm>
</extensions>
</trkpt>
<trkpt lat="30.836048126" lon="34.811508179">
<ele>329.304688</ele>
<time>2013-11-21T07:08:32Z</time>
<speed>1.680000</speed>
<extensions>
<speed>1.7</speed>
<temp>0.00</temp>
<bpm>0</bpm>
<rpm>0.00</rpm>
</extensions>
</trkpt>
<trkpt lat="30.836166382" lon="34.811580658">
<ele>329.460938</ele>
<time>2013-11-21T07:08:37Z</time>
<speed>3.710000</speed>
<extensions>
<speed>3.7</speed>
<temp>0.00</temp>
<bpm>0</bpm>
<rpm>0.00</rpm>
</extensions>
</trkpt>
<trkpt lat="30.836301804" lon="34.811546326">
<ele>330.382813</ele>
<time>2013-11-21T07:08:42Z</time>
<speed>1.920000</speed>
<extensions>
<speed>1.9</speed>
<temp>0.00</temp>
<bpm>0</bpm>
<rpm>0.00</rpm>
</extensions>
</trkpt>
<trkpt lat="30.836351395" lon="34.811473846">
<ele>331.015625</ele>
<time>2013-11-21T07:08:47Z</time>
<speed>1.240000</speed>
<extensions>
<speed>1.2</speed>
<temp>0.00</temp>
<bpm>0</bpm>
<rpm>0.00</rpm>
</extensions>
</trkpt>
<trkpt lat="30.836393356" lon="34.811408997">
<ele>331.007813</ele>
<time>2013-11-21T07:08:52Z</time>
<speed>1.830000</speed>
<extensions>
<speed>1.8</speed>
<temp>0.00</temp>
<bpm>0</bpm>
<rpm>0.00</rpm>
</extensions>
</trkpt>
<trkpt lat="30.836471558" lon="34.811367035">
<ele>331.492188</ele>
<time>2013-11-21T07:08:57Z</time>
<speed>2.190000</speed>
<extensions>
<speed>2.2</speed>
<temp>0.00</temp>
<bpm>0</bpm>
<rpm>0.00</rpm>
</extensions>
</trkpt>
<trkpt lat="30.836555481" lon="34.811325073">
<ele>332.054688</ele>
<time>2013-11-21T07:09:02Z</time>
<speed>2.310000</speed>
<extensions>
<speed>2.3</speed>
<temp>0.00</temp>
<bpm>0</bpm>
<rpm>0.00</rpm>
</extensions>
</trkpt>
<trkpt lat="30.836690903" lon="34.811283112">
<ele>333.687500</ele>
<time>2013-11-21T07:09:07Z</time>
<speed>3.150000</speed>
<extensions>
<speed>3.2</speed>
<temp>0.00</temp>
<bpm>0</bpm>
<rpm>0.00</rpm>
</extensions>
</trkpt>
<trkpt lat="30.836893082" lon="34.811298370">
<ele>333.828125</ele>
<time>2013-11-21T07:09:12Z</time>
<speed>4.190000</speed>
<extensions>
<speed>4.2</speed>
<temp>0.00</temp>
<bpm>0</bpm>
<rpm>0.00</rpm>
</extensions>
</trkpt>
<trkpt lat="30.837036133" lon="34.811321259">
<ele>335.523438</ele>
<time>2013-11-21T07:09:17Z</time>
<speed>3.150000</speed>
<extensions>
<speed>3.2</speed>
<temp>0.00</temp>
<bpm>0</bpm>
<rpm>0.00</rpm>
</extensions>
</trkpt>
<trkpt lat="30.837175369" lon="34.811393738">
<ele>336.875000</ele>
<time>2013-11-21T07:09:22Z</time>
<speed>3.940000</speed>
<extensions>
<speed>3.9</speed>
<temp>0.00</temp>
<bpm>0</bpm>
<rpm>0.00</rpm>
</extensions>
</trkpt>
<trkpt lat="30.837289810" lon="34.811527252">
<ele>337.468750</ele>
<time>2013-11-21T07:09:27Z</time>
<speed>3.940000</speed>
<extensions>
<speed>3.9</speed>
<temp>0.00</temp>
<bpm>0</bpm>
<rpm>0.00</rpm>
</extensions>
</trkpt>
<trkpt lat="30.837438583" lon="34.811595917">
<ele>337.429688</ele>
<time>2013-11-21T07:09:32Z</time>
<speed>3.050000</speed>
<extensions>
<speed>3.0</speed>
<temp>0.00</temp>
<bpm>0</bpm>
<rpm>0.00</rpm>
</extensions>
</trkpt>
<trkpt lat="30.837532043" lon="34.811649323">
<ele>337.656250</ele>
<time>2013-11-21T07:09:37Z</time>
<speed>2.420000</speed>
<extensions>
<speed>2.4</speed>
<temp>0.00</temp>
<bpm>0</bpm>
<rpm>0.00</rpm>
</extensions>
</trkpt>
<trkpt lat="30.837656021" lon="34.811672211">
<ele>338.343750</ele>
<time>2013-11-21T07:09:42Z</time>
<speed>2.610000</speed>
<extensions>
<speed>2.6</speed>
<temp>0.00</temp>
<bpm>0</bpm>
<rpm>0.00</rpm>
</extensions>
</trkpt>
<trkpt lat="30.837738037" lon="34.811706543">
<ele>337.539063</ele>
<time>2013-11-21T07:09:47Z</time>
<speed>1.420000</speed>
<extensions>
<speed>1.4</speed>
<temp>0.00</temp>
<bpm>0</bpm>
<rpm>0.00</rpm>
</extensions>
</trkpt>
<trkpt lat="30.837795258" lon="34.811767578">
<ele>337.500000</ele>
<time>2013-11-21T07:09:52Z</time>
<speed>1.550000</speed>
<extensions>
<speed>1.5</speed>
<temp>0.00</temp>
<bpm>0</bpm>
<rpm>0.00</rpm>
</extensions>
</trkpt>
<trkpt lat="30.837848663" lon="34.811828613">
<ele>336.312500</ele>
<time>2013-11-21T07:09:57Z</time>
<speed>2.390000</speed>
<extensions>
<speed>2.4</speed>
<temp>0.00</temp>
<bpm>0</bpm>
<rpm>0.00</rpm>
</extensions>
</trkpt>
<trkpt lat="30.837955475" lon="34.811874390">
<ele>336.796875</ele>
<time>2013-11-21T07:10:02Z</time>
<speed>2.550000</speed>
<extensions>
<speed>2.6</speed>
<temp>0.00</temp>
<bpm>0</bpm>
<rpm>0.00</rpm>
</extensions>
</trkpt>
<trkpt lat="30.838098526" lon="34.811923981">
<ele>336.781250</ele>
<time>2013-11-21T07:10:07Z</time>
<speed>3.790000</speed>
<extensions>
<speed>3.8</speed>
<temp>0.00</temp>
<bpm>0</bpm>
<rpm>0.00</rpm>
</extensions>
</trkpt>
<trkpt lat="30.838264465" lon="34.811950684">
<ele>337.234375</ele>
<time>2013-11-21T07:10:12Z</time>
<speed>4.110000</speed>
<extensions>
<speed>4.1</speed>
<temp>0.00</temp>
<bpm>0</bpm>
<rpm>0.00</rpm>
</extensions>
</trkpt>
<trkpt lat="30.838422775" lon="34.812019348">
<ele>335.539063</ele>
<time>2013-11-21T07:10:17Z</time>
<speed>3.760000</speed>
<extensions>
<speed>3.8</speed>
<temp>0.00</temp>
<bpm>0</bpm>
<rpm>0.00</rpm>
</extensions>
</trkpt>
<trkpt lat="30.838588715" lon="34.812107086">
<ele>335.929688</ele>
<time>2013-11-21T07:10:22Z</time>
<speed>4.530000</speed>
<extensions>
<speed>4.5</speed>
<temp>0.00</temp>
<bpm>0</bpm>
<rpm>0.00</rpm>
</extensions>
</trkpt>
<trkpt lat="30.838748932" lon="34.812274933">
<ele>335.781250</ele>
<time>2013-11-21T07:10:27Z</time>
<speed>4.640000</speed>
<extensions>
<speed>4.6</speed>
<temp>0.00</temp>
<bpm>0</bpm>
<rpm>0.00</rpm>
</extensions>
</trkpt>
<trkpt lat="30.838865280" lon="34.812454224">
<ele>335.164063</ele>
<time>2013-11-21T07:10:32Z</time>
<speed>4.220000</speed>
<extensions>
<speed>4.2</speed>
<temp>0.00</temp>
<bpm>0</bpm>
<rpm>0.00</rpm>
</extensions>
</trkpt>
<trkpt lat="30.838987350" lon="34.812625885">
<ele>335.101563</ele>
<time>2013-11-21T07:10:37Z</time>
<speed>4.240000</speed>
<extensions>
<speed>4.2</speed>
<temp>0.00</temp>
<bpm>0</bpm>
<rpm>0.00</rpm>
</extensions>
</trkpt>
<trkpt lat="30.839094162" lon="34.812820435">
<ele>336.218750</ele>
<time>2013-11-21T07:10:42Z</time>
<speed>4.130000</speed>
<extensions>
<speed>4.1</speed>
<temp>0.00</temp>
<bpm>0</bpm>
<rpm>0.00</rpm>
</extensions>
</trkpt>
<trkpt lat="30.839183807" lon="34.813011169">
<ele>337.679688</ele>
<time>2013-11-21T07:10:47Z</time>
<speed>3.980000</speed>
<extensions>
<speed>4.0</speed>
<temp>0.00</temp>
<bpm>0</bpm>
<rpm>0.00</rpm>
</extensions>
</trkpt>
<trkpt lat="30.839260101" lon="34.813194275">
<ele>337.078125</ele>
<time>2013-11-21T07:10:52Z</time>
<speed>3.990000</speed>
<extensions>
<speed>4.0</speed>
<temp>0.00</temp>
<bpm>0</bpm>
<rpm>0.00</rpm>
</extensions>
</trkpt>
<trkpt lat="30.839365005" lon="34.813369751">
<ele>338.179688</ele>
<time>2013-11-21T07:10:57Z</time>
<speed>4.690000</speed>
<extensions>
<speed>4.7</speed>
<temp>0.00</temp>
<bpm>0</bpm>
<rpm>0.00</rpm>
</extensions>
</trkpt>
<trkpt lat="30.839557648" lon="34.813503265">
<ele>336.804688</ele>
<time>2013-11-21T07:11:02Z</time>
<speed>5.740000</speed>
<extensions>
<speed>5.7</speed>
<temp>0.00</temp>
<bpm>0</bpm>
<rpm>0.00</rpm>
</extensions>
</trkpt>
<trkpt lat="30.839738846" lon="34.813701630">
<ele>333.695313</ele>
<time>2013-11-21T07:11:07Z</time>
<speed>4.930000</speed>
<extensions>
<speed>4.9</speed>
<temp>0.00</temp>
<bpm>0</bpm>
<rpm>0.00</rpm>
</extensions>
</trkpt>
<trkpt lat="30.839887619" lon="34.813896179">
<ele>333.343750</ele>
<time>2013-11-21T07:11:12Z</time>
<speed>5.090000</speed>
<extensions>
<speed>5.1</speed>
<temp>0.00</temp>
<bpm>0</bpm>
<rpm>0.00</rpm>
</extensions>
</trkpt>
<trkpt lat="30.840070724" lon="34.814086914">
<ele>332.734375</ele>
<time>2013-11-21T07:11:17Z</time>
<speed>5.570000</speed>
<extensions>
<speed>5.6</speed>
<temp>0.00</temp>
<bpm>0</bpm>
<rpm>0.00</rpm>
</extensions>
</trkpt>
<trkpt lat="30.840238571" lon="34.814300537">
<ele>329.531250</ele>
<time>2013-11-21T07:11:22Z</time>
<speed>5.380000</speed>
<extensions>
<speed>5.4</speed>
<temp>0.00</temp>
<bpm>0</bpm>
<rpm>0.00</rpm>
</extensions>
</trkpt>
<trkpt lat="30.840358734" lon="34.814525604">
<ele>327.843750</ele>
<time>2013-11-21T07:11:27Z</time>
<speed>4.730000</speed>
<extensions>
<speed>4.7</speed>
<temp>0.00</temp>
<bpm>0</bpm>
<rpm>0.00</rpm>
</extensions>
</trkpt>
<trkpt lat="30.840452194" lon="34.814716339">
<ele>326.093750</ele>
<time>2013-11-21T07:11:32Z</time>
<speed>4.280000</speed>
<extensions>
<speed>4.3</speed>
<temp>0.00</temp>
<bpm>0</bpm>
<rpm>0.00</rpm>
</extensions>
</trkpt>
<trkpt lat="30.840618134" lon="34.814899445">
<ele>326.984375</ele>
<time>2013-11-21T07:11:37Z</time>
<speed>5.160000</speed>
<extensions>
<speed>5.2</speed>
<temp>0.00</temp>
<bpm>0</bpm>
<rpm>0.00</rpm>
</extensions>
</trkpt>
<trkpt lat="30.840795517" lon="34.815078735">
<ele>325.625000</ele>
<time>2013-11-21T07:11:42Z</time>
<speed>4.850000</speed>
<extensions>
<speed>4.8</speed>
<temp>0.00</temp>
<bpm>0</bpm>
<rpm>0.00</rpm>
</extensions>
</trkpt>
<trkpt lat="30.840944290" lon="34.815238953">
<ele>324.750000</ele>
<time>2013-11-21T07:11:47Z</time>
<speed>4.510000</speed>
<extensions>
<speed>4.5</speed>
<temp>0.00</temp>
<bpm>0</bpm>
<rpm>0.00</rpm>
</extensions>
</trkpt>
<trkpt lat="30.841058731" lon="34.815391541">
<ele>324.101563</ele>
<time>2013-11-21T07:11:52Z</time>
<speed>3.560000</speed>
<extensions>
<speed>3.6</speed>
<temp>0.00</temp>
<bpm>0</bpm>
<rpm>0.00</rpm>
</extensions>
</trkpt>
<trkpt lat="30.841152191" lon="34.815559387">
<ele>323.187500</ele>
<time>2013-11-21T07:11:57Z</time>
<speed>4.450000</speed>
<extensions>
<speed>4.5</speed>
<temp>0.00</temp>
<bpm>0</bpm>
<rpm>0.00</rpm>
</extensions>
</trkpt>
<trkpt lat="30.841266632" lon="34.815738678">
<ele>322.492188</ele>
<time>2013-11-21T07:12:02Z</time>
<speed>4.540000</speed>
<extensions>
<speed>4.5</speed>
<temp>0.00</temp>
<bpm>0</bpm>
<rpm>0.00</rpm>
</extensions>
</trkpt>
<trkpt lat="30.841405869" lon="34.815933228">
<ele>322.796875</ele>
<time>2013-11-21T07:12:07Z</time>
<speed>4.760000</speed>
<extensions>
<speed>4.8</speed>
<temp>0.00</temp>
<bpm>0</bpm>
<rpm>0.00</rpm>
</extensions>
</trkpt>
<trkpt lat="30.841554642" lon="34.816123962">
<ele>324.093750</ele>
<time>2013-11-21T07:12:12Z</time>
<speed>4.690000</speed>
<extensions>
<speed>4.7</speed>
<temp>0.00</temp>
<bpm>0</bpm>
<rpm>0.00</rpm>
</extensions>
</trkpt>
<trkpt lat="30.841714859" lon="34.816291809">
<ele>323.593750</ele>
<time>2013-11-21T07:12:17Z</time>
<speed>4.310000</speed>
<extensions>
<speed>4.3</speed>
<temp>0.00</temp>
<bpm>0</bpm>
<rpm>0.00</rpm>
</extensions>
</trkpt>
<trkpt lat="30.841871262" lon="34.816432953">
<ele>322.679688</ele>
<time>2013-11-21T07:12:22Z</time>
<speed>4.680000</speed>
<extensions>
<speed>4.7</speed>
<temp>0.00</temp>
<bpm>0</bpm>
<rpm>0.00</rpm>
</extensions>
</trkpt>
<trkpt lat="30.841985703" lon="34.816627502">
<ele>322.718750</ele>
<time>2013-11-21T07:12:27Z</time>
<speed>4.380000</speed>
<extensions>
<speed>4.4</speed>
<temp>0.00</temp>
<bpm>0</bpm>
<rpm>0.00</rpm>
</extensions>
</trkpt>
<trkpt lat="30.842098236" lon="34.816837311">
<ele>322.835938</ele>
<time>2013-11-21T07:12:32Z</time>
<speed>4.600000</speed>
<extensions>
<speed>4.6</speed>
<temp>0.00</temp>
<bpm>0</bpm>
<rpm>0.00</rpm>
</extensions>
</trkpt>
<trkpt lat="30.842189789" lon="34.816978455">
<ele>322.750000</ele>
<time>2013-11-21T07:12:37Z</time>
<speed>2.870000</speed>
<extensions>
<speed>2.9</speed>
<temp>0.00</temp>
<bpm>0</bpm>
<rpm>0.00</rpm>
</extensions>
</trkpt>
<trkpt lat="30.842252731" lon="34.817123413">
<ele>323.437500</ele>
<time>2013-11-21T07:12:42Z</time>
<speed>3.710000</speed>
<extensions>
<speed>3.7</speed>
<temp>0.00</temp>
<bpm>0</bpm>
<rpm>0.00</rpm>
</extensions>
</trkpt>
<trkpt lat="30.842330933" lon="34.817291260">
<ele>325.359375</ele>
<time>2013-11-21T07:12:47Z</time>
<speed>3.610000</speed>
<extensions>
<speed>3.6</speed>
<temp>0.00</temp>
<bpm>0</bpm>
<rpm>0.00</rpm>
</extensions>
</trkpt>
<trkpt lat="30.842439651" lon="34.817440033">
<ele>324.445313</ele>
<time>2013-11-21T07:12:52Z</time>
<speed>4.140000</speed>
<extensions>
<speed>4.1</speed>
<temp>0.00</temp>
<bpm>0</bpm>
<rpm>0.00</rpm>
</extensions>
</trkpt>
<trkpt lat="30.842550278" lon="34.817680359">
<ele>323.250000</ele>
<time>2013-11-21T07:12:57Z</time>
<speed>4.970000</speed>
<extensions>
<speed>5.0</speed>
<temp>0.00</temp>
<bpm>0</bpm>
<rpm>0.00</rpm>
</extensions>
</trkpt>
<trkpt lat="30.842708588" lon="34.817821503">
<ele>323.039063</ele>
<time>2013-11-21T07:13:02Z</time>
<speed>4.380000</speed>
<extensions>
<speed>4.4</speed>
<temp>0.00</temp>
<bpm>0</bpm>
<rpm>0.00</rpm>
</extensions>
</trkpt>
<trkpt lat="30.842878342" lon="34.817939758">
<ele>323.257813</ele>
<time>2013-11-21T07:13:07Z</time>
<speed>4.650000</speed>
<extensions>
<speed>4.6</speed>
<temp>0.00</temp>
<bpm>0</bpm>
<rpm>0.00</rpm>
</extensions>
</trkpt>
<trkpt lat="30.843002319" lon="34.818145752">
<ele>323.765625</ele>
<time>2013-11-21T07:13:12Z</time>
<speed>4.900000</speed>
<extensions>
<speed>4.9</speed>
<temp>0.00</temp>
<bpm>0</bpm>
<rpm>0.00</rpm>
</extensions>
</trkpt>
<trkpt lat="30.843063354" lon="34.818355560">
<ele>322.320313</ele>
<time>2013-11-21T07:13:17Z</time>
<speed>4.180000</speed>
<extensions>
<speed>4.2</speed>
<temp>0.00</temp>
<bpm>0</bpm>
<rpm>0.00</rpm>
</extensions>
</trkpt>
<trkpt lat="30.843133926" lon="34.818592072">
<ele>323.632813</ele>
<time>2013-11-21T07:13:22Z</time>
<speed>5.140000</speed>
<extensions>
<speed>5.1</speed>
<temp>0.00</temp>
<bpm>0</bpm>
<rpm>0.00</rpm>
</extensions>
</trkpt>
<trkpt lat="30.843202591" lon="34.818813324">
<ele>325.062500</ele>
<time>2013-11-21T07:13:27Z</time>
<speed>4.540000</speed>
<extensions>
<speed>4.5</speed>
<temp>0.00</temp>
<bpm>0</bpm>
<rpm>0.00</rpm>
</extensions>
</trkpt>
<trkpt lat="30.843284607" lon="34.819038391">
<ele>326.421875</ele>
<time>2013-11-21T07:13:32Z</time>
<speed>4.690000</speed>
<extensions>
<speed>4.7</speed>
<temp>0.00</temp>
<bpm>0</bpm>
<rpm>0.00</rpm>
</extensions>
</trkpt>
<trkpt lat="30.843322754" lon="34.819286346">
<ele>326.453125</ele>
<time>2013-11-21T07:13:37Z</time>
<speed>5.070000</speed>
<extensions>
<speed>5.1</speed>
<temp>0.00</temp>
<bpm>0</bpm>
<rpm>0.00</rpm>
</extensions>
</trkpt>
<trkpt lat="30.843374252" lon="34.819499969">
<ele>324.859375</ele>
<time>2013-11-21T07:13:42Z</time>
<speed>4.110000</speed>
<extensions>
<speed>4.1</speed>
<temp>0.00</temp>
<bpm>0</bpm>
<rpm>0.00</rpm>
</extensions>
</trkpt>
<trkpt lat="30.843467712" lon="34.819644928">
<ele>323.281250</ele>
<time>2013-11-21T07:13:47Z</time>
<speed>3.810000</speed>
<extensions>
<speed>3.8</speed>
<temp>0.00</temp>
<bpm>0</bpm>
<rpm>0.00</rpm>
</extensions>
</trkpt>
<trkpt lat="30.843648911" lon="34.819717407">
<ele>322.281250</ele>
<time>2013-11-21T07:13:52Z</time>
<speed>3.970000</speed>
<extensions>
<speed>4.0</speed>
<temp>0.00</temp>
<bpm>0</bpm>
<rpm>0.00</rpm>
</extensions>
</trkpt>
<trkpt lat="30.843727112" lon="34.819877625">
<ele>324.656250</ele>
<time>2013-11-21T07:13:57Z</time>
<speed>4.470000</speed>
<extensions>
<speed>4.5</speed>
<temp>0.00</temp>
<bpm>0</bpm>
<rpm>0.00</rpm>
</extensions>
</trkpt>
<trkpt lat="30.843769073" lon="34.820140839">
<ele>324.945313</ele>
<time>2013-11-21T07:14:02Z</time>
<speed>5.310000</speed>
<extensions>
<speed>5.3</speed>
<temp>0.00</temp>
<bpm>0</bpm>
<rpm>0.00</rpm>
</extensions>
</trkpt>
<trkpt lat="30.843776703" lon="34.820430756">
<ele>325.187500</ele>
<time>2013-11-21T07:14:07Z</time>
<speed>4.850000</speed>
<extensions>
<speed>4.8</speed>
<temp>0.00</temp>
<bpm>0</bpm>
<rpm>0.00</rpm>
</extensions>
</trkpt>
<trkpt lat="30.843784332" lon="34.820678711">
<ele>325.796875</ele>
<time>2013-11-21T07:14:12Z</time>
<speed>4.900000</speed>
<extensions>
<speed>4.9</speed>
<temp>0.00</temp>
<bpm>0</bpm>
<rpm>0.00</rpm>
</extensions>
</trkpt>
<trkpt lat="30.843811035" lon="34.820968628">
<ele>326.804688</ele>
<time>2013-11-21T07:14:17Z</time>
<speed>5.290000</speed>
<extensions>
<speed>5.3</speed>
<temp>0.00</temp>
<bpm>0</bpm>
<rpm>0.00</rpm>
</extensions>
</trkpt>
<trkpt lat="30.843889236" lon="34.821201324">
<ele>327.140625</ele>
<time>2013-11-21T07:14:22Z</time>
<speed>4.970000</speed>
<extensions>
<speed>5.0</speed>
<temp>0.00</temp>
<bpm>0</bpm>
<rpm>0.00</rpm>
</extensions>
</trkpt>
<trkpt lat="30.843944550" lon="34.821437836">
<ele>327.820313</ele>
<time>2013-11-21T07:14:27Z</time>
<speed>3.850000</speed>
<extensions>
<speed>3.8</speed>
<temp>0.00</temp>
<bpm>0</bpm>
<rpm>0.00</rpm>
</extensions>
</trkpt>
<trkpt lat="30.843954086" lon="34.821628571">
<ele>326.695313</ele>
<time>2013-11-21T07:14:32Z</time>
<speed>3.870000</speed>
<extensions>
<speed>3.9</speed>
<temp>0.00</temp>
<bpm>0</bpm>
<rpm>0.00</rpm>
</extensions>
</trkpt>
<trkpt lat="30.844007492" lon="34.821830750">
<ele>326.039063</ele>
<time>2013-11-21T07:14:37Z</time>
<speed>4.780000</speed>
<extensions>
<speed>4.8</speed>
<temp>0.00</temp>
<bpm>0</bpm>
<rpm>0.00</rpm>
</extensions>
</trkpt>
<trkpt lat="30.844114304" lon="34.822067261">
<ele>322.593750</ele>
<time>2013-11-21T07:14:42Z</time>
<speed>4.900000</speed>
<extensions>
<speed>4.9</speed>
<temp>0.00</temp>
<bpm>0</bpm>
<rpm>0.00</rpm>
</extensions>
</trkpt>
<trkpt lat="30.844190598" lon="34.822261810">
<ele>321.062500</ele>
<time>2013-11-21T07:14:47Z</time>
<speed>3.100000</speed>
<extensions>
<speed>3.1</speed>
<temp>0.00</temp>
<bpm>0</bpm>
<rpm>0.00</rpm>
</extensions>
</trkpt>
<trkpt lat="30.844198227" lon="34.822437286">
<ele>319.070313</ele>
<time>2013-11-21T07:14:52Z</time>
<speed>3.400000</speed>
<extensions>
<speed>3.4</speed>
<temp>0.00</temp>
<bpm>0</bpm>
<rpm>0.00</rpm>
</extensions>
</trkpt>
<trkpt lat="30.844194412" lon="34.822650909">
<ele>321.125000</ele>
<time>2013-11-21T07:14:57Z</time>
<speed>3.770000</speed>
<extensions>
<speed>3.8</speed>
<temp>0.00</temp>
<bpm>0</bpm>
<rpm>0.00</rpm>
</extensions>
</trkpt>
<trkpt lat="30.844194412" lon="34.822853088">
<ele>319.609375</ele>
<time>2013-11-21T07:15:02Z</time>
<speed>3.530000</speed>
<extensions>
<speed>3.5</speed>
<temp>0.00</temp>
<bpm>0</bpm>
<rpm>0.00</rpm>
</extensions>
</trkpt>
<trkpt lat="30.844244003" lon="34.823036194">
<ele>320.312500</ele>
<time>2013-11-21T07:15:07Z</time>
<speed>3.990000</speed>
<extensions>
<speed>4.0</speed>
<temp>0.00</temp>
<bpm>0</bpm>
<rpm>0.00</rpm>
</extensions>
</trkpt>
<trkpt lat="30.844337463" lon="34.823146820">
<ele>320.921875</ele>
<time>2013-11-21T07:15:12Z</time>
<speed>2.110000</speed>
<extensions>
<speed>2.1</speed>
<temp>0.00</temp>
<bpm>0</bpm>
<rpm>0.00</rpm>
</extensions>
</trkpt>
<trkpt lat="30.844367981" lon="34.823173523">
<ele>321.929688</ele>
<time>2013-11-21T07:15:17Z</time>
<speed>0.210000</speed>
<extensions>
<speed>0.2</speed>
<temp>0.00</temp>
<bpm>0</bpm>
<rpm>0.00</rpm>
</extensions>
</trkpt>
<trkpt lat="30.844367981" lon="34.823173523">
<ele>322.039063</ele>
<time>2013-11-21T07:15:22Z</time>
<speed>0.110000</speed>
<extensions>
<speed>0.1</speed>
<temp>0.00</temp>
<bpm>0</bpm>
<rpm>0.00</rpm>
</extensions>
</trkpt>
<trkpt lat="30.844367981" lon="34.823177338">
<ele>322.109375</ele>
<time>2013-11-21T07:15:27Z</time>
<speed>0.120000</speed>
<extensions>
<speed>0.1</speed>
<temp>0.00</temp>
<bpm>0</bpm>
<rpm>0.00</rpm>
</extensions>
</trkpt>
<trkpt lat="30.844366074" lon="34.823184967">
<ele>322.125000</ele>
<time>2013-11-21T07:15:32Z</time>
<speed>0.100000</speed>
<extensions>
<speed>0.1</speed>
<temp>0.00</temp>
<bpm>0</bpm>
<rpm>0.00</rpm>
</extensions>
</trkpt>
<trkpt lat="30.844366074" lon="34.823184967">
<ele>322.148438</ele>
<time>2013-11-21T07:15:37Z</time>
<speed>0.080000</speed>
<extensions>
<speed>0.1</speed>
<temp>0.00</temp>
<bpm>0</bpm>
<rpm>0.00</rpm>
</extensions>
</trkpt>
<trkpt lat="30.844366074" lon="34.823184967">
<ele>322.156250</ele>
<time>2013-11-21T07:15:42Z</time>
<speed>0.070000</speed>
<extensions>
<speed>0.1</speed>
<temp>0.00</temp>
<bpm>0</bpm>
<rpm>0.00</rpm>
</extensions>
</trkpt>
<trkpt lat="30.844369888" lon="34.823184967">
<ele>322.171875</ele>
<time>2013-11-21T07:15:47Z</time>
<speed>0.060000</speed>
<extensions>
<speed>0.1</speed>
<temp>0.00</temp>
<bpm>0</bpm>
<rpm>0.00</rpm>
</extensions>
</trkpt>
<trkpt lat="30.844371796" lon="34.823184967">
<ele>322.234375</ele>
<time>2013-11-21T07:15:52Z</time>
<speed>0.120000</speed>
<extensions>
<speed>0.1</speed>
<temp>0.00</temp>
<bpm>0</bpm>
<rpm>0.00</rpm>
</extensions>
</trkpt>
<trkpt lat="30.844373703" lon="34.823181152">
<ele>322.351563</ele>
<time>2013-11-21T07:15:57Z</time>
<speed>0.060000</speed>
<extensions>
<speed>0.1</speed>
<temp>0.00</temp>
<bpm>0</bpm>
<rpm>0.00</rpm>
</extensions>
</trkpt>
<trkpt lat="30.844371796" lon="34.823181152">
<ele>322.460938</ele>
<time>2013-11-21T07:16:02Z</time>
<speed>0.050000</speed>
<extensions>
<speed>0.1</speed>
<temp>0.00</temp>
<bpm>0</bpm>
<rpm>0.00</rpm>
</extensions>
</trkpt>
<trkpt lat="30.844367981" lon="34.823181152">
<ele>322.531250</ele>
<time>2013-11-21T07:16:07Z</time>
<speed>0.090000</speed>
<extensions>
<speed>0.1</speed>
<temp>0.00</temp>
<bpm>0</bpm>
<rpm>0.00</rpm>
</extensions>
</trkpt>
<trkpt lat="30.844367981" lon="34.823181152">
<ele>322.562500</ele>
<time>2013-11-21T07:16:12Z</time>
<speed>0.230000</speed>
<extensions>
<speed>0.2</speed>
<temp>0.00</temp>
<bpm>0</bpm>
<rpm>0.00</rpm>
</extensions>
</trkpt>
<trkpt lat="30.844369888" lon="34.823177338">
<ele>322.585938</ele>
<time>2013-11-21T07:16:17Z</time>
<speed>0.050000</speed>
<extensions>
<speed>0.1</speed>
<temp>0.00</temp>
<bpm>0</bpm>
<rpm>0.00</rpm>
</extensions>
</trkpt>
<trkpt lat="30.844375610" lon="34.823184967">
<ele>322.578125</ele>
<time>2013-11-21T07:16:22Z</time>
<speed>0.010000</speed>
<extensions>
<speed>0.0</speed>
<temp>0.00</temp>
<bpm>0</bpm>
<rpm>0.00</rpm>
</extensions>
</trkpt>
<trkpt lat="30.844377518" lon="34.823184967">
<ele>322.625000</ele>
<time>2013-11-21T07:16:27Z</time>
<speed>0.180000</speed>
<extensions>
<speed>0.2</speed>
<temp>0.00</temp>
<bpm>0</bpm>
<rpm>0.00</rpm>
</extensions>
</trkpt>
<trkpt lat="30.844385147" lon="34.823188782">
<ele>322.695313</ele>
<time>2013-11-21T07:16:32Z</time>
<speed>0.310000</speed>
<extensions>
<speed>0.3</speed>
<temp>0.00</temp>
<bpm>0</bpm>
<rpm>0.00</rpm>
</extensions>
</trkpt>
<trkpt lat="30.844388962" lon="34.823196411">
<ele>322.835938</ele>
<time>2013-11-21T07:16:37Z</time>
<speed>0.060000</speed>
<extensions>
<speed>0.1</speed>
<temp>0.00</temp>
<bpm>0</bpm>
<rpm>0.00</rpm>
</extensions>
</trkpt>
<trkpt lat="30.844383240" lon="34.823196411">
<ele>322.929688</ele>
<time>2013-11-21T07:16:42Z</time>
<speed>0.040000</speed>
<extensions>
<speed>0.0</speed>
<temp>0.00</temp>
<bpm>0</bpm>
<rpm>0.00</rpm>
</extensions>
</trkpt>
<trkpt lat="30.844390869" lon="34.823196411">
<ele>323.015625</ele>
<time>2013-11-21T07:16:47Z</time>
<speed>0.090000</speed>
<extensions>
<speed>0.1</speed>
<temp>0.00</temp>
<bpm>0</bpm>
<rpm>0.00</rpm>
</extensions>
</trkpt>
<trkpt lat="30.844392776" lon="34.823196411">
<ele>323.054688</ele>
<time>2013-11-21T07:16:52Z</time>
<speed>0.820000</speed>
<extensions>
<speed>0.8</speed>
<temp>0.00</temp>
<bpm>0</bpm>
<rpm>0.00</rpm>
</extensions>
</trkpt>
<trkpt lat="30.844476700" lon="34.823169708">
<ele>323.242188</ele>
<time>2013-11-21T07:16:57Z</time>
<speed>3.560000</speed>
<extensions>
<speed>3.6</speed>
<temp>0.00</temp>
<bpm>0</bpm>
<rpm>0.00</rpm>
</extensions>
</trkpt>
<trkpt lat="30.844615936" lon="34.823005676">
<ele>322.812500</ele>
<time>2013-11-21T07:17:02Z</time>
<speed>5.300000</speed>
<extensions>
<speed>5.3</speed>
<temp>0.00</temp>
<bpm>0</bpm>
<rpm>0.00</rpm>
</extensions>
</trkpt>
<trkpt lat="30.844760895" lon="34.822795868">
<ele>322.554688</ele>
<time>2013-11-21T07:17:07Z</time>
<speed>4.170000</speed>
<extensions>
<speed>4.2</speed>
<temp>0.00</temp>
<bpm>0</bpm>
<rpm>0.00</rpm>
</extensions>
</trkpt>
<trkpt lat="30.844770432" lon="34.822753906">
<ele>322.406250</ele>
<time>2013-11-21T07:17:12Z</time>
<speed>0.200000</speed>
<extensions>
<speed>0.2</speed>
<temp>0.00</temp>
<bpm>0</bpm>
<rpm>0.00</rpm>
</extensions>
</trkpt>
<trkpt lat="30.844770432" lon="34.822753906">
<ele>322.390625</ele>
<time>2013-11-21T07:17:17Z</time>
<speed>0.070000</speed>
<extensions>
<speed>0.1</speed>
<temp>0.00</temp>
<bpm>0</bpm>
<rpm>0.00</rpm>
</extensions>
</trkpt>
<trkpt lat="30.844770432" lon="34.822757721">
<ele>322.390625</ele>
<time>2013-11-21T07:17:22Z</time>
<speed>0.080000</speed>
<extensions>
<speed>0.1</speed>
<temp>0.00</temp>
<bpm>0</bpm>
<rpm>0.00</rpm>
</extensions>
</trkpt>
<trkpt lat="30.844793320" lon="34.822727203">
<ele>322.406250</ele>
<time>2013-11-21T07:17:27Z</time>
<speed>2.050000</speed>
<extensions>
<speed>2.1</speed>
<temp>0.00</temp>
<bpm>0</bpm>
<rpm>0.00</rpm>
</extensions>
</trkpt>
<trkpt lat="30.844890594" lon="34.822601318">
<ele>322.132813</ele>
<time>2013-11-21T07:17:32Z</time>
<speed>4.310000</speed>
<extensions>
<speed>4.3</speed>
<temp>0.00</temp>
<bpm>0</bpm>
<rpm>0.00</rpm>
</extensions>
</trkpt>
<trkpt lat="30.845075607" lon="34.822433472">
<ele>321.476563</ele>
<time>2013-11-21T07:17:37Z</time>
<speed>4.680000</speed>
<extensions>
<speed>4.7</speed>
<temp>0.00</temp>
<bpm>0</bpm>
<rpm>0.00</rpm>
</extensions>
</trkpt>
<trkpt lat="30.845264435" lon="34.822235107">
<ele>320.390625</ele>
<time>2013-11-21T07:17:42Z</time>
<speed>5.630000</speed>
<extensions>
<speed>5.6</speed>
<temp>0.00</temp>
<bpm>0</bpm>
<rpm>0.00</rpm>
</extensions>
</trkpt>
<trkpt lat="30.845390320" lon="34.822067261">
<ele>319.062500</ele>
<time>2013-11-21T07:17:47Z</time>
<speed>4.080000</speed>
<extensions>
<speed>4.1</speed>
<temp>0.00</temp>
<bpm>0</bpm>
<rpm>0.00</rpm>
</extensions>
</trkpt>
<trkpt lat="30.845470428" lon="34.821956635">
<ele>317.882813</ele>
<time>2013-11-21T07:17:52Z</time>
<speed>1.730000</speed>
<extensions>
<speed>1.7</speed>
<temp>0.00</temp>
<bpm>0</bpm>
<rpm>0.00</rpm>
</extensions>
</trkpt>
<trkpt lat="30.845508575" lon="34.821899414">
<ele>316.460938</ele>
<time>2013-11-21T07:17:57Z</time>
<speed>1.410000</speed>
<extensions>
<speed>1.4</speed>
<temp>0.00</temp>
<bpm>0</bpm>
<rpm>0.00</rpm>
</extensions>
</trkpt>
<trkpt lat="30.845581055" lon="34.821762085">
<ele>315.070313</ele>
<time>2013-11-21T07:18:02Z</time>
<speed>3.160000</speed>
<extensions>
<speed>3.2</speed>
<temp>0.00</temp>
<bpm>0</bpm>
<rpm>0.00</rpm>
</extensions>
</trkpt>
<trkpt lat="30.845645905" lon="34.821678162">
<ele>314.140625</ele>
<time>2013-11-21T07:18:07Z</time>
<speed>1.690000</speed>
<extensions>
<speed>1.7</speed>
<temp>0.00</temp>
<bpm>0</bpm>
<rpm>0.00</rpm>
</extensions>
</trkpt>
<trkpt lat="30.845699310" lon="34.821609497">
<ele>313.093750</ele>
<time>2013-11-21T07:18:12Z</time>
<speed>1.750000</speed>
<extensions>
<speed>1.8</speed>
<temp>0.00</temp>
<bpm>0</bpm>
<rpm>0.00</rpm>
</extensions>
</trkpt>
<trkpt lat="30.845783234" lon="34.821563721">
<ele>312.929688</ele>
<time>2013-11-21T07:18:17Z</time>
<speed>1.860000</speed>
<extensions>
<speed>1.9</speed>
<temp>0.00</temp>
<bpm>0</bpm>
<rpm>0.00</rpm>
</extensions>
</trkpt>
<trkpt lat="30.845853806" lon="34.821483612">
<ele>313.101563</ele>
<time>2013-11-21T07:18:22Z</time>
<speed>1.860000</speed>
<extensions>
<speed>1.9</speed>
<temp>0.00</temp>
<bpm>0</bpm>
<rpm>0.00</rpm>
</extensions>
</trkpt>
<trkpt lat="30.845907211" lon="34.821399689">
<ele>312.882813</ele>
<time>2013-11-21T07:18:27Z</time>
<speed>2.080000</speed>
<extensions>
<speed>2.1</speed>
<temp>0.00</temp>
<bpm>0</bpm>
<rpm>0.00</rpm>
</extensions>
</trkpt>
<trkpt lat="30.845968246" lon="34.821327209">
<ele>312.468750</ele>
<time>2013-11-21T07:18:32Z</time>
<speed>2.280000</speed>
<extensions>
<speed>2.3</speed>
<temp>0.00</temp>
<bpm>0</bpm>
<rpm>0.00</rpm>
</extensions>
</trkpt>
<trkpt lat="30.846036911" lon="34.821258545">
<ele>312.515625</ele>
<time>2013-11-21T07:18:37Z</time>
<speed>1.900000</speed>
<extensions>
<speed>1.9</speed>
<temp>0.00</temp>
<bpm>0</bpm>
<rpm>0.00</rpm>
</extensions>
</trkpt>
<trkpt lat="30.846092224" lon="34.821178436">
<ele>312.070313</ele>
<time>2013-11-21T07:18:42Z</time>
<speed>1.770000</speed>
<extensions>
<speed>1.8</speed>
<temp>0.00</temp>
<bpm>0</bpm>
<rpm>0.00</rpm>
</extensions>
</trkpt>
<trkpt lat="30.846155167" lon="34.821098328">
<ele>310.679688</ele>
<time>2013-11-21T07:18:47Z</time>
<speed>2.550000</speed>
<extensions>
<speed>2.6</speed>
<temp>0.00</temp>
<bpm>0</bpm>
<rpm>0.00</rpm>
</extensions>
</trkpt>
<trkpt lat="30.846229553" lon="34.821010590">
<ele>310.039063</ele>
<time>2013-11-21T07:18:52Z</time>
<speed>2.320000</speed>
<extensions>
<speed>2.3</speed>
<temp>0.00</temp>
<bpm>0</bpm>
<rpm>0.00</rpm>
</extensions>
</trkpt>
<trkpt lat="30.846265793" lon="34.820934296">
<ele>309.890625</ele>
<time>2013-11-21T07:18:57Z</time>
<speed>1.310000</speed>
<extensions>
<speed>1.3</speed>
<temp>0.00</temp>
<bpm>0</bpm>
<rpm>0.00</rpm>
</extensions>
</trkpt>
<trkpt lat="30.846330643" lon="34.820854187">
<ele>310.156250</ele>
<time>2013-11-21T07:19:02Z</time>
<speed>2.530000</speed>
<extensions>
<speed>2.5</speed>
<temp>0.00</temp>
<bpm>0</bpm>
<rpm>0.00</rpm>
</extensions>
</trkpt>
<trkpt lat="30.846401215" lon="34.820735931">
<ele>311.328125</ele>
<time>2013-11-21T07:19:07Z</time>
<speed>2.500000</speed>
<extensions>
<speed>2.5</speed>
<temp>0.00</temp>
<bpm>0</bpm>
<rpm>0.00</rpm>
</extensions>
</trkpt>
<trkpt lat="30.846471786" lon="34.820629120">
<ele>310.867188</ele>
<time>2013-11-21T07:19:12Z</time>
<speed>2.800000</speed>
<extensions>
<speed>2.8</speed>
<temp>0.00</temp>
<bpm>0</bpm>
<rpm>0.00</rpm>
</extensions>
</trkpt>
<trkpt lat="30.846574783" lon="34.820487976">
<ele>310.703125</ele>
<time>2013-11-21T07:19:17Z</time>
<speed>3.590000</speed>
<extensions>
<speed>3.6</speed>
<temp>0.00</temp>
<bpm>0</bpm>
<rpm>0.00</rpm>
</extensions>
</trkpt>
<trkpt lat="30.846683502" lon="34.820365906">
<ele>310.312500</ele>
<time>2013-11-21T07:19:22Z</time>
<speed>3.580000</speed>
<extensions>
<speed>3.6</speed>
<temp>0.00</temp>
<bpm>0</bpm>
<rpm>0.00</rpm>
</extensions>
</trkpt>
<trkpt lat="30.846792221" lon="34.820220947">
<ele>309.914063</ele>
<time>2013-11-21T07:19:27Z</time>
<speed>3.350000</speed>
<extensions>
<speed>3.4</speed>
<temp>0.00</temp>
<bpm>0</bpm>
<rpm>0.00</rpm>
</extensions>
</trkpt>
<trkpt lat="30.846879959" lon="34.820079803">
<ele>309.984375</ele>
<time>2013-11-21T07:19:32Z</time>
<speed>3.330000</speed>
<extensions>
<speed>3.3</speed>
<temp>0.00</temp>
<bpm>0</bpm>
<rpm>0.00</rpm>
</extensions>
</trkpt>
<trkpt lat="30.846977234" lon="34.819942474">
<ele>311.875000</ele>
<time>2013-11-21T07:19:37Z</time>
<speed>3.190000</speed>
<extensions>
<speed>3.2</speed>
<temp>0.00</temp>
<bpm>0</bpm>
<rpm>0.00</rpm>
</extensions>
</trkpt>
<trkpt lat="30.847078323" lon="34.819831848">
<ele>312.664063</ele>
<time>2013-11-21T07:19:42Z</time>
<speed>2.870000</speed>
<extensions>
<speed>2.9</speed>
<temp>0.00</temp>
<bpm>0</bpm>
<rpm>0.00</rpm>
</extensions>
</trkpt>
<trkpt lat="30.847160339" lon="34.819732666">
<ele>312.875000</ele>
<time>2013-11-21T07:19:47Z</time>
<speed>2.380000</speed>
<extensions>
<speed>2.4</speed>
<temp>0.00</temp>
<bpm>0</bpm>
<rpm>0.00</rpm>
</extensions>
</trkpt>
<trkpt lat="30.847230911" lon="34.819641113">
<ele>314.984375</ele>
<time>2013-11-21T07:19:52Z</time>
<speed>2.500000</speed>
<extensions>
<speed>2.5</speed>
<temp>0.00</temp>
<bpm>0</bpm>
<rpm>0.00</rpm>
</extensions>
</trkpt>
<trkpt lat="30.847301483" lon="34.819572449">
<ele>318.210938</ele>
<time>2013-11-21T07:19:57Z</time>
<speed>2.380000</speed>
<extensions>
<speed>2.4</speed>
<temp>0.00</temp>
<bpm>0</bpm>
<rpm>0.00</rpm>
</extensions>
</trkpt>
<trkpt lat="30.847362518" lon="34.819530487">
<ele>320.492188</ele>
<time>2013-11-21T07:20:02Z</time>
<speed>0.100000</speed>
<extensions>
<speed>0.1</speed>
<temp>0.00</temp>
<bpm>0</bpm>
<rpm>0.00</rpm>
</extensions>
</trkpt>
<trkpt lat="30.847360611" lon="34.819534302">
<ele>321.937500</ele>
<time>2013-11-21T07:20:07Z</time>
<speed>0.290000</speed>
<extensions>
<speed>0.3</speed>
<temp>0.00</temp>
<bpm>0</bpm>
<rpm>0.00</rpm>
</extensions>
</trkpt>
<trkpt lat="30.847364426" lon="34.819538116">
<ele>322.007813</ele>
<time>2013-11-21T07:20:12Z</time>
<speed>0.090000</speed>
<extensions>
<speed>0.1</speed>
<temp>0.00</temp>
<bpm>0</bpm>
<rpm>0.00</rpm>
</extensions>
</trkpt>
<trkpt lat="30.847368240" lon="34.819538116">
<ele>322.156250</ele>
<time>2013-11-21T07:20:17Z</time>
<speed>0.090000</speed>
<extensions>
<speed>0.1</speed>
<temp>0.00</temp>
<bpm>0</bpm>
<rpm>0.00</rpm>
</extensions>
</trkpt>
<trkpt lat="30.847372055" lon="34.819538116">
<ele>322.312500</ele>
<time>2013-11-21T07:20:22Z</time>
<speed>0.130000</speed>
<extensions>
<speed>0.1</speed>
<temp>0.00</temp>
<bpm>0</bpm>
<rpm>0.00</rpm>
</extensions>
</trkpt>
<trkpt lat="30.847375870" lon="34.819541931">
<ele>322.437500</ele>
<time>2013-11-21T07:20:27Z</time>
<speed>0.050000</speed>
<extensions>
<speed>0.1</speed>
<temp>0.00</temp>
<bpm>0</bpm>
<rpm>0.00</rpm>
</extensions>
</trkpt>
<trkpt lat="30.847373962" lon="34.819538116">
<ele>322.539063</ele>
<time>2013-11-21T07:20:32Z</time>
<speed>0.090000</speed>
<extensions>
<speed>0.1</speed>
<temp>0.00</temp>
<bpm>0</bpm>
<rpm>0.00</rpm>
</extensions>
</trkpt>
<trkpt lat="30.847370148" lon="34.819534302">
<ele>322.570313</ele>
<time>2013-11-21T07:20:37Z</time>
<speed>0.110000</speed>
<extensions>
<speed>0.1</speed>
<temp>0.00</temp>
<bpm>0</bpm>
<rpm>0.00</rpm>
</extensions>
</trkpt>
<trkpt lat="30.847368240" lon="34.819534302">
<ele>322.609375</ele>
<time>2013-11-21T07:20:42Z</time>
<speed>0.110000</speed>
<extensions>
<speed>0.1</speed>
<temp>0.00</temp>
<bpm>0</bpm>
<rpm>0.00</rpm>
</extensions>
</trkpt>
<trkpt lat="30.847368240" lon="34.819534302">
<ele>322.632813</ele>
<time>2013-11-21T07:20:47Z</time>
<speed>0.020000</speed>
<extensions>
<speed>0.0</speed>
<temp>0.00</temp>
<bpm>0</bpm>
<rpm>0.00</rpm>
</extensions>
</trkpt>
<trkpt lat="30.847375870" lon="34.819526672">
<ele>322.648438</ele>
<time>2013-11-21T07:20:52Z</time>
<speed>0.870000</speed>
<extensions>
<speed>0.9</speed>
<temp>0.00</temp>
<bpm>0</bpm>
<rpm>0.00</rpm>
</extensions>
</trkpt>
<trkpt lat="30.847440720" lon="34.819545746">
<ele>322.515625</ele>
<time>2013-11-21T07:20:57Z</time>
<speed>2.690000</speed>
<extensions>
<speed>2.7</speed>
<temp>0.00</temp>
<bpm>0</bpm>
<rpm>0.00</rpm>
</extensions>
</trkpt>
<trkpt lat="30.847539902" lon="34.819599152">
<ele>322.429688</ele>
<time>2013-11-21T07:21:02Z</time>
<speed>0.560000</speed>
<extensions>
<speed>0.6</speed>
<temp>0.00</temp>
<bpm>0</bpm>
<rpm>0.00</rpm>
</extensions>
</trkpt>
<trkpt lat="30.847587585" lon="34.819625854">
<ele>322.117188</ele>
<time>2013-11-21T07:21:07Z</time>
<speed>0.600000</speed>
<extensions>
<speed>0.6</speed>
<temp>0.00</temp>
<bpm>0</bpm>
<rpm>0.00</rpm>
</extensions>
</trkpt>
<trkpt lat="30.847663879" lon="34.819671631">
<ele>322.632813</ele>
<time>2013-11-21T07:21:12Z</time>
<speed>3.090000</speed>
<extensions>
<speed>3.1</speed>
<temp>0.00</temp>
<bpm>0</bpm>
<rpm>0.00</rpm>
</extensions>
</trkpt>
<trkpt lat="30.847789764" lon="34.819744110">
<ele>323.156250</ele>
<time>2013-11-21T07:21:17Z</time>
<speed>2.940000</speed>
<extensions>
<speed>2.9</speed>
<temp>0.00</temp>
<bpm>0</bpm>
<rpm>0.00</rpm>
</extensions>
</trkpt>
<trkpt lat="30.847915649" lon="34.819820404">
<ele>324.117188</ele>
<time>2013-11-21T07:21:22Z</time>
<speed>3.630000</speed>
<extensions>
<speed>3.6</speed>
<temp>0.00</temp>
<bpm>0</bpm>
<rpm>0.00</rpm>
</extensions>
</trkpt>
<trkpt lat="30.848030090" lon="34.819873810">
<ele>325.171875</ele>
<time>2013-11-21T07:21:27Z</time>
<speed>2.430000</speed>
<extensions>
<speed>2.4</speed>
<temp>0.00</temp>
<bpm>0</bpm>
<rpm>0.00</rpm>
</extensions>
</trkpt>
<trkpt lat="30.848161697" lon="34.819919586">
<ele>326.718750</ele>
<time>2013-11-21T07:21:32Z</time>
<speed>2.190000</speed>
<extensions>
<speed>2.2</speed>
<temp>0.00</temp>
<bpm>0</bpm>
<rpm>0.00</rpm>
</extensions>
</trkpt>
<trkpt lat="30.848209381" lon="34.819911957">
<ele>327.789063</ele>
<time>2013-11-21T07:21:37Z</time>
<speed>0.210000</speed>
<extensions>
<speed>0.2</speed>
<temp>0.00</temp>
<bpm>0</bpm>
<rpm>0.00</rpm>
</extensions>
</trkpt>
<trkpt lat="30.848245621" lon="34.819927216">
<ele>326.851563</ele>
<time>2013-11-21T07:21:42Z</time>
<speed>0.340000</speed>
<extensions>
<speed>0.3</speed>
<temp>0.00</temp>
<bpm>0</bpm>
<rpm>0.00</rpm>
</extensions>
</trkpt>
<trkpt lat="30.848268509" lon="34.819881439">
<ele>326.578125</ele>
<time>2013-11-21T07:21:47Z</time>
<speed>0.670000</speed>
<extensions>
<speed>0.7</speed>
<temp>0.00</temp>
<bpm>0</bpm>
<rpm>0.00</rpm>
</extensions>
</trkpt>
<trkpt lat="30.848361969" lon="34.819866180">
<ele>326.757813</ele>
<time>2013-11-21T07:21:52Z</time>
<speed>1.610000</speed>
<extensions>
<speed>1.6</speed>
<temp>0.00</temp>
<bpm>0</bpm>
<rpm>0.00</rpm>
</extensions>
</trkpt>
<trkpt lat="30.848464966" lon="34.819873810">
<ele>326.921875</ele>
<time>2013-11-21T07:21:57Z</time>
<speed>2.340000</speed>
<extensions>
<speed>2.3</speed>
<temp>0.00</temp>
<bpm>0</bpm>
<rpm>0.00</rpm>
</extensions>
</trkpt>
<trkpt lat="30.848546982" lon="34.819896698">
<ele>327.398438</ele>
<time>2013-11-21T07:22:02Z</time>
<speed>1.230000</speed>
<extensions>
<speed>1.2</speed>
<temp>0.00</temp>
<bpm>0</bpm>
<rpm>0.00</rpm>
</extensions>
</trkpt>
<trkpt lat="30.848581314" lon="34.819934845">
<ele>327.335938</ele>
<time>2013-11-21T07:22:07Z</time>
<speed>1.570000</speed>
<extensions>
<speed>1.6</speed>
<temp>0.00</temp>
<bpm>0</bpm>
<rpm>0.00</rpm>
</extensions>
</trkpt>
<trkpt lat="30.848638535" lon="34.819980621">
<ele>327.312500</ele>
<time>2013-11-21T07:22:12Z</time>
<speed>1.150000</speed>
<extensions>
<speed>1.1</speed>
<temp>0.00</temp>
<bpm>0</bpm>
<rpm>0.00</rpm>
</extensions>
</trkpt>
<trkpt lat="30.848718643" lon="34.819972992">
<ele>327.851563</ele>
<time>2013-11-21T07:22:17Z</time>
<speed>1.870000</speed>
<extensions>
<speed>1.9</speed>
<temp>0.00</temp>
<bpm>0</bpm>
<rpm>0.00</rpm>
</extensions>
</trkpt>
<trkpt lat="30.848810196" lon="34.819950104">
<ele>328.421875</ele>
<time>2013-11-21T07:22:22Z</time>
<speed>2.090000</speed>
<extensions>
<speed>2.1</speed>
<temp>0.00</temp>
<bpm>0</bpm>
<rpm>0.00</rpm>
</extensions>
</trkpt>
<trkpt lat="30.848890305" lon="34.819931030">
<ele>328.820313</ele>
<time>2013-11-21T07:22:27Z</time>
<speed>1.620000</speed>
<extensions>
<speed>1.6</speed>
<temp>0.00</temp>
<bpm>0</bpm>
<rpm>0.00</rpm>
</extensions>
</trkpt>
<trkpt lat="30.848924637" lon="34.819934845">
<ele>328.062500</ele>
<time>2013-11-21T07:22:32Z</time>
<speed>0.120000</speed>
<extensions>
<speed>0.1</speed>
<temp>0.00</temp>
<bpm>0</bpm>
<rpm>0.00</rpm>
</extensions>
</trkpt>
<trkpt lat="30.848926544" lon="34.819938660">
<ele>328.031250</ele>
<time>2013-11-21T07:22:37Z</time>
<speed>0.110000</speed>
<extensions>
<speed>0.1</speed>
<temp>0.00</temp>
<bpm>0</bpm>
<rpm>0.00</rpm>
</extensions>
</trkpt>
<trkpt lat="30.848930359" lon="34.819942474">
<ele>328.164063</ele>
<time>2013-11-21T07:22:42Z</time>
<speed>0.140000</speed>
<extensions>
<speed>0.1</speed>
<temp>0.00</temp>
<bpm>0</bpm>
<rpm>0.00</rpm>
</extensions>
</trkpt>
<trkpt lat="30.848928452" lon="34.819934845">
<ele>328.281250</ele>
<time>2013-11-21T07:22:47Z</time>
<speed>0.060000</speed>
<extensions>
<speed>0.1</speed>
<temp>0.00</temp>
<bpm>0</bpm>
<rpm>0.00</rpm>
</extensions>
</trkpt>
<trkpt lat="30.848941803" lon="34.819927216">
<ele>328.460938</ele>
<time>2013-11-21T07:22:52Z</time>
<speed>0.480000</speed>
<extensions>
<speed>0.5</speed>
<temp>0.00</temp>
<bpm>0</bpm>
<rpm>0.00</rpm>
</extensions>
</trkpt>
<trkpt lat="30.849000931" lon="34.819854736">
<ele>328.812500</ele>
<time>2013-11-21T07:22:57Z</time>
<speed>1.570000</speed>
<extensions>
<speed>1.6</speed>
<temp>0.00</temp>
<bpm>0</bpm>
<rpm>0.00</rpm>
</extensions>
</trkpt>
<trkpt lat="30.849094391" lon="34.819778442">
<ele>328.640625</ele>
<time>2013-11-21T07:23:02Z</time>
<speed>2.380000</speed>
<extensions>
<speed>2.4</speed>
<temp>0.00</temp>
<bpm>0</bpm>
<rpm>0.00</rpm>
</extensions>
</trkpt>
<trkpt lat="30.849220276" lon="34.819732666">
<ele>329.203125</ele>
<time>2013-11-21T07:23:07Z</time>
<speed>2.450000</speed>
<extensions>
<speed>2.4</speed>
<temp>0.00</temp>
<bpm>0</bpm>
<rpm>0.00</rpm>
</extensions>
</trkpt>
<trkpt lat="30.849325180" lon="34.819656372">
<ele>329.039063</ele>
<time>2013-11-21T07:23:12Z</time>
<speed>3.050000</speed>
<extensions>
<speed>3.0</speed>
<temp>0.00</temp>
<bpm>0</bpm>
<rpm>0.00</rpm>
</extensions>
</trkpt>
<trkpt lat="30.849384308" lon="34.819576263">
<ele>328.281250</ele>
<time>2013-11-21T07:23:17Z</time>
<speed>0.960000</speed>
<extensions>
<speed>1.0</speed>
<temp>0.00</temp>
<bpm>0</bpm>
<rpm>0.00</rpm>
</extensions>
</trkpt>
<trkpt lat="30.849458694" lon="34.819599152">
<ele>327.664063</ele>
<time>2013-11-21T07:23:22Z</time>
<speed>0.880000</speed>
<extensions>
<speed>0.9</speed>
<temp>0.00</temp>
<bpm>0</bpm>
<rpm>0.00</rpm>
</extensions>
</trkpt>
<trkpt lat="30.849544525" lon="34.819583893">
<ele>326.781250</ele>
<time>2013-11-21T07:23:27Z</time>
<speed>1.810000</speed>
<extensions>
<speed>1.8</speed>
<temp>0.00</temp>
<bpm>0</bpm>
<rpm>0.00</rpm>
</extensions>
</trkpt>
<trkpt lat="30.849645615" lon="34.819553375">
<ele>325.828125</ele>
<time>2013-11-21T07:23:32Z</time>
<speed>1.820000</speed>
<extensions>
<speed>1.8</speed>
<temp>0.00</temp>
<bpm>0</bpm>
<rpm>0.00</rpm>
</extensions>
</trkpt>
<trkpt lat="30.849760056" lon="34.819648743">
<ele>325.984375</ele>
<time>2013-11-21T07:23:37Z</time>
<speed>2.570000</speed>
<extensions>
<speed>2.6</speed>
<temp>0.00</temp>
<bpm>0</bpm>
<rpm>0.00</rpm>
</extensions>
</trkpt>
<trkpt lat="30.849864960" lon="34.819709778">
<ele>325.335938</ele>
<time>2013-11-21T07:23:42Z</time>
<speed>2.780000</speed>
<extensions>
<speed>2.8</speed>
<temp>0.00</temp>
<bpm>0</bpm>
<rpm>0.00</rpm>
</extensions>
</trkpt>
<trkpt lat="30.849996567" lon="34.819797516">
<ele>324.359375</ele>
<time>2013-11-21T07:23:47Z</time>
<speed>2.130000</speed>
<extensions>
<speed>2.1</speed>
<temp>0.00</temp>
<bpm>0</bpm>
<rpm>0.00</rpm>
</extensions>
</trkpt>
<trkpt lat="30.850112915" lon="34.819873810">
<ele>324.414063</ele>
<time>2013-11-21T07:23:52Z</time>
<speed>2.390000</speed>
<extensions>
<speed>2.4</speed>
<temp>0.00</temp>
<bpm>0</bpm>
<rpm>0.00</rpm>
</extensions>
</trkpt>
<trkpt lat="30.850221634" lon="34.819911957">
<ele>325.351563</ele>
<time>2013-11-21T07:23:57Z</time>
<speed>1.860000</speed>
<extensions>
<speed>1.9</speed>
<temp>0.00</temp>
<bpm>0</bpm>
<rpm>0.00</rpm>
</extensions>
</trkpt>
<trkpt lat="30.850303650" lon="34.819896698">
<ele>326.234375</ele>
<time>2013-11-21T07:24:02Z</time>
<speed>2.420000</speed>
<extensions>
<speed>2.4</speed>
<temp>0.00</temp>
<bpm>0</bpm>
<rpm>0.00</rpm>
</extensions>
</trkpt>
<trkpt lat="30.850395203" lon="34.819908142">
<ele>327.398438</ele>
<time>2013-11-21T07:24:07Z</time>
<speed>1.240000</speed>
<extensions>
<speed>1.2</speed>
<temp>0.00</temp>
<bpm>0</bpm>
<rpm>0.00</rpm>
</extensions>
</trkpt>
<trkpt lat="30.850458145" lon="34.819808960">
<ele>329.070313</ele>
<time>2013-11-21T07:24:12Z</time>
<speed>1.910000</speed>
<extensions>
<speed>1.9</speed>
<temp>0.00</temp>
<bpm>0</bpm>
<rpm>0.00</rpm>
</extensions>
</trkpt>
<trkpt lat="30.850481033" lon="34.819717407">
<ele>329.570313</ele>
<time>2013-11-21T07:24:17Z</time>
<speed>1.530000</speed>
<extensions>
<speed>1.5</speed>
<temp>0.00</temp>
<bpm>0</bpm>
<rpm>0.00</rpm>
</extensions>
</trkpt>
<trkpt lat="30.850484848" lon="34.819576263">
<ele>331.125000</ele>
<time>2013-11-21T07:24:22Z</time>
<speed>0.750000</speed>
<extensions>
<speed>0.8</speed>
<temp>0.00</temp>
<bpm>0</bpm>
<rpm>0.00</rpm>
</extensions>
</trkpt>
<trkpt lat="30.850477219" lon="34.819572449">
<ele>326.382813</ele>
<time>2013-11-21T07:24:27Z</time>
<speed>0.210000</speed>
<extensions>
<speed>0.2</speed>
<temp>0.00</temp>
<bpm>0</bpm>
<rpm>0.00</rpm>
</extensions>
</trkpt>
<trkpt lat="30.850481033" lon="34.819591522">
<ele>326.335938</ele>
<time>2013-11-21T07:24:32Z</time>
<speed>0.260000</speed>
<extensions>
<speed>0.3</speed>
<temp>0.00</temp>
<bpm>0</bpm>
<rpm>0.00</rpm>
</extensions>
</trkpt>
<trkpt lat="30.850477219" lon="34.819591522">
<ele>326.226563</ele>
<time>2013-11-21T07:24:37Z</time>
<speed>0.250000</speed>
<extensions>
<speed>0.2</speed>
<temp>0.00</temp>
<bpm>0</bpm>
<rpm>0.00</rpm>
</extensions>
</trkpt>
<trkpt lat="30.850500107" lon="34.819473267">
<ele>325.273438</ele>
<time>2013-11-21T07:24:42Z</time>
<speed>1.650000</speed>
<extensions>
<speed>1.7</speed>
<temp>0.00</temp>
<bpm>0</bpm>
<rpm>0.00</rpm>
</extensions>
</trkpt>
<trkpt lat="30.850513458" lon="34.819393158">
<ele>324.929688</ele>
<time>2013-11-21T07:24:47Z</time>
<speed>1.490000</speed>
<extensions>
<speed>1.5</speed>
<temp>0.00</temp>
<bpm>0</bpm>
<rpm>0.00</rpm>
</extensions>
</trkpt>
<trkpt lat="30.850574493" lon="34.819324493">
<ele>324.273438</ele>
<time>2013-11-21T07:24:52Z</time>
<speed>1.010000</speed>
<extensions>
<speed>1.0</speed>
<temp>0.00</temp>
<bpm>0</bpm>
<rpm>0.00</rpm>
</extensions>
</trkpt>
<trkpt lat="30.850595474" lon="34.819286346">
<ele>323.570313</ele>
<time>2013-11-21T07:24:57Z</time>
<speed>0.330000</speed>
<extensions>
<speed>0.3</speed>
<temp>0.00</temp>
<bpm>0</bpm>
<rpm>0.00</rpm>
</extensions>
</trkpt>
<trkpt lat="30.850593567" lon="34.819244385">
<ele>321.671875</ele>
<time>2013-11-21T07:25:02Z</time>
<speed>0.040000</speed>
<extensions>
<speed>0.0</speed>
<temp>0.00</temp>
<bpm>0</bpm>
<rpm>0.00</rpm>
</extensions>
</trkpt>
<trkpt lat="30.850593567" lon="34.819244385">
<ele>321.031250</ele>
<time>2013-11-21T07:25:07Z</time>
<speed>0.080000</speed>
<extensions>
<speed>0.1</speed>
<temp>0.00</temp>
<bpm>0</bpm>
<rpm>0.00</rpm>
</extensions>
</trkpt>
<trkpt lat="30.850614548" lon="34.819221497">
<ele>320.281250</ele>
<time>2013-11-21T07:25:12Z</time>
<speed>0.790000</speed>
<extensions>
<speed>0.8</speed>
<temp>0.00</temp>
<bpm>0</bpm>
<rpm>0.00</rpm>
</extensions>
</trkpt>
<trkpt lat="30.850658417" lon="34.819198608">
<ele>319.789063</ele>
<time>2013-11-21T07:25:17Z</time>
<speed>1.080000</speed>
<extensions>
<speed>1.1</speed>
<temp>0.00</temp>
<bpm>0</bpm>
<rpm>0.00</rpm>
</extensions>
</trkpt>
<trkpt lat="30.850732803" lon="34.819152832">
<ele>319.093750</ele>
<time>2013-11-21T07:25:22Z</time>
<speed>1.430000</speed>
<extensions>
<speed>1.4</speed>
<temp>0.00</temp>
<bpm>0</bpm>
<rpm>0.00</rpm>
</extensions>
</trkpt>
<trkpt lat="30.850780487" lon="34.819122314">
<ele>318.320313</ele>
<time>2013-11-21T07:25:27Z</time>
<speed>1.050000</speed>
<extensions>
<speed>1.0</speed>
<temp>0.00</temp>
<bpm>0</bpm>
<rpm>0.00</rpm>
</extensions>
</trkpt>
<trkpt lat="30.850830078" lon="34.819076538">
<ele>317.312500</ele>
<time>2013-11-21T07:25:32Z</time>
<speed>1.090000</speed>
<extensions>
<speed>1.1</speed>
<temp>0.00</temp>
<bpm>0</bpm>
<rpm>0.00</rpm>
</extensions>
</trkpt>
<trkpt lat="30.850864410" lon="34.819019318">
<ele>316.273438</ele>
<time>2013-11-21T07:25:37Z</time>
<speed>0.230000</speed>
<extensions>
<speed>0.2</speed>
<temp>0.00</temp>
<bpm>0</bpm>
<rpm>0.00</rpm>
</extensions>
</trkpt>
<trkpt lat="30.850866318" lon="34.819026947">
<ele>316.164063</ele>
<time>2013-11-21T07:25:42Z</time>
<speed>0.060000</speed>
<extensions>
<speed>0.1</speed>
<temp>0.00</temp>
<bpm>0</bpm>
<rpm>0.00</rpm>
</extensions>
</trkpt>
<trkpt lat="30.850877762" lon="34.819034576">
<ele>315.554688</ele>
<time>2013-11-21T07:25:47Z</time>
<speed>0.320000</speed>
<extensions>
<speed>0.3</speed>
<temp>0.00</temp>
<bpm>0</bpm>
<rpm>0.00</rpm>
</extensions>
</trkpt>
<trkpt lat="30.850891113" lon="34.819015503">
<ele>318.226563</ele>
<time>2013-11-21T07:25:52Z</time>
<speed>0.280000</speed>
<extensions>
<speed>0.3</speed>
<temp>0.00</temp>
<bpm>0</bpm>
<rpm>0.00</rpm>
</extensions>
</trkpt>
<trkpt lat="30.850914001" lon="34.819023132">
<ele>318.062500</ele>
<time>2013-11-21T07:25:57Z</time>
<speed>0.390000</speed>
<extensions>
<speed>0.4</speed>
<temp>0.00</temp>
<bpm>0</bpm>
<rpm>0.00</rpm>
</extensions>
</trkpt>
<trkpt lat="30.850933075" lon="34.819026947">
<ele>317.593750</ele>
<time>2013-11-21T07:26:02Z</time>
<speed>0.420000</speed>
<extensions>
<speed>0.4</speed>
<temp>0.00</temp>
<bpm>0</bpm>
<rpm>0.00</rpm>
</extensions>
</trkpt>
<trkpt lat="30.850963593" lon="34.819015503">
<ele>317.023438</ele>
<time>2013-11-21T07:26:07Z</time>
<speed>0.490000</speed>
<extensions>
<speed>0.5</speed>
<temp>0.00</temp>
<bpm>0</bpm>
<rpm>0.00</rpm>
</extensions>
</trkpt>
<trkpt lat="30.850986481" lon="34.818992615">
<ele>316.843750</ele>
<time>2013-11-21T07:26:12Z</time>
<speed>0.600000</speed>
<extensions>
<speed>0.6</speed>
<temp>0.00</temp>
<bpm>0</bpm>
<rpm>0.00</rpm>
</extensions>
</trkpt>
<trkpt lat="30.851049423" lon="34.818977356">
<ele>316.476563</ele>
<time>2013-11-21T07:26:17Z</time>
<speed>1.340000</speed>
<extensions>
<speed>1.3</speed>
<temp>0.00</temp>
<bpm>0</bpm>
<rpm>0.00</rpm>
</extensions>
</trkpt>
<trkpt lat="30.851150513" lon="34.818958282">
<ele>316.132813</ele>
<time>2013-11-21T07:26:22Z</time>
<speed>2.270000</speed>
<extensions>
<speed>2.3</speed>
<temp>0.00</temp>
<bpm>0</bpm>
<rpm>0.00</rpm>
</extensions>
</trkpt>
<trkpt lat="30.851287842" lon="34.818943024">
<ele>315.929688</ele>
<time>2013-11-21T07:26:27Z</time>
<speed>2.160000</speed>
<extensions>
<speed>2.2</speed>
<temp>0.00</temp>
<bpm>0</bpm>
<rpm>0.00</rpm>
</extensions>
</trkpt>
<trkpt lat="30.851415634" lon="34.818870544">
<ele>315.476563</ele>
<time>2013-11-21T07:26:32Z</time>
<speed>3.290000</speed>
<extensions>
<speed>3.3</speed>
<temp>0.00</temp>
<bpm>0</bpm>
<rpm>0.00</rpm>
</extensions>
</trkpt>
<trkpt lat="30.851541519" lon="34.818813324">
<ele>315.414063</ele>
<time>2013-11-21T07:26:37Z</time>
<speed>2.340000</speed>
<extensions>
<speed>2.3</speed>
<temp>0.00</temp>
<bpm>0</bpm>
<rpm>0.00</rpm>
</extensions>
</trkpt>
<trkpt lat="30.851575851" lon="34.818714142">
<ele>316.679688</ele>
<time>2013-11-21T07:26:42Z</time>
<speed>0.710000</speed>
<extensions>
<speed>0.7</speed>
<temp>0.00</temp>
<bpm>0</bpm>
<rpm>0.00</rpm>
</extensions>
</trkpt>
<trkpt lat="30.851596832" lon="34.818668365">
<ele>317.140625</ele>
<time>2013-11-21T07:26:47Z</time>
<speed>0.220000</speed>
<extensions>
<speed>0.2</speed>
<temp>0.00</temp>
<bpm>0</bpm>
<rpm>0.00</rpm>
</extensions>
</trkpt>
<trkpt lat="30.851619720" lon="34.818679810">
<ele>317.375000</ele>
<time>2013-11-21T07:26:52Z</time>
<speed>0.060000</speed>
<extensions>
<speed>0.1</speed>
<temp>0.00</temp>
<bpm>0</bpm>
<rpm>0.00</rpm>
</extensions>
</trkpt>
<trkpt lat="30.851638794" lon="34.818679810">
<ele>317.539063</ele>
<time>2013-11-21T07:26:57Z</time>
<speed>0.590000</speed>
<extensions>
<speed>0.6</speed>
<temp>0.00</temp>
<bpm>0</bpm>
<rpm>0.00</rpm>
</extensions>
</trkpt>
<trkpt lat="30.851633072" lon="34.818687439">
<ele>318.382813</ele>
<time>2013-11-21T07:27:02Z</time>
<speed>0.400000</speed>
<extensions>
<speed>0.4</speed>
<temp>0.00</temp>
<bpm>0</bpm>
<rpm>0.00</rpm>
</extensions>
</trkpt>
<trkpt lat="30.851667404" lon="34.818679810">
<ele>318.585938</ele>
<time>2013-11-21T07:27:07Z</time>
<speed>0.620000</speed>
<extensions>
<speed>0.6</speed>
<temp>0.00</temp>
<bpm>0</bpm>
<rpm>0.00</rpm>
</extensions>
</trkpt>
<trkpt lat="30.851684570" lon="34.818660736">
<ele>318.843750</ele>
<time>2013-11-21T07:27:12Z</time>
<speed>0.280000</speed>
<extensions>
<speed>0.3</speed>
<temp>0.00</temp>
<bpm>0</bpm>
<rpm>0.00</rpm>
</extensions>
</trkpt>
<trkpt lat="30.851694107" lon="34.818630219">
<ele>319.562500</ele>
<time>2013-11-21T07:27:17Z</time>
<speed>0.410000</speed>
<extensions>
<speed>0.4</speed>
<temp>0.00</temp>
<bpm>0</bpm>
<rpm>0.00</rpm>
</extensions>
</trkpt>
<trkpt lat="30.851709366" lon="34.818584442">
<ele>319.921875</ele>
<time>2013-11-21T07:27:22Z</time>
<speed>0.590000</speed>
<extensions>
<speed>0.6</speed>
<temp>0.00</temp>
<bpm>0</bpm>
<rpm>0.00</rpm>
</extensions>
</trkpt>
<trkpt lat="30.851757050" lon="34.818557739">
<ele>319.929688</ele>
<time>2013-11-21T07:27:27Z</time>
<speed>0.940000</speed>
<extensions>
<speed>0.9</speed>
<temp>0.00</temp>
<bpm>0</bpm>
<rpm>0.00</rpm>
</extensions>
</trkpt>
<trkpt lat="30.851852417" lon="34.818538666">
<ele>320.000000</ele>
<time>2013-11-21T07:27:32Z</time>
<speed>1.440000</speed>
<extensions>
<speed>1.4</speed>
<temp>0.00</temp>
<bpm>0</bpm>
<rpm>0.00</rpm>
</extensions>
</trkpt>
<trkpt lat="30.851932526" lon="34.818527222">
<ele>320.015625</ele>
<time>2013-11-21T07:27:37Z</time>
<speed>1.540000</speed>
<extensions>
<speed>1.5</speed>
<temp>0.00</temp>
<bpm>0</bpm>
<rpm>0.00</rpm>
</extensions>
</trkpt>
<trkpt lat="30.851987839" lon="34.818458557">
<ele>319.554688</ele>
<time>2013-11-21T07:27:42Z</time>
<speed>1.920000</speed>
<extensions>
<speed>1.9</speed>
<temp>0.00</temp>
<bpm>0</bpm>
<rpm>0.00</rpm>
</extensions>
</trkpt>
<trkpt lat="30.852054596" lon="34.818477631">
<ele>319.312500</ele>
<time>2013-11-21T07:27:47Z</time>
<speed>0.910000</speed>
<extensions>
<speed>0.9</speed>
<temp>0.00</temp>
<bpm>0</bpm>
<rpm>0.00</rpm>
</extensions>
</trkpt>
<trkpt lat="30.852079391" lon="34.818462372">
<ele>319.640625</ele>
<time>2013-11-21T07:27:52Z</time>
<speed>0.460000</speed>
<extensions>
<speed>0.5</speed>
<temp>0.00</temp>
<bpm>0</bpm>
<rpm>0.00</rpm>
</extensions>
</trkpt>
<trkpt lat="30.852132797" lon="34.818450928">
<ele>319.960938</ele>
<time>2013-11-21T07:27:57Z</time>
<speed>0.940000</speed>
<extensions>
<speed>0.9</speed>
<temp>0.00</temp>
<bpm>0</bpm>
<rpm>0.00</rpm>
</extensions>
</trkpt>
<trkpt lat="30.852212906" lon="34.818428040">
<ele>320.226563</ele>
<time>2013-11-21T07:28:02Z</time>
<speed>1.520000</speed>
<extensions>
<speed>1.5</speed>
<temp>0.00</temp>
<bpm>0</bpm>
<rpm>0.00</rpm>
</extensions>
</trkpt>
<trkpt lat="30.852275848" lon="34.818405151">
<ele>320.742188</ele>
<time>2013-11-21T07:28:07Z</time>
<speed>1.510000</speed>
<extensions>
<speed>1.5</speed>
<temp>0.00</temp>
<bpm>0</bpm>
<rpm>0.00</rpm>
</extensions>
</trkpt>
<trkpt lat="30.852350235" lon="34.818378448">
<ele>321.257813</ele>
<time>2013-11-21T07:28:12Z</time>
<speed>2.820000</speed>
<extensions>
<speed>2.8</speed>
<temp>0.00</temp>
<bpm>0</bpm>
<rpm>0.00</rpm>
</extensions>
</trkpt>
<trkpt lat="30.852464676" lon="34.818351746">
<ele>322.289063</ele>
<time>2013-11-21T07:28:17Z</time>
<speed>1.820000</speed>
<extensions>
<speed>1.8</speed>
<temp>0.00</temp>
<bpm>0</bpm>
<rpm>0.00</rpm>
</extensions>
</trkpt>
<trkpt lat="30.852563858" lon="34.818325043">
<ele>323.789063</ele>
<time>2013-11-21T07:28:22Z</time>
<speed>2.260000</speed>
<extensions>
<speed>2.3</speed>
<temp>0.00</temp>
<bpm>0</bpm>
<rpm>0.00</rpm>
</extensions>
</trkpt>
<trkpt lat="30.852642059" lon="34.818267822">
<ele>325.718750</ele>
<time>2013-11-21T07:28:27Z</time>
<speed>1.670000</speed>
<extensions>
<speed>1.7</speed>
<temp>0.00</temp>
<bpm>0</bpm>
<rpm>0.00</rpm>
</extensions>
</trkpt>
<trkpt lat="30.852746964" lon="34.818225861">
<ele>328.515625</ele>
<time>2013-11-21T07:28:32Z</time>
<speed>1.850000</speed>
<extensions>
<speed>1.8</speed>
<temp>0.00</temp>
<bpm>0</bpm>
<rpm>0.00</rpm>
</extensions>
</trkpt>
<trkpt lat="30.852815628" lon="34.818195343">
<ele>332.375000</ele>
<time>2013-11-21T07:28:37Z</time>
<speed>1.850000</speed>
<extensions>
<speed>1.8</speed>
<temp>0.00</temp>
<bpm>0</bpm>
<rpm>0.00</rpm>
</extensions>
</trkpt>
<trkpt lat="30.852909088" lon="34.818187714">
<ele>335.757813</ele>
<time>2013-11-21T07:28:42Z</time>
<speed>0.610000</speed>
<extensions>
<speed>0.6</speed>
<temp>0.00</temp>
<bpm>0</bpm>
<rpm>0.00</rpm>
</extensions>
</trkpt>
<trkpt lat="30.852937698" lon="34.818222046">
<ele>337.015625</ele>
<time>2013-11-21T07:28:47Z</time>
<speed>0.410000</speed>
<extensions>
<speed>0.4</speed>
<temp>0.00</temp>
<bpm>0</bpm>
<rpm>0.00</rpm>
</extensions>
</trkpt>
<trkpt lat="30.852962494" lon="34.818244934">
<ele>339.210938</ele>
<time>2013-11-21T07:28:52Z</time>
<speed>0.580000</speed>
<extensions>
<speed>0.6</speed>
<temp>0.00</temp>
<bpm>0</bpm>
<rpm>0.00</rpm>
</extensions>
</trkpt>
<trkpt lat="30.853000641" lon="34.818275452">
<ele>340.476563</ele>
<time>2013-11-21T07:28:57Z</time>
<speed>0.620000</speed>
<extensions>
<speed>0.6</speed>
<temp>0.00</temp>
<bpm>0</bpm>
<rpm>0.00</rpm>
</extensions>
</trkpt>
<trkpt lat="30.853061676" lon="34.818290710">
<ele>340.734375</ele>
<time>2013-11-21T07:29:02Z</time>
<speed>1.200000</speed>
<extensions>
<speed>1.2</speed>
<temp>0.00</temp>
<bpm>0</bpm>
<rpm>0.00</rpm>
</extensions>
</trkpt>
<trkpt lat="30.853130341" lon="34.818298340">
<ele>341.367188</ele>
<time>2013-11-21T07:29:07Z</time>
<speed>1.360000</speed>
<extensions>
<speed>1.4</speed>
<temp>0.00</temp>
<bpm>0</bpm>
<rpm>0.00</rpm>
</extensions>
</trkpt>
<trkpt lat="30.853172302" lon="34.818283081">
<ele>342.609375</ele>
<time>2013-11-21T07:29:12Z</time>
<speed>0.960000</speed>
<extensions>
<speed>1.0</speed>
<temp>0.00</temp>
<bpm>0</bpm>
<rpm>0.00</rpm>
</extensions>
</trkpt>
<trkpt lat="30.853204727" lon="34.818252563">
<ele>342.648438</ele>
<time>2013-11-21T07:29:17Z</time>
<speed>0.980000</speed>
<extensions>
<speed>1.0</speed>
<temp>0.00</temp>
<bpm>0</bpm>
<rpm>0.00</rpm>
</extensions>
</trkpt>
<trkpt lat="30.853265762" lon="34.818237305">
<ele>343.265625</ele>
<time>2013-11-21T07:29:22Z</time>
<speed>1.520000</speed>
<extensions>
<speed>1.5</speed>
<temp>0.00</temp>
<bpm>0</bpm>
<rpm>0.00</rpm>
</extensions>
</trkpt>
<trkpt lat="30.853330612" lon="34.818244934">
<ele>344.304688</ele>
<time>2013-11-21T07:29:27Z</time>
<speed>1.540000</speed>
<extensions>
<speed>1.5</speed>
<temp>0.00</temp>
<bpm>0</bpm>
<rpm>0.00</rpm>
</extensions>
</trkpt>
<trkpt lat="30.853427887" lon="34.818252563">
<ele>345.664063</ele>
<time>2013-11-21T07:29:32Z</time>
<speed>2.460000</speed>
<extensions>
<speed>2.5</speed>
<temp>0.00</temp>
<bpm>0</bpm>
<rpm>0.00</rpm>
</extensions>
</trkpt>
<trkpt lat="30.853553772" lon="34.818317413">
<ele>346.382813</ele>
<time>2013-11-21T07:29:37Z</time>
<speed>2.610000</speed>
<extensions>
<speed>2.6</speed>
<temp>0.00</temp>
<bpm>0</bpm>
<rpm>0.00</rpm>
</extensions>
</trkpt>
<trkpt lat="30.853656769" lon="34.818367004">
<ele>346.921875</ele>
<time>2013-11-21T07:29:42Z</time>
<speed>2.020000</speed>
<extensions>
<speed>2.0</speed>
<temp>0.00</temp>
<bpm>0</bpm>
<rpm>0.00</rpm>
</extensions>
</trkpt>
<trkpt lat="30.853712082" lon="34.818428040">
<ele>347.648438</ele>
<time>2013-11-21T07:29:47Z</time>
<speed>2.240000</speed>
<extensions>
<speed>2.2</speed>
<temp>0.00</temp>
<bpm>0</bpm>
<rpm>0.00</rpm>
</extensions>
</trkpt>
<trkpt lat="30.853776932" lon="34.818496704">
<ele>347.945313</ele>
<time>2013-11-21T07:29:52Z</time>
<speed>1.370000</speed>
<extensions>
<speed>1.4</speed>
<temp>0.00</temp>
<bpm>0</bpm>
<rpm>0.00</rpm>
</extensions>
</trkpt>
<trkpt lat="30.853845596" lon="34.818531036">
<ele>347.531250</ele>
<time>2013-11-21T07:29:57Z</time>
<speed>1.460000</speed>
<extensions>
<speed>1.5</speed>
<temp>0.00</temp>
<bpm>0</bpm>
<rpm>0.00</rpm>
</extensions>
</trkpt>
<trkpt lat="30.853902817" lon="34.818584442">
<ele>346.921875</ele>
<time>2013-11-21T07:30:02Z</time>
<speed>0.930000</speed>
<extensions>
<speed>0.9</speed>
<temp>0.00</temp>
<bpm>0</bpm>
<rpm>0.00</rpm>
</extensions>
</trkpt>
<trkpt lat="30.853958130" lon="34.818607330">
<ele>345.468750</ele>
<time>2013-11-21T07:30:07Z</time>
<speed>0.310000</speed>
<extensions>
<speed>0.3</speed>
<temp>0.00</temp>
<bpm>0</bpm>
<rpm>0.00</rpm>
</extensions>
</trkpt>
<trkpt lat="30.853981018" lon="34.818630219">
<ele>345.062500</ele>
<time>2013-11-21T07:30:12Z</time>
<speed>0.380000</speed>
<extensions>
<speed>0.4</speed>
<temp>0.00</temp>
<bpm>0</bpm>
<rpm>0.00</rpm>
</extensions>
</trkpt>
<trkpt lat="30.853994370" lon="34.818637848">
<ele>345.445313</ele>
<time>2013-11-21T07:30:17Z</time>
<speed>0.440000</speed>
<extensions>
<speed>0.4</speed>
<temp>0.00</temp>
<bpm>0</bpm>
<rpm>0.00</rpm>
</extensions>
</trkpt>
<trkpt lat="30.854022980" lon="34.818660736">
<ele>345.226563</ele>
<time>2013-11-21T07:30:22Z</time>
<speed>0.590000</speed>
<extensions>
<speed>0.6</speed>
<temp>0.00</temp>
<bpm>0</bpm>
<rpm>0.00</rpm>
</extensions>
</trkpt>
<trkpt lat="30.854066849" lon="34.818679810">
<ele>346.304688</ele>
<time>2013-11-21T07:30:27Z</time>
<speed>0.530000</speed>
<extensions>
<speed>0.5</speed>
<temp>0.00</temp>
<bpm>0</bpm>
<rpm>0.00</rpm>
</extensions>
</trkpt>
<trkpt lat="30.854078293" lon="34.818714142">
<ele>346.078125</ele>
<time>2013-11-21T07:30:32Z</time>
<speed>0.580000</speed>
<extensions>
<speed>0.6</speed>
<temp>0.00</temp>
<bpm>0</bpm>
<rpm>0.00</rpm>
</extensions>
</trkpt>
<trkpt lat="30.854118347" lon="34.818798065">
<ele>345.359375</ele>
<time>2013-11-21T07:30:37Z</time>
<speed>0.880000</speed>
<extensions>
<speed>0.9</speed>
<temp>0.00</temp>
<bpm>0</bpm>
<rpm>0.00</rpm>
</extensions>
</trkpt>
<trkpt lat="30.854166031" lon="34.818847656">
<ele>345.734375</ele>
<time>2013-11-21T07:30:42Z</time>
<speed>0.400000</speed>
<extensions>
<speed>0.4</speed>
<temp>0.00</temp>
<bpm>0</bpm>
<rpm>0.00</rpm>
</extensions>
</trkpt>
<trkpt lat="30.854173660" lon="34.818866730">
<ele>347.109375</ele>
<time>2013-11-21T07:30:47Z</time>
<speed>0.440000</speed>
<extensions>
<speed>0.4</speed>
<temp>0.00</temp>
<bpm>0</bpm>
<rpm>0.00</rpm>
</extensions>
</trkpt>
<trkpt lat="30.854158401" lon="34.818874359">
<ele>348.226563</ele>
<time>2013-11-21T07:30:52Z</time>
<speed>0.230000</speed>
<extensions>
<speed>0.2</speed>
<temp>0.00</temp>
<bpm>0</bpm>
<rpm>0.00</rpm>
</extensions>
</trkpt>
<trkpt lat="30.854181290" lon="34.818897247">
<ele>347.812500</ele>
<time>2013-11-21T07:30:57Z</time>
<speed>0.520000</speed>
<extensions>
<speed>0.5</speed>
<temp>0.00</temp>
<bpm>0</bpm>
<rpm>0.00</rpm>
</extensions>
</trkpt>
<trkpt lat="30.854200363" lon="34.818939209">
<ele>347.382813</ele>
<time>2013-11-21T07:31:02Z</time>
<speed>1.310000</speed>
<extensions>
<speed>1.3</speed>
<temp>0.00</temp>
<bpm>0</bpm>
<rpm>0.00</rpm>
</extensions>
</trkpt>
<trkpt lat="30.854240417" lon="34.819007874">
<ele>347.304688</ele>
<time>2013-11-21T07:31:07Z</time>
<speed>1.490000</speed>
<extensions>
<speed>1.5</speed>
<temp>0.00</temp>
<bpm>0</bpm>
<rpm>0.00</rpm>
</extensions>
</trkpt>
<trkpt lat="30.854278564" lon="34.819084167">
<ele>347.250000</ele>
<time>2013-11-21T07:31:12Z</time>
<speed>1.830000</speed>
<extensions>
<speed>1.8</speed>
<temp>0.00</temp>
<bpm>0</bpm>
<rpm>0.00</rpm>
</extensions>
</trkpt>
<trkpt lat="30.854328156" lon="34.819141388">
<ele>347.242188</ele>
<time>2013-11-21T07:31:17Z</time>
<speed>1.480000</speed>
<extensions>
<speed>1.5</speed>
<temp>0.00</temp>
<bpm>0</bpm>
<rpm>0.00</rpm>
</extensions>
</trkpt>
<trkpt lat="30.854351044" lon="34.819248199">
<ele>348.101563</ele>
<time>2013-11-21T07:31:22Z</time>
<speed>1.340000</speed>
<extensions>
<speed>1.3</speed>
<temp>0.00</temp>
<bpm>0</bpm>
<rpm>0.00</rpm>
</extensions>
</trkpt>
<trkpt lat="30.854389191" lon="34.819335938">
<ele>348.992188</ele>
<time>2013-11-21T07:31:27Z</time>
<speed>2.210000</speed>
<extensions>
<speed>2.2</speed>
<temp>0.00</temp>
<bpm>0</bpm>
<rpm>0.00</rpm>
</extensions>
</trkpt>
<trkpt lat="30.854442596" lon="34.819416046">
<ele>349.828125</ele>
<time>2013-11-21T07:31:32Z</time>
<speed>2.370000</speed>
<extensions>
<speed>2.4</speed>
<temp>0.00</temp>
<bpm>0</bpm>
<rpm>0.00</rpm>
</extensions>
</trkpt>
<trkpt lat="30.854492188" lon="34.819534302">
<ele>351.023438</ele>
<time>2013-11-21T07:31:37Z</time>
<speed>2.400000</speed>
<extensions>
<speed>2.4</speed>
<temp>0.00</temp>
<bpm>0</bpm>
<rpm>0.00</rpm>
</extensions>
</trkpt>
<trkpt lat="30.854532242" lon="34.819633484">
<ele>352.156250</ele>
<time>2013-11-21T07:31:42Z</time>
<speed>3.050000</speed>
<extensions>
<speed>3.0</speed>
<temp>0.00</temp>
<bpm>0</bpm>
<rpm>0.00</rpm>
</extensions>
</trkpt>
<trkpt lat="30.854581833" lon="34.819805145">
<ele>354.437500</ele>
<time>2013-11-21T07:31:47Z</time>
<speed>2.600000</speed>
<extensions>
<speed>2.6</speed>
<temp>0.00</temp>
<bpm>0</bpm>
<rpm>0.00</rpm>
</extensions>
</trkpt>
<trkpt lat="30.854612350" lon="34.819915771">
<ele>356.625000</ele>
<time>2013-11-21T07:31:52Z</time>
<speed>1.780000</speed>
<extensions>
<speed>1.8</speed>
<temp>0.00</temp>
<bpm>0</bpm>
<rpm>0.00</rpm>
</extensions>
</trkpt>
<trkpt lat="30.854618073" lon="34.819965363">
<ele>360.398438</ele>
<time>2013-11-21T07:31:57Z</time>
<speed>0.850000</speed>
<extensions>
<speed>0.8</speed>
<temp>0.00</temp>
<bpm>0</bpm>
<rpm>0.00</rpm>
</extensions>
</trkpt>
<trkpt lat="30.854644775" lon="34.820034027">
<ele>362.820313</ele>
<time>2013-11-21T07:32:02Z</time>
<speed>1.290000</speed>
<extensions>
<speed>1.3</speed>
<temp>0.00</temp>
<bpm>0</bpm>
<rpm>0.00</rpm>
</extensions>
</trkpt>
<trkpt lat="30.854661942" lon="34.820144653">
<ele>365.179688</ele>
<time>2013-11-21T07:32:07Z</time>
<speed>1.760000</speed>
<extensions>
<speed>1.8</speed>
<temp>0.00</temp>
<bpm>0</bpm>
<rpm>0.00</rpm>
</extensions>
</trkpt>
<trkpt lat="30.854656219" lon="34.820293427">
<ele>367.390625</ele>
<time>2013-11-21T07:32:12Z</time>
<speed>2.190000</speed>
<extensions>
<speed>2.2</speed>
<temp>0.00</temp>
<bpm>0</bpm>
<rpm>0.00</rpm>
</extensions>
</trkpt>
<trkpt lat="30.854701996" lon="34.820434570">
<ele>369.476563</ele>
<time>2013-11-21T07:32:17Z</time>
<speed>2.090000</speed>
<extensions>
<speed>2.1</speed>
<temp>0.00</temp>
<bpm>0</bpm>
<rpm>0.00</rpm>
</extensions>
</trkpt>
<trkpt lat="30.854757309" lon="34.820571899">
<ele>371.421875</ele>
<time>2013-11-21T07:32:22Z</time>
<speed>2.600000</speed>
<extensions>
<speed>2.6</speed>
<temp>0.00</temp>
<bpm>0</bpm>
<rpm>0.00</rpm>
</extensions>
</trkpt>
<trkpt lat="30.854804993" lon="34.820693970">
<ele>372.875000</ele>
<time>2013-11-21T07:32:27Z</time>
<speed>2.440000</speed>
<extensions>
<speed>2.4</speed>
<temp>0.00</temp>
<bpm>0</bpm>
<rpm>0.00</rpm>
</extensions>
</trkpt>
<trkpt lat="30.854816437" lon="34.820674896">
<ele>372.296875</ele>
<time>2013-11-21T07:32:32Z</time>
<speed>0.200000</speed>
<extensions>
<speed>0.2</speed>
<temp>0.00</temp>
<bpm>0</bpm>
<rpm>0.00</rpm>
</extensions>
</trkpt>
<trkpt lat="30.854803085" lon="34.820663452">
<ele>372.648438</ele>
<time>2013-11-21T07:32:37Z</time>
<speed>0.120000</speed>
<extensions>
<speed>0.1</speed>
<temp>0.00</temp>
<bpm>0</bpm>
<rpm>0.00</rpm>
</extensions>
</trkpt>
<trkpt lat="30.854806900" lon="34.820720673">
<ele>371.562500</ele>
<time>2013-11-21T07:32:42Z</time>
<speed>1.080000</speed>
<extensions>
<speed>1.1</speed>
<temp>0.00</temp>
<bpm>0</bpm>
<rpm>0.00</rpm>
</extensions>
</trkpt>
<trkpt lat="30.854803085" lon="34.820896149">
<ele>369.898438</ele>
<time>2013-11-21T07:32:47Z</time>
<speed>2.320000</speed>
<extensions>
<speed>2.3</speed>
<temp>0.00</temp>
<bpm>0</bpm>
<rpm>0.00</rpm>
</extensions>
</trkpt>
<trkpt lat="30.854791641" lon="34.821018219">
<ele>370.218750</ele>
<time>2013-11-21T07:32:52Z</time>
<speed>1.570000</speed>
<extensions>
<speed>1.6</speed>
<temp>0.00</temp>
<bpm>0</bpm>
<rpm>0.00</rpm>
</extensions>
</trkpt>
<trkpt lat="30.854822159" lon="34.821128845">
<ele>370.859375</ele>
<time>2013-11-21T07:32:57Z</time>
<speed>3.350000</speed>
<extensions>
<speed>3.4</speed>
<temp>0.00</temp>
<bpm>0</bpm>
<rpm>0.00</rpm>
</extensions>
</trkpt>
<trkpt lat="30.854854584" lon="34.821292877">
<ele>371.656250</ele>
<time>2013-11-21T07:33:02Z</time>
<speed>2.370000</speed>
<extensions>
<speed>2.4</speed>
<temp>0.00</temp>
<bpm>0</bpm>
<rpm>0.00</rpm>
</extensions>
</trkpt>
<trkpt lat="30.854852676" lon="34.821456909">
<ele>372.914063</ele>
<time>2013-11-21T07:33:07Z</time>
<speed>3.850000</speed>
<extensions>
<speed>3.8</speed>
<temp>0.00</temp>
<bpm>0</bpm>
<rpm>0.00</rpm>
</extensions>
</trkpt>
<trkpt lat="30.854856491" lon="34.821578979">
<ele>373.945313</ele>
<time>2013-11-21T07:33:12Z</time>
<speed>1.350000</speed>
<extensions>
<speed>1.4</speed>
<temp>0.00</temp>
<bpm>0</bpm>
<rpm>0.00</rpm>
</extensions>
</trkpt>
<trkpt lat="30.854888916" lon="34.821666718">
<ele>373.875000</ele>
<time>2013-11-21T07:33:17Z</time>
<speed>0.930000</speed>
<extensions>
<speed>0.9</speed>
<temp>0.00</temp>
<bpm>0</bpm>
<rpm>0.00</rpm>
</extensions>
</trkpt>
<trkpt lat="30.854869843" lon="34.821666718">
<ele>373.125000</ele>
<time>2013-11-21T07:33:22Z</time>
<speed>0.210000</speed>
<extensions>
<speed>0.2</speed>
<temp>0.00</temp>
<bpm>0</bpm>
<rpm>0.00</rpm>
</extensions>
</trkpt>
<trkpt lat="30.854848862" lon="34.821720123">
<ele>372.164063</ele>
<time>2013-11-21T07:33:27Z</time>
<speed>0.600000</speed>
<extensions>
<speed>0.6</speed>
<temp>0.00</temp>
<bpm>0</bpm>
<rpm>0.00</rpm>
</extensions>
</trkpt>
<trkpt lat="30.854841232" lon="34.821754456">
<ele>372.445313</ele>
<time>2013-11-21T07:33:32Z</time>
<speed>0.700000</speed>
<extensions>
<speed>0.7</speed>
<temp>0.00</temp>
<bpm>0</bpm>
<rpm>0.00</rpm>
</extensions>
</trkpt>
<trkpt lat="30.854845047" lon="34.821804047">
<ele>371.218750</ele>
<time>2013-11-21T07:33:37Z</time>
<speed>0.750000</speed>
<extensions>
<speed>0.8</speed>
<temp>0.00</temp>
<bpm>0</bpm>
<rpm>0.00</rpm>
</extensions>
</trkpt>
<trkpt lat="30.854856491" lon="34.821861267">
<ele>371.593750</ele>
<time>2013-11-21T07:33:42Z</time>
<speed>0.840000</speed>
<extensions>
<speed>0.8</speed>
<temp>0.00</temp>
<bpm>0</bpm>
<rpm>0.00</rpm>
</extensions>
</trkpt>
<trkpt lat="30.854873657" lon="34.821945190">
<ele>372.585938</ele>
<time>2013-11-21T07:33:47Z</time>
<speed>1.390000</speed>
<extensions>
<speed>1.4</speed>
<temp>0.00</temp>
<bpm>0</bpm>
<rpm>0.00</rpm>
</extensions>
</trkpt>
<trkpt lat="30.854883194" lon="34.821960449">
<ele>372.703125</ele>
<time>2013-11-21T07:33:52Z</time>
<speed>0.220000</speed>
<extensions>
<speed>0.2</speed>
<temp>0.00</temp>
<bpm>0</bpm>
<rpm>0.00</rpm>
</extensions>
</trkpt>
<trkpt lat="30.854894638" lon="34.821968079">
<ele>373.109375</ele>
<time>2013-11-21T07:33:57Z</time>
<speed>0.190000</speed>
<extensions>
<speed>0.2</speed>
<temp>0.00</temp>
<bpm>0</bpm>
<rpm>0.00</rpm>
</extensions>
</trkpt>
<trkpt lat="30.854902267" lon="34.821971893">
<ele>373.375000</ele>
<time>2013-11-21T07:34:02Z</time>
<speed>0.250000</speed>
<extensions>
<speed>0.2</speed>
<temp>0.00</temp>
<bpm>0</bpm>
<rpm>0.00</rpm>
</extensions>
</trkpt>
<trkpt lat="30.854907990" lon="34.822002411">
<ele>373.148438</ele>
<time>2013-11-21T07:34:07Z</time>
<speed>0.510000</speed>
<extensions>
<speed>0.5</speed>
<temp>0.00</temp>
<bpm>0</bpm>
<rpm>0.00</rpm>
</extensions>
</trkpt>
<trkpt lat="30.854919434" lon="34.822052002">
<ele>373.000000</ele>
<time>2013-11-21T07:34:12Z</time>
<speed>0.980000</speed>
<extensions>
<speed>1.0</speed>
<temp>0.00</temp>
<bpm>0</bpm>
<rpm>0.00</rpm>
</extensions>
</trkpt>
<trkpt lat="30.854915619" lon="34.822116852">
<ele>372.937500</ele>
<time>2013-11-21T07:34:17Z</time>
<speed>0.990000</speed>
<extensions>
<speed>1.0</speed>
<temp>0.00</temp>
<bpm>0</bpm>
<rpm>0.00</rpm>
</extensions>
</trkpt>
<trkpt lat="30.854887009" lon="34.822185516">
<ele>372.695313</ele>
<time>2013-11-21T07:34:22Z</time>
<speed>0.960000</speed>
<extensions>
<speed>1.0</speed>
<temp>0.00</temp>
<bpm>0</bpm>
<rpm>0.00</rpm>
</extensions>
</trkpt>
<trkpt lat="30.854856491" lon="34.822231293">
<ele>372.726563</ele>
<time>2013-11-21T07:34:27Z</time>
<speed>1.090000</speed>
<extensions>
<speed>1.1</speed>
<temp>0.00</temp>
<bpm>0</bpm>
<rpm>0.00</rpm>
</extensions>
</trkpt>
<trkpt lat="30.854877472" lon="34.822296143">
<ele>372.515625</ele>
<time>2013-11-21T07:34:32Z</time>
<speed>1.120000</speed>
<extensions>
<speed>1.1</speed>
<temp>0.00</temp>
<bpm>0</bpm>
<rpm>0.00</rpm>
</extensions>
</trkpt>
<trkpt lat="30.854887009" lon="34.822292328">
<ele>372.632813</ele>
<time>2013-11-21T07:34:37Z</time>
<speed>0.430000</speed>
<extensions>
<speed>0.4</speed>
<temp>0.00</temp>
<bpm>0</bpm>
<rpm>0.00</rpm>
</extensions>
</trkpt>
<trkpt lat="30.854907990" lon="34.822345734">
<ele>372.570313</ele>
<time>2013-11-21T07:34:42Z</time>
<speed>0.770000</speed>
<extensions>
<speed>0.8</speed>
<temp>0.00</temp>
<bpm>0</bpm>
<rpm>0.00</rpm>
</extensions>
</trkpt>
<trkpt lat="30.854907990" lon="34.822387695">
<ele>372.601563</ele>
<time>2013-11-21T07:34:47Z</time>
<speed>0.750000</speed>
<extensions>
<speed>0.8</speed>
<temp>0.00</temp>
<bpm>0</bpm>
<rpm>0.00</rpm>
</extensions>
</trkpt>
<trkpt lat="30.854921341" lon="34.822429657">
<ele>372.671875</ele>
<time>2013-11-21T07:34:52Z</time>
<speed>0.680000</speed>
<extensions>
<speed>0.7</speed>
<temp>0.00</temp>
<bpm>0</bpm>
<rpm>0.00</rpm>
</extensions>
</trkpt>
<trkpt lat="30.854927063" lon="34.822467804">
<ele>372.726563</ele>
<time>2013-11-21T07:34:57Z</time>
<speed>0.820000</speed>
<extensions>
<speed>0.8</speed>
<temp>0.00</temp>
<bpm>0</bpm>
<rpm>0.00</rpm>
</extensions>
</trkpt>
<trkpt lat="30.854927063" lon="34.822525024">
<ele>372.648438</ele>
<time>2013-11-21T07:35:02Z</time>
<speed>0.990000</speed>
<extensions>
<speed>1.0</speed>
<temp>0.00</temp>
<bpm>0</bpm>
<rpm>0.00</rpm>
</extensions>
</trkpt>
<trkpt lat="30.854946136" lon="34.822566986">
<ele>372.679688</ele>
<time>2013-11-21T07:35:07Z</time>
<speed>0.420000</speed>
<extensions>
<speed>0.4</speed>
<temp>0.00</temp>
<bpm>0</bpm>
<rpm>0.00</rpm>
</extensions>
</trkpt>
<trkpt lat="30.854957581" lon="34.822631836">
<ele>372.843750</ele>
<time>2013-11-21T07:35:12Z</time>
<speed>1.010000</speed>
<extensions>
<speed>1.0</speed>
<temp>0.00</temp>
<bpm>0</bpm>
<rpm>0.00</rpm>
</extensions>
</trkpt>
<trkpt lat="30.854974747" lon="34.822685242">
<ele>373.039063</ele>
<time>2013-11-21T07:35:17Z</time>
<speed>0.780000</speed>
<extensions>
<speed>0.8</speed>
<temp>0.00</temp>
<bpm>0</bpm>
<rpm>0.00</rpm>
</extensions>
</trkpt>
<trkpt lat="30.854986191" lon="34.822704315">
<ele>373.250000</ele>
<time>2013-11-21T07:35:22Z</time>
<speed>0.480000</speed>
<extensions>
<speed>0.5</speed>
<temp>0.00</temp>
<bpm>0</bpm>
<rpm>0.00</rpm>
</extensions>
</trkpt>
<trkpt lat="30.854990005" lon="34.822727203">
<ele>373.359375</ele>
<time>2013-11-21T07:35:27Z</time>
<speed>0.530000</speed>
<extensions>
<speed>0.5</speed>
<temp>0.00</temp>
<bpm>0</bpm>
<rpm>0.00</rpm>
</extensions>
</trkpt>
<trkpt lat="30.854972839" lon="34.822761536">
<ele>373.421875</ele>
<time>2013-11-21T07:35:32Z</time>
<speed>0.580000</speed>
<extensions>
<speed>0.6</speed>
<temp>0.00</temp>
<bpm>0</bpm>
<rpm>0.00</rpm>
</extensions>
</trkpt>
<trkpt lat="30.854961395" lon="34.822803497">
<ele>373.531250</ele>
<time>2013-11-21T07:35:37Z</time>
<speed>0.640000</speed>
<extensions>
<speed>0.6</speed>
<temp>0.00</temp>
<bpm>0</bpm>
<rpm>0.00</rpm>
</extensions>
</trkpt>
<trkpt lat="30.854957581" lon="34.822872162">
<ele>373.632813</ele>
<time>2013-11-21T07:35:42Z</time>
<speed>0.850000</speed>
<extensions>
<speed>0.8</speed>
<temp>0.00</temp>
<bpm>0</bpm>
<rpm>0.00</rpm>
</extensions>
</trkpt>
<trkpt lat="30.854965210" lon="34.822921753">
<ele>373.492188</ele>
<time>2013-11-21T07:35:47Z</time>
<speed>0.960000</speed>
<extensions>
<speed>1.0</speed>
<temp>0.00</temp>
<bpm>0</bpm>
<rpm>0.00</rpm>
</extensions>
</trkpt>
<trkpt lat="30.854988098" lon="34.822967529">
<ele>373.500000</ele>
<time>2013-11-21T07:35:52Z</time>
<speed>0.690000</speed>
<extensions>
<speed>0.7</speed>
<temp>0.00</temp>
<bpm>0</bpm>
<rpm>0.00</rpm>
</extensions>
</trkpt>
<trkpt lat="30.855012894" lon="34.823020935">
<ele>373.765625</ele>
<time>2013-11-21T07:35:57Z</time>
<speed>0.730000</speed>
<extensions>
<speed>0.7</speed>
<temp>0.00</temp>
<bpm>0</bpm>
<rpm>0.00</rpm>
</extensions>
</trkpt>
<trkpt lat="30.855024338" lon="34.823078156">
<ele>373.968750</ele>
<time>2013-11-21T07:36:02Z</time>
<speed>0.920000</speed>
<extensions>
<speed>0.9</speed>
<temp>0.00</temp>
<bpm>0</bpm>
<rpm>0.00</rpm>
</extensions>
</trkpt>
<trkpt lat="30.855043411" lon="34.823135376">
<ele>374.304688</ele>
<time>2013-11-21T07:36:07Z</time>
<speed>1.040000</speed>
<extensions>
<speed>1.0</speed>
<temp>0.00</temp>
<bpm>0</bpm>
<rpm>0.00</rpm>
</extensions>
</trkpt>
<trkpt lat="30.855072021" lon="34.823158264">
<ele>374.273438</ele>
<time>2013-11-21T07:36:12Z</time>
<speed>0.920000</speed>
<extensions>
<speed>0.9</speed>
<temp>0.00</temp>
<bpm>0</bpm>
<rpm>0.00</rpm>
</extensions>
</trkpt>
<trkpt lat="30.855087280" lon="34.823184967">
<ele>374.781250</ele>
<time>2013-11-21T07:36:17Z</time>
<speed>0.450000</speed>
<extensions>
<speed>0.5</speed>
<temp>0.00</temp>
<bpm>0</bpm>
<rpm>0.00</rpm>
</extensions>
</trkpt>
<trkpt lat="30.855096817" lon="34.823234558">
<ele>374.875000</ele>
<time>2013-11-21T07:36:22Z</time>
<speed>0.710000</speed>
<extensions>
<speed>0.7</speed>
<temp>0.00</temp>
<bpm>0</bpm>
<rpm>0.00</rpm>
</extensions>
</trkpt>
<trkpt lat="30.855115891" lon="34.823307037">
<ele>375.031250</ele>
<time>2013-11-21T07:36:27Z</time>
<speed>1.130000</speed>
<extensions>
<speed>1.1</speed>
<temp>0.00</temp>
<bpm>0</bpm>
<rpm>0.00</rpm>
</extensions>
</trkpt>
<trkpt lat="30.855140686" lon="34.823375702">
<ele>375.203125</ele>
<time>2013-11-21T07:36:32Z</time>
<speed>1.230000</speed>
<extensions>
<speed>1.2</speed>
<temp>0.00</temp>
<bpm>0</bpm>
<rpm>0.00</rpm>
</extensions>
</trkpt>
<trkpt lat="30.855152130" lon="34.823425293">
<ele>375.757813</ele>
<time>2013-11-21T07:36:37Z</time>
<speed>0.650000</speed>
<extensions>
<speed>0.6</speed>
<temp>0.00</temp>
<bpm>0</bpm>
<rpm>0.00</rpm>
</extensions>
</trkpt>
<trkpt lat="30.855176926" lon="34.823440552">
<ele>376.164063</ele>
<time>2013-11-21T07:36:42Z</time>
<speed>0.470000</speed>
<extensions>
<speed>0.5</speed>
<temp>0.00</temp>
<bpm>0</bpm>
<rpm>0.00</rpm>
</extensions>
</trkpt>
<trkpt lat="30.855224609" lon="34.823444366">
<ele>376.515625</ele>
<time>2013-11-21T07:36:47Z</time>
<speed>0.540000</speed>
<extensions>
<speed>0.5</speed>
<temp>0.00</temp>
<bpm>0</bpm>
<rpm>0.00</rpm>
</extensions>
</trkpt>
<trkpt lat="30.855245590" lon="34.823459625">
<ele>376.906250</ele>
<time>2013-11-21T07:36:52Z</time>
<speed>0.490000</speed>
<extensions>
<speed>0.5</speed>
<temp>0.00</temp>
<bpm>0</bpm>
<rpm>0.00</rpm>
</extensions>
</trkpt>
<trkpt lat="30.855279922" lon="34.823425293">
<ele>376.781250</ele>
<time>2013-11-21T07:36:57Z</time>
<speed>0.430000</speed>
<extensions>
<speed>0.4</speed>
<temp>0.00</temp>
<bpm>0</bpm>
<rpm>0.00</rpm>
</extensions>
</trkpt>
<trkpt lat="30.855314255" lon="34.823425293">
<ele>377.437500</ele>
<time>2013-11-21T07:37:02Z</time>
<speed>0.480000</speed>
<extensions>
<speed>0.5</speed>
<temp>0.00</temp>
<bpm>0</bpm>
<rpm>0.00</rpm>
</extensions>
</trkpt>
<trkpt lat="30.855323792" lon="34.823417664">
<ele>378.296875</ele>
<time>2013-11-21T07:37:07Z</time>
<speed>0.400000</speed>
<extensions>
<speed>0.4</speed>
<temp>0.00</temp>
<bpm>0</bpm>
<rpm>0.00</rpm>
</extensions>
</trkpt>
<trkpt lat="30.855337143" lon="34.823451996">
<ele>378.796875</ele>
<time>2013-11-21T07:37:12Z</time>
<speed>0.360000</speed>
<extensions>
<speed>0.4</speed>
<temp>0.00</temp>
<bpm>0</bpm>
<rpm>0.00</rpm>
</extensions>
</trkpt>
<trkpt lat="30.855339050" lon="34.823490143">
<ele>380.031250</ele>
<time>2013-11-21T07:37:17Z</time>
<speed>0.520000</speed>
<extensions>
<speed>0.5</speed>
<temp>0.00</temp>
<bpm>0</bpm>
<rpm>0.00</rpm>
</extensions>
</trkpt>
<trkpt lat="30.855361938" lon="34.823505402">
<ele>380.875000</ele>
<time>2013-11-21T07:37:22Z</time>
<speed>0.490000</speed>
<extensions>
<speed>0.5</speed>
<temp>0.00</temp>
<bpm>0</bpm>
<rpm>0.00</rpm>
</extensions>
</trkpt>
<trkpt lat="30.855363846" lon="34.823520660">
<ele>381.429688</ele>
<time>2013-11-21T07:37:27Z</time>
<speed>0.560000</speed>
<extensions>
<speed>0.6</speed>
<temp>0.00</temp>
<bpm>0</bpm>
<rpm>0.00</rpm>
</extensions>
</trkpt>
<trkpt lat="30.855354309" lon="34.823558807">
<ele>382.023438</ele>
<time>2013-11-21T07:37:32Z</time>
<speed>0.690000</speed>
<extensions>
<speed>0.7</speed>
<temp>0.00</temp>
<bpm>0</bpm>
<rpm>0.00</rpm>
</extensions>
</trkpt>
<trkpt lat="30.855339050" lon="34.823612213">
<ele>383.078125</ele>
<time>2013-11-21T07:37:37Z</time>
<speed>0.800000</speed>
<extensions>
<speed>0.8</speed>
<temp>0.00</temp>
<bpm>0</bpm>
<rpm>0.00</rpm>
</extensions>
</trkpt>
<trkpt lat="30.855335236" lon="34.823650360">
<ele>383.875000</ele>
<time>2013-11-21T07:37:42Z</time>
<speed>0.570000</speed>
<extensions>
<speed>0.6</speed>
<temp>0.00</temp>
<bpm>0</bpm>
<rpm>0.00</rpm>
</extensions>
</trkpt>
<trkpt lat="30.855327606" lon="34.823677063">
<ele>384.898438</ele>
<time>2013-11-21T07:37:47Z</time>
<speed>0.400000</speed>
<extensions>
<speed>0.4</speed>
<temp>0.00</temp>
<bpm>0</bpm>
<rpm>0.00</rpm>
</extensions>
</trkpt>
<trkpt lat="30.855358124" lon="34.823684692">
<ele>385.984375</ele>
<time>2013-11-21T07:37:52Z</time>
<speed>0.450000</speed>
<extensions>
<speed>0.5</speed>
<temp>0.00</temp>
<bpm>0</bpm>
<rpm>0.00</rpm>
</extensions>
</trkpt>
<trkpt lat="30.855390549" lon="34.823692322">
<ele>386.578125</ele>
<time>2013-11-21T07:37:57Z</time>
<speed>0.600000</speed>
<extensions>
<speed>0.6</speed>
<temp>0.00</temp>
<bpm>0</bpm>
<rpm>0.00</rpm>
</extensions>
</trkpt>
<trkpt lat="30.855426788" lon="34.823680878">
<ele>387.039063</ele>
<time>2013-11-21T07:38:02Z</time>
<speed>0.550000</speed>
<extensions>
<speed>0.6</speed>
<temp>0.00</temp>
<bpm>0</bpm>
<rpm>0.00</rpm>
</extensions>
</trkpt>
<trkpt lat="30.855457306" lon="34.823657990">
<ele>387.406250</ele>
<time>2013-11-21T07:38:07Z</time>
<speed>0.260000</speed>
<extensions>
<speed>0.3</speed>
<temp>0.00</temp>
<bpm>0</bpm>
<rpm>0.00</rpm>
</extensions>
</trkpt>
<trkpt lat="30.855445862" lon="34.823635101">
<ele>387.562500</ele>
<time>2013-11-21T07:38:12Z</time>
<speed>0.110000</speed>
<extensions>
<speed>0.1</speed>
<temp>0.00</temp>
<bpm>0</bpm>
<rpm>0.00</rpm>
</extensions>
</trkpt>
<trkpt lat="30.855449677" lon="34.823631287">
<ele>388.007813</ele>
<time>2013-11-21T07:38:17Z</time>
<speed>0.080000</speed>
<extensions>
<speed>0.1</speed>
<temp>0.00</temp>
<bpm>0</bpm>
<rpm>0.00</rpm>
</extensions>
</trkpt>
<trkpt lat="30.855449677" lon="34.823631287">
<ele>388.429688</ele>
<time>2013-11-21T07:38:22Z</time>
<speed>0.030000</speed>
<extensions>
<speed>0.0</speed>
<temp>0.00</temp>
<bpm>0</bpm>
<rpm>0.00</rpm>
</extensions>
</trkpt>
<trkpt lat="30.855447769" lon="34.823627472">
<ele>388.851563</ele>
<time>2013-11-21T07:38:27Z</time>
<speed>0.170000</speed>
<extensions>
<speed>0.2</speed>
<temp>0.00</temp>
<bpm>0</bpm>
<rpm>0.00</rpm>
</extensions>
</trkpt>
<trkpt lat="30.855468750" lon="34.823627472">
<ele>389.273438</ele>
<time>2013-11-21T07:38:32Z</time>
<speed>0.320000</speed>
<extensions>
<speed>0.3</speed>
<temp>0.00</temp>
<bpm>0</bpm>
<rpm>0.00</rpm>
</extensions>
</trkpt>
<trkpt lat="30.855510712" lon="34.823631287">
<ele>389.992188</ele>
<time>2013-11-21T07:38:37Z</time>
<speed>0.520000</speed>
<extensions>
<speed>0.5</speed>
<temp>0.00</temp>
<bpm>0</bpm>
<rpm>0.00</rpm>
</extensions>
</trkpt>
<trkpt lat="30.855531693" lon="34.823646545">
<ele>390.679688</ele>
<time>2013-11-21T07:38:42Z</time>
<speed>0.520000</speed>
<extensions>
<speed>0.5</speed>
<temp>0.00</temp>
<bpm>0</bpm>
<rpm>0.00</rpm>
</extensions>
</trkpt>
<trkpt lat="30.855566025" lon="34.823673248">
<ele>391.328125</ele>
<time>2013-11-21T07:38:47Z</time>
<speed>0.540000</speed>
<extensions>
<speed>0.5</speed>
<temp>0.00</temp>
<bpm>0</bpm>
<rpm>0.00</rpm>
</extensions>
</trkpt>
<trkpt lat="30.855587006" lon="34.823688507">
<ele>392.203125</ele>
<time>2013-11-21T07:38:52Z</time>
<speed>0.510000</speed>
<extensions>
<speed>0.5</speed>
<temp>0.00</temp>
<bpm>0</bpm>
<rpm>0.00</rpm>
</extensions>
</trkpt>
<trkpt lat="30.855617523" lon="34.823703766">
<ele>393.117188</ele>
<time>2013-11-21T07:38:57Z</time>
<speed>0.470000</speed>
<extensions>
<speed>0.5</speed>
<temp>0.00</temp>
<bpm>0</bpm>
<rpm>0.00</rpm>
</extensions>
</trkpt>
<trkpt lat="30.855659485" lon="34.823707581">
<ele>393.007813</ele>
<time>2013-11-21T07:39:02Z</time>
<speed>0.550000</speed>
<extensions>
<speed>0.6</speed>
<temp>0.00</temp>
<bpm>0</bpm>
<rpm>0.00</rpm>
</extensions>
</trkpt>
<trkpt lat="30.855716705" lon="34.823715210">
<ele>393.195313</ele>
<time>2013-11-21T07:39:07Z</time>
<speed>0.560000</speed>
<extensions>
<speed>0.6</speed>
<temp>0.00</temp>
<bpm>0</bpm>
<rpm>0.00</rpm>
</extensions>
</trkpt>
<trkpt lat="30.855718613" lon="34.823738098">
<ele>394.085938</ele>
<time>2013-11-21T07:39:12Z</time>
<speed>0.060000</speed>
<extensions>
<speed>0.1</speed>
<temp>0.00</temp>
<bpm>0</bpm>
<rpm>0.00</rpm>
</extensions>
</trkpt>
<trkpt lat="30.855710983" lon="34.823734283">
<ele>394.523438</ele>
<time>2013-11-21T07:39:17Z</time>
<speed>0.110000</speed>
<extensions>
<speed>0.1</speed>
<temp>0.00</temp>
<bpm>0</bpm>
<rpm>0.00</rpm>
</extensions>
</trkpt>
<trkpt lat="30.855712891" lon="34.823726654">
<ele>394.984375</ele>
<time>2013-11-21T07:39:22Z</time>
<speed>0.330000</speed>
<extensions>
<speed>0.3</speed>
<temp>0.00</temp>
<bpm>0</bpm>
<rpm>0.00</rpm>
</extensions>
</trkpt>
<trkpt lat="30.855716705" lon="34.823719025">
<ele>395.648438</ele>
<time>2013-11-21T07:39:27Z</time>
<speed>0.230000</speed>
<extensions>
<speed>0.2</speed>
<temp>0.00</temp>
<bpm>0</bpm>
<rpm>0.00</rpm>
</extensions>
</trkpt>
<trkpt lat="30.855726242" lon="34.823711395">
<ele>396.101563</ele>
<time>2013-11-21T07:39:32Z</time>
<speed>0.190000</speed>
<extensions>
<speed>0.2</speed>
<temp>0.00</temp>
<bpm>0</bpm>
<rpm>0.00</rpm>
</extensions>
</trkpt>
<trkpt lat="30.855731964" lon="34.823711395">
<ele>396.585938</ele>
<time>2013-11-21T07:39:37Z</time>
<speed>0.220000</speed>
<extensions>
<speed>0.2</speed>
<temp>0.00</temp>
<bpm>0</bpm>
<rpm>0.00</rpm>
</extensions>
</trkpt>
<trkpt lat="30.855758667" lon="34.823730469">
<ele>397.187500</ele>
<time>2013-11-21T07:39:42Z</time>
<speed>0.430000</speed>
<extensions>
<speed>0.4</speed>
<temp>0.00</temp>
<bpm>0</bpm>
<rpm>0.00</rpm>
</extensions>
</trkpt>
<trkpt lat="30.855865479" lon="34.823818207">
<ele>395.312500</ele>
<time>2013-11-21T07:39:47Z</time>
<speed>0.470000</speed>
<extensions>
<speed>0.5</speed>
<temp>0.00</temp>
<bpm>0</bpm>
<rpm>0.00</rpm>
</extensions>
</trkpt>
<trkpt lat="30.855873108" lon="34.823863983">
<ele>394.476563</ele>
<time>2013-11-21T07:39:52Z</time>
<speed>0.320000</speed>
<extensions>
<speed>0.3</speed>
<temp>0.00</temp>
<bpm>0</bpm>
<rpm>0.00</rpm>
</extensions>
</trkpt>
<trkpt lat="30.855911255" lon="34.823883057">
<ele>397.617188</ele>
<time>2013-11-21T07:39:57Z</time>
<speed>0.370000</speed>
<extensions>
<speed>0.4</speed>
<temp>0.00</temp>
<bpm>0</bpm>
<rpm>0.00</rpm>
</extensions>
</trkpt>
<trkpt lat="30.855934143" lon="34.823928833">
<ele>397.835938</ele>
<time>2013-11-21T07:40:02Z</time>
<speed>0.450000</speed>
<extensions>
<speed>0.5</speed>
<temp>0.00</temp>
<bpm>0</bpm>
<rpm>0.00</rpm>
</extensions>
</trkpt>
<trkpt lat="30.855941772" lon="34.823932648">
<ele>398.960938</ele>
<time>2013-11-21T07:40:07Z</time>
<speed>0.340000</speed>
<extensions>
<speed>0.3</speed>
<temp>0.00</temp>
<bpm>0</bpm>
<rpm>0.00</rpm>
</extensions>
</trkpt>
<trkpt lat="30.855932236" lon="34.823913574">
<ele>399.937500</ele>
<time>2013-11-21T07:40:12Z</time>
<speed>0.180000</speed>
<extensions>
<speed>0.2</speed>
<temp>0.00</temp>
<bpm>0</bpm>
<rpm>0.00</rpm>
</extensions>
</trkpt>
<trkpt lat="30.855934143" lon="34.823917389">
<ele>400.398438</ele>
<time>2013-11-21T07:40:17Z</time>
<speed>0.110000</speed>
<extensions>
<speed>0.1</speed>
<temp>0.00</temp>
<bpm>0</bpm>
<rpm>0.00</rpm>
</extensions>
</trkpt>
<trkpt lat="30.855932236" lon="34.823917389">
<ele>400.882813</ele>
<time>2013-11-21T07:40:22Z</time>
<speed>0.080000</speed>
<extensions>
<speed>0.1</speed>
<temp>0.00</temp>
<bpm>0</bpm>
<rpm>0.00</rpm>
</extensions>
</trkpt>
<trkpt lat="30.855926514" lon="34.823921204">
<ele>401.421875</ele>
<time>2013-11-21T07:40:27Z</time>
<speed>0.170000</speed>
<extensions>
<speed>0.2</speed>
<temp>0.00</temp>
<bpm>0</bpm>
<rpm>0.00</rpm>
</extensions>
</trkpt>
<trkpt lat="30.855918884" lon="34.823928833">
<ele>402.039063</ele>
<time>2013-11-21T07:40:32Z</time>
<speed>0.140000</speed>
<extensions>
<speed>0.1</speed>
<temp>0.00</temp>
<bpm>0</bpm>
<rpm>0.00</rpm>
</extensions>
</trkpt>
<trkpt lat="30.855915070" lon="34.823936462">
<ele>402.593750</ele>
<time>2013-11-21T07:40:37Z</time>
<speed>0.260000</speed>
<extensions>
<speed>0.3</speed>
<temp>0.00</temp>
<bpm>0</bpm>
<rpm>0.00</rpm>
</extensions>
</trkpt>
<trkpt lat="30.855909348" lon="34.823944092">
<ele>403.171875</ele>
<time>2013-11-21T07:40:42Z</time>
<speed>0.160000</speed>
<extensions>
<speed>0.2</speed>
<temp>0.00</temp>
<bpm>0</bpm>
<rpm>0.00</rpm>
</extensions>
</trkpt>
<trkpt lat="30.855909348" lon="34.823951721">
<ele>403.695313</ele>
<time>2013-11-21T07:40:47Z</time>
<speed>0.180000</speed>
<extensions>
<speed>0.2</speed>
<temp>0.00</temp>
<bpm>0</bpm>
<rpm>0.00</rpm>
</extensions>
</trkpt>
<trkpt lat="30.855913162" lon="34.823959351">
<ele>404.195313</ele>
<time>2013-11-21T07:40:52Z</time>
<speed>0.150000</speed>
<extensions>
<speed>0.2</speed>
<temp>0.00</temp>
<bpm>0</bpm>
<rpm>0.00</rpm>
</extensions>
</trkpt>
<trkpt lat="30.855915070" lon="34.823966980">
<ele>404.750000</ele>
<time>2013-11-21T07:40:57Z</time>
<speed>0.290000</speed>
<extensions>
<speed>0.3</speed>
<temp>0.00</temp>
<bpm>0</bpm>
<rpm>0.00</rpm>
</extensions>
</trkpt>
<trkpt lat="30.855916977" lon="34.823982239">
<ele>405.281250</ele>
<time>2013-11-21T07:41:02Z</time>
<speed>0.260000</speed>
<extensions>
<speed>0.3</speed>
<temp>0.00</temp>
<bpm>0</bpm>
<rpm>0.00</rpm>
</extensions>
</trkpt>
<trkpt lat="30.855936050" lon="34.823993683">
<ele>405.031250</ele>
<time>2013-11-21T07:41:07Z</time>
<speed>0.300000</speed>
<extensions>
<speed>0.3</speed>
<temp>0.00</temp>
<bpm>0</bpm>
<rpm>0.00</rpm>
</extensions>
</trkpt>
<trkpt lat="30.855978012" lon="34.824001312">
<ele>403.375000</ele>
<time>2013-11-21T07:41:12Z</time>
<speed>0.260000</speed>
<extensions>
<speed>0.3</speed>
<temp>0.00</temp>
<bpm>0</bpm>
<rpm>0.00</rpm>
</extensions>
</trkpt>
<trkpt lat="30.855976105" lon="34.823997498">
<ele>403.828125</ele>
<time>2013-11-21T07:41:17Z</time>
<speed>0.110000</speed>
<extensions>
<speed>0.1</speed>
<temp>0.00</temp>
<bpm>0</bpm>
<rpm>0.00</rpm>
</extensions>
</trkpt>
<trkpt lat="30.855974197" lon="34.824001312">
<ele>404.117188</ele>
<time>2013-11-21T07:41:22Z</time>
<speed>0.050000</speed>
<extensions>
<speed>0.1</speed>
<temp>0.00</temp>
<bpm>0</bpm>
<rpm>0.00</rpm>
</extensions>
</trkpt>
<trkpt lat="30.855970383" lon="34.824005127">
<ele>404.531250</ele>
<time>2013-11-21T07:41:27Z</time>
<speed>0.160000</speed>
<extensions>
<speed>0.2</speed>
<temp>0.00</temp>
<bpm>0</bpm>
<rpm>0.00</rpm>
</extensions>
</trkpt>
<trkpt lat="30.855960846" lon="34.824008942">
<ele>405.093750</ele>
<time>2013-11-21T07:41:32Z</time>
<speed>0.300000</speed>
<extensions>
<speed>0.3</speed>
<temp>0.00</temp>
<bpm>0</bpm>
<rpm>0.00</rpm>
</extensions>
</trkpt>
<trkpt lat="30.855920792" lon="34.823993683">
<ele>407.101563</ele>
<time>2013-11-21T07:41:37Z</time>
<speed>0.260000</speed>
<extensions>
<speed>0.3</speed>
<temp>0.00</temp>
<bpm>0</bpm>
<rpm>0.00</rpm>
</extensions>
</trkpt>
<trkpt lat="30.855915070" lon="34.823989868">
<ele>407.734375</ele>
<time>2013-11-21T07:41:42Z</time>
<speed>0.120000</speed>
<extensions>
<speed>0.1</speed>
<temp>0.00</temp>
<bpm>0</bpm>
<rpm>0.00</rpm>
</extensions>
</trkpt>
<trkpt lat="30.855913162" lon="34.823993683">
<ele>408.437500</ele>
<time>2013-11-21T07:41:47Z</time>
<speed>0.160000</speed>
<extensions>
<speed>0.2</speed>
<temp>0.00</temp>
<bpm>0</bpm>
<rpm>0.00</rpm>
</extensions>
</trkpt>
<trkpt lat="30.855915070" lon="34.824005127">
<ele>409.156250</ele>
<time>2013-11-21T07:41:52Z</time>
<speed>0.230000</speed>
<extensions>
<speed>0.2</speed>
<temp>0.00</temp>
<bpm>0</bpm>
<rpm>0.00</rpm>
</extensions>
</trkpt>
<trkpt lat="30.855918884" lon="34.824020386">
<ele>409.843750</ele>
<time>2013-11-21T07:41:57Z</time>
<speed>0.320000</speed>
<extensions>
<speed>0.3</speed>
<temp>0.00</temp>
<bpm>0</bpm>
<rpm>0.00</rpm>
</extensions>
</trkpt>
<trkpt lat="30.855924606" lon="34.824066162">
<ele>411.148438</ele>
<time>2013-11-21T07:42:02Z</time>
<speed>0.420000</speed>
<extensions>
<speed>0.4</speed>
<temp>0.00</temp>
<bpm>0</bpm>
<rpm>0.00</rpm>
</extensions>
</trkpt>
<trkpt lat="30.855945587" lon="34.824085236">
<ele>412.859375</ele>
<time>2013-11-21T07:42:07Z</time>
<speed>0.380000</speed>
<extensions>
<speed>0.4</speed>
<temp>0.00</temp>
<bpm>0</bpm>
<rpm>0.00</rpm>
</extensions>
</trkpt>
<trkpt lat="30.855964661" lon="34.824108124">
<ele>414.265625</ele>
<time>2013-11-21T07:42:12Z</time>
<speed>0.460000</speed>
<extensions>
<speed>0.5</speed>
<temp>0.00</temp>
<bpm>0</bpm>
<rpm>0.00</rpm>
</extensions>
</trkpt>
<trkpt lat="30.855962753" lon="34.824131012">
<ele>415.500000</ele>
<time>2013-11-21T07:42:17Z</time>
<speed>0.400000</speed>
<extensions>
<speed>0.4</speed>
<temp>0.00</temp>
<bpm>0</bpm>
<rpm>0.00</rpm>
</extensions>
</trkpt>
<trkpt lat="30.855987549" lon="34.824108124">
<ele>416.578125</ele>
<time>2013-11-21T07:42:22Z</time>
<speed>0.380000</speed>
<extensions>
<speed>0.4</speed>
<temp>0.00</temp>
<bpm>0</bpm>
<rpm>0.00</rpm>
</extensions>
</trkpt>
<trkpt lat="30.856006622" lon="34.824108124">
<ele>417.789063</ele>
<time>2013-11-21T07:42:27Z</time>
<speed>0.340000</speed>
<extensions>
<speed>0.3</speed>
<temp>0.00</temp>
<bpm>0</bpm>
<rpm>0.00</rpm>
</extensions>
</trkpt>
<trkpt lat="30.856029510" lon="34.824100494">
<ele>418.367188</ele>
<time>2013-11-21T07:42:32Z</time>
<speed>0.350000</speed>
<extensions>
<speed>0.3</speed>
<temp>0.00</temp>
<bpm>0</bpm>
<rpm>0.00</rpm>
</extensions>
</trkpt>
<trkpt lat="30.856082916" lon="34.824108124">
<ele>418.679688</ele>
<time>2013-11-21T07:42:37Z</time>
<speed>0.500000</speed>
<extensions>
<speed>0.5</speed>
<temp>0.00</temp>
<bpm>0</bpm>
<rpm>0.00</rpm>
</extensions>
</trkpt>
<trkpt lat="30.856121063" lon="34.824131012">
<ele>419.500000</ele>
<time>2013-11-21T07:42:42Z</time>
<speed>0.500000</speed>
<extensions>
<speed>0.5</speed>
<temp>0.00</temp>
<bpm>0</bpm>
<rpm>0.00</rpm>
</extensions>
</trkpt>
<trkpt lat="30.856153488" lon="34.824150085">
<ele>420.414063</ele>
<time>2013-11-21T07:42:47Z</time>
<speed>0.430000</speed>
<extensions>
<speed>0.4</speed>
<temp>0.00</temp>
<bpm>0</bpm>
<rpm>0.00</rpm>
</extensions>
</trkpt>
<trkpt lat="30.856197357" lon="34.824176788">
<ele>420.468750</ele>
<time>2013-11-21T07:42:52Z</time>
<speed>0.540000</speed>
<extensions>
<speed>0.5</speed>
<temp>0.00</temp>
<bpm>0</bpm>
<rpm>0.00</rpm>
</extensions>
</trkpt>
<trkpt lat="30.856220245" lon="34.824230194">
<ele>421.273438</ele>
<time>2013-11-21T07:42:57Z</time>
<speed>0.940000</speed>
<extensions>
<speed>0.9</speed>
<temp>0.00</temp>
<bpm>0</bpm>
<rpm>0.00</rpm>
</extensions>
</trkpt>
<trkpt lat="30.856266022" lon="34.824329376">
<ele>421.773438</ele>
<time>2013-11-21T07:43:02Z</time>
<speed>1.890000</speed>
<extensions>
<speed>1.9</speed>
<temp>0.00</temp>
<bpm>0</bpm>
<rpm>0.00</rpm>
</extensions>
</trkpt>
<trkpt lat="30.856283188" lon="34.824356079">
<ele>423.671875</ele>
<time>2013-11-21T07:43:07Z</time>
<speed>0.490000</speed>
<extensions>
<speed>0.5</speed>
<temp>0.00</temp>
<bpm>0</bpm>
<rpm>0.00</rpm>
</extensions>
</trkpt>
<trkpt lat="30.856288910" lon="34.824340820">
<ele>423.796875</ele>
<time>2013-11-21T07:43:12Z</time>
<speed>0.290000</speed>
<extensions>
<speed>0.3</speed>
<temp>0.00</temp>
<bpm>0</bpm>
<rpm>0.00</rpm>
</extensions>
</trkpt>
<trkpt lat="30.856292725" lon="34.824317932">
<ele>424.140625</ele>
<time>2013-11-21T07:43:17Z</time>
<speed>0.360000</speed>
<extensions>
<speed>0.4</speed>
<temp>0.00</temp>
<bpm>0</bpm>
<rpm>0.00</rpm>
</extensions>
</trkpt>
<trkpt lat="30.856298447" lon="34.824283600">
<ele>424.593750</ele>
<time>2013-11-21T07:43:22Z</time>
<speed>0.530000</speed>
<extensions>
<speed>0.5</speed>
<temp>0.00</temp>
<bpm>0</bpm>
<rpm>0.00</rpm>
</extensions>
</trkpt>
<trkpt lat="30.856309891" lon="34.824260712">
<ele>425.148438</ele>
<time>2013-11-21T07:43:27Z</time>
<speed>0.470000</speed>
<extensions>
<speed>0.5</speed>
<temp>0.00</temp>
<bpm>0</bpm>
<rpm>0.00</rpm>
</extensions>
</trkpt>
<trkpt lat="30.856313705" lon="34.824237823">
<ele>425.382813</ele>
<time>2013-11-21T07:43:32Z</time>
<speed>0.480000</speed>
<extensions>
<speed>0.5</speed>
<temp>0.00</temp>
<bpm>0</bpm>
<rpm>0.00</rpm>
</extensions>
</trkpt>
<trkpt lat="30.856317520" lon="34.824184418">
<ele>425.515625</ele>
<time>2013-11-21T07:43:37Z</time>
<speed>0.720000</speed>
<extensions>
<speed>0.7</speed>
<temp>0.00</temp>
<bpm>0</bpm>
<rpm>0.00</rpm>
</extensions>
</trkpt>
<trkpt lat="30.856361389" lon="34.824142456">
<ele>425.828125</ele>
<time>2013-11-21T07:43:42Z</time>
<speed>0.380000</speed>
<extensions>
<speed>0.4</speed>
<temp>0.00</temp>
<bpm>0</bpm>
<rpm>0.00</rpm>
</extensions>
</trkpt>
<trkpt lat="30.856353760" lon="34.824131012">
<ele>426.710938</ele>
<time>2013-11-21T07:43:47Z</time>
<speed>0.200000</speed>
<extensions>
<speed>0.2</speed>
<temp>0.00</temp>
<bpm>0</bpm>
<rpm>0.00</rpm>
</extensions>
</trkpt>
<trkpt lat="30.856355667" lon="34.824123383">
<ele>427.328125</ele>
<time>2013-11-21T07:43:52Z</time>
<speed>0.150000</speed>
<extensions>
<speed>0.2</speed>
<temp>0.00</temp>
<bpm>0</bpm>
<rpm>0.00</rpm>
</extensions>
</trkpt>
<trkpt lat="30.856359482" lon="34.824115753">
<ele>427.882813</ele>
<time>2013-11-21T07:43:57Z</time>
<speed>0.400000</speed>
<extensions>
<speed>0.4</speed>
<temp>0.00</temp>
<bpm>0</bpm>
<rpm>0.00</rpm>
</extensions>
</trkpt>
<trkpt lat="30.856346130" lon="34.824058533">
<ele>428.125000</ele>
<time>2013-11-21T07:44:02Z</time>
<speed>0.710000</speed>
<extensions>
<speed>0.7</speed>
<temp>0.00</temp>
<bpm>0</bpm>
<rpm>0.00</rpm>
</extensions>
</trkpt>
<trkpt lat="30.856349945" lon="34.824024200">
<ele>427.625000</ele>
<time>2013-11-21T07:44:07Z</time>
<speed>0.560000</speed>
<extensions>
<speed>0.6</speed>
<temp>0.00</temp>
<bpm>0</bpm>
<rpm>0.00</rpm>
</extensions>
</trkpt>
<trkpt lat="30.856348038" lon="34.823986053">
<ele>428.062500</ele>
<time>2013-11-21T07:44:12Z</time>
<speed>0.490000</speed>
<extensions>
<speed>0.5</speed>
<temp>0.00</temp>
<bpm>0</bpm>
<rpm>0.00</rpm>
</extensions>
</trkpt>
<trkpt lat="30.856361389" lon="34.823959351">
<ele>428.656250</ele>
<time>2013-11-21T07:44:17Z</time>
<speed>0.460000</speed>
<extensions>
<speed>0.5</speed>
<temp>0.00</temp>
<bpm>0</bpm>
<rpm>0.00</rpm>
</extensions>
</trkpt>
<trkpt lat="30.856382370" lon="34.823940277">
<ele>428.867188</ele>
<time>2013-11-21T07:44:22Z</time>
<speed>0.460000</speed>
<extensions>
<speed>0.5</speed>
<temp>0.00</temp>
<bpm>0</bpm>
<rpm>0.00</rpm>
</extensions>
</trkpt>
<trkpt lat="30.856399536" lon="34.823890686">
<ele>430.679688</ele>
<time>2013-11-21T07:44:27Z</time>
<speed>0.620000</speed>
<extensions>
<speed>0.6</speed>
<temp>0.00</temp>
<bpm>0</bpm>
<rpm>0.00</rpm>
</extensions>
</trkpt>
<trkpt lat="30.856414795" lon="34.823848724">
<ele>432.015625</ele>
<time>2013-11-21T07:44:32Z</time>
<speed>0.770000</speed>
<extensions>
<speed>0.8</speed>
<temp>0.00</temp>
<bpm>0</bpm>
<rpm>0.00</rpm>
</extensions>
</trkpt>
<trkpt lat="30.856437683" lon="34.823802948">
<ele>433.046875</ele>
<time>2013-11-21T07:44:37Z</time>
<speed>0.750000</speed>
<extensions>
<speed>0.8</speed>
<temp>0.00</temp>
<bpm>0</bpm>
<rpm>0.00</rpm>
</extensions>
</trkpt>
<trkpt lat="30.856452942" lon="34.823757172">
<ele>434.109375</ele>
<time>2013-11-21T07:44:42Z</time>
<speed>0.860000</speed>
<extensions>
<speed>0.9</speed>
<temp>0.00</temp>
<bpm>0</bpm>
<rpm>0.00</rpm>
</extensions>
</trkpt>
<trkpt lat="30.856470108" lon="34.823711395">
<ele>435.015625</ele>
<time>2013-11-21T07:44:47Z</time>
<speed>0.910000</speed>
<extensions>
<speed>0.9</speed>
<temp>0.00</temp>
<bpm>0</bpm>
<rpm>0.00</rpm>
</extensions>
</trkpt>
<trkpt lat="30.856519699" lon="34.823680878">
<ele>436.148438</ele>
<time>2013-11-21T07:44:52Z</time>
<speed>0.780000</speed>
<extensions>
<speed>0.8</speed>
<temp>0.00</temp>
<bpm>0</bpm>
<rpm>0.00</rpm>
</extensions>
</trkpt>
<trkpt lat="30.856534958" lon="34.823627472">
<ele>436.781250</ele>
<time>2013-11-21T07:44:57Z</time>
<speed>0.940000</speed>
<extensions>
<speed>0.9</speed>
<temp>0.00</temp>
<bpm>0</bpm>
<rpm>0.00</rpm>
</extensions>
</trkpt>
<trkpt lat="30.856561661" lon="34.823593140">
<ele>437.687500</ele>
<time>2013-11-21T07:45:02Z</time>
<speed>0.950000</speed>
<extensions>
<speed>1.0</speed>
<temp>0.00</temp>
<bpm>0</bpm>
<rpm>0.00</rpm>
</extensions>
</trkpt>
<trkpt lat="30.856567383" lon="34.823528290">
<ele>437.937500</ele>
<time>2013-11-21T07:45:07Z</time>
<speed>1.120000</speed>
<extensions>
<speed>1.1</speed>
<temp>0.00</temp>
<bpm>0</bpm>
<rpm>0.00</rpm>
</extensions>
</trkpt>
<trkpt lat="30.856586456" lon="34.823490143">
<ele>438.429688</ele>
<time>2013-11-21T07:45:12Z</time>
<speed>0.950000</speed>
<extensions>
<speed>1.0</speed>
<temp>0.00</temp>
<bpm>0</bpm>
<rpm>0.00</rpm>
</extensions>
</trkpt>
<trkpt lat="30.856586456" lon="34.823448181">
<ele>439.023438</ele>
<time>2013-11-21T07:45:17Z</time>
<speed>0.790000</speed>
<extensions>
<speed>0.8</speed>
<temp>0.00</temp>
<bpm>0</bpm>
<rpm>0.00</rpm>
</extensions>
</trkpt>
<trkpt lat="30.856601715" lon="34.823379517">
<ele>439.304688</ele>
<time>2013-11-21T07:45:22Z</time>
<speed>0.990000</speed>
<extensions>
<speed>1.0</speed>
<temp>0.00</temp>
<bpm>0</bpm>
<rpm>0.00</rpm>
</extensions>
</trkpt>
<trkpt lat="30.856613159" lon="34.823295593">
<ele>439.773438</ele>
<time>2013-11-21T07:45:27Z</time>
<speed>1.200000</speed>
<extensions>
<speed>1.2</speed>
<temp>0.00</temp>
<bpm>0</bpm>
<rpm>0.00</rpm>
</extensions>
</trkpt>
<trkpt lat="30.856645584" lon="34.823249817">
<ele>440.117188</ele>
<time>2013-11-21T07:45:32Z</time>
<speed>0.930000</speed>
<extensions>
<speed>0.9</speed>
<temp>0.00</temp>
<bpm>0</bpm>
<rpm>0.00</rpm>
</extensions>
</trkpt>
<trkpt lat="30.856676102" lon="34.823219299">
<ele>441.015625</ele>
<time>2013-11-21T07:45:37Z</time>
<speed>0.570000</speed>
<extensions>
<speed>0.6</speed>
<temp>0.00</temp>
<bpm>0</bpm>
<rpm>0.00</rpm>
</extensions>
</trkpt>
<trkpt lat="30.856712341" lon="34.823150635">
<ele>441.796875</ele>
<time>2013-11-21T07:45:42Z</time>
<speed>1.510000</speed>
<extensions>
<speed>1.5</speed>
<temp>0.00</temp>
<bpm>0</bpm>
<rpm>0.00</rpm>
</extensions>
</trkpt>
<trkpt lat="30.856807709" lon="34.823062897">
<ele>442.484375</ele>
<time>2013-11-21T07:45:47Z</time>
<speed>2.530000</speed>
<extensions>
<speed>2.5</speed>
<temp>0.00</temp>
<bpm>0</bpm>
<rpm>0.00</rpm>
</extensions>
</trkpt>
<trkpt lat="30.856885910" lon="34.823013306">
<ele>443.382813</ele>
<time>2013-11-21T07:45:52Z</time>
<speed>1.590000</speed>
<extensions>
<speed>1.6</speed>
<temp>0.00</temp>
<bpm>0</bpm>
<rpm>0.00</rpm>
</extensions>
</trkpt>
<trkpt lat="30.856929779" lon="34.822998047">
<ele>444.273438</ele>
<time>2013-11-21T07:45:57Z</time>
<speed>0.670000</speed>
<extensions>
<speed>0.7</speed>
<temp>0.00</temp>
<bpm>0</bpm>
<rpm>0.00</rpm>
</extensions>
</trkpt>
<trkpt lat="30.856969833" lon="34.822959900">
<ele>445.398438</ele>
<time>2013-11-21T07:46:02Z</time>
<speed>1.210000</speed>
<extensions>
<speed>1.2</speed>
<temp>0.00</temp>
<bpm>0</bpm>
<rpm>0.00</rpm>
</extensions>
</trkpt>
<trkpt lat="30.856979370" lon="34.822910309">
<ele>446.437500</ele>
<time>2013-11-21T07:46:07Z</time>
<speed>0.310000</speed>
<extensions>
<speed>0.3</speed>
<temp>0.00</temp>
<bpm>0</bpm>
<rpm>0.00</rpm>
</extensions>
</trkpt>
<trkpt lat="30.857009888" lon="34.822902679">
<ele>448.203125</ele>
<time>2013-11-21T07:46:12Z</time>
<speed>0.450000</speed>
<extensions>
<speed>0.5</speed>
<temp>0.00</temp>
<bpm>0</bpm>
<rpm>0.00</rpm>
</extensions>
</trkpt>
<trkpt lat="30.857038498" lon="34.822864532">
<ele>449.015625</ele>
<time>2013-11-21T07:46:17Z</time>
<speed>1.160000</speed>
<extensions>
<speed>1.2</speed>
<temp>0.00</temp>
<bpm>0</bpm>
<rpm>0.00</rpm>
</extensions>
</trkpt>
<trkpt lat="30.857067108" lon="34.822849274">
<ele>450.328125</ele>
<time>2013-11-21T07:46:22Z</time>
<speed>0.690000</speed>
<extensions>
<speed>0.7</speed>
<temp>0.00</temp>
<bpm>0</bpm>
<rpm>0.00</rpm>
</extensions>
</trkpt>
<trkpt lat="30.857070923" lon="34.822826385">
<ele>451.507813</ele>
<time>2013-11-21T07:46:27Z</time>
<speed>0.160000</speed>
<extensions>
<speed>0.2</speed>
<temp>0.00</temp>
<bpm>0</bpm>
<rpm>0.00</rpm>
</extensions>
</trkpt>
<trkpt lat="30.857061386" lon="34.822788239">
<ele>452.750000</ele>
<time>2013-11-21T07:46:32Z</time>
<speed>0.680000</speed>
<extensions>
<speed>0.7</speed>
<temp>0.00</temp>
<bpm>0</bpm>
<rpm>0.00</rpm>
</extensions>
</trkpt>
<trkpt lat="30.857082367" lon="34.822792053">
<ele>453.414063</ele>
<time>2013-11-21T07:46:37Z</time>
<speed>0.560000</speed>
<extensions>
<speed>0.6</speed>
<temp>0.00</temp>
<bpm>0</bpm>
<rpm>0.00</rpm>
</extensions>
</trkpt>
<trkpt lat="30.857103348" lon="34.822814941">
<ele>452.125000</ele>
<time>2013-11-21T07:46:42Z</time>
<speed>0.370000</speed>
<extensions>
<speed>0.4</speed>
<temp>0.00</temp>
<bpm>0</bpm>
<rpm>0.00</rpm>
</extensions>
</trkpt>
<trkpt lat="30.857131958" lon="34.822780609">
<ele>452.007813</ele>
<time>2013-11-21T07:46:47Z</time>
<speed>0.720000</speed>
<extensions>
<speed>0.7</speed>
<temp>0.00</temp>
<bpm>0</bpm>
<rpm>0.00</rpm>
</extensions>
</trkpt>
<trkpt lat="30.857175827" lon="34.822731018">
<ele>453.085938</ele>
<time>2013-11-21T07:46:52Z</time>
<speed>1.150000</speed>
<extensions>
<speed>1.1</speed>
<temp>0.00</temp>
<bpm>0</bpm>
<rpm>0.00</rpm>
</extensions>
</trkpt>
<trkpt lat="30.857179642" lon="34.822692871">
<ele>453.695313</ele>
<time>2013-11-21T07:46:57Z</time>
<speed>0.220000</speed>
<extensions>
<speed>0.2</speed>
<temp>0.00</temp>
<bpm>0</bpm>
<rpm>0.00</rpm>
</extensions>
</trkpt>
<trkpt lat="30.857192993" lon="34.822681427">
<ele>455.132813</ele>
<time>2013-11-21T07:47:02Z</time>
<speed>0.170000</speed>
<extensions>
<speed>0.2</speed>
<temp>0.00</temp>
<bpm>0</bpm>
<rpm>0.00</rpm>
</extensions>
</trkpt>
<trkpt lat="30.857194901" lon="34.822658539">
<ele>455.828125</ele>
<time>2013-11-21T07:47:07Z</time>
<speed>0.390000</speed>
<extensions>
<speed>0.4</speed>
<temp>0.00</temp>
<bpm>0</bpm>
<rpm>0.00</rpm>
</extensions>
</trkpt>
<trkpt lat="30.857212067" lon="34.822635651">
<ele>456.445313</ele>
<time>2013-11-21T07:47:12Z</time>
<speed>0.660000</speed>
<extensions>
<speed>0.7</speed>
<temp>0.00</temp>
<bpm>0</bpm>
<rpm>0.00</rpm>
</extensions>
</trkpt>
<trkpt lat="30.857198715" lon="34.822589874">
<ele>457.742188</ele>
<time>2013-11-21T07:47:17Z</time>
<speed>1.260000</speed>
<extensions>
<speed>1.3</speed>
<temp>0.00</temp>
<bpm>0</bpm>
<rpm>0.00</rpm>
</extensions>
</trkpt>
<trkpt lat="30.857114792" lon="34.822494507">
<ele>458.617188</ele>
<time>2013-11-21T07:47:22Z</time>
<speed>2.570000</speed>
<extensions>
<speed>2.6</speed>
<temp>0.00</temp>
<bpm>0</bpm>
<rpm>0.00</rpm>
</extensions>
</trkpt>
<trkpt lat="30.857069016" lon="34.822437286">
<ele>457.945313</ele>
<time>2013-11-21T07:47:27Z</time>
<speed>0.330000</speed>
<extensions>
<speed>0.3</speed>
<temp>0.00</temp>
<bpm>0</bpm>
<rpm>0.00</rpm>
</extensions>
</trkpt>
<trkpt lat="30.857078552" lon="34.822422028">
<ele>458.250000</ele>
<time>2013-11-21T07:47:32Z</time>
<speed>0.130000</speed>
<extensions>
<speed>0.1</speed>
<temp>0.00</temp>
<bpm>0</bpm>
<rpm>0.00</rpm>
</extensions>
</trkpt>
<trkpt lat="30.857076645" lon="34.822414398">
<ele>459.023438</ele>
<time>2013-11-21T07:47:37Z</time>
<speed>0.230000</speed>
<extensions>
<speed>0.2</speed>
<temp>0.00</temp>
<bpm>0</bpm>
<rpm>0.00</rpm>
</extensions>
</trkpt>
<trkpt lat="30.857070923" lon="34.822399139">
<ele>459.492188</ele>
<time>2013-11-21T07:47:42Z</time>
<speed>0.280000</speed>
<extensions>
<speed>0.3</speed>
<temp>0.00</temp>
<bpm>0</bpm>
<rpm>0.00</rpm>
</extensions>
</trkpt>
<trkpt lat="30.857049942" lon="34.822383881">
<ele>460.062500</ele>
<time>2013-11-21T07:47:47Z</time>
<speed>0.350000</speed>
<extensions>
<speed>0.3</speed>
<temp>0.00</temp>
<bpm>0</bpm>
<rpm>0.00</rpm>
</extensions>
</trkpt>
<trkpt lat="30.857049942" lon="34.822383881">
<ele>459.992188</ele>
<time>2013-11-21T07:47:52Z</time>
<speed>0.170000</speed>
<extensions>
<speed>0.2</speed>
<temp>0.00</temp>
<bpm>0</bpm>
<rpm>0.00</rpm>
</extensions>
</trkpt>
<trkpt lat="30.857044220" lon="34.822383881">
<ele>460.664063</ele>
<time>2013-11-21T07:47:57Z</time>
<speed>0.070000</speed>
<extensions>
<speed>0.1</speed>
<temp>0.00</temp>
<bpm>0</bpm>
<rpm>0.00</rpm>
</extensions>
</trkpt>
<trkpt lat="30.857044220" lon="34.822380066">
<ele>461.312500</ele>
<time>2013-11-21T07:48:02Z</time>
<speed>0.030000</speed>
<extensions>
<speed>0.0</speed>
<temp>0.00</temp>
<bpm>0</bpm>
<rpm>0.00</rpm>
</extensions>
</trkpt>
<trkpt lat="30.857046127" lon="34.822380066">
<ele>461.867188</ele>
<time>2013-11-21T07:48:07Z</time>
<speed>0.020000</speed>
<extensions>
<speed>0.0</speed>
<temp>0.00</temp>
<bpm>0</bpm>
<rpm>0.00</rpm>
</extensions>
</trkpt>
<trkpt lat="30.857046127" lon="34.822380066">
<ele>462.335938</ele>
<time>2013-11-21T07:48:12Z</time>
<speed>0.100000</speed>
<extensions>
<speed>0.1</speed>
<temp>0.00</temp>
<bpm>0</bpm>
<rpm>0.00</rpm>
</extensions>
</trkpt>
<trkpt lat="30.857048035" lon="34.822387695">
<ele>462.312500</ele>
<time>2013-11-21T07:48:17Z</time>
<speed>0.380000</speed>
<extensions>
<speed>0.4</speed>
<temp>0.00</temp>
<bpm>0</bpm>
<rpm>0.00</rpm>
</extensions>
</trkpt>
<trkpt lat="30.857080460" lon="34.822467804">
<ele>461.781250</ele>
<time>2013-11-21T07:48:22Z</time>
<speed>0.820000</speed>
<extensions>
<speed>0.8</speed>
<temp>0.00</temp>
<bpm>0</bpm>
<rpm>0.00</rpm>
</extensions>
</trkpt>
<trkpt lat="30.857110977" lon="34.822532654">
<ele>460.429688</ele>
<time>2013-11-21T07:48:27Z</time>
<speed>0.590000</speed>
<extensions>
<speed>0.6</speed>
<temp>0.00</temp>
<bpm>0</bpm>
<rpm>0.00</rpm>
</extensions>
</trkpt>
<trkpt lat="30.857133865" lon="34.822601318">
<ele>458.531250</ele>
<time>2013-11-21T07:48:32Z</time>
<speed>0.930000</speed>
<extensions>
<speed>0.9</speed>
<temp>0.00</temp>
<bpm>0</bpm>
<rpm>0.00</rpm>
</extensions>
</trkpt>
<trkpt lat="30.857118607" lon="34.822669983">
<ele>456.359375</ele>
<time>2013-11-21T07:48:37Z</time>
<speed>0.820000</speed>
<extensions>
<speed>0.8</speed>
<temp>0.00</temp>
<bpm>0</bpm>
<rpm>0.00</rpm>
</extensions>
</trkpt>
<trkpt lat="30.857118607" lon="34.822715759">
<ele>455.406250</ele>
<time>2013-11-21T07:48:42Z</time>
<speed>0.730000</speed>
<extensions>
<speed>0.7</speed>
<temp>0.00</temp>
<bpm>0</bpm>
<rpm>0.00</rpm>
</extensions>
</trkpt>
<trkpt lat="30.857093811" lon="34.822750092">
<ele>454.437500</ele>
<time>2013-11-21T07:48:47Z</time>
<speed>0.990000</speed>
<extensions>
<speed>1.0</speed>
<temp>0.00</temp>
<bpm>0</bpm>
<rpm>0.00</rpm>
</extensions>
</trkpt>
<trkpt lat="30.857076645" lon="34.822795868">
<ele>453.625000</ele>
<time>2013-11-21T07:48:52Z</time>
<speed>0.920000</speed>
<extensions>
<speed>0.9</speed>
<temp>0.00</temp>
<bpm>0</bpm>
<rpm>0.00</rpm>
</extensions>
</trkpt>
<trkpt lat="30.857076645" lon="34.822872162">
<ele>453.046875</ele>
<time>2013-11-21T07:48:57Z</time>
<speed>0.640000</speed>
<extensions>
<speed>0.6</speed>
<temp>0.00</temp>
<bpm>0</bpm>
<rpm>0.00</rpm>
</extensions>
</trkpt>
<trkpt lat="30.857078552" lon="34.822883606">
<ele>452.054688</ele>
<time>2013-11-21T07:49:02Z</time>
<speed>0.220000</speed>
<extensions>
<speed>0.2</speed>
<temp>0.00</temp>
<bpm>0</bpm>
<rpm>0.00</rpm>
</extensions>
</trkpt>
<trkpt lat="30.857088089" lon="34.822887421">
<ele>451.390625</ele>
<time>2013-11-21T07:49:07Z</time>
<speed>0.230000</speed>
<extensions>
<speed>0.2</speed>
<temp>0.00</temp>
<bpm>0</bpm>
<rpm>0.00</rpm>
</extensions>
</trkpt>
<trkpt lat="30.857099533" lon="34.822891235">
<ele>450.734375</ele>
<time>2013-11-21T07:49:12Z</time>
<speed>0.310000</speed>
<extensions>
<speed>0.3</speed>
<temp>0.00</temp>
<bpm>0</bpm>
<rpm>0.00</rpm>
</extensions>
</trkpt>
<trkpt lat="30.857143402" lon="34.822872162">
<ele>449.296875</ele>
<time>2013-11-21T07:49:17Z</time>
<speed>0.790000</speed>
<extensions>
<speed>0.8</speed>
<temp>0.00</temp>
<bpm>0</bpm>
<rpm>0.00</rpm>
</extensions>
</trkpt>
<trkpt lat="30.857192993" lon="34.822814941">
<ele>448.281250</ele>
<time>2013-11-21T07:49:22Z</time>
<speed>1.130000</speed>
<extensions>
<speed>1.1</speed>
<temp>0.00</temp>
<bpm>0</bpm>
<rpm>0.00</rpm>
</extensions>
</trkpt>
<trkpt lat="30.857213974" lon="34.822784424">
<ele>447.312500</ele>
<time>2013-11-21T07:49:27Z</time>
<speed>0.430000</speed>
<extensions>
<speed>0.4</speed>
<temp>0.00</temp>
<bpm>0</bpm>
<rpm>0.00</rpm>
</extensions>
</trkpt>
<trkpt lat="30.857221603" lon="34.822811127">
<ele>446.609375</ele>
<time>2013-11-21T07:49:32Z</time>
<speed>0.380000</speed>
<extensions>
<speed>0.4</speed>
<temp>0.00</temp>
<bpm>0</bpm>
<rpm>0.00</rpm>
</extensions>
</trkpt>
<trkpt lat="30.857217789" lon="34.822849274">
<ele>445.835938</ele>
<time>2013-11-21T07:49:37Z</time>
<speed>0.560000</speed>
<extensions>
<speed>0.6</speed>
<temp>0.00</temp>
<bpm>0</bpm>
<rpm>0.00</rpm>
</extensions>
</trkpt>
<trkpt lat="30.857194901" lon="34.822895050">
<ele>445.132813</ele>
<time>2013-11-21T07:49:42Z</time>
<speed>0.770000</speed>
<extensions>
<speed>0.8</speed>
<temp>0.00</temp>
<bpm>0</bpm>
<rpm>0.00</rpm>
</extensions>
</trkpt>
<trkpt lat="30.857198715" lon="34.822902679">
<ele>444.304688</ele>
<time>2013-11-21T07:49:47Z</time>
<speed>0.570000</speed>
<extensions>
<speed>0.6</speed>
<temp>0.00</temp>
<bpm>0</bpm>
<rpm>0.00</rpm>
</extensions>
</trkpt>
<trkpt lat="30.857204437" lon="34.822952271">
<ele>443.648438</ele>
<time>2013-11-21T07:49:52Z</time>
<speed>0.930000</speed>
<extensions>
<speed>0.9</speed>
<temp>0.00</temp>
<bpm>0</bpm>
<rpm>0.00</rpm>
</extensions>
</trkpt>
<trkpt lat="30.857223511" lon="34.823005676">
<ele>442.835938</ele>
<time>2013-11-21T07:49:57Z</time>
<speed>0.820000</speed>
<extensions>
<speed>0.8</speed>
<temp>0.00</temp>
<bpm>0</bpm>
<rpm>0.00</rpm>
</extensions>
</trkpt>
<trkpt lat="30.857221603" lon="34.823062897">
<ele>442.070313</ele>
<time>2013-11-21T07:50:02Z</time>
<speed>0.740000</speed>
<extensions>
<speed>0.7</speed>
<temp>0.00</temp>
<bpm>0</bpm>
<rpm>0.00</rpm>
</extensions>
</trkpt>
<trkpt lat="30.857223511" lon="34.823120117">
<ele>441.375000</ele>
<time>2013-11-21T07:50:07Z</time>
<speed>0.630000</speed>
<extensions>
<speed>0.6</speed>
<temp>0.00</temp>
<bpm>0</bpm>
<rpm>0.00</rpm>
</extensions>
</trkpt>
<trkpt lat="30.857250214" lon="34.823146820">
<ele>440.796875</ele>
<time>2013-11-21T07:50:12Z</time>
<speed>0.710000</speed>
<extensions>
<speed>0.7</speed>
<temp>0.00</temp>
<bpm>0</bpm>
<rpm>0.00</rpm>
</extensions>
</trkpt>
<trkpt lat="30.857276917" lon="34.823181152">
<ele>440.140625</ele>
<time>2013-11-21T07:50:17Z</time>
<speed>0.650000</speed>
<extensions>
<speed>0.6</speed>
<temp>0.00</temp>
<bpm>0</bpm>
<rpm>0.00</rpm>
</extensions>
</trkpt>
<trkpt lat="30.857330322" lon="34.823219299">
<ele>439.429688</ele>
<time>2013-11-21T07:50:22Z</time>
<speed>1.110000</speed>
<extensions>
<speed>1.1</speed>
<temp>0.00</temp>
<bpm>0</bpm>
<rpm>0.00</rpm>
</extensions>
</trkpt>
<trkpt lat="30.857379913" lon="34.823253632">
<ele>438.789063</ele>
<time>2013-11-21T07:50:27Z</time>
<speed>1.150000</speed>
<extensions>
<speed>1.1</speed>
<temp>0.00</temp>
<bpm>0</bpm>
<rpm>0.00</rpm>
</extensions>
</trkpt>
<trkpt lat="30.857433319" lon="34.823287964">
<ele>437.476563</ele>
<time>2013-11-21T07:50:32Z</time>
<speed>0.560000</speed>
<extensions>
<speed>0.6</speed>
<temp>0.00</temp>
<bpm>0</bpm>
<rpm>0.00</rpm>
</extensions>
</trkpt>
<trkpt lat="30.857444763" lon="34.823287964">
<ele>436.843750</ele>
<time>2013-11-21T07:50:37Z</time>
<speed>0.500000</speed>
<extensions>
<speed>0.5</speed>
<temp>0.00</temp>
<bpm>0</bpm>
<rpm>0.00</rpm>
</extensions>
</trkpt>
<trkpt lat="30.857479095" lon="34.823314667">
<ele>436.328125</ele>
<time>2013-11-21T07:50:42Z</time>
<speed>0.780000</speed>
<extensions>
<speed>0.8</speed>
<temp>0.00</temp>
<bpm>0</bpm>
<rpm>0.00</rpm>
</extensions>
</trkpt>
<trkpt lat="30.857519150" lon="34.823341370">
<ele>435.890625</ele>
<time>2013-11-21T07:50:47Z</time>
<speed>0.990000</speed>
<extensions>
<speed>1.0</speed>
<temp>0.00</temp>
<bpm>0</bpm>
<rpm>0.00</rpm>
</extensions>
</trkpt>
<trkpt lat="30.857572556" lon="34.823379517">
<ele>435.390625</ele>
<time>2013-11-21T07:50:52Z</time>
<speed>1.240000</speed>
<extensions>
<speed>1.2</speed>
<temp>0.00</temp>
<bpm>0</bpm>
<rpm>0.00</rpm>
</extensions>
</trkpt>
<trkpt lat="30.857681274" lon="34.823486328">
<ele>434.882813</ele>
<time>2013-11-21T07:50:57Z</time>
<speed>2.520000</speed>
<extensions>
<speed>2.5</speed>
<temp>0.00</temp>
<bpm>0</bpm>
<rpm>0.00</rpm>
</extensions>
</trkpt>
<trkpt lat="30.857782364" lon="34.823513031">
<ele>434.640625</ele>
<time>2013-11-21T07:51:02Z</time>
<speed>0.750000</speed>
<extensions>
<speed>0.8</speed>
<temp>0.00</temp>
<bpm>0</bpm>
<rpm>0.00</rpm>
</extensions>
</trkpt>
<trkpt lat="30.857879639" lon="34.823558807">
<ele>434.679688</ele>
<time>2013-11-21T07:51:07Z</time>
<speed>2.580000</speed>
<extensions>
<speed>2.6</speed>
<temp>0.00</temp>
<bpm>0</bpm>
<rpm>0.00</rpm>
</extensions>
</trkpt>
<trkpt lat="30.857986450" lon="34.823623657">
<ele>435.250000</ele>
<time>2013-11-21T07:51:12Z</time>
<speed>2.850000</speed>
<extensions>
<speed>2.9</speed>
<temp>0.00</temp>
<bpm>0</bpm>
<rpm>0.00</rpm>
</extensions>
</trkpt>
<trkpt lat="30.858062744" lon="34.823680878">
<ele>437.859375</ele>
<time>2013-11-21T07:51:17Z</time>
<speed>0.190000</speed>
<extensions>
<speed>0.2</speed>
<temp>0.00</temp>
<bpm>0</bpm>
<rpm>0.00</rpm>
</extensions>
</trkpt>
<trkpt lat="30.858081818" lon="34.823722839">
<ele>438.664063</ele>
<time>2013-11-21T07:51:22Z</time>
<speed>0.180000</speed>
<extensions>
<speed>0.2</speed>
<temp>0.00</temp>
<bpm>0</bpm>
<rpm>0.00</rpm>
</extensions>
</trkpt>
<trkpt lat="30.858114243" lon="34.823768616">
<ele>438.718750</ele>
<time>2013-11-21T07:51:27Z</time>
<speed>1.020000</speed>
<extensions>
<speed>1.0</speed>
<temp>0.00</temp>
<bpm>0</bpm>
<rpm>0.00</rpm>
</extensions>
</trkpt>
<trkpt lat="30.858133316" lon="34.823860168">
<ele>439.554688</ele>
<time>2013-11-21T07:51:32Z</time>
<speed>1.730000</speed>
<extensions>
<speed>1.7</speed>
<temp>0.00</temp>
<bpm>0</bpm>
<rpm>0.00</rpm>
</extensions>
</trkpt>
<trkpt lat="30.858165741" lon="34.823963165">
<ele>440.125000</ele>
<time>2013-11-21T07:51:37Z</time>
<speed>1.740000</speed>
<extensions>
<speed>1.7</speed>
<temp>0.00</temp>
<bpm>0</bpm>
<rpm>0.00</rpm>
</extensions>
</trkpt>
<trkpt lat="30.858175278" lon="34.824047089">
<ele>440.765625</ele>
<time>2013-11-21T07:51:42Z</time>
<speed>1.770000</speed>
<extensions>
<speed>1.8</speed>
<temp>0.00</temp>
<bpm>0</bpm>
<rpm>0.00</rpm>
</extensions>
</trkpt>
<trkpt lat="30.858160019" lon="34.824138641">
<ele>441.593750</ele>
<time>2013-11-21T07:51:47Z</time>
<speed>1.610000</speed>
<extensions>
<speed>1.6</speed>
<temp>0.00</temp>
<bpm>0</bpm>
<rpm>0.00</rpm>
</extensions>
</trkpt>
<trkpt lat="30.858194351" lon="34.824249268">
<ele>441.984375</ele>
<time>2013-11-21T07:51:52Z</time>
<speed>2.050000</speed>
<extensions>
<speed>2.1</speed>
<temp>0.00</temp>
<bpm>0</bpm>
<rpm>0.00</rpm>
</extensions>
</trkpt>
<trkpt lat="30.858259201" lon="34.824287415">
<ele>442.375000</ele>
<time>2013-11-21T07:51:57Z</time>
<speed>1.500000</speed>
<extensions>
<speed>1.5</speed>
<temp>0.00</temp>
<bpm>0</bpm>
<rpm>0.00</rpm>
</extensions>
</trkpt>
<trkpt lat="30.858304977" lon="34.824306488">
<ele>443.281250</ele>
<time>2013-11-21T07:52:02Z</time>
<speed>0.760000</speed>
<extensions>
<speed>0.8</speed>
<temp>0.00</temp>
<bpm>0</bpm>
<rpm>0.00</rpm>
</extensions>
</trkpt>
<trkpt lat="30.858360291" lon="34.824272156">
<ele>443.414063</ele>
<time>2013-11-21T07:52:07Z</time>
<speed>1.420000</speed>
<extensions>
<speed>1.4</speed>
<temp>0.00</temp>
<bpm>0</bpm>
<rpm>0.00</rpm>
</extensions>
</trkpt>
<trkpt lat="30.858413696" lon="34.824230194">
<ele>443.875000</ele>
<time>2013-11-21T07:52:12Z</time>
<speed>1.970000</speed>
<extensions>
<speed>2.0</speed>
<temp>0.00</temp>
<bpm>0</bpm>
<rpm>0.00</rpm>
</extensions>
</trkpt>
<trkpt lat="30.858505249" lon="34.824245453">
<ele>445.109375</ele>
<time>2013-11-21T07:52:17Z</time>
<speed>1.810000</speed>
<extensions>
<speed>1.8</speed>
<temp>0.00</temp>
<bpm>0</bpm>
<rpm>0.00</rpm>
</extensions>
</trkpt>
<trkpt lat="30.858572006" lon="34.824275970">
<ele>446.156250</ele>
<time>2013-11-21T07:52:22Z</time>
<speed>0.270000</speed>
<extensions>
<speed>0.3</speed>
<temp>0.00</temp>
<bpm>0</bpm>
<rpm>0.00</rpm>
</extensions>
</trkpt>
<trkpt lat="30.858594894" lon="34.824249268">
<ele>446.960938</ele>
<time>2013-11-21T07:52:27Z</time>
<speed>0.620000</speed>
<extensions>
<speed>0.6</speed>
<temp>0.00</temp>
<bpm>0</bpm>
<rpm>0.00</rpm>
</extensions>
</trkpt>
<trkpt lat="30.858650208" lon="34.824195862">
<ele>448.156250</ele>
<time>2013-11-21T07:52:32Z</time>
<speed>1.980000</speed>
<extensions>
<speed>2.0</speed>
<temp>0.00</temp>
<bpm>0</bpm>
<rpm>0.00</rpm>
</extensions>
</trkpt>
<trkpt lat="30.858715057" lon="34.824142456">
<ele>449.492188</ele>
<time>2013-11-21T07:52:37Z</time>
<speed>1.570000</speed>
<extensions>
<speed>1.6</speed>
<temp>0.00</temp>
<bpm>0</bpm>
<rpm>0.00</rpm>
</extensions>
</trkpt>
<trkpt lat="30.858766556" lon="34.824073792">
<ele>449.546875</ele>
<time>2013-11-21T07:52:42Z</time>
<speed>1.230000</speed>
<extensions>
<speed>1.2</speed>
<temp>0.00</temp>
<bpm>0</bpm>
<rpm>0.00</rpm>
</extensions>
</trkpt>
<trkpt lat="30.858823776" lon="34.824092865">
<ele>450.367188</ele>
<time>2013-11-21T07:52:47Z</time>
<speed>1.020000</speed>
<extensions>
<speed>1.0</speed>
<temp>0.00</temp>
<bpm>0</bpm>
<rpm>0.00</rpm>
</extensions>
</trkpt>
<trkpt lat="30.858867645" lon="34.824085236">
<ele>450.953125</ele>
<time>2013-11-21T07:52:52Z</time>
<speed>0.910000</speed>
<extensions>
<speed>0.9</speed>
<temp>0.00</temp>
<bpm>0</bpm>
<rpm>0.00</rpm>
</extensions>
</trkpt>
<trkpt lat="30.858928680" lon="34.824054718">
<ele>451.148438</ele>
<time>2013-11-21T07:52:57Z</time>
<speed>1.080000</speed>
<extensions>
<speed>1.1</speed>
<temp>0.00</temp>
<bpm>0</bpm>
<rpm>0.00</rpm>
</extensions>
</trkpt>
<trkpt lat="30.858985901" lon="34.824005127">
<ele>452.210938</ele>
<time>2013-11-21T07:53:02Z</time>
<speed>1.420000</speed>
<extensions>
<speed>1.4</speed>
<temp>0.00</temp>
<bpm>0</bpm>
<rpm>0.00</rpm>
</extensions>
</trkpt>
<trkpt lat="30.859077454" lon="34.823978424">
<ele>453.539063</ele>
<time>2013-11-21T07:53:07Z</time>
<speed>1.680000</speed>
<extensions>
<speed>1.7</speed>
<temp>0.00</temp>
<bpm>0</bpm>
<rpm>0.00</rpm>
</extensions>
</trkpt>
<trkpt lat="30.859132767" lon="34.823986053">
<ele>454.976563</ele>
<time>2013-11-21T07:53:12Z</time>
<speed>0.770000</speed>
<extensions>
<speed>0.8</speed>
<temp>0.00</temp>
<bpm>0</bpm>
<rpm>0.00</rpm>
</extensions>
</trkpt>
<trkpt lat="30.859186172" lon="34.824016571">
<ele>456.273438</ele>
<time>2013-11-21T07:53:17Z</time>
<speed>0.470000</speed>
<extensions>
<speed>0.5</speed>
<temp>0.00</temp>
<bpm>0</bpm>
<rpm>0.00</rpm>
</extensions>
</trkpt>
<trkpt lat="30.859222412" lon="34.824020386">
<ele>456.718750</ele>
<time>2013-11-21T07:53:22Z</time>
<speed>0.460000</speed>
<extensions>
<speed>0.5</speed>
<temp>0.00</temp>
<bpm>0</bpm>
<rpm>0.00</rpm>
</extensions>
</trkpt>
<trkpt lat="30.859254837" lon="34.824047089">
<ele>458.476563</ele>
<time>2013-11-21T07:53:27Z</time>
<speed>0.340000</speed>
<extensions>
<speed>0.3</speed>
<temp>0.00</temp>
<bpm>0</bpm>
<rpm>0.00</rpm>
</extensions>
</trkpt>
<trkpt lat="30.859266281" lon="34.824043274">
<ele>460.132813</ele>
<time>2013-11-21T07:53:32Z</time>
<speed>0.270000</speed>
<extensions>
<speed>0.3</speed>
<temp>0.00</temp>
<bpm>0</bpm>
<rpm>0.00</rpm>
</extensions>
</trkpt>
<trkpt lat="30.859289169" lon="34.824058533">
<ele>461.187500</ele>
<time>2013-11-21T07:53:37Z</time>
<speed>0.370000</speed>
<extensions>
<speed>0.4</speed>
<temp>0.00</temp>
<bpm>0</bpm>
<rpm>0.00</rpm>
</extensions>
</trkpt>
<trkpt lat="30.859329224" lon="34.824066162">
<ele>461.968750</ele>
<time>2013-11-21T07:53:42Z</time>
<speed>0.580000</speed>
<extensions>
<speed>0.6</speed>
<temp>0.00</temp>
<bpm>0</bpm>
<rpm>0.00</rpm>
</extensions>
</trkpt>
<trkpt lat="30.859382629" lon="34.824081421">
<ele>463.617188</ele>
<time>2013-11-21T07:53:47Z</time>
<speed>1.140000</speed>
<extensions>
<speed>1.1</speed>
<temp>0.00</temp>
<bpm>0</bpm>
<rpm>0.00</rpm>
</extensions>
</trkpt>
<trkpt lat="30.859426498" lon="34.824092865">
<ele>465.039063</ele>
<time>2013-11-21T07:53:52Z</time>
<speed>1.090000</speed>
<extensions>
<speed>1.1</speed>
<temp>0.00</temp>
<bpm>0</bpm>
<rpm>0.00</rpm>
</extensions>
</trkpt>
<trkpt lat="30.859489441" lon="34.824108124">
<ele>465.859375</ele>
<time>2013-11-21T07:53:57Z</time>
<speed>1.400000</speed>
<extensions>
<speed>1.4</speed>
<temp>0.00</temp>
<bpm>0</bpm>
<rpm>0.00</rpm>
</extensions>
</trkpt>
<trkpt lat="30.859527588" lon="34.824077606">
<ele>466.601563</ele>
<time>2013-11-21T07:54:02Z</time>
<speed>0.690000</speed>
<extensions>
<speed>0.7</speed>
<temp>0.00</temp>
<bpm>0</bpm>
<rpm>0.00</rpm>
</extensions>
</trkpt>
<trkpt lat="30.859588623" lon="34.824047089">
<ele>467.351563</ele>
<time>2013-11-21T07:54:07Z</time>
<speed>1.790000</speed>
<extensions>
<speed>1.8</speed>
<temp>0.00</temp>
<bpm>0</bpm>
<rpm>0.00</rpm>
</extensions>
</trkpt>
<trkpt lat="30.859685898" lon="34.823986053">
<ele>468.187500</ele>
<time>2013-11-21T07:54:12Z</time>
<speed>1.880000</speed>
<extensions>
<speed>1.9</speed>
<temp>0.00</temp>
<bpm>0</bpm>
<rpm>0.00</rpm>
</extensions>
</trkpt>
<trkpt lat="30.859811783" lon="34.823963165">
<ele>469.632813</ele>
<time>2013-11-21T07:54:17Z</time>
<speed>2.230000</speed>
<extensions>
<speed>2.2</speed>
<temp>0.00</temp>
<bpm>0</bpm>
<rpm>0.00</rpm>
</extensions>
</trkpt>
<trkpt lat="30.859905243" lon="34.823955536">
<ele>470.093750</ele>
<time>2013-11-21T07:54:22Z</time>
<speed>1.690000</speed>
<extensions>
<speed>1.7</speed>
<temp>0.00</temp>
<bpm>0</bpm>
<rpm>0.00</rpm>
</extensions>
</trkpt>
<trkpt lat="30.859992981" lon="34.823951721">
<ele>470.023438</ele>
<time>2013-11-21T07:54:27Z</time>
<speed>1.790000</speed>
<extensions>
<speed>1.8</speed>
<temp>0.00</temp>
<bpm>0</bpm>
<rpm>0.00</rpm>
</extensions>
</trkpt>
<trkpt lat="30.860080719" lon="34.823947906">
<ele>470.015625</ele>
<time>2013-11-21T07:54:32Z</time>
<speed>1.700000</speed>
<extensions>
<speed>1.7</speed>
<temp>0.00</temp>
<bpm>0</bpm>
<rpm>0.00</rpm>
</extensions>
</trkpt>
<trkpt lat="30.860132217" lon="34.823959351">
<ele>469.125000</ele>
<time>2013-11-21T07:54:37Z</time>
<speed>1.600000</speed>
<extensions>
<speed>1.6</speed>
<temp>0.00</temp>
<bpm>0</bpm>
<rpm>0.00</rpm>
</extensions>
</trkpt>
<trkpt lat="30.860151291" lon="34.824008942">
<ele>468.796875</ele>
<time>2013-11-21T07:54:42Z</time>
<speed>0.240000</speed>
<extensions>
<speed>0.2</speed>
<temp>0.00</temp>
<bpm>0</bpm>
<rpm>0.00</rpm>
</extensions>
</trkpt>
<trkpt lat="30.860160828" lon="34.824058533">
<ele>469.257813</ele>
<time>2013-11-21T07:54:47Z</time>
<speed>0.640000</speed>
<extensions>
<speed>0.6</speed>
<temp>0.00</temp>
<bpm>0</bpm>
<rpm>0.00</rpm>
</extensions>
</trkpt>
<trkpt lat="30.860191345" lon="34.824100494">
<ele>469.203125</ele>
<time>2013-11-21T07:54:52Z</time>
<speed>0.590000</speed>
<extensions>
<speed>0.6</speed>
<temp>0.00</temp>
<bpm>0</bpm>
<rpm>0.00</rpm>
</extensions>
</trkpt>
<trkpt lat="30.860261917" lon="34.824153900">
<ele>469.046875</ele>
<time>2013-11-21T07:54:57Z</time>
<speed>1.230000</speed>
<extensions>
<speed>1.2</speed>
<temp>0.00</temp>
<bpm>0</bpm>
<rpm>0.00</rpm>
</extensions>
</trkpt>
<trkpt lat="30.860294342" lon="34.824180603">
<ele>469.671875</ele>
<time>2013-11-21T07:55:02Z</time>
<speed>0.340000</speed>
<extensions>
<speed>0.3</speed>
<temp>0.00</temp>
<bpm>0</bpm>
<rpm>0.00</rpm>
</extensions>
</trkpt>
<trkpt lat="30.860321045" lon="34.824169159">
<ele>469.070313</ele>
<time>2013-11-21T07:55:07Z</time>
<speed>0.440000</speed>
<extensions>
<speed>0.4</speed>
<temp>0.00</temp>
<bpm>0</bpm>
<rpm>0.00</rpm>
</extensions>
</trkpt>
<trkpt lat="30.860342026" lon="34.824150085">
<ele>469.187500</ele>
<time>2013-11-21T07:55:12Z</time>
<speed>0.760000</speed>
<extensions>
<speed>0.8</speed>
<temp>0.00</temp>
<bpm>0</bpm>
<rpm>0.00</rpm>
</extensions>
</trkpt>
<trkpt lat="30.860410690" lon="34.824096680">
<ele>469.250000</ele>
<time>2013-11-21T07:55:17Z</time>
<speed>1.850000</speed>
<extensions>
<speed>1.8</speed>
<temp>0.00</temp>
<bpm>0</bpm>
<rpm>0.00</rpm>
</extensions>
</trkpt>
<trkpt lat="30.860481262" lon="34.824043274">
<ele>469.734375</ele>
<time>2013-11-21T07:55:22Z</time>
<speed>1.610000</speed>
<extensions>
<speed>1.6</speed>
<temp>0.00</temp>
<bpm>0</bpm>
<rpm>0.00</rpm>
</extensions>
</trkpt>
<trkpt lat="30.860496521" lon="34.823955536">
<ele>470.023438</ele>
<time>2013-11-21T07:55:27Z</time>
<speed>1.240000</speed>
<extensions>
<speed>1.2</speed>
<temp>0.00</temp>
<bpm>0</bpm>
<rpm>0.00</rpm>
</extensions>
</trkpt>
<trkpt lat="30.860536575" lon="34.823913574">
<ele>469.937500</ele>
<time>2013-11-21T07:55:32Z</time>
<speed>1.560000</speed>
<extensions>
<speed>1.6</speed>
<temp>0.00</temp>
<bpm>0</bpm>
<rpm>0.00</rpm>
</extensions>
</trkpt>
<trkpt lat="30.860548019" lon="34.823886871">
<ele>468.296875</ele>
<time>2013-11-21T07:55:37Z</time>
<speed>0.470000</speed>
<extensions>
<speed>0.5</speed>
<temp>0.00</temp>
<bpm>0</bpm>
<rpm>0.00</rpm>
</extensions>
</trkpt>
<trkpt lat="30.860555649" lon="34.823917389">
<ele>468.453125</ele>
<time>2013-11-21T07:55:42Z</time>
<speed>0.110000</speed>
<extensions>
<speed>0.1</speed>
<temp>0.00</temp>
<bpm>0</bpm>
<rpm>0.00</rpm>
</extensions>
</trkpt>
<trkpt lat="30.860553741" lon="34.823925018">
<ele>468.914063</ele>
<time>2013-11-21T07:55:47Z</time>
<speed>0.040000</speed>
<extensions>
<speed>0.0</speed>
<temp>0.00</temp>
<bpm>0</bpm>
<rpm>0.00</rpm>
</extensions>
</trkpt>
<trkpt lat="30.860570908" lon="34.823917389">
<ele>469.210938</ele>
<time>2013-11-21T07:55:52Z</time>
<speed>0.410000</speed>
<extensions>
<speed>0.4</speed>
<temp>0.00</temp>
<bpm>0</bpm>
<rpm>0.00</rpm>
</extensions>
</trkpt>
<trkpt lat="30.860607147" lon="34.823886871">
<ele>469.289063</ele>
<time>2013-11-21T07:55:57Z</time>
<speed>0.610000</speed>
<extensions>
<speed>0.6</speed>
<temp>0.00</temp>
<bpm>0</bpm>
<rpm>0.00</rpm>
</extensions>
</trkpt>
<trkpt lat="30.860639572" lon="34.823848724">
<ele>469.414063</ele>
<time>2013-11-21T07:56:02Z</time>
<speed>0.820000</speed>
<extensions>
<speed>0.8</speed>
<temp>0.00</temp>
<bpm>0</bpm>
<rpm>0.00</rpm>
</extensions>
</trkpt>
<trkpt lat="30.860666275" lon="34.823799133">
<ele>469.757813</ele>
<time>2013-11-21T07:56:07Z</time>
<speed>0.820000</speed>
<extensions>
<speed>0.8</speed>
<temp>0.00</temp>
<bpm>0</bpm>
<rpm>0.00</rpm>
</extensions>
</trkpt>
<trkpt lat="30.860689163" lon="34.823749542">
<ele>470.632813</ele>
<time>2013-11-21T07:56:12Z</time>
<speed>0.970000</speed>
<extensions>
<speed>1.0</speed>
<temp>0.00</temp>
<bpm>0</bpm>
<rpm>0.00</rpm>
</extensions>
</trkpt>
<trkpt lat="30.860729218" lon="34.823699951">
<ele>470.867188</ele>
<time>2013-11-21T07:56:17Z</time>
<speed>0.950000</speed>
<extensions>
<speed>1.0</speed>
<temp>0.00</temp>
<bpm>0</bpm>
<rpm>0.00</rpm>
</extensions>
</trkpt>
<trkpt lat="30.860754013" lon="34.823654175">
<ele>471.429688</ele>
<time>2013-11-21T07:56:22Z</time>
<speed>0.500000</speed>
<extensions>
<speed>0.5</speed>
<temp>0.00</temp>
<bpm>0</bpm>
<rpm>0.00</rpm>
</extensions>
</trkpt>
<trkpt lat="30.860803604" lon="34.823623657">
<ele>471.867188</ele>
<time>2013-11-21T07:56:27Z</time>
<speed>0.960000</speed>
<extensions>
<speed>1.0</speed>
<temp>0.00</temp>
<bpm>0</bpm>
<rpm>0.00</rpm>
</extensions>
</trkpt>
<trkpt lat="30.860843658" lon="34.823585510">
<ele>472.179688</ele>
<time>2013-11-21T07:56:32Z</time>
<speed>0.910000</speed>
<extensions>
<speed>0.9</speed>
<temp>0.00</temp>
<bpm>0</bpm>
<rpm>0.00</rpm>
</extensions>
</trkpt>
<trkpt lat="30.860862732" lon="34.823543549">
<ele>472.929688</ele>
<time>2013-11-21T07:56:37Z</time>
<speed>0.570000</speed>
<extensions>
<speed>0.6</speed>
<temp>0.00</temp>
<bpm>0</bpm>
<rpm>0.00</rpm>
</extensions>
</trkpt>
<trkpt lat="30.860897064" lon="34.823532104">
<ele>473.289063</ele>
<time>2013-11-21T07:56:42Z</time>
<speed>0.550000</speed>
<extensions>
<speed>0.6</speed>
<temp>0.00</temp>
<bpm>0</bpm>
<rpm>0.00</rpm>
</extensions>
</trkpt>
<trkpt lat="30.860933304" lon="34.823516846">
<ele>473.625000</ele>
<time>2013-11-21T07:56:47Z</time>
<speed>0.620000</speed>
<extensions>
<speed>0.6</speed>
<temp>0.00</temp>
<bpm>0</bpm>
<rpm>0.00</rpm>
</extensions>
</trkpt>
<trkpt lat="30.860969543" lon="34.823482513">
<ele>473.687500</ele>
<time>2013-11-21T07:56:52Z</time>
<speed>0.900000</speed>
<extensions>
<speed>0.9</speed>
<temp>0.00</temp>
<bpm>0</bpm>
<rpm>0.00</rpm>
</extensions>
</trkpt>
<trkpt lat="30.861013412" lon="34.823440552">
<ele>474.421875</ele>
<time>2013-11-21T07:56:57Z</time>
<speed>0.950000</speed>
<extensions>
<speed>1.0</speed>
<temp>0.00</temp>
<bpm>0</bpm>
<rpm>0.00</rpm>
</extensions>
</trkpt>
<trkpt lat="30.861047745" lon="34.823379517">
<ele>475.398438</ele>
<time>2013-11-21T07:57:02Z</time>
<speed>0.870000</speed>
<extensions>
<speed>0.9</speed>
<temp>0.00</temp>
<bpm>0</bpm>
<rpm>0.00</rpm>
</extensions>
</trkpt>
<trkpt lat="30.861114502" lon="34.823406219">
<ele>476.656250</ele>
<time>2013-11-21T07:57:07Z</time>
<speed>0.510000</speed>
<extensions>
<speed>0.5</speed>
<temp>0.00</temp>
<bpm>0</bpm>
<rpm>0.00</rpm>
</extensions>
</trkpt>
<trkpt lat="30.861148834" lon="34.823410034">
<ele>476.734375</ele>
<time>2013-11-21T07:57:12Z</time>
<speed>0.550000</speed>
<extensions>
<speed>0.6</speed>
<temp>0.00</temp>
<bpm>0</bpm>
<rpm>0.00</rpm>
</extensions>
</trkpt>
<trkpt lat="30.861207962" lon="34.823425293">
<ele>477.156250</ele>
<time>2013-11-21T07:57:17Z</time>
<speed>0.660000</speed>
<extensions>
<speed>0.7</speed>
<temp>0.00</temp>
<bpm>0</bpm>
<rpm>0.00</rpm>
</extensions>
</trkpt>
<trkpt lat="30.861276627" lon="34.823455811">
<ele>477.742188</ele>
<time>2013-11-21T07:57:22Z</time>
<speed>0.870000</speed>
<extensions>
<speed>0.9</speed>
<temp>0.00</temp>
<bpm>0</bpm>
<rpm>0.00</rpm>
</extensions>
</trkpt>
<trkpt lat="30.861333847" lon="34.823455811">
<ele>478.000000</ele>
<time>2013-11-21T07:57:27Z</time>
<speed>0.940000</speed>
<extensions>
<speed>0.9</speed>
<temp>0.00</temp>
<bpm>0</bpm>
<rpm>0.00</rpm>
</extensions>
</trkpt>
<trkpt lat="30.861354828" lon="34.823451996">
<ele>478.296875</ele>
<time>2013-11-21T07:57:32Z</time>
<speed>0.370000</speed>
<extensions>
<speed>0.4</speed>
<temp>0.00</temp>
<bpm>0</bpm>
<rpm>0.00</rpm>
</extensions>
</trkpt>
<trkpt lat="30.861387253" lon="34.823459625">
<ele>478.203125</ele>
<time>2013-11-21T07:57:37Z</time>
<speed>0.460000</speed>
<extensions>
<speed>0.5</speed>
<temp>0.00</temp>
<bpm>0</bpm>
<rpm>0.00</rpm>
</extensions>
</trkpt>
<trkpt lat="30.861429214" lon="34.823432922">
<ele>478.242188</ele>
<time>2013-11-21T07:57:42Z</time>
<speed>0.570000</speed>
<extensions>
<speed>0.6</speed>
<temp>0.00</temp>
<bpm>0</bpm>
<rpm>0.00</rpm>
</extensions>
</trkpt>
<trkpt lat="30.861461639" lon="34.823417664">
<ele>477.968750</ele>
<time>2013-11-21T07:57:47Z</time>
<speed>0.520000</speed>
<extensions>
<speed>0.5</speed>
<temp>0.00</temp>
<bpm>0</bpm>
<rpm>0.00</rpm>
</extensions>
</trkpt>
<trkpt lat="30.861484528" lon="34.823402405">
<ele>478.070313</ele>
<time>2013-11-21T07:57:52Z</time>
<speed>0.480000</speed>
<extensions>
<speed>0.5</speed>
<temp>0.00</temp>
<bpm>0</bpm>
<rpm>0.00</rpm>
</extensions>
</trkpt>
<trkpt lat="30.861501694" lon="34.823379517">
<ele>478.265625</ele>
<time>2013-11-21T07:57:57Z</time>
<speed>0.450000</speed>
<extensions>
<speed>0.5</speed>
<temp>0.00</temp>
<bpm>0</bpm>
<rpm>0.00</rpm>
</extensions>
</trkpt>
<trkpt lat="30.861501694" lon="34.823356628">
<ele>478.507813</ele>
<time>2013-11-21T07:58:02Z</time>
<speed>0.420000</speed>
<extensions>
<speed>0.4</speed>
<temp>0.00</temp>
<bpm>0</bpm>
<rpm>0.00</rpm>
</extensions>
</trkpt>
<trkpt lat="30.861541748" lon="34.823326111">
<ele>478.835938</ele>
<time>2013-11-21T07:58:07Z</time>
<speed>0.540000</speed>
<extensions>
<speed>0.5</speed>
<temp>0.00</temp>
<bpm>0</bpm>
<rpm>0.00</rpm>
</extensions>
</trkpt>
<trkpt lat="30.861557007" lon="34.823303223">
<ele>478.632813</ele>
<time>2013-11-21T07:58:12Z</time>
<speed>0.440000</speed>
<extensions>
<speed>0.4</speed>
<temp>0.00</temp>
<bpm>0</bpm>
<rpm>0.00</rpm>
</extensions>
</trkpt>
<trkpt lat="30.861568451" lon="34.823238373">
<ele>478.140625</ele>
<time>2013-11-21T07:58:17Z</time>
<speed>0.820000</speed>
<extensions>
<speed>0.8</speed>
<temp>0.00</temp>
<bpm>0</bpm>
<rpm>0.00</rpm>
</extensions>
</trkpt>
<trkpt lat="30.861589432" lon="34.823177338">
<ele>478.789063</ele>
<time>2013-11-21T07:58:22Z</time>
<speed>1.200000</speed>
<extensions>
<speed>1.2</speed>
<temp>0.00</temp>
<bpm>0</bpm>
<rpm>0.00</rpm>
</extensions>
</trkpt>
<trkpt lat="30.861595154" lon="34.823093414">
<ele>480.273438</ele>
<time>2013-11-21T07:58:27Z</time>
<speed>1.010000</speed>
<extensions>
<speed>1.0</speed>
<temp>0.00</temp>
<bpm>0</bpm>
<rpm>0.00</rpm>
</extensions>
</trkpt>
<trkpt lat="30.861618042" lon="34.823051453">
<ele>480.781250</ele>
<time>2013-11-21T07:58:32Z</time>
<speed>0.710000</speed>
<extensions>
<speed>0.7</speed>
<temp>0.00</temp>
<bpm>0</bpm>
<rpm>0.00</rpm>
</extensions>
</trkpt>
<trkpt lat="30.861646652" lon="34.823020935">
<ele>481.140625</ele>
<time>2013-11-21T07:58:37Z</time>
<speed>0.580000</speed>
<extensions>
<speed>0.6</speed>
<temp>0.00</temp>
<bpm>0</bpm>
<rpm>0.00</rpm>
</extensions>
</trkpt>
<trkpt lat="30.861688614" lon="34.822978973">
<ele>480.734375</ele>
<time>2013-11-21T07:58:42Z</time>
<speed>0.850000</speed>
<extensions>
<speed>0.8</speed>
<temp>0.00</temp>
<bpm>0</bpm>
<rpm>0.00</rpm>
</extensions>
</trkpt>
<trkpt lat="30.861703873" lon="34.822948456">
<ele>481.257813</ele>
<time>2013-11-21T07:58:47Z</time>
<speed>0.500000</speed>
<extensions>
<speed>0.5</speed>
<temp>0.00</temp>
<bpm>0</bpm>
<rpm>0.00</rpm>
</extensions>
</trkpt>
<trkpt lat="30.861717224" lon="34.822937012">
<ele>481.546875</ele>
<time>2013-11-21T07:58:52Z</time>
<speed>0.450000</speed>
<extensions>
<speed>0.5</speed>
<temp>0.00</temp>
<bpm>0</bpm>
<rpm>0.00</rpm>
</extensions>
</trkpt>
<trkpt lat="30.861719131" lon="34.822910309">
<ele>481.625000</ele>
<time>2013-11-21T07:58:57Z</time>
<speed>0.560000</speed>
<extensions>
<speed>0.6</speed>
<temp>0.00</temp>
<bpm>0</bpm>
<rpm>0.00</rpm>
</extensions>
</trkpt>
<trkpt lat="30.861722946" lon="34.822883606">
<ele>482.117188</ele>
<time>2013-11-21T07:59:02Z</time>
<speed>0.510000</speed>
<extensions>
<speed>0.5</speed>
<temp>0.00</temp>
<bpm>0</bpm>
<rpm>0.00</rpm>
</extensions>
</trkpt>
<trkpt lat="30.861736298" lon="34.822864532">
<ele>482.382813</ele>
<time>2013-11-21T07:59:07Z</time>
<speed>0.450000</speed>
<extensions>
<speed>0.5</speed>
<temp>0.00</temp>
<bpm>0</bpm>
<rpm>0.00</rpm>
</extensions>
</trkpt>
<trkpt lat="30.861705780" lon="34.822830200">
<ele>482.437500</ele>
<time>2013-11-21T07:59:12Z</time>
<speed>0.410000</speed>
<extensions>
<speed>0.4</speed>
<temp>0.00</temp>
<bpm>0</bpm>
<rpm>0.00</rpm>
</extensions>
</trkpt>
<trkpt lat="30.861700058" lon="34.822795868">
<ele>482.554688</ele>
<time>2013-11-21T07:59:17Z</time>
<speed>0.300000</speed>
<extensions>
<speed>0.3</speed>
<temp>0.00</temp>
<bpm>0</bpm>
<rpm>0.00</rpm>
</extensions>
</trkpt>
<trkpt lat="30.861713409" lon="34.822795868">
<ele>482.914063</ele>
<time>2013-11-21T07:59:22Z</time>
<speed>0.110000</speed>
<extensions>
<speed>0.1</speed>
<temp>0.00</temp>
<bpm>0</bpm>
<rpm>0.00</rpm>
</extensions>
</trkpt>
<trkpt lat="30.861711502" lon="34.822792053">
<ele>483.343750</ele>
<time>2013-11-21T07:59:27Z</time>
<speed>0.110000</speed>
<extensions>
<speed>0.1</speed>
<temp>0.00</temp>
<bpm>0</bpm>
<rpm>0.00</rpm>
</extensions>
</trkpt>
<trkpt lat="30.861711502" lon="34.822788239">
<ele>483.757813</ele>
<time>2013-11-21T07:59:32Z</time>
<speed>0.060000</speed>
<extensions>
<speed>0.1</speed>
<temp>0.00</temp>
<bpm>0</bpm>
<rpm>0.00</rpm>
</extensions>
</trkpt>
<trkpt lat="30.861713409" lon="34.822784424">
<ele>484.132813</ele>
<time>2013-11-21T07:59:37Z</time>
<speed>0.050000</speed>
<extensions>
<speed>0.1</speed>
<temp>0.00</temp>
<bpm>0</bpm>
<rpm>0.00</rpm>
</extensions>
</trkpt>
<trkpt lat="30.861717224" lon="34.822784424">
<ele>484.421875</ele>
<time>2013-11-21T07:59:42Z</time>
<speed>0.080000</speed>
<extensions>
<speed>0.1</speed>
<temp>0.00</temp>
<bpm>0</bpm>
<rpm>0.00</rpm>
</extensions>
</trkpt>
<trkpt lat="30.861719131" lon="34.822780609">
<ele>484.671875</ele>
<time>2013-11-21T07:59:47Z</time>
<speed>0.100000</speed>
<extensions>
<speed>0.1</speed>
<temp>0.00</temp>
<bpm>0</bpm>
<rpm>0.00</rpm>
</extensions>
</trkpt>
<trkpt lat="30.861724854" lon="34.822772980">
<ele>484.921875</ele>
<time>2013-11-21T07:59:52Z</time>
<speed>0.380000</speed>
<extensions>
<speed>0.4</speed>
<temp>0.00</temp>
<bpm>0</bpm>
<rpm>0.00</rpm>
</extensions>
</trkpt>
<trkpt lat="30.861740112" lon="34.822746277">
<ele>484.968750</ele>
<time>2013-11-21T07:59:57Z</time>
<speed>0.570000</speed>
<extensions>
<speed>0.6</speed>
<temp>0.00</temp>
<bpm>0</bpm>
<rpm>0.00</rpm>
</extensions>
</trkpt>
<trkpt lat="30.861763000" lon="34.822715759">
<ele>485.351563</ele>
<time>2013-11-21T08:00:02Z</time>
<speed>0.710000</speed>
<extensions>
<speed>0.7</speed>
<temp>0.00</temp>
<bpm>0</bpm>
<rpm>0.00</rpm>
</extensions>
</trkpt>
<trkpt lat="30.861787796" lon="34.822681427">
<ele>485.507813</ele>
<time>2013-11-21T08:00:07Z</time>
<speed>0.710000</speed>
<extensions>
<speed>0.7</speed>
<temp>0.00</temp>
<bpm>0</bpm>
<rpm>0.00</rpm>
</extensions>
</trkpt>
<trkpt lat="30.861804962" lon="34.822677612">
<ele>485.757813</ele>
<time>2013-11-21T08:00:12Z</time>
<speed>0.430000</speed>
<extensions>
<speed>0.4</speed>
<temp>0.00</temp>
<bpm>0</bpm>
<rpm>0.00</rpm>
</extensions>
</trkpt>
<trkpt lat="30.861839294" lon="34.822669983">
<ele>486.078125</ele>
<time>2013-11-21T08:00:17Z</time>
<speed>0.500000</speed>
<extensions>
<speed>0.5</speed>
<temp>0.00</temp>
<bpm>0</bpm>
<rpm>0.00</rpm>
</extensions>
</trkpt>
<trkpt lat="30.861873627" lon="34.822677612">
<ele>485.906250</ele>
<time>2013-11-21T08:00:22Z</time>
<speed>0.450000</speed>
<extensions>
<speed>0.5</speed>
<temp>0.00</temp>
<bpm>0</bpm>
<rpm>0.00</rpm>
</extensions>
</trkpt>
<trkpt lat="30.861917496" lon="34.822677612">
<ele>486.148438</ele>
<time>2013-11-21T08:00:27Z</time>
<speed>0.570000</speed>
<extensions>
<speed>0.6</speed>
<temp>0.00</temp>
<bpm>0</bpm>
<rpm>0.00</rpm>
</extensions>
</trkpt>
<trkpt lat="30.861938477" lon="34.822654724">
<ele>486.179688</ele>
<time>2013-11-21T08:00:32Z</time>
<speed>0.940000</speed>
<extensions>
<speed>0.9</speed>
<temp>0.00</temp>
<bpm>0</bpm>
<rpm>0.00</rpm>
</extensions>
</trkpt>
<trkpt lat="30.861942291" lon="34.822624207">
<ele>486.296875</ele>
<time>2013-11-21T08:00:37Z</time>
<speed>0.620000</speed>
<extensions>
<speed>0.6</speed>
<temp>0.00</temp>
<bpm>0</bpm>
<rpm>0.00</rpm>
</extensions>
</trkpt>
<trkpt lat="30.861986160" lon="34.822586060">
<ele>486.781250</ele>
<time>2013-11-21T08:00:42Z</time>
<speed>1.240000</speed>
<extensions>
<speed>1.2</speed>
<temp>0.00</temp>
<bpm>0</bpm>
<rpm>0.00</rpm>
</extensions>
</trkpt>
<trkpt lat="30.862043381" lon="34.822536469">
<ele>486.945313</ele>
<time>2013-11-21T08:00:47Z</time>
<speed>1.100000</speed>
<extensions>
<speed>1.1</speed>
<temp>0.00</temp>
<bpm>0</bpm>
<rpm>0.00</rpm>
</extensions>
</trkpt>
<trkpt lat="30.862083435" lon="34.822460175">
<ele>486.875000</ele>
<time>2013-11-21T08:00:52Z</time>
<speed>1.500000</speed>
<extensions>
<speed>1.5</speed>
<temp>0.00</temp>
<bpm>0</bpm>
<rpm>0.00</rpm>
</extensions>
</trkpt>
<trkpt lat="30.862134933" lon="34.822410583">
<ele>487.046875</ele>
<time>2013-11-21T08:00:57Z</time>
<speed>1.500000</speed>
<extensions>
<speed>1.5</speed>
<temp>0.00</temp>
<bpm>0</bpm>
<rpm>0.00</rpm>
</extensions>
</trkpt>
<trkpt lat="30.862220764" lon="34.822372437">
<ele>487.289063</ele>
<time>2013-11-21T08:01:02Z</time>
<speed>1.190000</speed>
<extensions>
<speed>1.2</speed>
<temp>0.00</temp>
<bpm>0</bpm>
<rpm>0.00</rpm>
</extensions>
</trkpt>
<trkpt lat="30.862274170" lon="34.822330475">
<ele>488.156250</ele>
<time>2013-11-21T08:01:07Z</time>
<speed>1.410000</speed>
<extensions>
<speed>1.4</speed>
<temp>0.00</temp>
<bpm>0</bpm>
<rpm>0.00</rpm>
</extensions>
</trkpt>
<trkpt lat="30.862342834" lon="34.822292328">
<ele>489.093750</ele>
<time>2013-11-21T08:01:12Z</time>
<speed>1.300000</speed>
<extensions>
<speed>1.3</speed>
<temp>0.00</temp>
<bpm>0</bpm>
<rpm>0.00</rpm>
</extensions>
</trkpt>
<trkpt lat="30.862339020" lon="34.822254181">
<ele>489.781250</ele>
<time>2013-11-21T08:01:17Z</time>
<speed>0.310000</speed>
<extensions>
<speed>0.3</speed>
<temp>0.00</temp>
<bpm>0</bpm>
<rpm>0.00</rpm>
</extensions>
</trkpt>
<trkpt lat="30.862356186" lon="34.822254181">
<ele>490.015625</ele>
<time>2013-11-21T08:01:22Z</time>
<speed>0.390000</speed>
<extensions>
<speed>0.4</speed>
<temp>0.00</temp>
<bpm>0</bpm>
<rpm>0.00</rpm>
</extensions>
</trkpt>
<trkpt lat="30.862369537" lon="34.822227478">
<ele>490.531250</ele>
<time>2013-11-21T08:01:27Z</time>
<speed>0.530000</speed>
<extensions>
<speed>0.5</speed>
<temp>0.00</temp>
<bpm>0</bpm>
<rpm>0.00</rpm>
</extensions>
</trkpt>
<trkpt lat="30.862390518" lon="34.822185516">
<ele>490.718750</ele>
<time>2013-11-21T08:01:32Z</time>
<speed>0.980000</speed>
<extensions>
<speed>1.0</speed>
<temp>0.00</temp>
<bpm>0</bpm>
<rpm>0.00</rpm>
</extensions>
</trkpt>
<trkpt lat="30.862434387" lon="34.822139740">
<ele>491.710938</ele>
<time>2013-11-21T08:01:37Z</time>
<speed>0.940000</speed>
<extensions>
<speed>0.9</speed>
<temp>0.00</temp>
<bpm>0</bpm>
<rpm>0.00</rpm>
</extensions>
</trkpt>
<trkpt lat="30.862438202" lon="34.822097778">
<ele>491.828125</ele>
<time>2013-11-21T08:01:42Z</time>
<speed>0.900000</speed>
<extensions>
<speed>0.9</speed>
<temp>0.00</temp>
<bpm>0</bpm>
<rpm>0.00</rpm>
</extensions>
</trkpt>
<trkpt lat="30.862455368" lon="34.822048187">
<ele>491.500000</ele>
<time>2013-11-21T08:01:47Z</time>
<speed>0.830000</speed>
<extensions>
<speed>0.8</speed>
<temp>0.00</temp>
<bpm>0</bpm>
<rpm>0.00</rpm>
</extensions>
</trkpt>
<trkpt lat="30.862482071" lon="34.822032928">
<ele>491.343750</ele>
<time>2013-11-21T08:01:52Z</time>
<speed>1.050000</speed>
<extensions>
<speed>1.0</speed>
<temp>0.00</temp>
<bpm>0</bpm>
<rpm>0.00</rpm>
</extensions>
</trkpt>
<trkpt lat="30.862504959" lon="34.821998596">
<ele>491.500000</ele>
<time>2013-11-21T08:01:57Z</time>
<speed>0.790000</speed>
<extensions>
<speed>0.8</speed>
<temp>0.00</temp>
<bpm>0</bpm>
<rpm>0.00</rpm>
</extensions>
</trkpt>
<trkpt lat="30.862499237" lon="34.821903229">
<ele>492.140625</ele>
<time>2013-11-21T08:02:02Z</time>
<speed>1.180000</speed>
<extensions>
<speed>1.2</speed>
<temp>0.00</temp>
<bpm>0</bpm>
<rpm>0.00</rpm>
</extensions>
</trkpt>
<trkpt lat="30.862533569" lon="34.821865082">
<ele>492.625000</ele>
<time>2013-11-21T08:02:07Z</time>
<speed>1.040000</speed>
<extensions>
<speed>1.0</speed>
<temp>0.00</temp>
<bpm>0</bpm>
<rpm>0.00</rpm>
</extensions>
</trkpt>
<trkpt lat="30.862569809" lon="34.821819305">
<ele>492.468750</ele>
<time>2013-11-21T08:02:12Z</time>
<speed>1.200000</speed>
<extensions>
<speed>1.2</speed>
<temp>0.00</temp>
<bpm>0</bpm>
<rpm>0.00</rpm>
</extensions>
</trkpt>
<trkpt lat="30.862592697" lon="34.821781158">
<ele>492.765625</ele>
<time>2013-11-21T08:02:17Z</time>
<speed>0.930000</speed>
<extensions>
<speed>0.9</speed>
<temp>0.00</temp>
<bpm>0</bpm>
<rpm>0.00</rpm>
</extensions>
</trkpt>
<trkpt lat="30.862627029" lon="34.821773529">
<ele>493.523438</ele>
<time>2013-11-21T08:02:22Z</time>
<speed>0.100000</speed>
<extensions>
<speed>0.1</speed>
<temp>0.00</temp>
<bpm>0</bpm>
<rpm>0.00</rpm>
</extensions>
</trkpt>
<trkpt lat="30.862640381" lon="34.821777344">
<ele>493.757813</ele>
<time>2013-11-21T08:02:27Z</time>
<speed>0.030000</speed>
<extensions>
<speed>0.0</speed>
<temp>0.00</temp>
<bpm>0</bpm>
<rpm>0.00</rpm>
</extensions>
</trkpt>
<trkpt lat="30.862642288" lon="34.821773529">
<ele>493.835938</ele>
<time>2013-11-21T08:02:32Z</time>
<speed>0.120000</speed>
<extensions>
<speed>0.1</speed>
<temp>0.00</temp>
<bpm>0</bpm>
<rpm>0.00</rpm>
</extensions>
</trkpt>
<trkpt lat="30.862642288" lon="34.821762085">
<ele>493.906250</ele>
<time>2013-11-21T08:02:37Z</time>
<speed>0.340000</speed>
<extensions>
<speed>0.3</speed>
<temp>0.00</temp>
<bpm>0</bpm>
<rpm>0.00</rpm>
</extensions>
</trkpt>
<trkpt lat="30.862646103" lon="34.821720123">
<ele>493.890625</ele>
<time>2013-11-21T08:02:42Z</time>
<speed>0.500000</speed>
<extensions>
<speed>0.5</speed>
<temp>0.00</temp>
<bpm>0</bpm>
<rpm>0.00</rpm>
</extensions>
</trkpt>
<trkpt lat="30.862646103" lon="34.821678162">
<ele>494.132813</ele>
<time>2013-11-21T08:02:47Z</time>
<speed>0.530000</speed>
<extensions>
<speed>0.5</speed>
<temp>0.00</temp>
<bpm>0</bpm>
<rpm>0.00</rpm>
</extensions>
</trkpt>
<trkpt lat="30.862627029" lon="34.821624756">
<ele>494.289063</ele>
<time>2013-11-21T08:02:52Z</time>
<speed>0.450000</speed>
<extensions>
<speed>0.5</speed>
<temp>0.00</temp>
<bpm>0</bpm>
<rpm>0.00</rpm>
</extensions>
</trkpt>
<trkpt lat="30.862617493" lon="34.821582794">
<ele>494.937500</ele>
<time>2013-11-21T08:02:57Z</time>
<speed>0.500000</speed>
<extensions>
<speed>0.5</speed>
<temp>0.00</temp>
<bpm>0</bpm>
<rpm>0.00</rpm>
</extensions>
</trkpt>
<trkpt lat="30.862630844" lon="34.821586609">
<ele>496.414063</ele>
<time>2013-11-21T08:03:02Z</time>
<speed>0.410000</speed>
<extensions>
<speed>0.4</speed>
<temp>0.00</temp>
<bpm>0</bpm>
<rpm>0.00</rpm>
</extensions>
</trkpt>
<trkpt lat="30.862628937" lon="34.821567535">
<ele>496.695313</ele>
<time>2013-11-21T08:03:07Z</time>
<speed>0.410000</speed>
<extensions>
<speed>0.4</speed>
<temp>0.00</temp>
<bpm>0</bpm>
<rpm>0.00</rpm>
</extensions>
</trkpt>
<trkpt lat="30.862607956" lon="34.821540833">
<ele>496.898438</ele>
<time>2013-11-21T08:03:12Z</time>
<speed>0.400000</speed>
<extensions>
<speed>0.4</speed>
<temp>0.00</temp>
<bpm>0</bpm>
<rpm>0.00</rpm>
</extensions>
</trkpt>
<trkpt lat="30.862590790" lon="34.821498871">
<ele>497.562500</ele>
<time>2013-11-21T08:03:17Z</time>
<speed>0.470000</speed>
<extensions>
<speed>0.5</speed>
<temp>0.00</temp>
<bpm>0</bpm>
<rpm>0.00</rpm>
</extensions>
</trkpt>
<trkpt lat="30.862554550" lon="34.821475983">
<ele>497.851563</ele>
<time>2013-11-21T08:03:22Z</time>
<speed>0.560000</speed>
<extensions>
<speed>0.6</speed>
<temp>0.00</temp>
<bpm>0</bpm>
<rpm>0.00</rpm>
</extensions>
</trkpt>
<trkpt lat="30.862546921" lon="34.821426392">
<ele>498.570313</ele>
<time>2013-11-21T08:03:27Z</time>
<speed>0.370000</speed>
<extensions>
<speed>0.4</speed>
<temp>0.00</temp>
<bpm>0</bpm>
<rpm>0.00</rpm>
</extensions>
</trkpt>
<trkpt lat="30.862552643" lon="34.821430206">
<ele>499.156250</ele>
<time>2013-11-21T08:03:32Z</time>
<speed>0.100000</speed>
<extensions>
<speed>0.1</speed>
<temp>0.00</temp>
<bpm>0</bpm>
<rpm>0.00</rpm>
</extensions>
</trkpt>
<trkpt lat="30.862550735" lon="34.821426392">
<ele>499.398438</ele>
<time>2013-11-21T08:03:37Z</time>
<speed>0.020000</speed>
<extensions>
<speed>0.0</speed>
<temp>0.00</temp>
<bpm>0</bpm>
<rpm>0.00</rpm>
</extensions>
</trkpt>
<trkpt lat="30.862548828" lon="34.821426392">
<ele>499.671875</ele>
<time>2013-11-21T08:03:42Z</time>
<speed>0.100000</speed>
<extensions>
<speed>0.1</speed>
<temp>0.00</temp>
<bpm>0</bpm>
<rpm>0.00</rpm>
</extensions>
</trkpt>
<trkpt lat="30.862550735" lon="34.821418762">
<ele>499.968750</ele>
<time>2013-11-21T08:03:47Z</time>
<speed>0.160000</speed>
<extensions>
<speed>0.2</speed>
<temp>0.00</temp>
<bpm>0</bpm>
<rpm>0.00</rpm>
</extensions>
</trkpt>
<trkpt lat="30.862552643" lon="34.821414948">
<ele>500.312500</ele>
<time>2013-11-21T08:03:52Z</time>
<speed>0.060000</speed>
<extensions>
<speed>0.1</speed>
<temp>0.00</temp>
<bpm>0</bpm>
<rpm>0.00</rpm>
</extensions>
</trkpt>
<trkpt lat="30.862556458" lon="34.821418762">
<ele>500.703125</ele>
<time>2013-11-21T08:03:57Z</time>
<speed>0.080000</speed>
<extensions>
<speed>0.1</speed>
<temp>0.00</temp>
<bpm>0</bpm>
<rpm>0.00</rpm>
</extensions>
</trkpt>
<trkpt lat="30.862560272" lon="34.821414948">
<ele>501.078125</ele>
<time>2013-11-21T08:04:02Z</time>
<speed>0.030000</speed>
<extensions>
<speed>0.0</speed>
<temp>0.00</temp>
<bpm>0</bpm>
<rpm>0.00</rpm>
</extensions>
</trkpt>
<trkpt lat="30.862560272" lon="34.821414948">
<ele>501.093750</ele>
<time>2013-11-21T08:04:07Z</time>
<speed>0.040000</speed>
<extensions>
<speed>0.0</speed>
<temp>0.00</temp>
<bpm>0</bpm>
<rpm>0.00</rpm>
</extensions>
</trkpt>
<trkpt lat="30.862560272" lon="34.821414948">
<ele>501.117188</ele>
<time>2013-11-21T08:04:12Z</time>
<speed>0.070000</speed>
<extensions>
<speed>0.1</speed>
<temp>0.00</temp>
<bpm>0</bpm>
<rpm>0.00</rpm>
</extensions>
</trkpt>
<trkpt lat="30.862564087" lon="34.821411133">
<ele>501.148438</ele>
<time>2013-11-21T08:04:17Z</time>
<speed>0.190000</speed>
<extensions>
<speed>0.2</speed>
<temp>0.00</temp>
<bpm>0</bpm>
<rpm>0.00</rpm>
</extensions>
</trkpt>
<trkpt lat="30.862567902" lon="34.821399689">
<ele>501.203125</ele>
<time>2013-11-21T08:04:22Z</time>
<speed>0.230000</speed>
<extensions>
<speed>0.2</speed>
<temp>0.00</temp>
<bpm>0</bpm>
<rpm>0.00</rpm>
</extensions>
</trkpt>
<trkpt lat="30.862571716" lon="34.821388245">
<ele>501.257813</ele>
<time>2013-11-21T08:04:27Z</time>
<speed>0.320000</speed>
<extensions>
<speed>0.3</speed>
<temp>0.00</temp>
<bpm>0</bpm>
<rpm>0.00</rpm>
</extensions>
</trkpt>
<trkpt lat="30.862556458" lon="34.821331024">
<ele>502.250000</ele>
<time>2013-11-21T08:04:32Z</time>
<speed>0.460000</speed>
<extensions>
<speed>0.5</speed>
<temp>0.00</temp>
<bpm>0</bpm>
<rpm>0.00</rpm>
</extensions>
</trkpt>
<trkpt lat="30.862567902" lon="34.821277618">
<ele>503.867188</ele>
<time>2013-11-21T08:04:37Z</time>
<speed>0.560000</speed>
<extensions>
<speed>0.6</speed>
<temp>0.00</temp>
<bpm>0</bpm>
<rpm>0.00</rpm>
</extensions>
</trkpt>
<trkpt lat="30.862590790" lon="34.821239471">
<ele>506.773438</ele>
<time>2013-11-21T08:04:42Z</time>
<speed>0.540000</speed>
<extensions>
<speed>0.5</speed>
<temp>0.00</temp>
<bpm>0</bpm>
<rpm>0.00</rpm>
</extensions>
</trkpt>
<trkpt lat="30.862604141" lon="34.821197510">
<ele>507.726563</ele>
<time>2013-11-21T08:04:47Z</time>
<speed>0.650000</speed>
<extensions>
<speed>0.6</speed>
<temp>0.00</temp>
<bpm>0</bpm>
<rpm>0.00</rpm>
</extensions>
</trkpt>
<trkpt lat="30.862613678" lon="34.821166992">
<ele>507.937500</ele>
<time>2013-11-21T08:04:52Z</time>
<speed>0.470000</speed>
<extensions>
<speed>0.5</speed>
<temp>0.00</temp>
<bpm>0</bpm>
<rpm>0.00</rpm>
</extensions>
</trkpt>
<trkpt lat="30.862592697" lon="34.821132660">
<ele>508.742188</ele>
<time>2013-11-21T08:04:57Z</time>
<speed>0.460000</speed>
<extensions>
<speed>0.5</speed>
<temp>0.00</temp>
<bpm>0</bpm>
<rpm>0.00</rpm>
</extensions>
</trkpt>
<trkpt lat="30.862573624" lon="34.821105957">
<ele>509.890625</ele>
<time>2013-11-21T08:05:02Z</time>
<speed>0.420000</speed>
<extensions>
<speed>0.4</speed>
<temp>0.00</temp>
<bpm>0</bpm>
<rpm>0.00</rpm>
</extensions>
</trkpt>
<trkpt lat="30.862550735" lon="34.821052551">
<ele>510.953125</ele>
<time>2013-11-21T08:05:07Z</time>
<speed>0.720000</speed>
<extensions>
<speed>0.7</speed>
<temp>0.00</temp>
<bpm>0</bpm>
<rpm>0.00</rpm>
</extensions>
</trkpt>
<trkpt lat="30.862539291" lon="34.821014404">
<ele>511.804688</ele>
<time>2013-11-21T08:05:12Z</time>
<speed>0.470000</speed>
<extensions>
<speed>0.5</speed>
<temp>0.00</temp>
<bpm>0</bpm>
<rpm>0.00</rpm>
</extensions>
</trkpt>
<trkpt lat="30.862533569" lon="34.821025848">
<ele>512.437500</ele>
<time>2013-11-21T08:05:17Z</time>
<speed>0.240000</speed>
<extensions>
<speed>0.2</speed>
<temp>0.00</temp>
<bpm>0</bpm>
<rpm>0.00</rpm>
</extensions>
</trkpt>
<trkpt lat="30.862525940" lon="34.821033478">
<ele>512.671875</ele>
<time>2013-11-21T08:05:22Z</time>
<speed>0.150000</speed>
<extensions>
<speed>0.2</speed>
<temp>0.00</temp>
<bpm>0</bpm>
<rpm>0.00</rpm>
</extensions>
</trkpt>
<trkpt lat="30.862529755" lon="34.821022034">
<ele>513.109375</ele>
<time>2013-11-21T08:05:27Z</time>
<speed>0.320000</speed>
<extensions>
<speed>0.3</speed>
<temp>0.00</temp>
<bpm>0</bpm>
<rpm>0.00</rpm>
</extensions>
</trkpt>
<trkpt lat="30.862562180" lon="34.820999146">
<ele>512.765625</ele>
<time>2013-11-21T08:05:32Z</time>
<speed>0.520000</speed>
<extensions>
<speed>0.5</speed>
<temp>0.00</temp>
<bpm>0</bpm>
<rpm>0.00</rpm>
</extensions>
</trkpt>
<trkpt lat="30.862592697" lon="34.820976257">
<ele>513.515625</ele>
<time>2013-11-21T08:05:37Z</time>
<speed>0.630000</speed>
<extensions>
<speed>0.6</speed>
<temp>0.00</temp>
<bpm>0</bpm>
<rpm>0.00</rpm>
</extensions>
</trkpt>
<trkpt lat="30.862625122" lon="34.820957184">
<ele>514.546875</ele>
<time>2013-11-21T08:05:42Z</time>
<speed>0.780000</speed>
<extensions>
<speed>0.8</speed>
<temp>0.00</temp>
<bpm>0</bpm>
<rpm>0.00</rpm>
</extensions>
</trkpt>
<trkpt lat="30.862699509" lon="34.820976257">
<ele>515.328125</ele>
<time>2013-11-21T08:05:47Z</time>
<speed>0.380000</speed>
<extensions>
<speed>0.4</speed>
<temp>0.00</temp>
<bpm>0</bpm>
<rpm>0.00</rpm>
</extensions>
</trkpt>
<trkpt lat="30.862724304" lon="34.820972443">
<ele>517.062500</ele>
<time>2013-11-21T08:05:52Z</time>
<speed>0.470000</speed>
<extensions>
<speed>0.5</speed>
<temp>0.00</temp>
<bpm>0</bpm>
<rpm>0.00</rpm>
</extensions>
</trkpt>
<trkpt lat="30.862766266" lon="34.820960999">
<ele>517.515625</ele>
<time>2013-11-21T08:05:57Z</time>
<speed>0.650000</speed>
<extensions>
<speed>0.6</speed>
<temp>0.00</temp>
<bpm>0</bpm>
<rpm>0.00</rpm>
</extensions>
</trkpt>
<trkpt lat="30.862808228" lon="34.820957184">
<ele>518.218750</ele>
<time>2013-11-21T08:06:02Z</time>
<speed>0.820000</speed>
<extensions>
<speed>0.8</speed>
<temp>0.00</temp>
<bpm>0</bpm>
<rpm>0.00</rpm>
</extensions>
</trkpt>
<trkpt lat="30.862825394" lon="34.820960999">
<ele>519.140625</ele>
<time>2013-11-21T08:06:07Z</time>
<speed>0.430000</speed>
<extensions>
<speed>0.4</speed>
<temp>0.00</temp>
<bpm>0</bpm>
<rpm>0.00</rpm>
</extensions>
</trkpt>
<trkpt lat="30.862869263" lon="34.820938110">
<ele>519.718750</ele>
<time>2013-11-21T08:06:12Z</time>
<speed>0.820000</speed>
<extensions>
<speed>0.8</speed>
<temp>0.00</temp>
<bpm>0</bpm>
<rpm>0.00</rpm>
</extensions>
</trkpt>
<trkpt lat="30.862899780" lon="34.820869446">
<ele>520.093750</ele>
<time>2013-11-21T08:06:17Z</time>
<speed>0.790000</speed>
<extensions>
<speed>0.8</speed>
<temp>0.00</temp>
<bpm>0</bpm>
<rpm>0.00</rpm>
</extensions>
</trkpt>
<trkpt lat="30.862915039" lon="34.820812225">
<ele>520.968750</ele>
<time>2013-11-21T08:06:22Z</time>
<speed>1.110000</speed>
<extensions>
<speed>1.1</speed>
<temp>0.00</temp>
<bpm>0</bpm>
<rpm>0.00</rpm>
</extensions>
</trkpt>
<trkpt lat="30.862943649" lon="34.820766449">
<ele>521.453125</ele>
<time>2013-11-21T08:06:27Z</time>
<speed>1.000000</speed>
<extensions>
<speed>1.0</speed>
<temp>0.00</temp>
<bpm>0</bpm>
<rpm>0.00</rpm>
</extensions>
</trkpt>
<trkpt lat="30.862949371" lon="34.820732117">
<ele>521.812500</ele>
<time>2013-11-21T08:06:32Z</time>
<speed>0.530000</speed>
<extensions>
<speed>0.5</speed>
<temp>0.00</temp>
<bpm>0</bpm>
<rpm>0.00</rpm>
</extensions>
</trkpt>
<trkpt lat="30.862972260" lon="34.820724487">
<ele>522.078125</ele>
<time>2013-11-21T08:06:37Z</time>
<speed>0.810000</speed>
<extensions>
<speed>0.8</speed>
<temp>0.00</temp>
<bpm>0</bpm>
<rpm>0.00</rpm>
</extensions>
</trkpt>
<trkpt lat="30.863042831" lon="34.820659637">
<ele>522.453125</ele>
<time>2013-11-21T08:06:42Z</time>
<speed>2.850000</speed>
<extensions>
<speed>2.9</speed>
<temp>0.00</temp>
<bpm>0</bpm>
<rpm>0.00</rpm>
</extensions>
</trkpt>
<trkpt lat="30.863122940" lon="34.820625305">
<ele>521.671875</ele>
<time>2013-11-21T08:06:47Z</time>
<speed>0.100000</speed>
<extensions>
<speed>0.1</speed>
<temp>0.00</temp>
<bpm>0</bpm>
<rpm>0.00</rpm>
</extensions>
</trkpt>
<trkpt lat="30.863138199" lon="34.820632935">
<ele>521.609375</ele>
<time>2013-11-21T08:06:52Z</time>
<speed>0.350000</speed>
<extensions>
<speed>0.3</speed>
<temp>0.00</temp>
<bpm>0</bpm>
<rpm>0.00</rpm>
</extensions>
</trkpt>
<trkpt lat="30.863185883" lon="34.820636749">
<ele>521.640625</ele>
<time>2013-11-21T08:06:57Z</time>
<speed>0.640000</speed>
<extensions>
<speed>0.6</speed>
<temp>0.00</temp>
<bpm>0</bpm>
<rpm>0.00</rpm>
</extensions>
</trkpt>
<trkpt lat="30.863237381" lon="34.820606232">
<ele>521.953125</ele>
<time>2013-11-21T08:07:02Z</time>
<speed>1.120000</speed>
<extensions>
<speed>1.1</speed>
<temp>0.00</temp>
<bpm>0</bpm>
<rpm>0.00</rpm>
</extensions>
</trkpt>
<trkpt lat="30.863292694" lon="34.820613861">
<ele>522.031250</ele>
<time>2013-11-21T08:07:07Z</time>
<speed>1.030000</speed>
<extensions>
<speed>1.0</speed>
<temp>0.00</temp>
<bpm>0</bpm>
<rpm>0.00</rpm>
</extensions>
</trkpt>
<trkpt lat="30.863330841" lon="34.820625305">
<ele>522.796875</ele>
<time>2013-11-21T08:07:12Z</time>
<speed>0.840000</speed>
<extensions>
<speed>0.8</speed>
<temp>0.00</temp>
<bpm>0</bpm>
<rpm>0.00</rpm>
</extensions>
</trkpt>
<trkpt lat="30.863359451" lon="34.820648193">
<ele>523.437500</ele>
<time>2013-11-21T08:07:17Z</time>
<speed>0.600000</speed>
<extensions>
<speed>0.6</speed>
<temp>0.00</temp>
<bpm>0</bpm>
<rpm>0.00</rpm>
</extensions>
</trkpt>
<trkpt lat="30.863393784" lon="34.820690155">
<ele>523.828125</ele>
<time>2013-11-21T08:07:22Z</time>
<speed>0.930000</speed>
<extensions>
<speed>0.9</speed>
<temp>0.00</temp>
<bpm>0</bpm>
<rpm>0.00</rpm>
</extensions>
</trkpt>
<trkpt lat="30.863430023" lon="34.820747375">
<ele>523.468750</ele>
<time>2013-11-21T08:07:27Z</time>
<speed>0.840000</speed>
<extensions>
<speed>0.8</speed>
<temp>0.00</temp>
<bpm>0</bpm>
<rpm>0.00</rpm>
</extensions>
</trkpt>
<trkpt lat="30.863498688" lon="34.820774078">
<ele>523.828125</ele>
<time>2013-11-21T08:07:32Z</time>
<speed>1.240000</speed>
<extensions>
<speed>1.2</speed>
<temp>0.00</temp>
<bpm>0</bpm>
<rpm>0.00</rpm>
</extensions>
</trkpt>
<trkpt lat="30.863544464" lon="34.820819855">
<ele>524.796875</ele>
<time>2013-11-21T08:07:37Z</time>
<speed>1.150000</speed>
<extensions>
<speed>1.1</speed>
<temp>0.00</temp>
<bpm>0</bpm>
<rpm>0.00</rpm>
</extensions>
</trkpt>
<trkpt lat="30.863565445" lon="34.820861816">
<ele>526.015625</ele>
<time>2013-11-21T08:07:42Z</time>
<speed>1.080000</speed>
<extensions>
<speed>1.1</speed>
<temp>0.00</temp>
<bpm>0</bpm>
<rpm>0.00</rpm>
</extensions>
</trkpt>
<trkpt lat="30.863571167" lon="34.820892334">
<ele>526.187500</ele>
<time>2013-11-21T08:07:47Z</time>
<speed>0.460000</speed>
<extensions>
<speed>0.5</speed>
<temp>0.00</temp>
<bpm>0</bpm>
<rpm>0.00</rpm>
</extensions>
</trkpt>
<trkpt lat="30.863609314" lon="34.820938110">
<ele>526.750000</ele>
<time>2013-11-21T08:07:52Z</time>
<speed>1.260000</speed>
<extensions>
<speed>1.3</speed>
<temp>0.00</temp>
<bpm>0</bpm>
<rpm>0.00</rpm>
</extensions>
</trkpt>
<trkpt lat="30.863672256" lon="34.821010590">
<ele>527.515625</ele>
<time>2013-11-21T08:07:57Z</time>
<speed>1.320000</speed>
<extensions>
<speed>1.3</speed>
<temp>0.00</temp>
<bpm>0</bpm>
<rpm>0.00</rpm>
</extensions>
</trkpt>
<trkpt lat="30.863754272" lon="34.821056366">
<ele>528.250000</ele>
<time>2013-11-21T08:08:02Z</time>
<speed>1.160000</speed>
<extensions>
<speed>1.2</speed>
<temp>0.00</temp>
<bpm>0</bpm>
<rpm>0.00</rpm>
</extensions>
</trkpt>
<trkpt lat="30.863800049" lon="34.821113586">
<ele>528.750000</ele>
<time>2013-11-21T08:08:07Z</time>
<speed>2.940000</speed>
<extensions>
<speed>2.9</speed>
<temp>0.00</temp>
<bpm>0</bpm>
<rpm>0.00</rpm>
</extensions>
</trkpt>
<trkpt lat="30.863883972" lon="34.821170807">
<ele>529.593750</ele>
<time>2013-11-21T08:08:12Z</time>
<speed>1.760000</speed>
<extensions>
<speed>1.8</speed>
<temp>0.00</temp>
<bpm>0</bpm>
<rpm>0.00</rpm>
</extensions>
</trkpt>
<trkpt lat="30.863971710" lon="34.821178436">
<ele>531.171875</ele>
<time>2013-11-21T08:08:17Z</time>
<speed>1.550000</speed>
<extensions>
<speed>1.5</speed>
<temp>0.00</temp>
<bpm>0</bpm>
<rpm>0.00</rpm>
</extensions>
</trkpt>
<trkpt lat="30.864011765" lon="34.821193695">
<ele>533.250000</ele>
<time>2013-11-21T08:08:22Z</time>
<speed>0.980000</speed>
<extensions>
<speed>1.0</speed>
<temp>0.00</temp>
<bpm>0</bpm>
<rpm>0.00</rpm>
</extensions>
</trkpt>
<trkpt lat="30.864007950" lon="34.821189880">
<ele>534.406250</ele>
<time>2013-11-21T08:08:27Z</time>
<speed>1.090000</speed>
<extensions>
<speed>1.1</speed>
<temp>0.00</temp>
<bpm>0</bpm>
<rpm>0.00</rpm>
</extensions>
</trkpt>
<trkpt lat="30.864002228" lon="34.821182251">
<ele>536.562500</ele>
<time>2013-11-21T08:08:32Z</time>
<speed>0.200000</speed>
<extensions>
<speed>0.2</speed>
<temp>0.00</temp>
<bpm>0</bpm>
<rpm>0.00</rpm>
</extensions>
</trkpt>
<trkpt lat="30.863998413" lon="34.821212769">
<ele>537.671875</ele>
<time>2013-11-21T08:08:37Z</time>
<speed>0.170000</speed>
<extensions>
<speed>0.2</speed>
<temp>0.00</temp>
<bpm>0</bpm>
<rpm>0.00</rpm>
</extensions>
</trkpt>
<trkpt lat="30.864004135" lon="34.821216583">
<ele>537.968750</ele>
<time>2013-11-21T08:08:42Z</time>
<speed>0.100000</speed>
<extensions>
<speed>0.1</speed>
<temp>0.00</temp>
<bpm>0</bpm>
<rpm>0.00</rpm>
</extensions>
</trkpt>
<trkpt lat="30.864015579" lon="34.821228027">
<ele>538.593750</ele>
<time>2013-11-21T08:08:47Z</time>
<speed>0.480000</speed>
<extensions>
<speed>0.5</speed>
<temp>0.00</temp>
<bpm>0</bpm>
<rpm>0.00</rpm>
</extensions>
</trkpt>
<trkpt lat="30.864049911" lon="34.821285248">
<ele>539.234375</ele>
<time>2013-11-21T08:08:52Z</time>
<speed>1.320000</speed>
<extensions>
<speed>1.3</speed>
<temp>0.00</temp>
<bpm>0</bpm>
<rpm>0.00</rpm>
</extensions>
</trkpt>
<trkpt lat="30.864080429" lon="34.821365356">
<ele>539.250000</ele>
<time>2013-11-21T08:08:57Z</time>
<speed>1.590000</speed>
<extensions>
<speed>1.6</speed>
<temp>0.00</temp>
<bpm>0</bpm>
<rpm>0.00</rpm>
</extensions>
</trkpt>
<trkpt lat="30.864126205" lon="34.821464539">
<ele>539.250000</ele>
<time>2013-11-21T08:09:02Z</time>
<speed>1.890000</speed>
<extensions>
<speed>1.9</speed>
<temp>0.00</temp>
<bpm>0</bpm>
<rpm>0.00</rpm>
</extensions>
</trkpt>
<trkpt lat="30.864149094" lon="34.821510315">
<ele>539.625000</ele>
<time>2013-11-21T08:09:07Z</time>
<speed>1.100000</speed>
<extensions>
<speed>1.1</speed>
<temp>0.00</temp>
<bpm>0</bpm>
<rpm>0.00</rpm>
</extensions>
</trkpt>
<trkpt lat="30.864145279" lon="34.821544647">
<ele>540.078125</ele>
<time>2013-11-21T08:09:12Z</time>
<speed>1.120000</speed>
<extensions>
<speed>1.1</speed>
<temp>0.00</temp>
<bpm>0</bpm>
<rpm>0.00</rpm>
</extensions>
</trkpt>
<trkpt lat="30.864208221" lon="34.821605682">
<ele>540.234375</ele>
<time>2013-11-21T08:09:17Z</time>
<speed>1.320000</speed>
<extensions>
<speed>1.3</speed>
<temp>0.00</temp>
<bpm>0</bpm>
<rpm>0.00</rpm>
</extensions>
</trkpt>
<trkpt lat="30.864213943" lon="34.821632385">
<ele>540.937500</ele>
<time>2013-11-21T08:09:22Z</time>
<speed>0.360000</speed>
<extensions>
<speed>0.4</speed>
<temp>0.00</temp>
<bpm>0</bpm>
<rpm>0.00</rpm>
</extensions>
</trkpt>
<trkpt lat="30.864213943" lon="34.821651459">
<ele>541.625000</ele>
<time>2013-11-21T08:09:27Z</time>
<speed>0.460000</speed>
<extensions>
<speed>0.5</speed>
<temp>0.00</temp>
<bpm>0</bpm>
<rpm>0.00</rpm>
</extensions>
</trkpt>
<trkpt lat="30.864225388" lon="34.821681976">
<ele>542.203125</ele>
<time>2013-11-21T08:09:32Z</time>
<speed>0.750000</speed>
<extensions>
<speed>0.8</speed>
<temp>0.00</temp>
<bpm>0</bpm>
<rpm>0.00</rpm>
</extensions>
</trkpt>
<trkpt lat="30.864252090" lon="34.821723938">
<ele>544.375000</ele>
<time>2013-11-21T08:09:37Z</time>
<speed>0.930000</speed>
<extensions>
<speed>0.9</speed>
<temp>0.00</temp>
<bpm>0</bpm>
<rpm>0.00</rpm>
</extensions>
</trkpt>
<trkpt lat="30.864284515" lon="34.821754456">
<ele>545.609375</ele>
<time>2013-11-21T08:09:42Z</time>
<speed>0.860000</speed>
<extensions>
<speed>0.9</speed>
<temp>0.00</temp>
<bpm>0</bpm>
<rpm>0.00</rpm>
</extensions>
</trkpt>
<trkpt lat="30.864282608" lon="34.821804047">
<ele>547.390625</ele>
<time>2013-11-21T08:09:47Z</time>
<speed>0.990000</speed>
<extensions>
<speed>1.0</speed>
<temp>0.00</temp>
<bpm>0</bpm>
<rpm>0.00</rpm>
</extensions>
</trkpt>
<trkpt lat="30.864271164" lon="34.821807861">
<ele>547.812500</ele>
<time>2013-11-21T08:09:52Z</time>
<speed>0.150000</speed>
<extensions>
<speed>0.2</speed>
<temp>0.00</temp>
<bpm>0</bpm>
<rpm>0.00</rpm>
</extensions>
</trkpt>
<trkpt lat="30.864276886" lon="34.821807861">
<ele>548.281250</ele>
<time>2013-11-21T08:09:57Z</time>
<speed>0.370000</speed>
<extensions>
<speed>0.4</speed>
<temp>0.00</temp>
<bpm>0</bpm>
<rpm>0.00</rpm>
</extensions>
</trkpt>
<trkpt lat="30.864288330" lon="34.821876526">
<ele>548.828125</ele>
<time>2013-11-21T08:10:02Z</time>
<speed>1.780000</speed>
<extensions>
<speed>1.8</speed>
<temp>0.00</temp>
<bpm>0</bpm>
<rpm>0.00</rpm>
</extensions>
</trkpt>
<trkpt lat="30.864303589" lon="34.822025299">
<ele>549.375000</ele>
<time>2013-11-21T08:10:07Z</time>
<speed>2.910000</speed>
<extensions>
<speed>2.9</speed>
<temp>0.00</temp>
<bpm>0</bpm>
<rpm>0.00</rpm>
</extensions>
</trkpt>
<trkpt lat="30.864269257" lon="34.822200775">
<ele>549.718750</ele>
<time>2013-11-21T08:10:12Z</time>
<speed>3.400000</speed>
<extensions>
<speed>3.4</speed>
<temp>0.00</temp>
<bpm>0</bpm>
<rpm>0.00</rpm>
</extensions>
</trkpt>
<trkpt lat="30.864208221" lon="34.822380066">
<ele>551.687500</ele>
<time>2013-11-21T08:10:17Z</time>
<speed>3.510000</speed>
<extensions>
<speed>3.5</speed>
<temp>0.00</temp>
<bpm>0</bpm>
<rpm>0.00</rpm>
</extensions>
</trkpt>
<trkpt lat="30.864215851" lon="34.822566986">
<ele>550.296875</ele>
<time>2013-11-21T08:10:22Z</time>
<speed>3.050000</speed>
<extensions>
<speed>3.0</speed>
<temp>0.00</temp>
<bpm>0</bpm>
<rpm>0.00</rpm>
</extensions>
</trkpt>
<trkpt lat="30.864221573" lon="34.822715759">
<ele>551.093750</ele>
<time>2013-11-21T08:10:27Z</time>
<speed>2.930000</speed>
<extensions>
<speed>2.9</speed>
<temp>0.00</temp>
<bpm>0</bpm>
<rpm>0.00</rpm>
</extensions>
</trkpt>
<trkpt lat="30.864246368" lon="34.822887421">
<ele>549.687500</ele>
<time>2013-11-21T08:10:32Z</time>
<speed>3.170000</speed>
<extensions>
<speed>3.2</speed>
<temp>0.00</temp>
<bpm>0</bpm>
<rpm>0.00</rpm>
</extensions>
</trkpt>
<trkpt lat="30.864257813" lon="34.823009491">
<ele>548.953125</ele>
<time>2013-11-21T08:10:37Z</time>
<speed>2.520000</speed>
<extensions>
<speed>2.5</speed>
<temp>0.00</temp>
<bpm>0</bpm>
<rpm>0.00</rpm>
</extensions>
</trkpt>
<trkpt lat="30.864284515" lon="34.823089600">
<ele>551.078125</ele>
<time>2013-11-21T08:10:42Z</time>
<speed>0.150000</speed>
<extensions>
<speed>0.2</speed>
<temp>0.00</temp>
<bpm>0</bpm>
<rpm>0.00</rpm>
</extensions>
</trkpt>
<trkpt lat="30.864288330" lon="34.823097229">
<ele>551.281250</ele>
<time>2013-11-21T08:10:47Z</time>
<speed>0.030000</speed>
<extensions>
<speed>0.0</speed>
<temp>0.00</temp>
<bpm>0</bpm>
<rpm>0.00</rpm>
</extensions>
</trkpt>
<trkpt lat="30.864286423" lon="34.823097229">
<ele>551.453125</ele>
<time>2013-11-21T08:10:52Z</time>
<speed>0.070000</speed>
<extensions>
<speed>0.1</speed>
<temp>0.00</temp>
<bpm>0</bpm>
<rpm>0.00</rpm>
</extensions>
</trkpt>
<trkpt lat="30.864284515" lon="34.823097229">
<ele>551.593750</ele>
<time>2013-11-21T08:10:57Z</time>
<speed>0.040000</speed>
<extensions>
<speed>0.0</speed>
<temp>0.00</temp>
<bpm>0</bpm>
<rpm>0.00</rpm>
</extensions>
</trkpt>
<trkpt lat="30.864286423" lon="34.823097229">
<ele>551.593750</ele>
<time>2013-11-21T08:11:02Z</time>
<speed>0.090000</speed>
<extensions>
<speed>0.1</speed>
<temp>0.00</temp>
<bpm>0</bpm>
<rpm>0.00</rpm>
</extensions>
</trkpt>
<trkpt lat="30.864284515" lon="34.823097229">
<ele>551.625000</ele>
<time>2013-11-21T08:11:07Z</time>
<extensions>
<speed>0.0</speed>
<temp>0.00</temp>
<bpm>0</bpm>
<rpm>0.00</rpm>
</extensions>
</trkpt>
<trkpt lat="30.864284515" lon="34.823097229">
<ele>551.718750</ele>
<time>2013-11-21T08:11:12Z</time>
<speed>0.020000</speed>
<extensions>
<speed>0.0</speed>
<temp>0.00</temp>
<bpm>0</bpm>
<rpm>0.00</rpm>
</extensions>
</trkpt>
<trkpt lat="30.864280701" lon="34.823097229">
<ele>551.765625</ele>
<time>2013-11-21T08:11:17Z</time>
<speed>0.100000</speed>
<extensions>
<speed>0.1</speed>
<temp>0.00</temp>
<bpm>0</bpm>
<rpm>0.00</rpm>
</extensions>
</trkpt>
<trkpt lat="30.864280701" lon="34.823097229">
<ele>551.750000</ele>
<time>2013-11-21T08:11:22Z</time>
<speed>0.020000</speed>
<extensions>
<speed>0.0</speed>
<temp>0.00</temp>
<bpm>0</bpm>
<rpm>0.00</rpm>
</extensions>
</trkpt>
<trkpt lat="30.864280701" lon="34.823097229">
<ele>551.734375</ele>
<time>2013-11-21T08:11:27Z</time>
<extensions>
<speed>0.0</speed>
<temp>0.00</temp>
<bpm>0</bpm>
<rpm>0.00</rpm>
</extensions>
</trkpt>
<trkpt lat="30.864280701" lon="34.823097229">
<ele>551.765625</ele>
<time>2013-11-21T08:11:32Z</time>
<speed>0.020000</speed>
<extensions>
<speed>0.0</speed>
<temp>0.00</temp>
<bpm>0</bpm>
<rpm>0.00</rpm>
</extensions>
</trkpt>
<trkpt lat="30.864280701" lon="34.823093414">
<ele>551.796875</ele>
<time>2013-11-21T08:11:37Z</time>
<extensions>
<speed>0.0</speed>
<temp>0.00</temp>
<bpm>0</bpm>
<rpm>0.00</rpm>
</extensions>
</trkpt>
<trkpt lat="30.864280701" lon="34.823093414">
<ele>551.796875</ele>
<time>2013-11-21T08:11:42Z</time>
<speed>0.010000</speed>
<extensions>
<speed>0.0</speed>
<temp>0.00</temp>
<bpm>0</bpm>
<rpm>0.00</rpm>
</extensions>
</trkpt>
<trkpt lat="30.864280701" lon="34.823093414">
<ele>551.781250</ele>
<time>2013-11-21T08:11:47Z</time>
<speed>0.020000</speed>
<extensions>
<speed>0.0</speed>
<temp>0.00</temp>
<bpm>0</bpm>
<rpm>0.00</rpm>
</extensions>
</trkpt>
<trkpt lat="30.864280701" lon="34.823093414">
<ele>551.781250</ele>
<time>2013-11-21T08:11:52Z</time>
<speed>0.010000</speed>
<extensions>
<speed>0.0</speed>
<temp>0.00</temp>
<bpm>0</bpm>
<rpm>0.00</rpm>
</extensions>
</trkpt>
<trkpt lat="30.864280701" lon="34.823093414">
<ele>551.765625</ele>
<time>2013-11-21T08:11:57Z</time>
<speed>0.070000</speed>
<extensions>
<speed>0.1</speed>
<temp>0.00</temp>
<bpm>0</bpm>
<rpm>0.00</rpm>
</extensions>
</trkpt>
<trkpt lat="30.864280701" lon="34.823097229">
<ele>551.750000</ele>
<time>2013-11-21T08:12:02Z</time>
<speed>0.260000</speed>
<extensions>
<speed>0.3</speed>
<temp>0.00</temp>
<bpm>0</bpm>
<rpm>0.00</rpm>
</extensions>
</trkpt>
<trkpt lat="30.864267349" lon="34.823177338">
<ele>551.875000</ele>
<time>2013-11-21T08:12:07Z</time>
<speed>2.110000</speed>
<extensions>
<speed>2.1</speed>
<temp>0.00</temp>
<bpm>0</bpm>
<rpm>0.00</rpm>
</extensions>
</trkpt>
<trkpt lat="30.864253998" lon="34.823371887">
<ele>549.906250</ele>
<time>2013-11-21T08:12:12Z</time>
<speed>3.390000</speed>
<extensions>
<speed>3.4</speed>
<temp>0.00</temp>
<bpm>0</bpm>
<rpm>0.00</rpm>
</extensions>
</trkpt>
<trkpt lat="30.864236832" lon="34.823570251">
<ele>547.906250</ele>
<time>2013-11-21T08:12:17Z</time>
<speed>2.980000</speed>
<extensions>
<speed>3.0</speed>
<temp>0.00</temp>
<bpm>0</bpm>
<rpm>0.00</rpm>
</extensions>
</trkpt>
<trkpt lat="30.864231110" lon="34.823719025">
<ele>546.921875</ele>
<time>2013-11-21T08:12:22Z</time>
<speed>2.070000</speed>
<extensions>
<speed>2.1</speed>
<temp>0.00</temp>
<bpm>0</bpm>
<rpm>0.00</rpm>
</extensions>
</trkpt>
<trkpt lat="30.864233017" lon="34.823860168">
<ele>545.250000</ele>
<time>2013-11-21T08:12:27Z</time>
<speed>2.110000</speed>
<extensions>
<speed>2.1</speed>
<temp>0.00</temp>
<bpm>0</bpm>
<rpm>0.00</rpm>
</extensions>
</trkpt>
<trkpt lat="30.864233017" lon="34.823970795">
<ele>544.468750</ele>
<time>2013-11-21T08:12:32Z</time>
<speed>1.790000</speed>
<extensions>
<speed>1.8</speed>
<temp>0.00</temp>
<bpm>0</bpm>
<rpm>0.00</rpm>
</extensions>
</trkpt>
<trkpt lat="30.864242554" lon="34.824092865">
<ele>543.281250</ele>
<time>2013-11-21T08:12:37Z</time>
<speed>3.080000</speed>
<extensions>
<speed>3.1</speed>
<temp>0.00</temp>
<bpm>0</bpm>
<rpm>0.00</rpm>
</extensions>
</trkpt>
<trkpt lat="30.864238739" lon="34.824298859">
<ele>543.156250</ele>
<time>2013-11-21T08:12:42Z</time>
<speed>3.570000</speed>
<extensions>
<speed>3.6</speed>
<temp>0.00</temp>
<bpm>0</bpm>
<rpm>0.00</rpm>
</extensions>
</trkpt>
<trkpt lat="30.864233017" lon="34.824516296">
<ele>544.328125</ele>
<time>2013-11-21T08:12:47Z</time>
<speed>4.950000</speed>
<extensions>
<speed>4.9</speed>
<temp>0.00</temp>
<bpm>0</bpm>
<rpm>0.00</rpm>
</extensions>
</trkpt>
<trkpt lat="30.864217758" lon="34.824691772">
<ele>542.250000</ele>
<time>2013-11-21T08:12:52Z</time>
<speed>1.270000</speed>
<extensions>
<speed>1.3</speed>
<temp>0.00</temp>
<bpm>0</bpm>
<rpm>0.00</rpm>
</extensions>
</trkpt>
<trkpt lat="30.864215851" lon="34.824707031">
<ele>542.156250</ele>
<time>2013-11-21T08:12:57Z</time>
<speed>0.410000</speed>
<extensions>
<speed>0.4</speed>
<temp>0.00</temp>
<bpm>0</bpm>
<rpm>0.00</rpm>
</extensions>
</trkpt>
<trkpt lat="30.864206314" lon="34.824722290">
<ele>541.359375</ele>
<time>2013-11-21T08:13:02Z</time>
<speed>0.190000</speed>
<extensions>
<speed>0.2</speed>
<temp>0.00</temp>
<bpm>0</bpm>
<rpm>0.00</rpm>
</extensions>
</trkpt>
<trkpt lat="30.864202499" lon="34.824733734">
<ele>540.593750</ele>
<time>2013-11-21T08:13:07Z</time>
<speed>0.210000</speed>
<extensions>
<speed>0.2</speed>
<temp>0.00</temp>
<bpm>0</bpm>
<rpm>0.00</rpm>
</extensions>
</trkpt>
<trkpt lat="30.864196777" lon="34.824737549">
<ele>539.875000</ele>
<time>2013-11-21T08:13:12Z</time>
<speed>0.120000</speed>
<extensions>
<speed>0.1</speed>
<temp>0.00</temp>
<bpm>0</bpm>
<rpm>0.00</rpm>
</extensions>
</trkpt>
<trkpt lat="30.864191055" lon="34.824741364">
<ele>539.171875</ele>
<time>2013-11-21T08:13:17Z</time>
<speed>0.070000</speed>
<extensions>
<speed>0.1</speed>
<temp>0.00</temp>
<bpm>0</bpm>
<rpm>0.00</rpm>
</extensions>
</trkpt>
<trkpt lat="30.864191055" lon="34.824741364">
<ele>538.515625</ele>
<time>2013-11-21T08:13:22Z</time>
<speed>0.040000</speed>
<extensions>
<speed>0.0</speed>
<temp>0.00</temp>
<bpm>0</bpm>
<rpm>0.00</rpm>
</extensions>
</trkpt>
<trkpt lat="30.864192963" lon="34.824737549">
<ele>537.953125</ele>
<time>2013-11-21T08:13:27Z</time>
<speed>0.090000</speed>
<extensions>
<speed>0.1</speed>
<temp>0.00</temp>
<bpm>0</bpm>
<rpm>0.00</rpm>
</extensions>
</trkpt>
<trkpt lat="30.864191055" lon="34.824733734">
<ele>537.484375</ele>
<time>2013-11-21T08:13:32Z</time>
<speed>0.140000</speed>
<extensions>
<speed>0.1</speed>
<temp>0.00</temp>
<bpm>0</bpm>
<rpm>0.00</rpm>
</extensions>
</trkpt>
<trkpt lat="30.864187241" lon="34.824729919">
<ele>537.015625</ele>
<time>2013-11-21T08:13:37Z</time>
<speed>0.040000</speed>
<extensions>
<speed>0.0</speed>
<temp>0.00</temp>
<bpm>0</bpm>
<rpm>0.00</rpm>
</extensions>
</trkpt>
<trkpt lat="30.864189148" lon="34.824726105">
<ele>536.609375</ele>
<time>2013-11-21T08:13:42Z</time>
<speed>0.070000</speed>
<extensions>
<speed>0.1</speed>
<temp>0.00</temp>
<bpm>0</bpm>
<rpm>0.00</rpm>
</extensions>
</trkpt>
<trkpt lat="30.864189148" lon="34.824722290">
<ele>536.390625</ele>
<time>2013-11-21T08:13:47Z</time>
<speed>0.010000</speed>
<extensions>
<speed>0.0</speed>
<temp>0.00</temp>
<bpm>0</bpm>
<rpm>0.00</rpm>
</extensions>
</trkpt>
<trkpt lat="30.864189148" lon="34.824722290">
<ele>536.406250</ele>
<time>2013-11-21T08:13:52Z</time>
<extensions>
<speed>0.0</speed>
<temp>0.00</temp>
<bpm>0</bpm>
<rpm>0.00</rpm>
</extensions>
</trkpt>
<trkpt lat="30.864189148" lon="34.824722290">
<ele>536.390625</ele>
<time>2013-11-21T08:13:57Z</time>
<speed>0.030000</speed>
<extensions>
<speed>0.0</speed>
<temp>0.00</temp>
<bpm>0</bpm>
<rpm>0.00</rpm>
</extensions>
</trkpt>
<trkpt lat="30.864189148" lon="34.824722290">
<ele>536.421875</ele>
<time>2013-11-21T08:14:02Z</time>
<speed>0.020000</speed>
<extensions>
<speed>0.0</speed>
<temp>0.00</temp>
<bpm>0</bpm>
<rpm>0.00</rpm>
</extensions>
</trkpt>
<trkpt lat="30.864189148" lon="34.824722290">
<ele>536.421875</ele>
<time>2013-11-21T08:14:07Z</time>
<speed>0.050000</speed>
<extensions>
<speed>0.1</speed>
<temp>0.00</temp>
<bpm>0</bpm>
<rpm>0.00</rpm>
</extensions>
</trkpt>
<trkpt lat="30.864189148" lon="34.824722290">
<ele>536.453125</ele>
<time>2013-11-21T08:14:12Z</time>
<speed>0.100000</speed>
<extensions>
<speed>0.1</speed>
<temp>0.00</temp>
<bpm>0</bpm>
<rpm>0.00</rpm>
</extensions>
</trkpt>
<trkpt lat="30.864187241" lon="34.824729919">
<ele>536.484375</ele>
<time>2013-11-21T08:14:17Z</time>
<speed>0.350000</speed>
<extensions>
<speed>0.3</speed>
<temp>0.00</temp>
<bpm>0</bpm>
<rpm>0.00</rpm>
</extensions>
</trkpt>
<trkpt lat="30.864179611" lon="34.824775696">
<ele>536.515625</ele>
<time>2013-11-21T08:14:22Z</time>
<speed>1.570000</speed>
<extensions>
<speed>1.6</speed>
<temp>0.00</temp>
<bpm>0</bpm>
<rpm>0.00</rpm>
</extensions>
</trkpt>
<trkpt lat="30.864156723" lon="34.824993134">
<ele>537.046875</ele>
<time>2013-11-21T08:14:27Z</time>
<speed>4.220000</speed>
<extensions>
<speed>4.2</speed>
<temp>0.00</temp>
<bpm>0</bpm>
<rpm>0.00</rpm>
</extensions>
</trkpt>
<trkpt lat="30.864147186" lon="34.825195313">
<ele>538.593750</ele>
<time>2013-11-21T08:14:32Z</time>
<speed>1.670000</speed>
<extensions>
<speed>1.7</speed>
<temp>0.00</temp>
<bpm>0</bpm>
<rpm>0.00</rpm>
</extensions>
</trkpt>
<trkpt lat="30.864145279" lon="34.825283051">
<ele>539.640625</ele>
<time>2013-11-21T08:14:37Z</time>
<speed>1.490000</speed>
<extensions>
<speed>1.5</speed>
<temp>0.00</temp>
<bpm>0</bpm>
<rpm>0.00</rpm>
</extensions>
</trkpt>
<trkpt lat="30.864149094" lon="34.825397491">
<ele>539.562500</ele>
<time>2013-11-21T08:14:42Z</time>
<speed>1.360000</speed>
<extensions>
<speed>1.4</speed>
<temp>0.00</temp>
<bpm>0</bpm>
<rpm>0.00</rpm>
</extensions>
</trkpt>
<trkpt lat="30.864145279" lon="34.825534821">
<ele>539.390625</ele>
<time>2013-11-21T08:14:47Z</time>
<speed>3.080000</speed>
<extensions>
<speed>3.1</speed>
<temp>0.00</temp>
<bpm>0</bpm>
<rpm>0.00</rpm>
</extensions>
</trkpt>
<trkpt lat="30.864177704" lon="34.825790405">
<ele>539.828125</ele>
<time>2013-11-21T08:14:52Z</time>
<speed>6.160000</speed>
<extensions>
<speed>6.2</speed>
<temp>0.00</temp>
<bpm>0</bpm>
<rpm>0.00</rpm>
</extensions>
</trkpt>
<trkpt lat="30.864183426" lon="34.826232910">
<ele>540.968750</ele>
<time>2013-11-21T08:14:57Z</time>
<speed>9.000000</speed>
<extensions>
<speed>9.0</speed>
<temp>0.00</temp>
<bpm>0</bpm>
<rpm>0.00</rpm>
</extensions>
</trkpt>
<trkpt lat="30.864191055" lon="34.826526642">
<ele>541.125000</ele>
<time>2013-11-21T08:15:02Z</time>
<speed>2.630000</speed>
<extensions>
<speed>2.6</speed>
<temp>0.00</temp>
<bpm>0</bpm>
<rpm>0.00</rpm>
</extensions>
</trkpt>
<trkpt lat="30.864208221" lon="34.826614380">
<ele>542.281250</ele>
<time>2013-11-21T08:15:07Z</time>
<speed>1.790000</speed>
<extensions>
<speed>1.8</speed>
<temp>0.00</temp>
<bpm>0</bpm>
<rpm>0.00</rpm>
</extensions>
</trkpt>
<trkpt lat="30.864206314" lon="34.826766968">
<ele>543.234375</ele>
<time>2013-11-21T08:15:12Z</time>
<speed>4.360000</speed>
<extensions>
<speed>4.4</speed>
<temp>0.00</temp>
<bpm>0</bpm>
<rpm>0.00</rpm>
</extensions>
</trkpt>
<trkpt lat="30.864212036" lon="34.827095032">
<ele>543.968750</ele>
<time>2013-11-21T08:15:17Z</time>
<speed>7.090000</speed>
<extensions>
<speed>7.1</speed>
<temp>0.00</temp>
<bpm>0</bpm>
<rpm>0.00</rpm>
</extensions>
</trkpt>
<trkpt lat="30.864200592" lon="34.827308655">
<ele>545.312500</ele>
<time>2013-11-21T08:15:22Z</time>
<speed>1.660000</speed>
<extensions>
<speed>1.7</speed>
<temp>0.00</temp>
<bpm>0</bpm>
<rpm>0.00</rpm>
</extensions>
</trkpt>
<trkpt lat="30.864206314" lon="34.827396393">
<ele>546.796875</ele>
<time>2013-11-21T08:15:27Z</time>
<speed>1.880000</speed>
<extensions>
<speed>1.9</speed>
<temp>0.00</temp>
<bpm>0</bpm>
<rpm>0.00</rpm>
</extensions>
</trkpt>
<trkpt lat="30.864206314" lon="34.827472687">
<ele>547.453125</ele>
<time>2013-11-21T08:15:32Z</time>
<speed>1.680000</speed>
<extensions>
<speed>1.7</speed>
<temp>0.00</temp>
<bpm>0</bpm>
<rpm>0.00</rpm>
</extensions>
</trkpt>
<trkpt lat="30.864223480" lon="34.827598572">
<ele>548.390625</ele>
<time>2013-11-21T08:15:37Z</time>
<speed>2.730000</speed>
<extensions>
<speed>2.7</speed>
<temp>0.00</temp>
<bpm>0</bpm>
<rpm>0.00</rpm>
</extensions>
</trkpt>
<trkpt lat="30.864212036" lon="34.827693939">
<ele>548.953125</ele>
<time>2013-11-21T08:15:42Z</time>
<speed>2.300000</speed>
<extensions>
<speed>2.3</speed>
<temp>0.00</temp>
<bpm>0</bpm>
<rpm>0.00</rpm>
</extensions>
</trkpt>
<trkpt lat="30.864208221" lon="34.827808380">
<ele>549.062500</ele>
<time>2013-11-21T08:15:47Z</time>
<speed>2.550000</speed>
<extensions>
<speed>2.6</speed>
<temp>0.00</temp>
<bpm>0</bpm>
<rpm>0.00</rpm>
</extensions>
</trkpt>
<trkpt lat="30.864225388" lon="34.827938080">
<ele>548.234375</ele>
<time>2013-11-21T08:15:52Z</time>
<speed>2.400000</speed>
<extensions>
<speed>2.4</speed>
<temp>0.00</temp>
<bpm>0</bpm>
<rpm>0.00</rpm>
</extensions>
</trkpt>
<trkpt lat="30.864221573" lon="34.828056335">
<ele>549.062500</ele>
<time>2013-11-21T08:15:57Z</time>
<speed>2.420000</speed>
<extensions>
<speed>2.4</speed>
<temp>0.00</temp>
<bpm>0</bpm>
<rpm>0.00</rpm>
</extensions>
</trkpt>
<trkpt lat="30.864229202" lon="34.828159332">
<ele>548.796875</ele>
<time>2013-11-21T08:16:02Z</time>
<speed>1.830000</speed>
<extensions>
<speed>1.8</speed>
<temp>0.00</temp>
<bpm>0</bpm>
<rpm>0.00</rpm>
</extensions>
</trkpt>
<trkpt lat="30.864210129" lon="34.828258514">
<ele>549.437500</ele>
<time>2013-11-21T08:16:07Z</time>
<speed>2.030000</speed>
<extensions>
<speed>2.0</speed>
<temp>0.00</temp>
<bpm>0</bpm>
<rpm>0.00</rpm>
</extensions>
</trkpt>
<trkpt lat="30.864217758" lon="34.828346252">
<ele>551.625000</ele>
<time>2013-11-21T08:16:12Z</time>
<speed>1.680000</speed>
<extensions>
<speed>1.7</speed>
<temp>0.00</temp>
<bpm>0</bpm>
<rpm>0.00</rpm>
</extensions>
</trkpt>
<trkpt lat="30.864212036" lon="34.828433990">
<ele>551.937500</ele>
<time>2013-11-21T08:16:17Z</time>
<speed>2.010000</speed>
<extensions>
<speed>2.0</speed>
<temp>0.00</temp>
<bpm>0</bpm>
<rpm>0.00</rpm>
</extensions>
</trkpt>
<trkpt lat="30.864213943" lon="34.828544617">
<ele>551.187500</ele>
<time>2013-11-21T08:16:22Z</time>
<speed>2.320000</speed>
<extensions>
<speed>2.3</speed>
<temp>0.00</temp>
<bpm>0</bpm>
<rpm>0.00</rpm>
</extensions>
</trkpt>
<trkpt lat="30.864215851" lon="34.828662872">
<ele>550.703125</ele>
<time>2013-11-21T08:16:27Z</time>
<speed>2.300000</speed>
<extensions>
<speed>2.3</speed>
<temp>0.00</temp>
<bpm>0</bpm>
<rpm>0.00</rpm>
</extensions>
</trkpt>
<trkpt lat="30.864246368" lon="34.828788757">
<ele>550.828125</ele>
<time>2013-11-21T08:16:32Z</time>
<speed>2.530000</speed>
<extensions>
<speed>2.5</speed>
<temp>0.00</temp>
<bpm>0</bpm>
<rpm>0.00</rpm>
</extensions>
</trkpt>
<trkpt lat="30.864252090" lon="34.828926086">
<ele>550.703125</ele>
<time>2013-11-21T08:16:37Z</time>
<speed>2.740000</speed>
<extensions>
<speed>2.7</speed>
<temp>0.00</temp>
<bpm>0</bpm>
<rpm>0.00</rpm>
</extensions>
</trkpt>
<trkpt lat="30.864248276" lon="34.829044342">
<ele>552.546875</ele>
<time>2013-11-21T08:16:42Z</time>
<speed>2.710000</speed>
<extensions>
<speed>2.7</speed>
<temp>0.00</temp>
<bpm>0</bpm>
<rpm>0.00</rpm>
</extensions>
</trkpt>
<trkpt lat="30.864240646" lon="34.829170227">
<ele>555.093750</ele>
<time>2013-11-21T08:16:47Z</time>
<speed>2.920000</speed>
<extensions>
<speed>2.9</speed>
<temp>0.00</temp>
<bpm>0</bpm>
<rpm>0.00</rpm>
</extensions>
</trkpt>
<trkpt lat="30.864250183" lon="34.829315186">
<ele>556.484375</ele>
<time>2013-11-21T08:16:52Z</time>
<speed>2.500000</speed>
<extensions>
<speed>2.5</speed>
<temp>0.00</temp>
<bpm>0</bpm>
<rpm>0.00</rpm>
</extensions>
</trkpt>
<trkpt lat="30.864273071" lon="34.829444885">
<ele>555.515625</ele>
<time>2013-11-21T08:16:57Z</time>
<speed>2.040000</speed>
<extensions>
<speed>2.0</speed>
<temp>0.00</temp>
<bpm>0</bpm>
<rpm>0.00</rpm>
</extensions>
</trkpt>
<trkpt lat="30.864253998" lon="34.829566956">
<ele>557.843750</ele>
<time>2013-11-21T08:17:02Z</time>
<speed>1.980000</speed>
<extensions>
<speed>2.0</speed>
<temp>0.00</temp>
<bpm>0</bpm>
<rpm>0.00</rpm>
</extensions>
</trkpt>
<trkpt lat="30.864265442" lon="34.829673767">
<ele>558.281250</ele>
<time>2013-11-21T08:17:07Z</time>
<speed>1.640000</speed>
<extensions>
<speed>1.6</speed>
<temp>0.00</temp>
<bpm>0</bpm>
<rpm>0.00</rpm>
</extensions>
</trkpt>
<trkpt lat="30.864267349" lon="34.829765320">
<ele>557.687500</ele>
<time>2013-11-21T08:17:12Z</time>
<speed>2.130000</speed>
<extensions>
<speed>2.1</speed>
<temp>0.00</temp>
<bpm>0</bpm>
<rpm>0.00</rpm>
</extensions>
</trkpt>
<trkpt lat="30.864255905" lon="34.829879761">
<ele>556.484375</ele>
<time>2013-11-21T08:17:17Z</time>
<speed>2.020000</speed>
<extensions>
<speed>2.0</speed>
<temp>0.00</temp>
<bpm>0</bpm>
<rpm>0.00</rpm>
</extensions>
</trkpt>
<trkpt lat="30.864261627" lon="34.829998016">
<ele>556.000000</ele>
<time>2013-11-21T08:17:22Z</time>
<speed>2.030000</speed>
<extensions>
<speed>2.0</speed>
<temp>0.00</temp>
<bpm>0</bpm>
<rpm>0.00</rpm>
</extensions>
</trkpt>
<trkpt lat="30.864280701" lon="34.830120087">
<ele>556.640625</ele>
<time>2013-11-21T08:17:27Z</time>
<speed>2.680000</speed>
<extensions>
<speed>2.7</speed>
<temp>0.00</temp>
<bpm>0</bpm>
<rpm>0.00</rpm>
</extensions>
</trkpt>
<trkpt lat="30.864271164" lon="34.830253601">
<ele>558.218750</ele>
<time>2013-11-21T08:17:32Z</time>
<speed>2.630000</speed>
<extensions>
<speed>2.6</speed>
<temp>0.00</temp>
<bpm>0</bpm>
<rpm>0.00</rpm>
</extensions>
</trkpt>
<trkpt lat="30.864229202" lon="34.830364227">
<ele>559.046875</ele>
<time>2013-11-21T08:17:37Z</time>
<speed>2.490000</speed>
<extensions>
<speed>2.5</speed>
<temp>0.00</temp>
<bpm>0</bpm>
<rpm>0.00</rpm>
</extensions>
</trkpt>
<trkpt lat="30.864231110" lon="34.830478668">
<ele>558.890625</ele>
<time>2013-11-21T08:17:42Z</time>
<speed>2.230000</speed>
<extensions>
<speed>2.2</speed>
<temp>0.00</temp>
<bpm>0</bpm>
<rpm>0.00</rpm>
</extensions>
</trkpt>
<trkpt lat="30.864229202" lon="34.830558777">
<ele>560.296875</ele>
<time>2013-11-21T08:17:47Z</time>
<speed>1.660000</speed>
<extensions>
<speed>1.7</speed>
<temp>0.00</temp>
<bpm>0</bpm>
<rpm>0.00</rpm>
</extensions>
</trkpt>
<trkpt lat="30.864252090" lon="34.830642700">
<ele>558.500000</ele>
<time>2013-11-21T08:17:52Z</time>
<speed>1.410000</speed>
<extensions>
<speed>1.4</speed>
<temp>0.00</temp>
<bpm>0</bpm>
<rpm>0.00</rpm>
</extensions>
</trkpt>
<trkpt lat="30.864267349" lon="34.830699921">
<ele>558.890625</ele>
<time>2013-11-21T08:17:57Z</time>
<speed>1.170000</speed>
<extensions>
<speed>1.2</speed>
<temp>0.00</temp>
<bpm>0</bpm>
<rpm>0.00</rpm>
</extensions>
</trkpt>
<trkpt lat="30.864273071" lon="34.830764771">
<ele>560.250000</ele>
<time>2013-11-21T08:18:02Z</time>
<speed>1.280000</speed>
<extensions>
<speed>1.3</speed>
<temp>0.00</temp>
<bpm>0</bpm>
<rpm>0.00</rpm>
</extensions>
</trkpt>
<trkpt lat="30.864257813" lon="34.830810547">
<ele>561.546875</ele>
<time>2013-11-21T08:18:07Z</time>
<speed>1.110000</speed>
<extensions>
<speed>1.1</speed>
<temp>0.00</temp>
<bpm>0</bpm>
<rpm>0.00</rpm>
</extensions>
</trkpt>
<trkpt lat="30.864273071" lon="34.830879211">
<ele>562.468750</ele>
<time>2013-11-21T08:18:12Z</time>
<speed>1.290000</speed>
<extensions>
<speed>1.3</speed>
<temp>0.00</temp>
<bpm>0</bpm>
<rpm>0.00</rpm>
</extensions>
</trkpt>
<trkpt lat="30.864288330" lon="34.830951691">
<ele>562.296875</ele>
<time>2013-11-21T08:18:17Z</time>
<speed>1.660000</speed>
<extensions>
<speed>1.7</speed>
<temp>0.00</temp>
<bpm>0</bpm>
<rpm>0.00</rpm>
</extensions>
</trkpt>
<trkpt lat="30.864286423" lon="34.831012726">
<ele>564.031250</ele>
<time>2013-11-21T08:18:22Z</time>
<speed>1.130000</speed>
<extensions>
<speed>1.1</speed>
<temp>0.00</temp>
<bpm>0</bpm>
<rpm>0.00</rpm>
</extensions>
</trkpt>
<trkpt lat="30.864294052" lon="34.831100464">
<ele>566.140625</ele>
<time>2013-11-21T08:18:27Z</time>
<speed>1.280000</speed>
<extensions>
<speed>1.3</speed>
<temp>0.00</temp>
<bpm>0</bpm>
<rpm>0.00</rpm>
</extensions>
</trkpt>
<trkpt lat="30.864278793" lon="34.831169128">
<ele>567.406250</ele>
<time>2013-11-21T08:18:32Z</time>
<speed>1.450000</speed>
<extensions>
<speed>1.4</speed>
<temp>0.00</temp>
<bpm>0</bpm>
<rpm>0.00</rpm>
</extensions>
</trkpt>
<trkpt lat="30.864257813" lon="34.831230164">
<ele>568.578125</ele>
<time>2013-11-21T08:18:37Z</time>
<speed>1.150000</speed>
<extensions>
<speed>1.1</speed>
<temp>0.00</temp>
<bpm>0</bpm>
<rpm>0.00</rpm>
</extensions>
</trkpt>
<trkpt lat="30.864261627" lon="34.831279755">
<ele>571.437500</ele>
<time>2013-11-21T08:18:42Z</time>
<speed>1.130000</speed>
<extensions>
<speed>1.1</speed>
<temp>0.00</temp>
<bpm>0</bpm>
<rpm>0.00</rpm>
</extensions>
</trkpt>
<trkpt lat="30.864278793" lon="34.831336975">
<ele>572.671875</ele>
<time>2013-11-21T08:18:47Z</time>
<speed>1.350000</speed>
<extensions>
<speed>1.4</speed>
<temp>0.00</temp>
<bpm>0</bpm>
<rpm>0.00</rpm>
</extensions>
</trkpt>
<trkpt lat="30.864265442" lon="34.831401825">
<ele>574.343750</ele>
<time>2013-11-21T08:18:52Z</time>
<speed>1.350000</speed>
<extensions>
<speed>1.4</speed>
<temp>0.00</temp>
<bpm>0</bpm>
<rpm>0.00</rpm>
</extensions>
</trkpt>
<trkpt lat="30.864259720" lon="34.831470490">
<ele>574.171875</ele>
<time>2013-11-21T08:18:57Z</time>
<speed>1.430000</speed>
<extensions>
<speed>1.4</speed>
<temp>0.00</temp>
<bpm>0</bpm>
<rpm>0.00</rpm>
</extensions>
</trkpt>
<trkpt lat="30.864261627" lon="34.831546783">
<ele>574.796875</ele>
<time>2013-11-21T08:19:02Z</time>
<speed>1.530000</speed>
<extensions>
<speed>1.5</speed>
<temp>0.00</temp>
<bpm>0</bpm>
<rpm>0.00</rpm>
</extensions>
</trkpt>
<trkpt lat="30.864269257" lon="34.831619263">
<ele>576.046875</ele>
<time>2013-11-21T08:19:07Z</time>
<speed>1.580000</speed>
<extensions>
<speed>1.6</speed>
<temp>0.00</temp>
<bpm>0</bpm>
<rpm>0.00</rpm>
</extensions>
</trkpt>
<trkpt lat="30.864257813" lon="34.831691742">
<ele>576.046875</ele>
<time>2013-11-21T08:19:12Z</time>
<speed>1.490000</speed>
<extensions>
<speed>1.5</speed>
<temp>0.00</temp>
<bpm>0</bpm>
<rpm>0.00</rpm>
</extensions>
</trkpt>
<trkpt lat="30.864263535" lon="34.831748962">
<ele>576.421875</ele>
<time>2013-11-21T08:19:17Z</time>
<speed>1.190000</speed>
<extensions>
<speed>1.2</speed>
<temp>0.00</temp>
<bpm>0</bpm>
<rpm>0.00</rpm>
</extensions>
</trkpt>
<trkpt lat="30.864253998" lon="34.831813812">
<ele>577.140625</ele>
<time>2013-11-21T08:19:22Z</time>
<speed>1.240000</speed>
<extensions>
<speed>1.2</speed>
<temp>0.00</temp>
<bpm>0</bpm>
<rpm>0.00</rpm>
</extensions>
</trkpt>
<trkpt lat="30.864234924" lon="34.831871033">
<ele>578.437500</ele>
<time>2013-11-21T08:19:27Z</time>
<speed>1.650000</speed>
<extensions>
<speed>1.7</speed>
<temp>0.00</temp>
<bpm>0</bpm>
<rpm>0.00</rpm>
</extensions>
</trkpt>
<trkpt lat="30.864225388" lon="34.831939697">
<ele>579.546875</ele>
<time>2013-11-21T08:19:32Z</time>
<speed>1.150000</speed>
<extensions>
<speed>1.1</speed>
<temp>0.00</temp>
<bpm>0</bpm>
<rpm>0.00</rpm>
</extensions>
</trkpt>
<trkpt lat="30.864233017" lon="34.832023621">
<ele>581.156250</ele>
<time>2013-11-21T08:19:37Z</time>
<speed>1.810000</speed>
<extensions>
<speed>1.8</speed>
<temp>0.00</temp>
<bpm>0</bpm>
<rpm>0.00</rpm>
</extensions>
</trkpt>
<trkpt lat="30.864225388" lon="34.832115173">
<ele>581.468750</ele>
<time>2013-11-21T08:19:42Z</time>
<speed>1.940000</speed>
<extensions>
<speed>1.9</speed>
<temp>0.00</temp>
<bpm>0</bpm>
<rpm>0.00</rpm>
</extensions>
</trkpt>
<trkpt lat="30.864208221" lon="34.832180023">
<ele>581.984375</ele>
<time>2013-11-21T08:19:47Z</time>
<speed>1.130000</speed>
<extensions>
<speed>1.1</speed>
<temp>0.00</temp>
<bpm>0</bpm>
<rpm>0.00</rpm>
</extensions>
</trkpt>
<trkpt lat="30.864187241" lon="34.832271576">
<ele>582.015625</ele>
<time>2013-11-21T08:19:52Z</time>
<speed>1.740000</speed>
<extensions>
<speed>1.7</speed>
<temp>0.00</temp>
<bpm>0</bpm>
<rpm>0.00</rpm>
</extensions>
</trkpt>
<trkpt lat="30.864183426" lon="34.832359314">
<ele>582.218750</ele>
<time>2013-11-21T08:19:57Z</time>
<speed>1.630000</speed>
<extensions>
<speed>1.6</speed>
<temp>0.00</temp>
<bpm>0</bpm>
<rpm>0.00</rpm>
</extensions>
</trkpt>
<trkpt lat="30.864181519" lon="34.832439423">
<ele>582.000000</ele>
<time>2013-11-21T08:20:02Z</time>
<speed>1.400000</speed>
<extensions>
<speed>1.4</speed>
<temp>0.00</temp>
<bpm>0</bpm>
<rpm>0.00</rpm>
</extensions>
</trkpt>
<trkpt lat="30.864166260" lon="34.832519531">
<ele>582.296875</ele>
<time>2013-11-21T08:20:07Z</time>
<speed>1.470000</speed>
<extensions>
<speed>1.5</speed>
<temp>0.00</temp>
<bpm>0</bpm>
<rpm>0.00</rpm>
</extensions>
</trkpt>
<trkpt lat="30.864135742" lon="34.832572937">
<ele>582.578125</ele>
<time>2013-11-21T08:20:12Z</time>
<speed>1.380000</speed>
<extensions>
<speed>1.4</speed>
<temp>0.00</temp>
<bpm>0</bpm>
<rpm>0.00</rpm>
</extensions>
</trkpt>
<trkpt lat="30.864133835" lon="34.832622528">
<ele>583.218750</ele>
<time>2013-11-21T08:20:17Z</time>
<speed>1.150000</speed>
<extensions>
<speed>1.1</speed>
<temp>0.00</temp>
<bpm>0</bpm>
<rpm>0.00</rpm>
</extensions>
</trkpt>
<trkpt lat="30.864143372" lon="34.832683563">
<ele>582.718750</ele>
<time>2013-11-21T08:20:22Z</time>
<speed>1.440000</speed>
<extensions>
<speed>1.4</speed>
<temp>0.00</temp>
<bpm>0</bpm>
<rpm>0.00</rpm>
</extensions>
</trkpt>
<trkpt lat="30.864135742" lon="34.832756042">
<ele>583.218750</ele>
<time>2013-11-21T08:20:27Z</time>
<speed>1.110000</speed>
<extensions>
<speed>1.1</speed>
<temp>0.00</temp>
<bpm>0</bpm>
<rpm>0.00</rpm>
</extensions>
</trkpt>
<trkpt lat="30.864118576" lon="34.832817078">
<ele>583.750000</ele>
<time>2013-11-21T08:20:32Z</time>
<speed>1.440000</speed>
<extensions>
<speed>1.4</speed>
<temp>0.00</temp>
<bpm>0</bpm>
<rpm>0.00</rpm>
</extensions>
</trkpt>
<trkpt lat="30.864112854" lon="34.832889557">
<ele>585.078125</ele>
<time>2013-11-21T08:20:37Z</time>
<speed>1.370000</speed>
<extensions>
<speed>1.4</speed>
<temp>0.00</temp>
<bpm>0</bpm>
<rpm>0.00</rpm>
</extensions>
</trkpt>
<trkpt lat="30.864112854" lon="34.832962036">
<ele>585.453125</ele>
<time>2013-11-21T08:20:42Z</time>
<speed>1.360000</speed>
<extensions>
<speed>1.4</speed>
<temp>0.00</temp>
<bpm>0</bpm>
<rpm>0.00</rpm>
</extensions>
</trkpt>
<trkpt lat="30.864112854" lon="34.833019257">
<ele>584.359375</ele>
<time>2013-11-21T08:20:47Z</time>
<speed>1.220000</speed>
<extensions>
<speed>1.2</speed>
<temp>0.00</temp>
<bpm>0</bpm>
<rpm>0.00</rpm>
</extensions>
</trkpt>
<trkpt lat="30.864103317" lon="34.833084106">
<ele>584.500000</ele>
<time>2013-11-21T08:20:52Z</time>
<speed>1.210000</speed>
<extensions>
<speed>1.2</speed>
<temp>0.00</temp>
<bpm>0</bpm>
<rpm>0.00</rpm>
</extensions>
</trkpt>
<trkpt lat="30.864080429" lon="34.833148956">
<ele>585.562500</ele>
<time>2013-11-21T08:20:57Z</time>
<speed>1.320000</speed>
<extensions>
<speed>1.3</speed>
<temp>0.00</temp>
<bpm>0</bpm>
<rpm>0.00</rpm>
</extensions>
</trkpt>
<trkpt lat="30.864042282" lon="34.833209991">
<ele>585.515625</ele>
<time>2013-11-21T08:21:02Z</time>
<speed>0.980000</speed>
<extensions>
<speed>1.0</speed>
<temp>0.00</temp>
<bpm>0</bpm>
<rpm>0.00</rpm>
</extensions>
</trkpt>
<trkpt lat="30.864032745" lon="34.833282471">
<ele>586.234375</ele>
<time>2013-11-21T08:21:07Z</time>
<speed>1.860000</speed>
<extensions>
<speed>1.9</speed>
<temp>0.00</temp>
<bpm>0</bpm>
<rpm>0.00</rpm>
</extensions>
</trkpt>
<trkpt lat="30.864019394" lon="34.833362579">
<ele>587.312500</ele>
<time>2013-11-21T08:21:12Z</time>
<speed>2.240000</speed>
<extensions>
<speed>2.2</speed>
<temp>0.00</temp>
<bpm>0</bpm>
<rpm>0.00</rpm>
</extensions>
</trkpt>
<trkpt lat="30.864015579" lon="34.833473206">
<ele>587.640625</ele>
<time>2013-11-21T08:21:17Z</time>
<speed>1.990000</speed>
<extensions>
<speed>2.0</speed>
<temp>0.00</temp>
<bpm>0</bpm>
<rpm>0.00</rpm>
</extensions>
</trkpt>
<trkpt lat="30.863988876" lon="34.833572388">
<ele>588.000000</ele>
<time>2013-11-21T08:21:22Z</time>
<speed>2.460000</speed>
<extensions>
<speed>2.5</speed>
<temp>0.00</temp>
<bpm>0</bpm>
<rpm>0.00</rpm>
</extensions>
</trkpt>
<trkpt lat="30.863967896" lon="34.833644867">
<ele>587.859375</ele>
<time>2013-11-21T08:21:27Z</time>
<speed>0.330000</speed>
<extensions>
<speed>0.3</speed>
<temp>0.00</temp>
<bpm>0</bpm>
<rpm>0.00</rpm>
</extensions>
</trkpt>
<trkpt lat="30.863964081" lon="34.833660126">
<ele>586.656250</ele>
<time>2013-11-21T08:21:32Z</time>
<speed>0.090000</speed>
<extensions>
<speed>0.1</speed>
<temp>0.00</temp>
<bpm>0</bpm>
<rpm>0.00</rpm>
</extensions>
</trkpt>
<trkpt lat="30.863960266" lon="34.833667755">
<ele>587.093750</ele>
<time>2013-11-21T08:21:37Z</time>
<speed>0.120000</speed>
<extensions>
<speed>0.1</speed>
<temp>0.00</temp>
<bpm>0</bpm>
<rpm>0.00</rpm>
</extensions>
</trkpt>
<trkpt lat="30.863954544" lon="34.833667755">
<ele>587.562500</ele>
<time>2013-11-21T08:21:42Z</time>
<speed>0.140000</speed>
<extensions>
<speed>0.1</speed>
<temp>0.00</temp>
<bpm>0</bpm>
<rpm>0.00</rpm>
</extensions>
</trkpt>
<trkpt lat="30.863950729" lon="34.833675385">
<ele>587.984375</ele>
<time>2013-11-21T08:21:47Z</time>
<speed>0.310000</speed>
<extensions>
<speed>0.3</speed>
<temp>0.00</temp>
<bpm>0</bpm>
<rpm>0.00</rpm>
</extensions>
</trkpt>
<trkpt lat="30.863967896" lon="34.833778381">
<ele>588.093750</ele>
<time>2013-11-21T08:21:52Z</time>
<speed>2.140000</speed>
<extensions>
<speed>2.1</speed>
<temp>0.00</temp>
<bpm>0</bpm>
<rpm>0.00</rpm>
</extensions>
</trkpt>
<trkpt lat="30.864007950" lon="34.833919525">
<ele>588.140625</ele>
<time>2013-11-21T08:21:57Z</time>
<speed>3.000000</speed>
<extensions>
<speed>3.0</speed>
<temp>0.00</temp>
<bpm>0</bpm>
<rpm>0.00</rpm>
</extensions>
</trkpt>
<trkpt lat="30.864049911" lon="34.834232330">
<ele>584.843750</ele>
<time>2013-11-21T08:22:02Z</time>
<speed>7.130000</speed>
<extensions>
<speed>7.1</speed>
<temp>0.00</temp>
<bpm>0</bpm>
<rpm>0.00</rpm>
</extensions>
</trkpt>
<trkpt lat="30.864131927" lon="34.834579468">
<ele>583.250000</ele>
<time>2013-11-21T08:22:07Z</time>
<speed>5.070000</speed>
<extensions>
<speed>5.1</speed>
<temp>0.00</temp>
<bpm>0</bpm>
<rpm>0.00</rpm>
</extensions>
</trkpt>
<trkpt lat="30.864143372" lon="34.834770203">
<ele>581.156250</ele>
<time>2013-11-21T08:22:12Z</time>
<speed>3.120000</speed>
<extensions>
<speed>3.1</speed>
<temp>0.00</temp>
<bpm>0</bpm>
<rpm>0.00</rpm>
</extensions>
</trkpt>
<trkpt lat="30.864133835" lon="34.834926605">
<ele>579.968750</ele>
<time>2013-11-21T08:22:17Z</time>
<speed>3.210000</speed>
<extensions>
<speed>3.2</speed>
<temp>0.00</temp>
<bpm>0</bpm>
<rpm>0.00</rpm>
</extensions>
</trkpt>
<trkpt lat="30.864185333" lon="34.835041046">
<ele>578.203125</ele>
<time>2013-11-21T08:22:22Z</time>
<speed>0.540000</speed>
<extensions>
<speed>0.5</speed>
<temp>0.00</temp>
<bpm>0</bpm>
<rpm>0.00</rpm>
</extensions>
</trkpt>
<trkpt lat="30.864210129" lon="34.835063934">
<ele>576.843750</ele>
<time>2013-11-21T08:22:27Z</time>
<speed>1.340000</speed>
<extensions>
<speed>1.3</speed>
<temp>0.00</temp>
<bpm>0</bpm>
<rpm>0.00</rpm>
</extensions>
</trkpt>
<trkpt lat="30.864253998" lon="34.835136414">
<ele>575.359375</ele>
<time>2013-11-21T08:22:32Z</time>
<speed>1.730000</speed>
<extensions>
<speed>1.7</speed>
<temp>0.00</temp>
<bpm>0</bpm>
<rpm>0.00</rpm>
</extensions>
</trkpt>
<trkpt lat="30.864305496" lon="34.835208893">
<ele>574.359375</ele>
<time>2013-11-21T08:22:37Z</time>
<speed>1.690000</speed>
<extensions>
<speed>1.7</speed>
<temp>0.00</temp>
<bpm>0</bpm>
<rpm>0.00</rpm>
</extensions>
</trkpt>
<trkpt lat="30.864360809" lon="34.835285187">
<ele>572.359375</ele>
<time>2013-11-21T08:22:42Z</time>
<speed>1.950000</speed>
<extensions>
<speed>1.9</speed>
<temp>0.00</temp>
<bpm>0</bpm>
<rpm>0.00</rpm>
</extensions>
</trkpt>
<trkpt lat="30.864408493" lon="34.835357666">
<ele>571.484375</ele>
<time>2013-11-21T08:22:47Z</time>
<speed>1.310000</speed>
<extensions>
<speed>1.3</speed>
<temp>0.00</temp>
<bpm>0</bpm>
<rpm>0.00</rpm>
</extensions>
</trkpt>
<trkpt lat="30.864450455" lon="34.835426331">
<ele>571.468750</ele>
<time>2013-11-21T08:22:52Z</time>
<speed>1.670000</speed>
<extensions>
<speed>1.7</speed>
<temp>0.00</temp>
<bpm>0</bpm>
<rpm>0.00</rpm>
</extensions>
</trkpt>
<trkpt lat="30.864511490" lon="34.835456848">
<ele>571.000000</ele>
<time>2013-11-21T08:22:57Z</time>
<speed>1.620000</speed>
<extensions>
<speed>1.6</speed>
<temp>0.00</temp>
<bpm>0</bpm>
<rpm>0.00</rpm>
</extensions>
</trkpt>
<trkpt lat="30.864589691" lon="34.835502625">
<ele>570.046875</ele>
<time>2013-11-21T08:23:02Z</time>
<speed>1.520000</speed>
<extensions>
<speed>1.5</speed>
<temp>0.00</temp>
<bpm>0</bpm>
<rpm>0.00</rpm>
</extensions>
</trkpt>
<trkpt lat="30.864620209" lon="34.835559845">
<ele>570.406250</ele>
<time>2013-11-21T08:23:07Z</time>
<speed>1.290000</speed>
<extensions>
<speed>1.3</speed>
<temp>0.00</temp>
<bpm>0</bpm>
<rpm>0.00</rpm>
</extensions>
</trkpt>
<trkpt lat="30.864677429" lon="34.835609436">
<ele>570.890625</ele>
<time>2013-11-21T08:23:12Z</time>
<speed>1.600000</speed>
<extensions>
<speed>1.6</speed>
<temp>0.00</temp>
<bpm>0</bpm>
<rpm>0.00</rpm>
</extensions>
</trkpt>
<trkpt lat="30.864736557" lon="34.835670471">
<ele>570.218750</ele>
<time>2013-11-21T08:23:17Z</time>
<speed>1.700000</speed>
<extensions>
<speed>1.7</speed>
<temp>0.00</temp>
<bpm>0</bpm>
<rpm>0.00</rpm>
</extensions>
</trkpt>
<trkpt lat="30.864793777" lon="34.835727692">
<ele>570.796875</ele>
<time>2013-11-21T08:23:22Z</time>
<speed>1.200000</speed>
<extensions>
<speed>1.2</speed>
<temp>0.00</temp>
<bpm>0</bpm>
<rpm>0.00</rpm>
</extensions>
</trkpt>
<trkpt lat="30.864822388" lon="34.835777283">
<ele>571.453125</ele>
<time>2013-11-21T08:23:27Z</time>
<speed>1.540000</speed>
<extensions>
<speed>1.5</speed>
<temp>0.00</temp>
<bpm>0</bpm>
<rpm>0.00</rpm>
</extensions>
</trkpt>
<trkpt lat="30.864870071" lon="34.835823059">
<ele>571.281250</ele>
<time>2013-11-21T08:23:32Z</time>
<speed>1.870000</speed>
<extensions>
<speed>1.9</speed>
<temp>0.00</temp>
<bpm>0</bpm>
<rpm>0.00</rpm>
</extensions>
</trkpt>
<trkpt lat="30.864913940" lon="34.835861206">
<ele>571.562500</ele>
<time>2013-11-21T08:23:37Z</time>
<speed>0.890000</speed>
<extensions>
<speed>0.9</speed>
<temp>0.00</temp>
<bpm>0</bpm>
<rpm>0.00</rpm>
</extensions>
</trkpt>
<trkpt lat="30.864967346" lon="34.835895538">
<ele>571.796875</ele>
<time>2013-11-21T08:23:42Z</time>
<speed>1.170000</speed>
<extensions>
<speed>1.2</speed>
<temp>0.00</temp>
<bpm>0</bpm>
<rpm>0.00</rpm>
</extensions>
</trkpt>
<trkpt lat="30.865009308" lon="34.835922241">
<ele>572.656250</ele>
<time>2013-11-21T08:23:47Z</time>
<speed>1.030000</speed>
<extensions>
<speed>1.0</speed>
<temp>0.00</temp>
<bpm>0</bpm>
<rpm>0.00</rpm>
</extensions>
</trkpt>
<trkpt lat="30.865037918" lon="34.835956573">
<ele>573.843750</ele>
<time>2013-11-21T08:23:52Z</time>
<speed>0.830000</speed>
<extensions>
<speed>0.8</speed>
<temp>0.00</temp>
<bpm>0</bpm>
<rpm>0.00</rpm>
</extensions>
</trkpt>
<trkpt lat="30.865068436" lon="34.835994720">
<ele>573.968750</ele>
<time>2013-11-21T08:23:57Z</time>
<speed>0.890000</speed>
<extensions>
<speed>0.9</speed>
<temp>0.00</temp>
<bpm>0</bpm>
<rpm>0.00</rpm>
</extensions>
</trkpt>
<trkpt lat="30.865095139" lon="34.836029053">
<ele>574.468750</ele>
<time>2013-11-21T08:24:02Z</time>
<speed>0.960000</speed>
<extensions>
<speed>1.0</speed>
<temp>0.00</temp>
<bpm>0</bpm>
<rpm>0.00</rpm>
</extensions>
</trkpt>
<trkpt lat="30.865129471" lon="34.836067200">
<ele>575.171875</ele>
<time>2013-11-21T08:24:07Z</time>
<speed>1.060000</speed>
<extensions>
<speed>1.1</speed>
<temp>0.00</temp>
<bpm>0</bpm>
<rpm>0.00</rpm>
</extensions>
</trkpt>
<trkpt lat="30.865169525" lon="34.836109161">
<ele>575.796875</ele>
<time>2013-11-21T08:24:12Z</time>
<speed>1.310000</speed>
<extensions>
<speed>1.3</speed>
<temp>0.00</temp>
<bpm>0</bpm>
<rpm>0.00</rpm>
</extensions>
</trkpt>
<trkpt lat="30.865207672" lon="34.836147308">
<ele>576.609375</ele>
<time>2013-11-21T08:24:17Z</time>
<speed>1.280000</speed>
<extensions>
<speed>1.3</speed>
<temp>0.00</temp>
<bpm>0</bpm>
<rpm>0.00</rpm>
</extensions>
</trkpt>
<trkpt lat="30.865266800" lon="34.836185455">
<ele>577.328125</ele>
<time>2013-11-21T08:24:22Z</time>
<speed>1.110000</speed>
<extensions>
<speed>1.1</speed>
<temp>0.00</temp>
<bpm>0</bpm>
<rpm>0.00</rpm>
</extensions>
</trkpt>
<trkpt lat="30.865314484" lon="34.836235046">
<ele>578.953125</ele>
<time>2013-11-21T08:24:27Z</time>
<speed>1.360000</speed>
<extensions>
<speed>1.4</speed>
<temp>0.00</temp>
<bpm>0</bpm>
<rpm>0.00</rpm>
</extensions>
</trkpt>
<trkpt lat="30.865375519" lon="34.836284637">
<ele>579.937500</ele>
<time>2013-11-21T08:24:32Z</time>
<speed>1.230000</speed>
<extensions>
<speed>1.2</speed>
<temp>0.00</temp>
<bpm>0</bpm>
<rpm>0.00</rpm>
</extensions>
</trkpt>
<trkpt lat="30.865409851" lon="34.836318970">
<ele>580.406250</ele>
<time>2013-11-21T08:24:37Z</time>
<speed>1.210000</speed>
<extensions>
<speed>1.2</speed>
<temp>0.00</temp>
<bpm>0</bpm>
<rpm>0.00</rpm>
</extensions>
</trkpt>
<trkpt lat="30.865436554" lon="34.836353302">
<ele>581.140625</ele>
<time>2013-11-21T08:24:42Z</time>
<speed>0.960000</speed>
<extensions>
<speed>1.0</speed>
<temp>0.00</temp>
<bpm>0</bpm>
<rpm>0.00</rpm>
</extensions>
</trkpt>
<trkpt lat="30.865480423" lon="34.836387634">
<ele>581.843750</ele>
<time>2013-11-21T08:24:47Z</time>
<speed>1.110000</speed>
<extensions>
<speed>1.1</speed>
<temp>0.00</temp>
<bpm>0</bpm>
<rpm>0.00</rpm>
</extensions>
</trkpt>
<trkpt lat="30.865501404" lon="34.836433411">
<ele>582.203125</ele>
<time>2013-11-21T08:24:52Z</time>
<speed>0.990000</speed>
<extensions>
<speed>1.0</speed>
<temp>0.00</temp>
<bpm>0</bpm>
<rpm>0.00</rpm>
</extensions>
</trkpt>
<trkpt lat="30.865535736" lon="34.836479187">
<ele>583.078125</ele>
<time>2013-11-21T08:24:57Z</time>
<speed>1.130000</speed>
<extensions>
<speed>1.1</speed>
<temp>0.00</temp>
<bpm>0</bpm>
<rpm>0.00</rpm>
</extensions>
</trkpt>
<trkpt lat="30.865558624" lon="34.836513519">
<ele>583.875000</ele>
<time>2013-11-21T08:25:02Z</time>
<speed>0.970000</speed>
<extensions>
<speed>1.0</speed>
<temp>0.00</temp>
<bpm>0</bpm>
<rpm>0.00</rpm>
</extensions>
</trkpt>
<trkpt lat="30.865589142" lon="34.836563110">
<ele>585.015625</ele>
<time>2013-11-21T08:25:07Z</time>
<speed>1.170000</speed>
<extensions>
<speed>1.2</speed>
<temp>0.00</temp>
<bpm>0</bpm>
<rpm>0.00</rpm>
</extensions>
</trkpt>
<trkpt lat="30.865629196" lon="34.836601257">
<ele>585.937500</ele>
<time>2013-11-21T08:25:12Z</time>
<speed>1.170000</speed>
<extensions>
<speed>1.2</speed>
<temp>0.00</temp>
<bpm>0</bpm>
<rpm>0.00</rpm>
</extensions>
</trkpt>
<trkpt lat="30.865663528" lon="34.836643219">
<ele>586.765625</ele>
<time>2013-11-21T08:25:17Z</time>
<speed>1.130000</speed>
<extensions>
<speed>1.1</speed>
<temp>0.00</temp>
<bpm>0</bpm>
<rpm>0.00</rpm>
</extensions>
</trkpt>
<trkpt lat="30.865705490" lon="34.836681366">
<ele>587.765625</ele>
<time>2013-11-21T08:25:22Z</time>
<speed>1.310000</speed>
<extensions>
<speed>1.3</speed>
<temp>0.00</temp>
<bpm>0</bpm>
<rpm>0.00</rpm>
</extensions>
</trkpt>
<trkpt lat="30.865739822" lon="34.836715698">
<ele>588.640625</ele>
<time>2013-11-21T08:25:27Z</time>
<speed>1.050000</speed>
<extensions>
<speed>1.0</speed>
<temp>0.00</temp>
<bpm>0</bpm>
<rpm>0.00</rpm>
</extensions>
</trkpt>
<trkpt lat="30.865779877" lon="34.836761475">
<ele>589.203125</ele>
<time>2013-11-21T08:25:32Z</time>
<speed>1.210000</speed>
<extensions>
<speed>1.2</speed>
<temp>0.00</temp>
<bpm>0</bpm>
<rpm>0.00</rpm>
</extensions>
</trkpt>
<trkpt lat="30.865829468" lon="34.836811066">
<ele>589.875000</ele>
<time>2013-11-21T08:25:37Z</time>
<speed>1.270000</speed>
<extensions>
<speed>1.3</speed>
<temp>0.00</temp>
<bpm>0</bpm>
<rpm>0.00</rpm>
</extensions>
</trkpt>
<trkpt lat="30.865880966" lon="34.836856842">
<ele>590.625000</ele>
<time>2013-11-21T08:25:42Z</time>
<speed>1.290000</speed>
<extensions>
<speed>1.3</speed>
<temp>0.00</temp>
<bpm>0</bpm>
<rpm>0.00</rpm>
</extensions>
</trkpt>
<trkpt lat="30.865943909" lon="34.836917877">
<ele>592.531250</ele>
<time>2013-11-21T08:25:47Z</time>
<speed>1.170000</speed>
<extensions>
<speed>1.2</speed>
<temp>0.00</temp>
<bpm>0</bpm>
<rpm>0.00</rpm>
</extensions>
</trkpt>
<trkpt lat="30.865982056" lon="34.836978912">
<ele>594.234375</ele>
<time>2013-11-21T08:25:52Z</time>
<speed>1.580000</speed>
<extensions>
<speed>1.6</speed>
<temp>0.00</temp>
<bpm>0</bpm>
<rpm>0.00</rpm>
</extensions>
</trkpt>
<trkpt lat="30.866003036" lon="34.837036133">
<ele>595.234375</ele>
<time>2013-11-21T08:25:57Z</time>
<speed>0.850000</speed>
<extensions>
<speed>0.8</speed>
<temp>0.00</temp>
<bpm>0</bpm>
<rpm>0.00</rpm>
</extensions>
</trkpt>
<trkpt lat="30.866001129" lon="34.837043762">
<ele>593.640625</ele>
<time>2013-11-21T08:26:02Z</time>
<speed>0.220000</speed>
<extensions>
<speed>0.2</speed>
<temp>0.00</temp>
<bpm>0</bpm>
<rpm>0.00</rpm>
</extensions>
</trkpt>
<trkpt lat="30.865995407" lon="34.837047577">
<ele>593.671875</ele>
<time>2013-11-21T08:26:07Z</time>
<speed>0.140000</speed>
<extensions>
<speed>0.1</speed>
<temp>0.00</temp>
<bpm>0</bpm>
<rpm>0.00</rpm>
</extensions>
</trkpt>
<trkpt lat="30.865993500" lon="34.837043762">
<ele>593.734375</ele>
<time>2013-11-21T08:26:12Z</time>
<speed>0.020000</speed>
<extensions>
<speed>0.0</speed>
<temp>0.00</temp>
<bpm>0</bpm>
<rpm>0.00</rpm>
</extensions>
</trkpt>
<trkpt lat="30.865983963" lon="34.837036133">
<ele>592.234375</ele>
<time>2013-11-21T08:26:17Z</time>
<speed>0.090000</speed>
<extensions>
<speed>0.1</speed>
<temp>0.00</temp>
<bpm>0</bpm>
<rpm>0.00</rpm>
</extensions>
</trkpt>
<trkpt lat="30.865964890" lon="34.837032318">
<ele>591.500000</ele>
<time>2013-11-21T08:26:22Z</time>
<extensions>
<speed>0.0</speed>
<temp>0.00</temp>
<bpm>0</bpm>
<rpm>0.00</rpm>
</extensions>
</trkpt>
<trkpt lat="30.865997314" lon="34.837070465">
<ele>591.296875</ele>
<time>2013-11-21T08:26:27Z</time>
<speed>1.210000</speed>
<extensions>
<speed>1.2</speed>
<temp>0.00</temp>
<bpm>0</bpm>
<rpm>0.00</rpm>
</extensions>
</trkpt>
<trkpt lat="30.866035461" lon="34.837108612">
<ele>591.453125</ele>
<time>2013-11-21T08:26:32Z</time>
<speed>1.280000</speed>
<extensions>
<speed>1.3</speed>
<temp>0.00</temp>
<bpm>0</bpm>
<rpm>0.00</rpm>
</extensions>
</trkpt>
<trkpt lat="30.866069794" lon="34.837150574">
<ele>591.375000</ele>
<time>2013-11-21T08:26:37Z</time>
<speed>1.040000</speed>
<extensions>
<speed>1.0</speed>
<temp>0.00</temp>
<bpm>0</bpm>
<rpm>0.00</rpm>
</extensions>
</trkpt>
<trkpt lat="30.866115570" lon="34.837223053">
<ele>591.187500</ele>
<time>2013-11-21T08:26:42Z</time>
<speed>1.320000</speed>
<extensions>
<speed>1.3</speed>
<temp>0.00</temp>
<bpm>0</bpm>
<rpm>0.00</rpm>
</extensions>
</trkpt>
<trkpt lat="30.866188049" lon="34.837291718">
<ele>590.656250</ele>
<time>2013-11-21T08:26:47Z</time>
<speed>1.780000</speed>
<extensions>
<speed>1.8</speed>
<temp>0.00</temp>
<bpm>0</bpm>
<rpm>0.00</rpm>
</extensions>
</trkpt>
<trkpt lat="30.866264343" lon="34.837356567">
<ele>590.656250</ele>
<time>2013-11-21T08:26:52Z</time>
<speed>2.280000</speed>
<extensions>
<speed>2.3</speed>
<temp>0.00</temp>
<bpm>0</bpm>
<rpm>0.00</rpm>
</extensions>
</trkpt>
<trkpt lat="30.866353989" lon="34.837478638">
<ele>589.781250</ele>
<time>2013-11-21T08:26:57Z</time>
<speed>2.890000</speed>
<extensions>
<speed>2.9</speed>
<temp>0.00</temp>
<bpm>0</bpm>
<rpm>0.00</rpm>
</extensions>
</trkpt>
<trkpt lat="30.866466522" lon="34.837635040">
<ele>590.265625</ele>
<time>2013-11-21T08:27:02Z</time>
<speed>5.230000</speed>
<extensions>
<speed>5.2</speed>
<temp>0.00</temp>
<bpm>0</bpm>
<rpm>0.00</rpm>
</extensions>
</trkpt>
<trkpt lat="30.866659164" lon="34.837852478">
<ele>589.140625</ele>
<time>2013-11-21T08:27:07Z</time>
<speed>6.790000</speed>
<extensions>
<speed>6.8</speed>
<temp>0.00</temp>
<bpm>0</bpm>
<rpm>0.00</rpm>
</extensions>
</trkpt>
<trkpt lat="30.866844177" lon="34.838069916">
<ele>588.046875</ele>
<time>2013-11-21T08:27:12Z</time>
<speed>3.630000</speed>
<extensions>
<speed>3.6</speed>
<temp>0.00</temp>
<bpm>0</bpm>
<rpm>0.00</rpm>
</extensions>
</trkpt>
<trkpt lat="30.866897583" lon="34.838161469">
<ele>587.125000</ele>
<time>2013-11-21T08:27:17Z</time>
<speed>2.510000</speed>
<extensions>
<speed>2.5</speed>
<temp>0.00</temp>
<bpm>0</bpm>
<rpm>0.00</rpm>
</extensions>
</trkpt>
<trkpt lat="30.866958618" lon="34.838249207">
<ele>587.328125</ele>
<time>2013-11-21T08:27:22Z</time>
<speed>2.310000</speed>
<extensions>
<speed>2.3</speed>
<temp>0.00</temp>
<bpm>0</bpm>
<rpm>0.00</rpm>
</extensions>
</trkpt>
<trkpt lat="30.867008209" lon="34.838333130">
<ele>589.375000</ele>
<time>2013-11-21T08:27:27Z</time>
<speed>1.890000</speed>
<extensions>
<speed>1.9</speed>
<temp>0.00</temp>
<bpm>0</bpm>
<rpm>0.00</rpm>
</extensions>
</trkpt>
<trkpt lat="30.867033005" lon="34.838413239">
<ele>587.562500</ele>
<time>2013-11-21T08:27:32Z</time>
<speed>1.750000</speed>
<extensions>
<speed>1.8</speed>
<temp>0.00</temp>
<bpm>0</bpm>
<rpm>0.00</rpm>
</extensions>
</trkpt>
<trkpt lat="30.867082596" lon="34.838500977">
<ele>588.484375</ele>
<time>2013-11-21T08:27:37Z</time>
<speed>2.210000</speed>
<extensions>
<speed>2.2</speed>
<temp>0.00</temp>
<bpm>0</bpm>
<rpm>0.00</rpm>
</extensions>
</trkpt>
<trkpt lat="30.867136002" lon="34.838596344">
<ele>588.156250</ele>
<time>2013-11-21T08:27:42Z</time>
<speed>1.660000</speed>
<extensions>
<speed>1.7</speed>
<temp>0.00</temp>
<bpm>0</bpm>
<rpm>0.00</rpm>
</extensions>
</trkpt>
<trkpt lat="30.867158890" lon="34.838687897">
<ele>588.437500</ele>
<time>2013-11-21T08:27:47Z</time>
<speed>2.220000</speed>
<extensions>
<speed>2.2</speed>
<temp>0.00</temp>
<bpm>0</bpm>
<rpm>0.00</rpm>
</extensions>
</trkpt>
<trkpt lat="30.867218018" lon="34.838779449">
<ele>589.109375</ele>
<time>2013-11-21T08:27:52Z</time>
<speed>1.890000</speed>
<extensions>
<speed>1.9</speed>
<temp>0.00</temp>
<bpm>0</bpm>
<rpm>0.00</rpm>
</extensions>
</trkpt>
<trkpt lat="30.867284775" lon="34.838882446">
<ele>589.718750</ele>
<time>2013-11-21T08:27:57Z</time>
<speed>2.670000</speed>
<extensions>
<speed>2.7</speed>
<temp>0.00</temp>
<bpm>0</bpm>
<rpm>0.00</rpm>
</extensions>
</trkpt>
<trkpt lat="30.867309570" lon="34.838966370">
<ele>587.171875</ele>
<time>2013-11-21T08:28:02Z</time>
<speed>1.770000</speed>
<extensions>
<speed>1.8</speed>
<temp>0.00</temp>
<bpm>0</bpm>
<rpm>0.00</rpm>
</extensions>
</trkpt>
<trkpt lat="30.867341995" lon="34.839038849">
<ele>588.000000</ele>
<time>2013-11-21T08:28:07Z</time>
<speed>1.820000</speed>
<extensions>
<speed>1.8</speed>
<temp>0.00</temp>
<bpm>0</bpm>
<rpm>0.00</rpm>
</extensions>
</trkpt>
<trkpt lat="30.867374420" lon="34.839118958">
<ele>589.937500</ele>
<time>2013-11-21T08:28:12Z</time>
<speed>1.700000</speed>
<extensions>
<speed>1.7</speed>
<temp>0.00</temp>
<bpm>0</bpm>
<rpm>0.00</rpm>
</extensions>
</trkpt>
<trkpt lat="30.867380142" lon="34.839210510">
<ele>592.578125</ele>
<time>2013-11-21T08:28:17Z</time>
<speed>1.810000</speed>
<extensions>
<speed>1.8</speed>
<temp>0.00</temp>
<bpm>0</bpm>
<rpm>0.00</rpm>
</extensions>
</trkpt>
<trkpt lat="30.867412567" lon="34.839298248">
<ele>594.750000</ele>
<time>2013-11-21T08:28:22Z</time>
<speed>1.400000</speed>
<extensions>
<speed>1.4</speed>
<temp>0.00</temp>
<bpm>0</bpm>
<rpm>0.00</rpm>
</extensions>
</trkpt>
<trkpt lat="30.867446899" lon="34.839370728">
<ele>595.078125</ele>
<time>2013-11-21T08:28:27Z</time>
<speed>1.760000</speed>
<extensions>
<speed>1.8</speed>
<temp>0.00</temp>
<bpm>0</bpm>
<rpm>0.00</rpm>
</extensions>
</trkpt>
<trkpt lat="30.867481232" lon="34.839420319">
<ele>595.906250</ele>
<time>2013-11-21T08:28:32Z</time>
<speed>1.640000</speed>
<extensions>
<speed>1.6</speed>
<temp>0.00</temp>
<bpm>0</bpm>
<rpm>0.00</rpm>
</extensions>
</trkpt>
<trkpt lat="30.867530823" lon="34.839496613">
<ele>597.671875</ele>
<time>2013-11-21T08:28:37Z</time>
<speed>2.140000</speed>
<extensions>
<speed>2.1</speed>
<temp>0.00</temp>
<bpm>0</bpm>
<rpm>0.00</rpm>
</extensions>
</trkpt>
<trkpt lat="30.867551804" lon="34.839595795">
<ele>597.921875</ele>
<time>2013-11-21T08:28:42Z</time>
<speed>1.840000</speed>
<extensions>
<speed>1.8</speed>
<temp>0.00</temp>
<bpm>0</bpm>
<rpm>0.00</rpm>
</extensions>
</trkpt>
<trkpt lat="30.867582321" lon="34.839679718">
<ele>598.187500</ele>
<time>2013-11-21T08:28:47Z</time>
<speed>2.070000</speed>
<extensions>
<speed>2.1</speed>
<temp>0.00</temp>
<bpm>0</bpm>
<rpm>0.00</rpm>
</extensions>
</trkpt>
<trkpt lat="30.867618561" lon="34.839748383">
<ele>598.328125</ele>
<time>2013-11-21T08:28:52Z</time>
<speed>2.030000</speed>
<extensions>
<speed>2.0</speed>
<temp>0.00</temp>
<bpm>0</bpm>
<rpm>0.00</rpm>
</extensions>
</trkpt>
<trkpt lat="30.867670059" lon="34.839859009">
<ele>599.218750</ele>
<time>2013-11-21T08:28:57Z</time>
<speed>2.710000</speed>
<extensions>
<speed>2.7</speed>
<temp>0.00</temp>
<bpm>0</bpm>
<rpm>0.00</rpm>
</extensions>
</trkpt>
<trkpt lat="30.867729187" lon="34.839973450">
<ele>599.593750</ele>
<time>2013-11-21T08:29:02Z</time>
<speed>2.770000</speed>
<extensions>
<speed>2.8</speed>
<temp>0.00</temp>
<bpm>0</bpm>
<rpm>0.00</rpm>
</extensions>
</trkpt>
<trkpt lat="30.867769241" lon="34.840106964">
<ele>599.468750</ele>
<time>2013-11-21T08:29:07Z</time>
<speed>2.710000</speed>
<extensions>
<speed>2.7</speed>
<temp>0.00</temp>
<bpm>0</bpm>
<rpm>0.00</rpm>
</extensions>
</trkpt>
<trkpt lat="30.867801666" lon="34.840251923">
<ele>600.296875</ele>
<time>2013-11-21T08:29:12Z</time>
<speed>2.710000</speed>
<extensions>
<speed>2.7</speed>
<temp>0.00</temp>
<bpm>0</bpm>
<rpm>0.00</rpm>
</extensions>
</trkpt>
<trkpt lat="30.867860794" lon="34.840393066">
<ele>598.781250</ele>
<time>2013-11-21T08:29:17Z</time>
<speed>3.020000</speed>
<extensions>
<speed>3.0</speed>
<temp>0.00</temp>
<bpm>0</bpm>
<rpm>0.00</rpm>
</extensions>
</trkpt>
<trkpt lat="30.867946625" lon="34.840503693">
<ele>598.218750</ele>
<time>2013-11-21T08:29:22Z</time>
<speed>2.780000</speed>
<extensions>
<speed>2.8</speed>
<temp>0.00</temp>
<bpm>0</bpm>
<rpm>0.00</rpm>
</extensions>
</trkpt>
<trkpt lat="30.868019104" lon="34.840568542">
<ele>597.562500</ele>
<time>2013-11-21T08:29:27Z</time>
<speed>2.000000</speed>
<extensions>
<speed>2.0</speed>
<temp>0.00</temp>
<bpm>0</bpm>
<rpm>0.00</rpm>
</extensions>
</trkpt>
<trkpt lat="30.868087769" lon="34.840633392">
<ele>597.062500</ele>
<time>2013-11-21T08:29:32Z</time>
<speed>1.660000</speed>
<extensions>
<speed>1.7</speed>
<temp>0.00</temp>
<bpm>0</bpm>
<rpm>0.00</rpm>
</extensions>
</trkpt>
<trkpt lat="30.868146896" lon="34.840705872">
<ele>595.546875</ele>
<time>2013-11-21T08:29:37Z</time>
<speed>1.720000</speed>
<extensions>
<speed>1.7</speed>
<temp>0.00</temp>
<bpm>0</bpm>
<rpm>0.00</rpm>
</extensions>
</trkpt>
<trkpt lat="30.868209839" lon="34.840782166">
<ele>596.328125</ele>
<time>2013-11-21T08:29:42Z</time>
<speed>2.060000</speed>
<extensions>
<speed>2.1</speed>
<temp>0.00</temp>
<bpm>0</bpm>
<rpm>0.00</rpm>
</extensions>
</trkpt>
<trkpt lat="30.868272781" lon="34.840866089">
<ele>597.484375</ele>
<time>2013-11-21T08:29:47Z</time>
<speed>2.300000</speed>
<extensions>
<speed>2.3</speed>
<temp>0.00</temp>
<bpm>0</bpm>
<rpm>0.00</rpm>
</extensions>
</trkpt>
<trkpt lat="30.868267059" lon="34.840999603">
<ele>600.109375</ele>
<time>2013-11-21T08:29:52Z</time>
<speed>2.290000</speed>
<extensions>
<speed>2.3</speed>
<temp>0.00</temp>
<bpm>0</bpm>
<rpm>0.00</rpm>
</extensions>
</trkpt>
<trkpt lat="30.868259430" lon="34.841121674">
<ele>601.468750</ele>
<time>2013-11-21T08:29:57Z</time>
<speed>3.140000</speed>
<extensions>
<speed>3.1</speed>
<temp>0.00</temp>
<bpm>0</bpm>
<rpm>0.00</rpm>
</extensions>
</trkpt>
<trkpt lat="30.868234634" lon="34.841316223">
<ele>601.734375</ele>
<time>2013-11-21T08:30:02Z</time>
<speed>4.350000</speed>
<extensions>
<speed>4.3</speed>
<temp>0.00</temp>
<bpm>0</bpm>
<rpm>0.00</rpm>
</extensions>
</trkpt>
<trkpt lat="30.868259430" lon="34.841537476">
<ele>601.734375</ele>
<time>2013-11-21T08:30:07Z</time>
<speed>3.920000</speed>
<extensions>
<speed>3.9</speed>
<temp>0.00</temp>
<bpm>0</bpm>
<rpm>0.00</rpm>
</extensions>
</trkpt>
<trkpt lat="30.868331909" lon="34.841728210">
<ele>602.390625</ele>
<time>2013-11-21T08:30:12Z</time>
<speed>3.580000</speed>
<extensions>
<speed>3.6</speed>
<temp>0.00</temp>
<bpm>0</bpm>
<rpm>0.00</rpm>
</extensions>
</trkpt>
<trkpt lat="30.868448257" lon="34.841907501">
<ele>601.671875</ele>
<time>2013-11-21T08:30:17Z</time>
<speed>4.620000</speed>
<extensions>
<speed>4.6</speed>
<temp>0.00</temp>
<bpm>0</bpm>
<rpm>0.00</rpm>
</extensions>
</trkpt>
<trkpt lat="30.868564606" lon="34.842018127">
<ele>600.000000</ele>
<time>2013-11-21T08:30:22Z</time>
<speed>2.090000</speed>
<extensions>
<speed>2.1</speed>
<temp>0.00</temp>
<bpm>0</bpm>
<rpm>0.00</rpm>
</extensions>
</trkpt>
<trkpt lat="30.868616104" lon="34.842086792">
<ele>601.078125</ele>
<time>2013-11-21T08:30:27Z</time>
<speed>2.500000</speed>
<extensions>
<speed>2.5</speed>
<temp>0.00</temp>
<bpm>0</bpm>
<rpm>0.00</rpm>
</extensions>
</trkpt>
<trkpt lat="30.868673325" lon="34.842124939">
<ele>602.718750</ele>
<time>2013-11-21T08:30:32Z</time>
<speed>1.640000</speed>
<extensions>
<speed>1.6</speed>
<temp>0.00</temp>
<bpm>0</bpm>
<rpm>0.00</rpm>
</extensions>
</trkpt>
<trkpt lat="30.868747711" lon="34.842163086">
<ele>603.187500</ele>
<time>2013-11-21T08:30:37Z</time>
<speed>1.720000</speed>
<extensions>
<speed>1.7</speed>
<temp>0.00</temp>
<bpm>0</bpm>
<rpm>0.00</rpm>
</extensions>
</trkpt>
<trkpt lat="30.868814468" lon="34.842212677">
<ele>602.453125</ele>
<time>2013-11-21T08:30:42Z</time>
<speed>1.300000</speed>
<extensions>
<speed>1.3</speed>
<temp>0.00</temp>
<bpm>0</bpm>
<rpm>0.00</rpm>
</extensions>
</trkpt>
<trkpt lat="30.868856430" lon="34.842254639">
<ele>602.500000</ele>
<time>2013-11-21T08:30:47Z</time>
<speed>1.850000</speed>
<extensions>
<speed>1.8</speed>
<temp>0.00</temp>
<bpm>0</bpm>
<rpm>0.00</rpm>
</extensions>
</trkpt>
<trkpt lat="30.868877411" lon="34.842323303">
<ele>602.875000</ele>
<time>2013-11-21T08:30:52Z</time>
<speed>1.420000</speed>
<extensions>
<speed>1.4</speed>
<temp>0.00</temp>
<bpm>0</bpm>
<rpm>0.00</rpm>
</extensions>
</trkpt>
<trkpt lat="30.868907928" lon="34.842418671">
<ele>602.437500</ele>
<time>2013-11-21T08:30:57Z</time>
<speed>1.940000</speed>
<extensions>
<speed>1.9</speed>
<temp>0.00</temp>
<bpm>0</bpm>
<rpm>0.00</rpm>
</extensions>
</trkpt>
<trkpt lat="30.868938446" lon="34.842548370">
<ele>603.359375</ele>
<time>2013-11-21T08:31:02Z</time>
<speed>3.050000</speed>
<extensions>
<speed>3.0</speed>
<temp>0.00</temp>
<bpm>0</bpm>
<rpm>0.00</rpm>
</extensions>
</trkpt>
<trkpt lat="30.869009018" lon="34.842678070">
<ele>603.687500</ele>
<time>2013-11-21T08:31:07Z</time>
<speed>3.010000</speed>
<extensions>
<speed>3.0</speed>
<temp>0.00</temp>
<bpm>0</bpm>
<rpm>0.00</rpm>
</extensions>
</trkpt>
<trkpt lat="30.869092941" lon="34.842769623">
<ele>603.562500</ele>
<time>2013-11-21T08:31:12Z</time>
<speed>2.920000</speed>
<extensions>
<speed>2.9</speed>
<temp>0.00</temp>
<bpm>0</bpm>
<rpm>0.00</rpm>
</extensions>
</trkpt>
<trkpt lat="30.869195938" lon="34.842842102">
<ele>601.265625</ele>
<time>2013-11-21T08:31:17Z</time>
<speed>3.950000</speed>
<extensions>
<speed>4.0</speed>
<temp>0.00</temp>
<bpm>0</bpm>
<rpm>0.00</rpm>
</extensions>
</trkpt>
<trkpt lat="30.869421005" lon="34.843040466">
<ele>597.703125</ele>
<time>2013-11-21T08:31:22Z</time>
<speed>8.410000</speed>
<extensions>
<speed>8.4</speed>
<temp>0.00</temp>
<bpm>0</bpm>
<rpm>0.00</rpm>
</extensions>
</trkpt>
<trkpt lat="30.869707108" lon="34.843280792">
<ele>594.250000</ele>
<time>2013-11-21T08:31:27Z</time>
<speed>6.400000</speed>
<extensions>
<speed>6.4</speed>
<temp>0.00</temp>
<bpm>0</bpm>
<rpm>0.00</rpm>
</extensions>
</trkpt>
<trkpt lat="30.869949341" lon="34.843486786">
<ele>592.359375</ele>
<time>2013-11-21T08:31:32Z</time>
<speed>6.310000</speed>
<extensions>
<speed>6.3</speed>
<temp>0.00</temp>
<bpm>0</bpm>
<rpm>0.00</rpm>
</extensions>
</trkpt>
<trkpt lat="30.870096207" lon="34.843589783">
<ele>590.968750</ele>
<time>2013-11-21T08:31:37Z</time>
<speed>1.920000</speed>
<extensions>
<speed>1.9</speed>
<temp>0.00</temp>
<bpm>0</bpm>
<rpm>0.00</rpm>
</extensions>
</trkpt>
<trkpt lat="30.870166779" lon="34.843627930">
<ele>587.859375</ele>
<time>2013-11-21T08:31:42Z</time>
<speed>1.560000</speed>
<extensions>
<speed>1.6</speed>
<temp>0.00</temp>
<bpm>0</bpm>
<rpm>0.00</rpm>
</extensions>
</trkpt>
<trkpt lat="30.870220184" lon="34.843677521">
<ele>587.125000</ele>
<time>2013-11-21T08:31:47Z</time>
<speed>1.650000</speed>
<extensions>
<speed>1.7</speed>
<temp>0.00</temp>
<bpm>0</bpm>
<rpm>0.00</rpm>
</extensions>
</trkpt>
<trkpt lat="30.870304108" lon="34.843746185">
<ele>587.265625</ele>
<time>2013-11-21T08:31:52Z</time>
<speed>1.830000</speed>
<extensions>
<speed>1.8</speed>
<temp>0.00</temp>
<bpm>0</bpm>
<rpm>0.00</rpm>
</extensions>
</trkpt>
<trkpt lat="30.870397568" lon="34.843811035">
<ele>586.625000</ele>
<time>2013-11-21T08:31:57Z</time>
<speed>1.790000</speed>
<extensions>
<speed>1.8</speed>
<temp>0.00</temp>
<bpm>0</bpm>
<rpm>0.00</rpm>
</extensions>
</trkpt>
<trkpt lat="30.870470047" lon="34.843883514">
<ele>586.031250</ele>
<time>2013-11-21T08:32:02Z</time>
<speed>2.200000</speed>
<extensions>
<speed>2.2</speed>
<temp>0.00</temp>
<bpm>0</bpm>
<rpm>0.00</rpm>
</extensions>
</trkpt>
<trkpt lat="30.870532990" lon="34.843933105">
<ele>588.296875</ele>
<time>2013-11-21T08:32:07Z</time>
<speed>1.920000</speed>
<extensions>
<speed>1.9</speed>
<temp>0.00</temp>
<bpm>0</bpm>
<rpm>0.00</rpm>
</extensions>
</trkpt>
<trkpt lat="30.870624542" lon="34.844009399">
<ele>589.375000</ele>
<time>2013-11-21T08:32:12Z</time>
<speed>1.940000</speed>
<extensions>
<speed>1.9</speed>
<temp>0.00</temp>
<bpm>0</bpm>
<rpm>0.00</rpm>
</extensions>
</trkpt>
<trkpt lat="30.870649338" lon="34.844009399">
<ele>592.000000</ele>
<time>2013-11-21T08:32:17Z</time>
<speed>1.070000</speed>
<extensions>
<speed>1.1</speed>
<temp>0.00</temp>
<bpm>0</bpm>
<rpm>0.00</rpm>
</extensions>
</trkpt>
<trkpt lat="30.870651245" lon="34.844036102">
<ele>595.359375</ele>
<time>2013-11-21T08:32:22Z</time>
<speed>0.640000</speed>
<extensions>
<speed>0.6</speed>
<temp>0.00</temp>
<bpm>0</bpm>
<rpm>0.00</rpm>
</extensions>
</trkpt>
<trkpt lat="30.870641708" lon="34.844055176">
<ele>596.093750</ele>
<time>2013-11-21T08:32:27Z</time>
<speed>0.210000</speed>
<extensions>
<speed>0.2</speed>
<temp>0.00</temp>
<bpm>0</bpm>
<rpm>0.00</rpm>
</extensions>
</trkpt>
<trkpt lat="30.870639801" lon="34.844062805">
<ele>596.796875</ele>
<time>2013-11-21T08:32:32Z</time>
<speed>0.170000</speed>
<extensions>
<speed>0.2</speed>
<temp>0.00</temp>
<bpm>0</bpm>
<rpm>0.00</rpm>
</extensions>
</trkpt>
<trkpt lat="30.870639801" lon="34.844070435">
<ele>597.515625</ele>
<time>2013-11-21T08:32:37Z</time>
<speed>0.060000</speed>
<extensions>
<speed>0.1</speed>
<temp>0.00</temp>
<bpm>0</bpm>
<rpm>0.00</rpm>
</extensions>
</trkpt>
<trkpt lat="30.870639801" lon="34.844078064">
<ele>598.296875</ele>
<time>2013-11-21T08:32:42Z</time>
<speed>0.130000</speed>
<extensions>
<speed>0.1</speed>
<temp>0.00</temp>
<bpm>0</bpm>
<rpm>0.00</rpm>
</extensions>
</trkpt>
<trkpt lat="30.870637894" lon="34.844081879">
<ele>598.953125</ele>
<time>2013-11-21T08:32:47Z</time>
<speed>0.110000</speed>
<extensions>
<speed>0.1</speed>
<temp>0.00</temp>
<bpm>0</bpm>
<rpm>0.00</rpm>
</extensions>
</trkpt>
<trkpt lat="30.870637894" lon="34.844089508">
<ele>599.640625</ele>
<time>2013-11-21T08:32:52Z</time>
<speed>0.280000</speed>
<extensions>
<speed>0.3</speed>
<temp>0.00</temp>
<bpm>0</bpm>
<rpm>0.00</rpm>
</extensions>
</trkpt>
<trkpt lat="30.870647430" lon="34.844100952">
<ele>600.328125</ele>
<time>2013-11-21T08:32:57Z</time>
<speed>0.420000</speed>
<extensions>
<speed>0.4</speed>
<temp>0.00</temp>
<bpm>0</bpm>
<rpm>0.00</rpm>
</extensions>
</trkpt>
<trkpt lat="30.870674133" lon="34.844135284">
<ele>601.046875</ele>
<time>2013-11-21T08:33:02Z</time>
<speed>1.670000</speed>
<extensions>
<speed>1.7</speed>
<temp>0.00</temp>
<bpm>0</bpm>
<rpm>0.00</rpm>
</extensions>
</trkpt>
<trkpt lat="30.870794296" lon="34.844310760">
<ele>601.234375</ele>
<time>2013-11-21T08:33:07Z</time>
<speed>4.510000</speed>
<extensions>
<speed>4.5</speed>
<temp>0.00</temp>
<bpm>0</bpm>
<rpm>0.00</rpm>
</extensions>
</trkpt>
<trkpt lat="30.870981216" lon="34.844539642">
<ele>600.671875</ele>
<time>2013-11-21T08:33:12Z</time>
<speed>3.650000</speed>
<extensions>
<speed>3.7</speed>
<temp>0.00</temp>
<bpm>0</bpm>
<rpm>0.00</rpm>
</extensions>
</trkpt>
<trkpt lat="30.871072769" lon="34.844646454">
<ele>599.171875</ele>
<time>2013-11-21T08:33:17Z</time>
<speed>1.980000</speed>
<extensions>
<speed>2.0</speed>
<temp>0.00</temp>
<bpm>0</bpm>
<rpm>0.00</rpm>
</extensions>
</trkpt>
<trkpt lat="30.871131897" lon="34.844684601">
<ele>598.000000</ele>
<time>2013-11-21T08:33:22Z</time>
<speed>2.080000</speed>
<extensions>
<speed>2.1</speed>
<temp>0.00</temp>
<bpm>0</bpm>
<rpm>0.00</rpm>
</extensions>
</trkpt>
<trkpt lat="30.871150970" lon="34.844654083">
<ele>597.156250</ele>
<time>2013-11-21T08:33:27Z</time>
<speed>0.290000</speed>
<extensions>
<speed>0.3</speed>
<temp>0.00</temp>
<bpm>0</bpm>
<rpm>0.00</rpm>
</extensions>
</trkpt>
<trkpt lat="30.871156693" lon="34.844657898">
<ele>597.156250</ele>
<time>2013-11-21T08:33:32Z</time>
<speed>0.110000</speed>
<extensions>
<speed>0.1</speed>
<temp>0.00</temp>
<bpm>0</bpm>
<rpm>0.00</rpm>
</extensions>
</trkpt>
<trkpt lat="30.871150970" lon="34.844657898">
<ele>597.125000</ele>
<time>2013-11-21T08:33:37Z</time>
<speed>0.220000</speed>
<extensions>
<speed>0.2</speed>
<temp>0.00</temp>
<bpm>0</bpm>
<rpm>0.00</rpm>
</extensions>
</trkpt>
<trkpt lat="30.871187210" lon="34.844730377">
<ele>596.750000</ele>
<time>2013-11-21T08:33:42Z</time>
<speed>3.890000</speed>
<extensions>
<speed>3.9</speed>
<temp>0.00</temp>
<bpm>0</bpm>
<rpm>0.00</rpm>
</extensions>
</trkpt>
<trkpt lat="30.871383667" lon="34.845001221">
<ele>595.984375</ele>
<time>2013-11-21T08:33:47Z</time>
<speed>5.290000</speed>
<extensions>
<speed>5.3</speed>
<temp>0.00</temp>
<bpm>0</bpm>
<rpm>0.00</rpm>
</extensions>
</trkpt>
<trkpt lat="30.871519089" lon="34.845149994">
<ele>594.281250</ele>
<time>2013-11-21T08:33:52Z</time>
<speed>2.840000</speed>
<extensions>
<speed>2.8</speed>
<temp>0.00</temp>
<bpm>0</bpm>
<rpm>0.00</rpm>
</extensions>
</trkpt>
<trkpt lat="30.871578217" lon="34.845188141">
<ele>591.906250</ele>
<time>2013-11-21T08:33:57Z</time>
<speed>0.860000</speed>
<extensions>
<speed>0.9</speed>
<temp>0.00</temp>
<bpm>0</bpm>
<rpm>0.00</rpm>
</extensions>
</trkpt>
<trkpt lat="30.871608734" lon="34.845256805">
<ele>590.718750</ele>
<time>2013-11-21T08:34:02Z</time>
<speed>2.250000</speed>
<extensions>
<speed>2.3</speed>
<temp>0.00</temp>
<bpm>0</bpm>
<rpm>0.00</rpm>
</extensions>
</trkpt>
<trkpt lat="30.871732712" lon="34.845409393">
<ele>587.828125</ele>
<time>2013-11-21T08:34:07Z</time>
<speed>5.070000</speed>
<extensions>
<speed>5.1</speed>
<temp>0.00</temp>
<bpm>0</bpm>
<rpm>0.00</rpm>
</extensions>
</trkpt>
<trkpt lat="30.871915817" lon="34.845581055">
<ele>585.250000</ele>
<time>2013-11-21T08:34:12Z</time>
<speed>4.790000</speed>
<extensions>
<speed>4.8</speed>
<temp>0.00</temp>
<bpm>0</bpm>
<rpm>0.00</rpm>
</extensions>
</trkpt>
<trkpt lat="30.872121811" lon="34.845611572">
<ele>581.843750</ele>
<time>2013-11-21T08:34:17Z</time>
<speed>4.410000</speed>
<extensions>
<speed>4.4</speed>
<temp>0.00</temp>
<bpm>0</bpm>
<rpm>0.00</rpm>
</extensions>
</trkpt>
<trkpt lat="30.872232437" lon="34.845611572">
<ele>579.796875</ele>
<time>2013-11-21T08:34:22Z</time>
<speed>2.730000</speed>
<extensions>
<speed>2.7</speed>
<temp>0.00</temp>
<bpm>0</bpm>
<rpm>0.00</rpm>
</extensions>
</trkpt>
<trkpt lat="30.872367859" lon="34.845611572">
<ele>576.484375</ele>
<time>2013-11-21T08:34:27Z</time>
<speed>3.040000</speed>
<extensions>
<speed>3.0</speed>
<temp>0.00</temp>
<bpm>0</bpm>
<rpm>0.00</rpm>
</extensions>
</trkpt>
<trkpt lat="30.872518539" lon="34.845584869">
<ele>573.750000</ele>
<time>2013-11-21T08:34:32Z</time>
<speed>3.250000</speed>
<extensions>
<speed>3.2</speed>
<temp>0.00</temp>
<bpm>0</bpm>
<rpm>0.00</rpm>
</extensions>
</trkpt>
<trkpt lat="30.872695923" lon="34.845542908">
<ele>572.609375</ele>
<time>2013-11-21T08:34:37Z</time>
<speed>3.540000</speed>
<extensions>
<speed>3.5</speed>
<temp>0.00</temp>
<bpm>0</bpm>
<rpm>0.00</rpm>
</extensions>
</trkpt>
<trkpt lat="30.872859955" lon="34.845481873">
<ele>571.515625</ele>
<time>2013-11-21T08:34:42Z</time>
<speed>4.760000</speed>
<extensions>
<speed>4.8</speed>
<temp>0.00</temp>
<bpm>0</bpm>
<rpm>0.00</rpm>
</extensions>
</trkpt>
<trkpt lat="30.873117447" lon="34.845417023">
<ele>570.171875</ele>
<time>2013-11-21T08:34:47Z</time>
<speed>5.350000</speed>
<extensions>
<speed>5.4</speed>
<temp>0.00</temp>
<bpm>0</bpm>
<rpm>0.00</rpm>
</extensions>
</trkpt>
<trkpt lat="30.873287201" lon="34.845363617">
<ele>568.562500</ele>
<time>2013-11-21T08:34:52Z</time>
<speed>3.570000</speed>
<extensions>
<speed>3.6</speed>
<temp>0.00</temp>
<bpm>0</bpm>
<rpm>0.00</rpm>
</extensions>
</trkpt>
<trkpt lat="30.873500824" lon="34.845329285">
<ele>566.468750</ele>
<time>2013-11-21T08:34:57Z</time>
<speed>4.490000</speed>
<extensions>
<speed>4.5</speed>
<temp>0.00</temp>
<bpm>0</bpm>
<rpm>0.00</rpm>
</extensions>
</trkpt>
<trkpt lat="30.873725891" lon="34.845291138">
<ele>562.531250</ele>
<time>2013-11-21T08:35:02Z</time>
<speed>4.390000</speed>
<extensions>
<speed>4.4</speed>
<temp>0.00</temp>
<bpm>0</bpm>
<rpm>0.00</rpm>
</extensions>
</trkpt>
<trkpt lat="30.873908997" lon="34.845310211">
<ele>561.468750</ele>
<time>2013-11-21T08:35:07Z</time>
<speed>4.250000</speed>
<extensions>
<speed>4.3</speed>
<temp>0.00</temp>
<bpm>0</bpm>
<rpm>0.00</rpm>
</extensions>
</trkpt>
<trkpt lat="30.874006271" lon="34.845405579">
<ele>564.265625</ele>
<time>2013-11-21T08:35:12Z</time>
<speed>2.820000</speed>
<extensions>
<speed>2.8</speed>
<temp>0.00</temp>
<bpm>0</bpm>
<rpm>0.00</rpm>
</extensions>
</trkpt>
<trkpt lat="30.874044418" lon="34.845558167">
<ele>563.515625</ele>
<time>2013-11-21T08:35:17Z</time>
<speed>3.290000</speed>
<extensions>
<speed>3.3</speed>
<temp>0.00</temp>
<bpm>0</bpm>
<rpm>0.00</rpm>
</extensions>
</trkpt>
<trkpt lat="30.874141693" lon="34.845718384">
<ele>562.609375</ele>
<time>2013-11-21T08:35:22Z</time>
<speed>3.900000</speed>
<extensions>
<speed>3.9</speed>
<temp>0.00</temp>
<bpm>0</bpm>
<rpm>0.00</rpm>
</extensions>
</trkpt>
<trkpt lat="30.874332428" lon="34.845710754">
<ele>560.890625</ele>
<time>2013-11-21T08:35:27Z</time>
<speed>3.890000</speed>
<extensions>
<speed>3.9</speed>
<temp>0.00</temp>
<bpm>0</bpm>
<rpm>0.00</rpm>
</extensions>
</trkpt>
<trkpt lat="30.874485016" lon="34.845603943">
<ele>560.343750</ele>
<time>2013-11-21T08:35:32Z</time>
<speed>4.050000</speed>
<extensions>
<speed>4.0</speed>
<temp>0.00</temp>
<bpm>0</bpm>
<rpm>0.00</rpm>
</extensions>
</trkpt>
<trkpt lat="30.874612808" lon="34.845497131">
<ele>559.515625</ele>
<time>2013-11-21T08:35:37Z</time>
<speed>3.350000</speed>
<extensions>
<speed>3.4</speed>
<temp>0.00</temp>
<bpm>0</bpm>
<rpm>0.00</rpm>
</extensions>
</trkpt>
<trkpt lat="30.874727249" lon="34.845436096">
<ele>559.484375</ele>
<time>2013-11-21T08:35:42Z</time>
<speed>3.540000</speed>
<extensions>
<speed>3.5</speed>
<temp>0.00</temp>
<bpm>0</bpm>
<rpm>0.00</rpm>
</extensions>
</trkpt>
<trkpt lat="30.874816895" lon="34.845310211">
<ele>560.171875</ele>
<time>2013-11-21T08:35:47Z</time>
<speed>2.620000</speed>
<extensions>
<speed>2.6</speed>
<temp>0.00</temp>
<bpm>0</bpm>
<rpm>0.00</rpm>
</extensions>
</trkpt>
<trkpt lat="30.874927521" lon="34.845256805">
<ele>559.546875</ele>
<time>2013-11-21T08:35:52Z</time>
<speed>3.190000</speed>
<extensions>
<speed>3.2</speed>
<temp>0.00</temp>
<bpm>0</bpm>
<rpm>0.00</rpm>
</extensions>
</trkpt>
<trkpt lat="30.875083923" lon="34.845191956">
<ele>558.031250</ele>
<time>2013-11-21T08:35:57Z</time>
<speed>3.360000</speed>
<extensions>
<speed>3.4</speed>
<temp>0.00</temp>
<bpm>0</bpm>
<rpm>0.00</rpm>
</extensions>
</trkpt>
<trkpt lat="30.875257492" lon="34.845127106">
<ele>556.484375</ele>
<time>2013-11-21T08:36:02Z</time>
<speed>4.410000</speed>
<extensions>
<speed>4.4</speed>
<temp>0.00</temp>
<bpm>0</bpm>
<rpm>0.00</rpm>
</extensions>
</trkpt>
<trkpt lat="30.875457764" lon="34.845008850">
<ele>554.703125</ele>
<time>2013-11-21T08:36:07Z</time>
<speed>5.720000</speed>
<extensions>
<speed>5.7</speed>
<temp>0.00</temp>
<bpm>0</bpm>
<rpm>0.00</rpm>
</extensions>
</trkpt>
<trkpt lat="30.875682831" lon="34.844902039">
<ele>553.375000</ele>
<time>2013-11-21T08:36:12Z</time>
<speed>5.770000</speed>
<extensions>
<speed>5.8</speed>
<temp>0.00</temp>
<bpm>0</bpm>
<rpm>0.00</rpm>
</extensions>
</trkpt>
<trkpt lat="30.875896454" lon="34.844821930">
<ele>551.265625</ele>
<time>2013-11-21T08:36:17Z</time>
<speed>4.140000</speed>
<extensions>
<speed>4.1</speed>
<temp>0.00</temp>
<bpm>0</bpm>
<rpm>0.00</rpm>
</extensions>
</trkpt>
<trkpt lat="30.876047134" lon="34.844673157">
<ele>549.687500</ele>
<time>2013-11-21T08:36:22Z</time>
<speed>4.520000</speed>
<extensions>
<speed>4.5</speed>
<temp>0.00</temp>
<bpm>0</bpm>
<rpm>0.00</rpm>
</extensions>
</trkpt>
<trkpt lat="30.876260757" lon="34.844577789">
<ele>547.718750</ele>
<time>2013-11-21T08:36:27Z</time>
<speed>4.860000</speed>
<extensions>
<speed>4.9</speed>
<temp>0.00</temp>
<bpm>0</bpm>
<rpm>0.00</rpm>
</extensions>
</trkpt>
<trkpt lat="30.876451492" lon="34.844463348">
<ele>546.593750</ele>
<time>2013-11-21T08:36:32Z</time>
<speed>3.400000</speed>
<extensions>
<speed>3.4</speed>
<temp>0.00</temp>
<bpm>0</bpm>
<rpm>0.00</rpm>
</extensions>
</trkpt>
<trkpt lat="30.876596451" lon="34.844402313">
<ele>546.250000</ele>
<time>2013-11-21T08:36:37Z</time>
<speed>3.380000</speed>
<extensions>
<speed>3.4</speed>
<temp>0.00</temp>
<bpm>0</bpm>
<rpm>0.00</rpm>
</extensions>
</trkpt>
<trkpt lat="30.876768112" lon="34.844329834">
<ele>547.234375</ele>
<time>2013-11-21T08:36:42Z</time>
<speed>2.990000</speed>
<extensions>
<speed>3.0</speed>
<temp>0.00</temp>
<bpm>0</bpm>
<rpm>0.00</rpm>
</extensions>
</trkpt>
<trkpt lat="30.876865387" lon="34.844341278">
<ele>547.921875</ele>
<time>2013-11-21T08:36:47Z</time>
<speed>1.240000</speed>
<extensions>
<speed>1.2</speed>
<temp>0.00</temp>
<bpm>0</bpm>
<rpm>0.00</rpm>
</extensions>
</trkpt>
<trkpt lat="30.876914978" lon="34.844394684">
<ele>549.125000</ele>
<time>2013-11-21T08:36:52Z</time>
<speed>1.180000</speed>
<extensions>
<speed>1.2</speed>
<temp>0.00</temp>
<bpm>0</bpm>
<rpm>0.00</rpm>
</extensions>
</trkpt>
<trkpt lat="30.876951218" lon="34.844429016">
<ele>549.781250</ele>
<time>2013-11-21T08:36:57Z</time>
<speed>0.970000</speed>
<extensions>
<speed>1.0</speed>
<temp>0.00</temp>
<bpm>0</bpm>
<rpm>0.00</rpm>
</extensions>
</trkpt>
<trkpt lat="30.877004623" lon="34.844470978">
<ele>549.265625</ele>
<time>2013-11-21T08:37:02Z</time>
<speed>1.490000</speed>
<extensions>
<speed>1.5</speed>
<temp>0.00</temp>
<bpm>0</bpm>
<rpm>0.00</rpm>
</extensions>
</trkpt>
<trkpt lat="30.877038956" lon="34.844490051">
<ele>548.609375</ele>
<time>2013-11-21T08:37:07Z</time>
<speed>1.160000</speed>
<extensions>
<speed>1.2</speed>
<temp>0.00</temp>
<bpm>0</bpm>
<rpm>0.00</rpm>
</extensions>
</trkpt>
<trkpt lat="30.877119064" lon="34.844535828">
<ele>548.078125</ele>
<time>2013-11-21T08:37:12Z</time>
<speed>1.760000</speed>
<extensions>
<speed>1.8</speed>
<temp>0.00</temp>
<bpm>0</bpm>
<rpm>0.00</rpm>
</extensions>
</trkpt>
<trkpt lat="30.877208710" lon="34.844585419">
<ele>548.046875</ele>
<time>2013-11-21T08:37:17Z</time>
<speed>1.900000</speed>
<extensions>
<speed>1.9</speed>
<temp>0.00</temp>
<bpm>0</bpm>
<rpm>0.00</rpm>
</extensions>
</trkpt>
<trkpt lat="30.877265930" lon="34.844615936">
<ele>548.562500</ele>
<time>2013-11-21T08:37:22Z</time>
<speed>1.030000</speed>
<extensions>
<speed>1.0</speed>
<temp>0.00</temp>
<bpm>0</bpm>
<rpm>0.00</rpm>
</extensions>
</trkpt>
<trkpt lat="30.877317429" lon="34.844654083">
<ele>549.234375</ele>
<time>2013-11-21T08:37:27Z</time>
<speed>1.130000</speed>
<extensions>
<speed>1.1</speed>
<temp>0.00</temp>
<bpm>0</bpm>
<rpm>0.00</rpm>
</extensions>
</trkpt>
<trkpt lat="30.877386093" lon="34.844703674">
<ele>549.593750</ele>
<time>2013-11-21T08:37:32Z</time>
<speed>1.930000</speed>
<extensions>
<speed>1.9</speed>
<temp>0.00</temp>
<bpm>0</bpm>
<rpm>0.00</rpm>
</extensions>
</trkpt>
<trkpt lat="30.877439499" lon="34.844749451">
<ele>550.531250</ele>
<time>2013-11-21T08:37:37Z</time>
<speed>1.930000</speed>
<extensions>
<speed>1.9</speed>
<temp>0.00</temp>
<bpm>0</bpm>
<rpm>0.00</rpm>
</extensions>
</trkpt>
<trkpt lat="30.877485275" lon="34.844772339">
<ele>551.109375</ele>
<time>2013-11-21T08:37:42Z</time>
<speed>2.060000</speed>
<extensions>
<speed>2.1</speed>
<temp>0.00</temp>
<bpm>0</bpm>
<rpm>0.00</rpm>
</extensions>
</trkpt>
<trkpt lat="30.877519608" lon="34.844787598">
<ele>550.859375</ele>
<time>2013-11-21T08:37:47Z</time>
<speed>2.130000</speed>
<extensions>
<speed>2.1</speed>
<temp>0.00</temp>
<bpm>0</bpm>
<rpm>0.00</rpm>
</extensions>
</trkpt>
<trkpt lat="30.877634048" lon="34.844860077">
<ele>551.250000</ele>
<time>2013-11-21T08:37:52Z</time>
<speed>2.890000</speed>
<extensions>
<speed>2.9</speed>
<temp>0.00</temp>
<bpm>0</bpm>
<rpm>0.00</rpm>
</extensions>
</trkpt>
<trkpt lat="30.877744675" lon="34.844947815">
<ele>551.046875</ele>
<time>2013-11-21T08:37:57Z</time>
<speed>2.860000</speed>
<extensions>
<speed>2.9</speed>
<temp>0.00</temp>
<bpm>0</bpm>
<rpm>0.00</rpm>
</extensions>
</trkpt>
<trkpt lat="30.877923965" lon="34.845069885">
<ele>550.609375</ele>
<time>2013-11-21T08:38:02Z</time>
<speed>4.260000</speed>
<extensions>
<speed>4.3</speed>
<temp>0.00</temp>
<bpm>0</bpm>
<rpm>0.00</rpm>
</extensions>
</trkpt>
<trkpt lat="30.878053665" lon="34.845180511">
<ele>549.937500</ele>
<time>2013-11-21T08:38:07Z</time>
<speed>2.610000</speed>
<extensions>
<speed>2.6</speed>
<temp>0.00</temp>
<bpm>0</bpm>
<rpm>0.00</rpm>
</extensions>
</trkpt>
<trkpt lat="30.878175735" lon="34.845291138">
<ele>550.187500</ele>
<time>2013-11-21T08:38:12Z</time>
<speed>3.230000</speed>
<extensions>
<speed>3.2</speed>
<temp>0.00</temp>
<bpm>0</bpm>
<rpm>0.00</rpm>
</extensions>
</trkpt>
<trkpt lat="30.878318787" lon="34.845405579">
<ele>550.296875</ele>
<time>2013-11-21T08:38:17Z</time>
<speed>3.490000</speed>
<extensions>
<speed>3.5</speed>
<temp>0.00</temp>
<bpm>0</bpm>
<rpm>0.00</rpm>
</extensions>
</trkpt>
<trkpt lat="30.878377914" lon="34.845462799">
<ele>550.812500</ele>
<time>2013-11-21T08:38:22Z</time>
<speed>2.520000</speed>
<extensions>
<speed>2.5</speed>
<temp>0.00</temp>
<bpm>0</bpm>
<rpm>0.00</rpm>
</extensions>
</trkpt>
<trkpt lat="30.878479004" lon="34.845500946">
<ele>551.046875</ele>
<time>2013-11-21T08:38:27Z</time>
<speed>1.880000</speed>
<extensions>
<speed>1.9</speed>
<temp>0.00</temp>
<bpm>0</bpm>
<rpm>0.00</rpm>
</extensions>
</trkpt>
<trkpt lat="30.878538132" lon="34.845527649">
<ele>551.546875</ele>
<time>2013-11-21T08:38:32Z</time>
<speed>1.000000</speed>
<extensions>
<speed>1.0</speed>
<temp>0.00</temp>
<bpm>0</bpm>
<rpm>0.00</rpm>
</extensions>
</trkpt>
<trkpt lat="30.878562927" lon="34.845546722">
<ele>551.921875</ele>
<time>2013-11-21T08:38:37Z</time>
<speed>1.310000</speed>
<extensions>
<speed>1.3</speed>
<temp>0.00</temp>
<bpm>0</bpm>
<rpm>0.00</rpm>
</extensions>
</trkpt>
<trkpt lat="30.878587723" lon="34.845588684">
<ele>552.046875</ele>
<time>2013-11-21T08:38:42Z</time>
<speed>1.250000</speed>
<extensions>
<speed>1.3</speed>
<temp>0.00</temp>
<bpm>0</bpm>
<rpm>0.00</rpm>
</extensions>
</trkpt>
<trkpt lat="30.878646851" lon="34.845626831">
<ele>553.296875</ele>
<time>2013-11-21T08:38:47Z</time>
<speed>1.090000</speed>
<extensions>
<speed>1.1</speed>
<temp>0.00</temp>
<bpm>0</bpm>
<rpm>0.00</rpm>
</extensions>
</trkpt>
<trkpt lat="30.878692627" lon="34.845664978">
<ele>553.796875</ele>
<time>2013-11-21T08:38:52Z</time>
<speed>1.280000</speed>
<extensions>
<speed>1.3</speed>
<temp>0.00</temp>
<bpm>0</bpm>
<rpm>0.00</rpm>
</extensions>
</trkpt>
<trkpt lat="30.878763199" lon="34.845718384">
<ele>554.359375</ele>
<time>2013-11-21T08:38:57Z</time>
<speed>1.670000</speed>
<extensions>
<speed>1.7</speed>
<temp>0.00</temp>
<bpm>0</bpm>
<rpm>0.00</rpm>
</extensions>
</trkpt>
<trkpt lat="30.878803253" lon="34.845756531">
<ele>554.890625</ele>
<time>2013-11-21T08:39:02Z</time>
<speed>1.380000</speed>
<extensions>
<speed>1.4</speed>
<temp>0.00</temp>
<bpm>0</bpm>
<rpm>0.00</rpm>
</extensions>
</trkpt>
<trkpt lat="30.878841400" lon="34.845798492">
<ele>555.218750</ele>
<time>2013-11-21T08:39:07Z</time>
<speed>1.090000</speed>
<extensions>
<speed>1.1</speed>
<temp>0.00</temp>
<bpm>0</bpm>
<rpm>0.00</rpm>
</extensions>
</trkpt>
<trkpt lat="30.878906250" lon="34.845848083">
<ele>554.375000</ele>
<time>2013-11-21T08:39:12Z</time>
<speed>1.650000</speed>
<extensions>
<speed>1.7</speed>
<temp>0.00</temp>
<bpm>0</bpm>
<rpm>0.00</rpm>
</extensions>
</trkpt>
<trkpt lat="30.879009247" lon="34.845916748">
<ele>554.812500</ele>
<time>2013-11-21T08:39:17Z</time>
<speed>3.230000</speed>
<extensions>
<speed>3.2</speed>
<temp>0.00</temp>
<bpm>0</bpm>
<rpm>0.00</rpm>
</extensions>
</trkpt>
<trkpt lat="30.879028320" lon="34.845962524">
<ele>555.421875</ele>
<time>2013-11-21T08:39:22Z</time>
<speed>0.090000</speed>
<extensions>
<speed>0.1</speed>
<temp>0.00</temp>
<bpm>0</bpm>
<rpm>0.00</rpm>
</extensions>
</trkpt>
<trkpt lat="30.879020691" lon="34.845970154">
<ele>555.515625</ele>
<time>2013-11-21T08:39:27Z</time>
<speed>0.050000</speed>
<extensions>
<speed>0.1</speed>
<temp>0.00</temp>
<bpm>0</bpm>
<rpm>0.00</rpm>
</extensions>
</trkpt>
<trkpt lat="30.879026413" lon="34.845977783">
<ele>555.500000</ele>
<time>2013-11-21T08:39:32Z</time>
<speed>1.260000</speed>
<extensions>
<speed>1.3</speed>
<temp>0.00</temp>
<bpm>0</bpm>
<rpm>0.00</rpm>
</extensions>
</trkpt>
<trkpt lat="30.879148483" lon="34.846096039">
<ele>553.953125</ele>
<time>2013-11-21T08:39:37Z</time>
<speed>3.480000</speed>
<extensions>
<speed>3.5</speed>
<temp>0.00</temp>
<bpm>0</bpm>
<rpm>0.00</rpm>
</extensions>
</trkpt>
<trkpt lat="30.879301071" lon="34.846237183">
<ele>553.812500</ele>
<time>2013-11-21T08:39:42Z</time>
<speed>3.410000</speed>
<extensions>
<speed>3.4</speed>
<temp>0.00</temp>
<bpm>0</bpm>
<rpm>0.00</rpm>
</extensions>
</trkpt>
<trkpt lat="30.879400253" lon="34.846328735">
<ele>553.656250</ele>
<time>2013-11-21T08:39:47Z</time>
<speed>2.440000</speed>
<extensions>
<speed>2.4</speed>
<temp>0.00</temp>
<bpm>0</bpm>
<rpm>0.00</rpm>
</extensions>
</trkpt>
<trkpt lat="30.879482269" lon="34.846420288">
<ele>553.671875</ele>
<time>2013-11-21T08:39:52Z</time>
<speed>2.770000</speed>
<extensions>
<speed>2.8</speed>
<temp>0.00</temp>
<bpm>0</bpm>
<rpm>0.00</rpm>
</extensions>
</trkpt>
<trkpt lat="30.879571915" lon="34.846508026">
<ele>553.984375</ele>
<time>2013-11-21T08:39:57Z</time>
<speed>3.090000</speed>
<extensions>
<speed>3.1</speed>
<temp>0.00</temp>
<bpm>0</bpm>
<rpm>0.00</rpm>
</extensions>
</trkpt>
<trkpt lat="30.879665375" lon="34.846607208">
<ele>551.687500</ele>
<time>2013-11-21T08:40:02Z</time>
<speed>2.560000</speed>
<extensions>
<speed>2.6</speed>
<temp>0.00</temp>
<bpm>0</bpm>
<rpm>0.00</rpm>
</extensions>
</trkpt>
<trkpt lat="30.879753113" lon="34.846683502">
<ele>551.531250</ele>
<time>2013-11-21T08:40:07Z</time>
<speed>2.340000</speed>
<extensions>
<speed>2.3</speed>
<temp>0.00</temp>
<bpm>0</bpm>
<rpm>0.00</rpm>
</extensions>
</trkpt>
<trkpt lat="30.879838943" lon="34.846748352">
<ele>553.609375</ele>
<time>2013-11-21T08:40:12Z</time>
<speed>2.140000</speed>
<extensions>
<speed>2.1</speed>
<temp>0.00</temp>
<bpm>0</bpm>
<rpm>0.00</rpm>
</extensions>
</trkpt>
<trkpt lat="30.879940033" lon="34.846862793">
<ele>556.250000</ele>
<time>2013-11-21T08:40:17Z</time>
<speed>2.420000</speed>
<extensions>
<speed>2.4</speed>
<temp>0.00</temp>
<bpm>0</bpm>
<rpm>0.00</rpm>
</extensions>
</trkpt>
<trkpt lat="30.879968643" lon="34.846920013">
<ele>555.468750</ele>
<time>2013-11-21T08:40:22Z</time>
<speed>2.190000</speed>
<extensions>
<speed>2.2</speed>
<temp>0.00</temp>
<bpm>0</bpm>
<rpm>0.00</rpm>
</extensions>
</trkpt>
<trkpt lat="30.880065918" lon="34.847003937">
<ele>555.562500</ele>
<time>2013-11-21T08:40:27Z</time>
<speed>2.410000</speed>
<extensions>
<speed>2.4</speed>
<temp>0.00</temp>
<bpm>0</bpm>
<rpm>0.00</rpm>
</extensions>
</trkpt>
<trkpt lat="30.880119324" lon="34.847068787">
<ele>554.421875</ele>
<time>2013-11-21T08:40:32Z</time>
<speed>1.650000</speed>
<extensions>
<speed>1.7</speed>
<temp>0.00</temp>
<bpm>0</bpm>
<rpm>0.00</rpm>
</extensions>
</trkpt>
<trkpt lat="30.880176544" lon="34.847122192">
<ele>553.890625</ele>
<time>2013-11-21T08:40:37Z</time>
<speed>1.720000</speed>
<extensions>
<speed>1.7</speed>
<temp>0.00</temp>
<bpm>0</bpm>
<rpm>0.00</rpm>
</extensions>
</trkpt>
<trkpt lat="30.880214691" lon="34.847164154">
<ele>553.718750</ele>
<time>2013-11-21T08:40:42Z</time>
<speed>1.400000</speed>
<extensions>
<speed>1.4</speed>
<temp>0.00</temp>
<bpm>0</bpm>
<rpm>0.00</rpm>
</extensions>
</trkpt>
<trkpt lat="30.880271912" lon="34.847232819">
<ele>552.984375</ele>
<time>2013-11-21T08:40:47Z</time>
<speed>1.490000</speed>
<extensions>
<speed>1.5</speed>
<temp>0.00</temp>
<bpm>0</bpm>
<rpm>0.00</rpm>
</extensions>
</trkpt>
<trkpt lat="30.880350113" lon="34.847290039">
<ele>552.953125</ele>
<time>2013-11-21T08:40:52Z</time>
<speed>1.990000</speed>
<extensions>
<speed>2.0</speed>
<temp>0.00</temp>
<bpm>0</bpm>
<rpm>0.00</rpm>
</extensions>
</trkpt>
<trkpt lat="30.880437851" lon="34.847347260">
<ele>554.046875</ele>
<time>2013-11-21T08:40:57Z</time>
<speed>1.800000</speed>
<extensions>
<speed>1.8</speed>
<temp>0.00</temp>
<bpm>0</bpm>
<rpm>0.00</rpm>
</extensions>
</trkpt>
<trkpt lat="30.880500793" lon="34.847419739">
<ele>554.406250</ele>
<time>2013-11-21T08:41:02Z</time>
<speed>2.090000</speed>
<extensions>
<speed>2.1</speed>
<temp>0.00</temp>
<bpm>0</bpm>
<rpm>0.00</rpm>
</extensions>
</trkpt>
<trkpt lat="30.880556107" lon="34.847480774">
<ele>555.343750</ele>
<time>2013-11-21T08:41:07Z</time>
<speed>2.090000</speed>
<extensions>
<speed>2.1</speed>
<temp>0.00</temp>
<bpm>0</bpm>
<rpm>0.00</rpm>
</extensions>
</trkpt>
<trkpt lat="30.880653381" lon="34.847572327">
<ele>556.328125</ele>
<time>2013-11-21T08:41:12Z</time>
<speed>2.870000</speed>
<extensions>
<speed>2.9</speed>
<temp>0.00</temp>
<bpm>0</bpm>
<rpm>0.00</rpm>
</extensions>
</trkpt>
<trkpt lat="30.880733490" lon="34.847644806">
<ele>555.859375</ele>
<time>2013-11-21T08:41:17Z</time>
<speed>2.160000</speed>
<extensions>
<speed>2.2</speed>
<temp>0.00</temp>
<bpm>0</bpm>
<rpm>0.00</rpm>
</extensions>
</trkpt>
<trkpt lat="30.880823135" lon="34.847724915">
<ele>556.984375</ele>
<time>2013-11-21T08:41:22Z</time>
<speed>2.090000</speed>
<extensions>
<speed>2.1</speed>
<temp>0.00</temp>
<bpm>0</bpm>
<rpm>0.00</rpm>
</extensions>
</trkpt>
<trkpt lat="30.880918503" lon="34.847820282">
<ele>559.093750</ele>
<time>2013-11-21T08:41:27Z</time>
<speed>2.460000</speed>
<extensions>
<speed>2.5</speed>
<temp>0.00</temp>
<bpm>0</bpm>
<rpm>0.00</rpm>
</extensions>
</trkpt>
<trkpt lat="30.880970001" lon="34.847888947">
<ele>559.203125</ele>
<time>2013-11-21T08:41:32Z</time>
<speed>1.660000</speed>
<extensions>
<speed>1.7</speed>
<temp>0.00</temp>
<bpm>0</bpm>
<rpm>0.00</rpm>
</extensions>
</trkpt>
<trkpt lat="30.881065369" lon="34.847991943">
<ele>558.453125</ele>
<time>2013-11-21T08:41:37Z</time>
<speed>2.150000</speed>
<extensions>
<speed>2.1</speed>
<temp>0.00</temp>
<bpm>0</bpm>
<rpm>0.00</rpm>
</extensions>
</trkpt>
<trkpt lat="30.881139755" lon="34.848094940">
<ele>558.421875</ele>
<time>2013-11-21T08:41:42Z</time>
<speed>2.630000</speed>
<extensions>
<speed>2.6</speed>
<temp>0.00</temp>
<bpm>0</bpm>
<rpm>0.00</rpm>
</extensions>
</trkpt>
<trkpt lat="30.881219864" lon="34.848190308">
<ele>557.156250</ele>
<time>2013-11-21T08:41:47Z</time>
<speed>3.490000</speed>
<extensions>
<speed>3.5</speed>
<temp>0.00</temp>
<bpm>0</bpm>
<rpm>0.00</rpm>
</extensions>
</trkpt>
<trkpt lat="30.881328583" lon="34.848350525">
<ele>554.218750</ele>
<time>2013-11-21T08:41:52Z</time>
<speed>3.500000</speed>
<extensions>
<speed>3.5</speed>
<temp>0.00</temp>
<bpm>0</bpm>
<rpm>0.00</rpm>
</extensions>
</trkpt>
<trkpt lat="30.881431580" lon="34.848457336">
<ele>552.328125</ele>
<time>2013-11-21T08:41:57Z</time>
<speed>2.910000</speed>
<extensions>
<speed>2.9</speed>
<temp>0.00</temp>
<bpm>0</bpm>
<rpm>0.00</rpm>
</extensions>
</trkpt>
<trkpt lat="30.881502151" lon="34.848529816">
<ele>550.890625</ele>
<time>2013-11-21T08:42:02Z</time>
<speed>1.680000</speed>
<extensions>
<speed>1.7</speed>
<temp>0.00</temp>
<bpm>0</bpm>
<rpm>0.00</rpm>
</extensions>
</trkpt>
<trkpt lat="30.881565094" lon="34.848587036">
<ele>551.156250</ele>
<time>2013-11-21T08:42:07Z</time>
<speed>2.410000</speed>
<extensions>
<speed>2.4</speed>
<temp>0.00</temp>
<bpm>0</bpm>
<rpm>0.00</rpm>
</extensions>
</trkpt>
<trkpt lat="30.881666183" lon="34.848693848">
<ele>550.328125</ele>
<time>2013-11-21T08:42:12Z</time>
<speed>2.830000</speed>
<extensions>
<speed>2.8</speed>
<temp>0.00</temp>
<bpm>0</bpm>
<rpm>0.00</rpm>
</extensions>
</trkpt>
<trkpt lat="30.881719589" lon="34.848758698">
<ele>551.609375</ele>
<time>2013-11-21T08:42:17Z</time>
<speed>0.900000</speed>
<extensions>
<speed>0.9</speed>
<temp>0.00</temp>
<bpm>0</bpm>
<rpm>0.00</rpm>
</extensions>
</trkpt>
<trkpt lat="30.881727219" lon="34.848758698">
<ele>552.500000</ele>
<time>2013-11-21T08:42:22Z</time>
<speed>0.150000</speed>
<extensions>
<speed>0.2</speed>
<temp>0.00</temp>
<bpm>0</bpm>
<rpm>0.00</rpm>
</extensions>
</trkpt>
<trkpt lat="30.881727219" lon="34.848770142">
<ele>552.843750</ele>
<time>2013-11-21T08:42:27Z</time>
<speed>0.790000</speed>
<extensions>
<speed>0.8</speed>
<temp>0.00</temp>
<bpm>0</bpm>
<rpm>0.00</rpm>
</extensions>
</trkpt>
<trkpt lat="30.881757736" lon="34.848815918">
<ele>553.656250</ele>
<time>2013-11-21T08:42:32Z</time>
<speed>1.220000</speed>
<extensions>
<speed>1.2</speed>
<temp>0.00</temp>
<bpm>0</bpm>
<rpm>0.00</rpm>
</extensions>
</trkpt>
<trkpt lat="30.881795883" lon="34.848865509">
<ele>554.406250</ele>
<time>2013-11-21T08:42:37Z</time>
<speed>1.240000</speed>
<extensions>
<speed>1.2</speed>
<temp>0.00</temp>
<bpm>0</bpm>
<rpm>0.00</rpm>
</extensions>
</trkpt>
<trkpt lat="30.881816864" lon="34.848907471">
<ele>554.468750</ele>
<time>2013-11-21T08:42:42Z</time>
<speed>1.070000</speed>
<extensions>
<speed>1.1</speed>
<temp>0.00</temp>
<bpm>0</bpm>
<rpm>0.00</rpm>
</extensions>
</trkpt>
<trkpt lat="30.881835938" lon="34.848930359">
<ele>552.843750</ele>
<time>2013-11-21T08:42:47Z</time>
<speed>0.250000</speed>
<extensions>
<speed>0.2</speed>
<temp>0.00</temp>
<bpm>0</bpm>
<rpm>0.00</rpm>
</extensions>
</trkpt>
<trkpt lat="30.881862640" lon="34.848934174">
<ele>553.468750</ele>
<time>2013-11-21T08:42:52Z</time>
<speed>0.720000</speed>
<extensions>
<speed>0.7</speed>
<temp>0.00</temp>
<bpm>0</bpm>
<rpm>0.00</rpm>
</extensions>
</trkpt>
<trkpt lat="30.881879807" lon="34.848987579">
<ele>553.703125</ele>
<time>2013-11-21T08:42:57Z</time>
<speed>0.780000</speed>
<extensions>
<speed>0.8</speed>
<temp>0.00</temp>
<bpm>0</bpm>
<rpm>0.00</rpm>
</extensions>
</trkpt>
<trkpt lat="30.881914139" lon="34.849040985">
<ele>552.875000</ele>
<time>2013-11-21T08:43:02Z</time>
<speed>1.000000</speed>
<extensions>
<speed>1.0</speed>
<temp>0.00</temp>
<bpm>0</bpm>
<rpm>0.00</rpm>
</extensions>
</trkpt>
<trkpt lat="30.881935120" lon="34.849082947">
<ele>552.687500</ele>
<time>2013-11-21T08:43:07Z</time>
<speed>0.790000</speed>
<extensions>
<speed>0.8</speed>
<temp>0.00</temp>
<bpm>0</bpm>
<rpm>0.00</rpm>
</extensions>
</trkpt>
<trkpt lat="30.881961823" lon="34.849109650">
<ele>550.406250</ele>
<time>2013-11-21T08:43:12Z</time>
<speed>0.730000</speed>
<extensions>
<speed>0.7</speed>
<temp>0.00</temp>
<bpm>0</bpm>
<rpm>0.00</rpm>
</extensions>
</trkpt>
<trkpt lat="30.881992340" lon="34.849155426">
<ele>550.796875</ele>
<time>2013-11-21T08:43:17Z</time>
<speed>1.000000</speed>
<extensions>
<speed>1.0</speed>
<temp>0.00</temp>
<bpm>0</bpm>
<rpm>0.00</rpm>
</extensions>
</trkpt>
<trkpt lat="30.882022858" lon="34.849182129">
<ele>550.812500</ele>
<time>2013-11-21T08:43:22Z</time>
<speed>1.090000</speed>
<extensions>
<speed>1.1</speed>
<temp>0.00</temp>
<bpm>0</bpm>
<rpm>0.00</rpm>
</extensions>
</trkpt>
<trkpt lat="30.882053375" lon="34.849205017">
<ele>551.078125</ele>
<time>2013-11-21T08:43:27Z</time>
<speed>0.970000</speed>
<extensions>
<speed>1.0</speed>
<temp>0.00</temp>
<bpm>0</bpm>
<rpm>0.00</rpm>
</extensions>
</trkpt>
<trkpt lat="30.882104874" lon="34.849243164">
<ele>551.406250</ele>
<time>2013-11-21T08:43:32Z</time>
<speed>1.160000</speed>
<extensions>
<speed>1.2</speed>
<temp>0.00</temp>
<bpm>0</bpm>
<rpm>0.00</rpm>
</extensions>
</trkpt>
<trkpt lat="30.882125854" lon="34.849277496">
<ele>551.671875</ele>
<time>2013-11-21T08:43:37Z</time>
<speed>0.960000</speed>
<extensions>
<speed>1.0</speed>
<temp>0.00</temp>
<bpm>0</bpm>
<rpm>0.00</rpm>
</extensions>
</trkpt>
<trkpt lat="30.882179260" lon="34.849323273">
<ele>552.375000</ele>
<time>2013-11-21T08:43:42Z</time>
<speed>1.230000</speed>
<extensions>
<speed>1.2</speed>
<temp>0.00</temp>
<bpm>0</bpm>
<rpm>0.00</rpm>
</extensions>
</trkpt>
<trkpt lat="30.882211685" lon="34.849376678">
<ele>552.328125</ele>
<time>2013-11-21T08:43:47Z</time>
<speed>1.060000</speed>
<extensions>
<speed>1.1</speed>
<temp>0.00</temp>
<bpm>0</bpm>
<rpm>0.00</rpm>
</extensions>
</trkpt>
<trkpt lat="30.882249832" lon="34.849422455">
<ele>552.250000</ele>
<time>2013-11-21T08:43:52Z</time>
<speed>1.330000</speed>
<extensions>
<speed>1.3</speed>
<temp>0.00</temp>
<bpm>0</bpm>
<rpm>0.00</rpm>
</extensions>
</trkpt>
<trkpt lat="30.882259369" lon="34.849464417">
<ele>552.328125</ele>
<time>2013-11-21T08:43:57Z</time>
<speed>0.910000</speed>
<extensions>
<speed>0.9</speed>
<temp>0.00</temp>
<bpm>0</bpm>
<rpm>0.00</rpm>
</extensions>
</trkpt>
<trkpt lat="30.882289886" lon="34.849517822">
<ele>552.484375</ele>
<time>2013-11-21T08:44:02Z</time>
<speed>1.150000</speed>
<extensions>
<speed>1.1</speed>
<temp>0.00</temp>
<bpm>0</bpm>
<rpm>0.00</rpm>
</extensions>
</trkpt>
<trkpt lat="30.882307053" lon="34.849571228">
<ele>553.500000</ele>
<time>2013-11-21T08:44:07Z</time>
<speed>0.900000</speed>
<extensions>
<speed>0.9</speed>
<temp>0.00</temp>
<bpm>0</bpm>
<rpm>0.00</rpm>
</extensions>
</trkpt>
<trkpt lat="30.882375717" lon="34.849617004">
<ele>554.171875</ele>
<time>2013-11-21T08:44:12Z</time>
<speed>1.270000</speed>
<extensions>
<speed>1.3</speed>
<temp>0.00</temp>
<bpm>0</bpm>
<rpm>0.00</rpm>
</extensions>
</trkpt>
<trkpt lat="30.882419586" lon="34.849658966">
<ele>554.984375</ele>
<time>2013-11-21T08:44:17Z</time>
<speed>1.070000</speed>
<extensions>
<speed>1.1</speed>
<temp>0.00</temp>
<bpm>0</bpm>
<rpm>0.00</rpm>
</extensions>
</trkpt>
<trkpt lat="30.882453918" lon="34.849700928">
<ele>554.843750</ele>
<time>2013-11-21T08:44:22Z</time>
<speed>1.140000</speed>
<extensions>
<speed>1.1</speed>
<temp>0.00</temp>
<bpm>0</bpm>
<rpm>0.00</rpm>
</extensions>
</trkpt>
<trkpt lat="30.882493973" lon="34.849735260">
<ele>554.796875</ele>
<time>2013-11-21T08:44:27Z</time>
<speed>1.060000</speed>
<extensions>
<speed>1.1</speed>
<temp>0.00</temp>
<bpm>0</bpm>
<rpm>0.00</rpm>
</extensions>
</trkpt>
<trkpt lat="30.882522583" lon="34.849777222">
<ele>554.734375</ele>
<time>2013-11-21T08:44:32Z</time>
<speed>1.240000</speed>
<extensions>
<speed>1.2</speed>
<temp>0.00</temp>
<bpm>0</bpm>
<rpm>0.00</rpm>
</extensions>
</trkpt>
<trkpt lat="30.882560730" lon="34.849815369">
<ele>555.140625</ele>
<time>2013-11-21T08:44:37Z</time>
<speed>0.610000</speed>
<extensions>
<speed>0.6</speed>
<temp>0.00</temp>
<bpm>0</bpm>
<rpm>0.00</rpm>
</extensions>
</trkpt>
<trkpt lat="30.882606506" lon="34.849845886">
<ele>555.593750</ele>
<time>2013-11-21T08:44:42Z</time>
<speed>1.170000</speed>
<extensions>
<speed>1.2</speed>
<temp>0.00</temp>
<bpm>0</bpm>
<rpm>0.00</rpm>
</extensions>
</trkpt>
<trkpt lat="30.882640839" lon="34.849906921">
<ele>556.000000</ele>
<time>2013-11-21T08:44:47Z</time>
<speed>1.610000</speed>
<extensions>
<speed>1.6</speed>
<temp>0.00</temp>
<bpm>0</bpm>
<rpm>0.00</rpm>
</extensions>
</trkpt>
<trkpt lat="30.882644653" lon="34.849937439">
<ele>555.843750</ele>
<time>2013-11-21T08:44:52Z</time>
<speed>0.950000</speed>
<extensions>
<speed>1.0</speed>
<temp>0.00</temp>
<bpm>0</bpm>
<rpm>0.00</rpm>
</extensions>
</trkpt>
<trkpt lat="30.882678986" lon="34.849987030">
<ele>556.890625</ele>
<time>2013-11-21T08:44:57Z</time>
<speed>1.010000</speed>
<extensions>
<speed>1.0</speed>
<temp>0.00</temp>
<bpm>0</bpm>
<rpm>0.00</rpm>
</extensions>
</trkpt>
<trkpt lat="30.882745743" lon="34.850040436">
<ele>557.765625</ele>
<time>2013-11-21T08:45:02Z</time>
<speed>1.460000</speed>
<extensions>
<speed>1.5</speed>
<temp>0.00</temp>
<bpm>0</bpm>
<rpm>0.00</rpm>
</extensions>
</trkpt>
<trkpt lat="30.882825851" lon="34.850109100">
<ele>559.375000</ele>
<time>2013-11-21T08:45:07Z</time>
<speed>1.450000</speed>
<extensions>
<speed>1.4</speed>
<temp>0.00</temp>
<bpm>0</bpm>
<rpm>0.00</rpm>
</extensions>
</trkpt>
<trkpt lat="30.882879257" lon="34.850143433">
<ele>559.968750</ele>
<time>2013-11-21T08:45:12Z</time>
<speed>1.320000</speed>
<extensions>
<speed>1.3</speed>
<temp>0.00</temp>
<bpm>0</bpm>
<rpm>0.00</rpm>
</extensions>
</trkpt>
<trkpt lat="30.882925034" lon="34.850170135">
<ele>560.468750</ele>
<time>2013-11-21T08:45:17Z</time>
<speed>1.280000</speed>
<extensions>
<speed>1.3</speed>
<temp>0.00</temp>
<bpm>0</bpm>
<rpm>0.00</rpm>
</extensions>
</trkpt>
<trkpt lat="30.882963181" lon="34.850212097">
<ele>559.921875</ele>
<time>2013-11-21T08:45:22Z</time>
<speed>1.440000</speed>
<extensions>
<speed>1.4</speed>
<temp>0.00</temp>
<bpm>0</bpm>
<rpm>0.00</rpm>
</extensions>
</trkpt>
<trkpt lat="30.882987976" lon="34.850254059">
<ele>560.656250</ele>
<time>2013-11-21T08:45:27Z</time>
<speed>1.530000</speed>
<extensions>
<speed>1.5</speed>
<temp>0.00</temp>
<bpm>0</bpm>
<rpm>0.00</rpm>
</extensions>
</trkpt>
<trkpt lat="30.883010864" lon="34.850296021">
<ele>561.234375</ele>
<time>2013-11-21T08:45:32Z</time>
<speed>1.420000</speed>
<extensions>
<speed>1.4</speed>
<temp>0.00</temp>
<bpm>0</bpm>
<rpm>0.00</rpm>
</extensions>
</trkpt>
<trkpt lat="30.883071899" lon="34.850345612">
<ele>563.062500</ele>
<time>2013-11-21T08:45:37Z</time>
<speed>1.250000</speed>
<extensions>
<speed>1.3</speed>
<temp>0.00</temp>
<bpm>0</bpm>
<rpm>0.00</rpm>
</extensions>
</trkpt>
<trkpt lat="30.883132935" lon="34.850376129">
<ele>564.812500</ele>
<time>2013-11-21T08:45:42Z</time>
<speed>0.930000</speed>
<extensions>
<speed>0.9</speed>
<temp>0.00</temp>
<bpm>0</bpm>
<rpm>0.00</rpm>
</extensions>
</trkpt>
<trkpt lat="30.883174896" lon="34.850414276">
<ele>566.453125</ele>
<time>2013-11-21T08:45:47Z</time>
<speed>1.070000</speed>
<extensions>
<speed>1.1</speed>
<temp>0.00</temp>
<bpm>0</bpm>
<rpm>0.00</rpm>
</extensions>
</trkpt>
<trkpt lat="30.883205414" lon="34.850460052">
<ele>567.500000</ele>
<time>2013-11-21T08:45:52Z</time>
<speed>1.170000</speed>
<extensions>
<speed>1.2</speed>
<temp>0.00</temp>
<bpm>0</bpm>
<rpm>0.00</rpm>
</extensions>
</trkpt>
<trkpt lat="30.883260727" lon="34.850494385">
<ele>568.890625</ele>
<time>2013-11-21T08:45:57Z</time>
<speed>1.070000</speed>
<extensions>
<speed>1.1</speed>
<temp>0.00</temp>
<bpm>0</bpm>
<rpm>0.00</rpm>
</extensions>
</trkpt>
<trkpt lat="30.883300781" lon="34.850528717">
<ele>570.046875</ele>
<time>2013-11-21T08:46:02Z</time>
<speed>1.000000</speed>
<extensions>
<speed>1.0</speed>
<temp>0.00</temp>
<bpm>0</bpm>
<rpm>0.00</rpm>
</extensions>
</trkpt>
<trkpt lat="30.883323669" lon="34.850551605">
<ele>570.453125</ele>
<time>2013-11-21T08:46:07Z</time>
<speed>0.620000</speed>
<extensions>
<speed>0.6</speed>
<temp>0.00</temp>
<bpm>0</bpm>
<rpm>0.00</rpm>
</extensions>
</trkpt>
<trkpt lat="30.883377075" lon="34.850563049">
<ele>572.171875</ele>
<time>2013-11-21T08:46:12Z</time>
<speed>0.740000</speed>
<extensions>
<speed>0.7</speed>
<temp>0.00</temp>
<bpm>0</bpm>
<rpm>0.00</rpm>
</extensions>
</trkpt>
<trkpt lat="30.883428574" lon="34.850601196">
<ele>572.687500</ele>
<time>2013-11-21T08:46:17Z</time>
<speed>0.990000</speed>
<extensions>
<speed>1.0</speed>
<temp>0.00</temp>
<bpm>0</bpm>
<rpm>0.00</rpm>
</extensions>
</trkpt>
<trkpt lat="30.883527756" lon="34.850677490">
<ele>573.625000</ele>
<time>2013-11-21T08:46:22Z</time>
<speed>2.890000</speed>
<extensions>
<speed>2.9</speed>
<temp>0.00</temp>
<bpm>0</bpm>
<rpm>0.00</rpm>
</extensions>
</trkpt>
<trkpt lat="30.883600235" lon="34.850749969">
<ele>575.015625</ele>
<time>2013-11-21T08:46:27Z</time>
<speed>2.500000</speed>
<extensions>
<speed>2.5</speed>
<temp>0.00</temp>
<bpm>0</bpm>
<rpm>0.00</rpm>
</extensions>
</trkpt>
<trkpt lat="30.883695602" lon="34.850811005">
<ele>575.812500</ele>
<time>2013-11-21T08:46:32Z</time>
<speed>2.380000</speed>
<extensions>
<speed>2.4</speed>
<temp>0.00</temp>
<bpm>0</bpm>
<rpm>0.00</rpm>
</extensions>
</trkpt>
<trkpt lat="30.883768082" lon="34.850852966">
<ele>576.656250</ele>
<time>2013-11-21T08:46:37Z</time>
<speed>1.990000</speed>
<extensions>
<speed>2.0</speed>
<temp>0.00</temp>
<bpm>0</bpm>
<rpm>0.00</rpm>
</extensions>
</trkpt>
<trkpt lat="30.883869171" lon="34.850921631">
<ele>577.203125</ele>
<time>2013-11-21T08:46:42Z</time>
<speed>2.680000</speed>
<extensions>
<speed>2.7</speed>
<temp>0.00</temp>
<bpm>0</bpm>
<rpm>0.00</rpm>
</extensions>
</trkpt>
<trkpt lat="30.884050369" lon="34.851100922">
<ele>576.968750</ele>
<time>2013-11-21T08:46:47Z</time>
<speed>6.280000</speed>
<extensions>
<speed>6.3</speed>
<temp>0.00</temp>
<bpm>0</bpm>
<rpm>0.00</rpm>
</extensions>
</trkpt>
<trkpt lat="30.884197235" lon="34.851257324">
<ele>577.593750</ele>
<time>2013-11-21T08:46:52Z</time>
<speed>1.590000</speed>
<extensions>
<speed>1.6</speed>
<temp>0.00</temp>
<bpm>0</bpm>
<rpm>0.00</rpm>
</extensions>
</trkpt>
<trkpt lat="30.884252548" lon="34.851318359">
<ele>578.375000</ele>
<time>2013-11-21T08:46:57Z</time>
<speed>1.490000</speed>
<extensions>
<speed>1.5</speed>
<temp>0.00</temp>
<bpm>0</bpm>
<rpm>0.00</rpm>
</extensions>
</trkpt>
<trkpt lat="30.884300232" lon="34.851375580">
<ele>578.578125</ele>
<time>2013-11-21T08:47:02Z</time>
<speed>1.790000</speed>
<extensions>
<speed>1.8</speed>
<temp>0.00</temp>
<bpm>0</bpm>
<rpm>0.00</rpm>
</extensions>
</trkpt>
<trkpt lat="30.884351730" lon="34.851436615">
<ele>579.203125</ele>
<time>2013-11-21T08:47:07Z</time>
<speed>2.170000</speed>
<extensions>
<speed>2.2</speed>
<temp>0.00</temp>
<bpm>0</bpm>
<rpm>0.00</rpm>
</extensions>
</trkpt>
<trkpt lat="30.884401321" lon="34.851501465">
<ele>579.000000</ele>
<time>2013-11-21T08:47:12Z</time>
<speed>2.360000</speed>
<extensions>
<speed>2.4</speed>
<temp>0.00</temp>
<bpm>0</bpm>
<rpm>0.00</rpm>
</extensions>
</trkpt>
<trkpt lat="30.884466171" lon="34.851608276">
<ele>581.375000</ele>
<time>2013-11-21T08:47:17Z</time>
<speed>2.200000</speed>
<extensions>
<speed>2.2</speed>
<temp>0.00</temp>
<bpm>0</bpm>
<rpm>0.00</rpm>
</extensions>
</trkpt>
<trkpt lat="30.884542465" lon="34.851688385">
<ele>582.781250</ele>
<time>2013-11-21T08:47:22Z</time>
<speed>2.100000</speed>
<extensions>
<speed>2.1</speed>
<temp>0.00</temp>
<bpm>0</bpm>
<rpm>0.00</rpm>
</extensions>
</trkpt>
<trkpt lat="30.884611130" lon="34.851776123">
<ele>583.046875</ele>
<time>2013-11-21T08:47:27Z</time>
<speed>2.550000</speed>
<extensions>
<speed>2.6</speed>
<temp>0.00</temp>
<bpm>0</bpm>
<rpm>0.00</rpm>
</extensions>
</trkpt>
<trkpt lat="30.884681702" lon="34.851879120">
<ele>584.140625</ele>
<time>2013-11-21T08:47:32Z</time>
<speed>2.810000</speed>
<extensions>
<speed>2.8</speed>
<temp>0.00</temp>
<bpm>0</bpm>
<rpm>0.00</rpm>
</extensions>
</trkpt>
<trkpt lat="30.884796143" lon="34.851993561">
<ele>584.218750</ele>
<time>2013-11-21T08:47:37Z</time>
<speed>3.650000</speed>
<extensions>
<speed>3.7</speed>
<temp>0.00</temp>
<bpm>0</bpm>
<rpm>0.00</rpm>
</extensions>
</trkpt>
<trkpt lat="30.884895325" lon="34.852108002">
<ele>582.640625</ele>
<time>2013-11-21T08:47:42Z</time>
<speed>2.830000</speed>
<extensions>
<speed>2.8</speed>
<temp>0.00</temp>
<bpm>0</bpm>
<rpm>0.00</rpm>
</extensions>
</trkpt>
<trkpt lat="30.884994507" lon="34.852237701">
<ele>582.640625</ele>
<time>2013-11-21T08:47:47Z</time>
<speed>3.130000</speed>
<extensions>
<speed>3.1</speed>
<temp>0.00</temp>
<bpm>0</bpm>
<rpm>0.00</rpm>
</extensions>
</trkpt>
<trkpt lat="30.885097504" lon="34.852352142">
<ele>582.609375</ele>
<time>2013-11-21T08:47:52Z</time>
<speed>2.910000</speed>
<extensions>
<speed>2.9</speed>
<temp>0.00</temp>
<bpm>0</bpm>
<rpm>0.00</rpm>
</extensions>
</trkpt>
<trkpt lat="30.885189056" lon="34.852436066">
<ele>579.546875</ele>
<time>2013-11-21T08:47:57Z</time>
<speed>2.050000</speed>
<extensions>
<speed>2.1</speed>
<temp>0.00</temp>
<bpm>0</bpm>
<rpm>0.00</rpm>
</extensions>
</trkpt>
<trkpt lat="30.885314941" lon="34.852516174">
<ele>576.765625</ele>
<time>2013-11-21T08:48:02Z</time>
<speed>2.940000</speed>
<extensions>
<speed>2.9</speed>
<temp>0.00</temp>
<bpm>0</bpm>
<rpm>0.00</rpm>
</extensions>
</trkpt>
<trkpt lat="30.885444641" lon="34.852611542">
<ele>573.843750</ele>
<time>2013-11-21T08:48:07Z</time>
<speed>3.720000</speed>
<extensions>
<speed>3.7</speed>
<temp>0.00</temp>
<bpm>0</bpm>
<rpm>0.00</rpm>
</extensions>
</trkpt>
<trkpt lat="30.885631561" lon="34.852703094">
<ele>571.406250</ele>
<time>2013-11-21T08:48:12Z</time>
<speed>4.320000</speed>
<extensions>
<speed>4.3</speed>
<temp>0.00</temp>
<bpm>0</bpm>
<rpm>0.00</rpm>
</extensions>
</trkpt>
<trkpt lat="30.885702133" lon="34.852767944">
<ele>570.218750</ele>
<time>2013-11-21T08:48:17Z</time>
<speed>2.260000</speed>
<extensions>
<speed>2.3</speed>
<temp>0.00</temp>
<bpm>0</bpm>
<rpm>0.00</rpm>
</extensions>
</trkpt>
<trkpt lat="30.885805130" lon="34.852848053">
<ele>571.843750</ele>
<time>2013-11-21T08:48:22Z</time>
<speed>2.440000</speed>
<extensions>
<speed>2.4</speed>
<temp>0.00</temp>
<bpm>0</bpm>
<rpm>0.00</rpm>
</extensions>
</trkpt>
<trkpt lat="30.885911942" lon="34.852951050">
<ele>573.234375</ele>
<time>2013-11-21T08:48:27Z</time>
<speed>2.920000</speed>
<extensions>
<speed>2.9</speed>
<temp>0.00</temp>
<bpm>0</bpm>
<rpm>0.00</rpm>
</extensions>
</trkpt>
<trkpt lat="30.885950089" lon="34.852985382">
<ele>574.078125</ele>
<time>2013-11-21T08:48:32Z</time>
<speed>1.620000</speed>
<extensions>
<speed>1.6</speed>
<temp>0.00</temp>
<bpm>0</bpm>
<rpm>0.00</rpm>
</extensions>
</trkpt>
<trkpt lat="30.886047363" lon="34.853061676">
<ele>574.546875</ele>
<time>2013-11-21T08:48:37Z</time>
<speed>2.390000</speed>
<extensions>
<speed>2.4</speed>
<temp>0.00</temp>
<bpm>0</bpm>
<rpm>0.00</rpm>
</extensions>
</trkpt>
<trkpt lat="30.886121750" lon="34.853130341">
<ele>574.312500</ele>
<time>2013-11-21T08:48:42Z</time>
<speed>1.960000</speed>
<extensions>
<speed>2.0</speed>
<temp>0.00</temp>
<bpm>0</bpm>
<rpm>0.00</rpm>
</extensions>
</trkpt>
<trkpt lat="30.886211395" lon="34.853176117">
<ele>574.812500</ele>
<time>2013-11-21T08:48:47Z</time>
<speed>2.280000</speed>
<extensions>
<speed>2.3</speed>
<temp>0.00</temp>
<bpm>0</bpm>
<rpm>0.00</rpm>
</extensions>
</trkpt>
<trkpt lat="30.886322021" lon="34.853267670">
<ele>576.812500</ele>
<time>2013-11-21T08:48:52Z</time>
<speed>2.310000</speed>
<extensions>
<speed>2.3</speed>
<temp>0.00</temp>
<bpm>0</bpm>
<rpm>0.00</rpm>
</extensions>
</trkpt>
<trkpt lat="30.886440277" lon="34.853332520">
<ele>576.546875</ele>
<time>2013-11-21T08:48:57Z</time>
<speed>3.140000</speed>
<extensions>
<speed>3.1</speed>
<temp>0.00</temp>
<bpm>0</bpm>
<rpm>0.00</rpm>
</extensions>
</trkpt>
<trkpt lat="30.886604309" lon="34.853317261">
<ele>574.265625</ele>
<time>2013-11-21T08:49:02Z</time>
<speed>3.990000</speed>
<extensions>
<speed>4.0</speed>
<temp>0.00</temp>
<bpm>0</bpm>
<rpm>0.00</rpm>
</extensions>
</trkpt>
<trkpt lat="30.886791229" lon="34.853279114">
<ele>574.171875</ele>
<time>2013-11-21T08:49:07Z</time>
<speed>4.100000</speed>
<extensions>
<speed>4.1</speed>
<temp>0.00</temp>
<bpm>0</bpm>
<rpm>0.00</rpm>
</extensions>
</trkpt>
<trkpt lat="30.886983871" lon="34.853271484">
<ele>574.640625</ele>
<time>2013-11-21T08:49:12Z</time>
<speed>5.190000</speed>
<extensions>
<speed>5.2</speed>
<temp>0.00</temp>
<bpm>0</bpm>
<rpm>0.00</rpm>
</extensions>
</trkpt>
<trkpt lat="30.887248993" lon="34.853290558">
<ele>573.421875</ele>
<time>2013-11-21T08:49:17Z</time>
<speed>6.100000</speed>
<extensions>
<speed>6.1</speed>
<temp>0.00</temp>
<bpm>0</bpm>
<rpm>0.00</rpm>
</extensions>
</trkpt>
<trkpt lat="30.887563705" lon="34.853260040">
<ele>569.468750</ele>
<time>2013-11-21T08:49:22Z</time>
<speed>7.040000</speed>
<extensions>
<speed>7.0</speed>
<temp>0.00</temp>
<bpm>0</bpm>
<rpm>0.00</rpm>
</extensions>
</trkpt>
<trkpt lat="30.887866974" lon="34.853248596">
<ele>572.640625</ele>
<time>2013-11-21T08:49:27Z</time>
<speed>7.070000</speed>
<extensions>
<speed>7.1</speed>
<temp>0.00</temp>
<bpm>0</bpm>
<rpm>0.00</rpm>
</extensions>
</trkpt>
<trkpt lat="30.888124466" lon="34.853240967">
<ele>567.421875</ele>
<time>2013-11-21T08:49:32Z</time>
<speed>5.210000</speed>
<extensions>
<speed>5.2</speed>
<temp>0.00</temp>
<bpm>0</bpm>
<rpm>0.00</rpm>
</extensions>
</trkpt>
<trkpt lat="30.888257980" lon="34.853206635">
<ele>558.953125</ele>
<time>2013-11-21T08:49:37Z</time>
<speed>1.290000</speed>
<extensions>
<speed>1.3</speed>
<temp>0.00</temp>
<bpm>0</bpm>
<rpm>0.00</rpm>
</extensions>
</trkpt>
<trkpt lat="30.888250351" lon="34.853187561">
<ele>558.812500</ele>
<time>2013-11-21T08:49:42Z</time>
<speed>0.060000</speed>
<extensions>
<speed>0.1</speed>
<temp>0.00</temp>
<bpm>0</bpm>
<rpm>0.00</rpm>
</extensions>
</trkpt>
<trkpt lat="30.888250351" lon="34.853183746">
<ele>558.734375</ele>
<time>2013-11-21T08:49:47Z</time>
<speed>0.090000</speed>
<extensions>
<speed>0.1</speed>
<temp>0.00</temp>
<bpm>0</bpm>
<rpm>0.00</rpm>
</extensions>
</trkpt>
<trkpt lat="30.888246536" lon="34.853183746">
<ele>558.750000</ele>
<time>2013-11-21T08:49:52Z</time>
<speed>0.120000</speed>
<extensions>
<speed>0.1</speed>
<temp>0.00</temp>
<bpm>0</bpm>
<rpm>0.00</rpm>
</extensions>
</trkpt>
<trkpt lat="30.888244629" lon="34.853179932">
<ele>558.781250</ele>
<time>2013-11-21T08:49:57Z</time>
<speed>0.050000</speed>
<extensions>
<speed>0.1</speed>
<temp>0.00</temp>
<bpm>0</bpm>
<rpm>0.00</rpm>
</extensions>
</trkpt>
<trkpt lat="30.888246536" lon="34.853179932">
<ele>558.812500</ele>
<time>2013-11-21T08:50:02Z</time>
<speed>0.070000</speed>
<extensions>
<speed>0.1</speed>
<temp>0.00</temp>
<bpm>0</bpm>
<rpm>0.00</rpm>
</extensions>
</trkpt>
<trkpt lat="30.888282776" lon="34.853187561">
<ele>558.843750</ele>
<time>2013-11-21T08:50:07Z</time>
<speed>1.720000</speed>
<extensions>
<speed>1.7</speed>
<temp>0.00</temp>
<bpm>0</bpm>
<rpm>0.00</rpm>
</extensions>
</trkpt>
<trkpt lat="30.888402939" lon="34.853160858">
<ele>557.734375</ele>
<time>2013-11-21T08:50:12Z</time>
<speed>1.620000</speed>
<extensions>
<speed>1.6</speed>
<temp>0.00</temp>
<bpm>0</bpm>
<rpm>0.00</rpm>
</extensions>
</trkpt>
<trkpt lat="30.888431549" lon="34.853164673">
<ele>558.156250</ele>
<time>2013-11-21T08:50:17Z</time>
<speed>0.240000</speed>
<extensions>
<speed>0.2</speed>
<temp>0.00</temp>
<bpm>0</bpm>
<rpm>0.00</rpm>
</extensions>
</trkpt>
<trkpt lat="30.888429642" lon="34.853164673">
<ele>558.000000</ele>
<time>2013-11-21T08:50:22Z</time>
<speed>0.290000</speed>
<extensions>
<speed>0.3</speed>
<temp>0.00</temp>
<bpm>0</bpm>
<rpm>0.00</rpm>
</extensions>
</trkpt>
<trkpt lat="30.888435364" lon="34.853164673">
<ele>557.937500</ele>
<time>2013-11-21T08:50:27Z</time>
<speed>0.170000</speed>
<extensions>
<speed>0.2</speed>
<temp>0.00</temp>
<bpm>0</bpm>
<rpm>0.00</rpm>
</extensions>
</trkpt>
<trkpt lat="30.888442993" lon="34.853168488">
<ele>557.875000</ele>
<time>2013-11-21T08:50:32Z</time>
<speed>0.100000</speed>
<extensions>
<speed>0.1</speed>
<temp>0.00</temp>
<bpm>0</bpm>
<rpm>0.00</rpm>
</extensions>
</trkpt>
<trkpt lat="30.888446808" lon="34.853172302">
<ele>557.843750</ele>
<time>2013-11-21T08:50:37Z</time>
<speed>0.150000</speed>
<extensions>
<speed>0.2</speed>
<temp>0.00</temp>
<bpm>0</bpm>
<rpm>0.00</rpm>
</extensions>
</trkpt>
<trkpt lat="30.888452530" lon="34.853179932">
<ele>557.843750</ele>
<time>2013-11-21T08:50:42Z</time>
<speed>0.190000</speed>
<extensions>
<speed>0.2</speed>
<temp>0.00</temp>
<bpm>0</bpm>
<rpm>0.00</rpm>
</extensions>
</trkpt>
<trkpt lat="30.888458252" lon="34.853183746">
<ele>557.687500</ele>
<time>2013-11-21T08:50:47Z</time>
<speed>0.390000</speed>
<extensions>
<speed>0.4</speed>
<temp>0.00</temp>
<bpm>0</bpm>
<rpm>0.00</rpm>
</extensions>
</trkpt>
<trkpt lat="30.888479233" lon="34.853172302">
<ele>557.359375</ele>
<time>2013-11-21T08:50:52Z</time>
<speed>0.370000</speed>
<extensions>
<speed>0.4</speed>
<temp>0.00</temp>
<bpm>0</bpm>
<rpm>0.00</rpm>
</extensions>
</trkpt>
<trkpt lat="30.888511658" lon="34.853202820">
<ele>557.421875</ele>
<time>2013-11-21T08:50:57Z</time>
<speed>0.420000</speed>
<extensions>
<speed>0.4</speed>
<temp>0.00</temp>
<bpm>0</bpm>
<rpm>0.00</rpm>
</extensions>
</trkpt>
<trkpt lat="30.888500214" lon="34.853206635">
<ele>557.406250</ele>
<time>2013-11-21T08:51:02Z</time>
<speed>0.100000</speed>
<extensions>
<speed>0.1</speed>
<temp>0.00</temp>
<bpm>0</bpm>
<rpm>0.00</rpm>
</extensions>
</trkpt>
<trkpt lat="30.888502121" lon="34.853206635">
<ele>557.359375</ele>
<time>2013-11-21T08:51:07Z</time>
<speed>0.140000</speed>
<extensions>
<speed>0.1</speed>
<temp>0.00</temp>
<bpm>0</bpm>
<rpm>0.00</rpm>
</extensions>
</trkpt>
<trkpt lat="30.888502121" lon="34.853199005">
<ele>557.343750</ele>
<time>2013-11-21T08:51:12Z</time>
<speed>0.250000</speed>
<extensions>
<speed>0.2</speed>
<temp>0.00</temp>
<bpm>0</bpm>
<rpm>0.00</rpm>
</extensions>
</trkpt>
<trkpt lat="30.888492584" lon="34.853195190">
<ele>557.343750</ele>
<time>2013-11-21T08:51:17Z</time>
<speed>0.140000</speed>
<extensions>
<speed>0.1</speed>
<temp>0.00</temp>
<bpm>0</bpm>
<rpm>0.00</rpm>
</extensions>
</trkpt>
<trkpt lat="30.888490677" lon="34.853195190">
<ele>557.312500</ele>
<time>2013-11-21T08:51:22Z</time>
<speed>0.090000</speed>
<extensions>
<speed>0.1</speed>
<temp>0.00</temp>
<bpm>0</bpm>
<rpm>0.00</rpm>
</extensions>
</trkpt>
<trkpt lat="30.888467789" lon="34.853183746">
<ele>557.406250</ele>
<time>2013-11-21T08:51:27Z</time>
<speed>0.380000</speed>
<extensions>
<speed>0.4</speed>
<temp>0.00</temp>
<bpm>0</bpm>
<rpm>0.00</rpm>
</extensions>
</trkpt>
<trkpt lat="30.888463974" lon="34.853164673">
<ele>557.796875</ele>
<time>2013-11-21T08:51:32Z</time>
<speed>0.070000</speed>
<extensions>
<speed>0.1</speed>
<temp>0.00</temp>
<bpm>0</bpm>
<rpm>0.00</rpm>
</extensions>
</trkpt>
<trkpt lat="30.888456345" lon="34.853160858">
<ele>557.765625</ele>
<time>2013-11-21T08:51:37Z</time>
<speed>0.150000</speed>
<extensions>
<speed>0.2</speed>
<temp>0.00</temp>
<bpm>0</bpm>
<rpm>0.00</rpm>
</extensions>
</trkpt>
<trkpt lat="30.888446808" lon="34.853160858">
<ele>557.718750</ele>
<time>2013-11-21T08:51:42Z</time>
<speed>0.300000</speed>
<extensions>
<speed>0.3</speed>
<temp>0.00</temp>
<bpm>0</bpm>
<rpm>0.00</rpm>
</extensions>
</trkpt>
<trkpt lat="30.888406754" lon="34.853141785">
<ele>557.421875</ele>
<time>2013-11-21T08:51:47Z</time>
<speed>0.400000</speed>
<extensions>
<speed>0.4</speed>
<temp>0.00</temp>
<bpm>0</bpm>
<rpm>0.00</rpm>
</extensions>
</trkpt>
<trkpt lat="30.888442993" lon="34.853134155">
<ele>557.421875</ele>
<time>2013-11-21T08:51:52Z</time>
<speed>0.190000</speed>
<extensions>
<speed>0.2</speed>
<temp>0.00</temp>
<bpm>0</bpm>
<rpm>0.00</rpm>
</extensions>
</trkpt>
<trkpt lat="30.888437271" lon="34.853126526">
<ele>557.078125</ele>
<time>2013-11-21T08:51:57Z</time>
<speed>0.140000</speed>
<extensions>
<speed>0.1</speed>
<temp>0.00</temp>
<bpm>0</bpm>
<rpm>0.00</rpm>
</extensions>
</trkpt>
<trkpt lat="30.888498306" lon="34.853111267">
<ele>557.062500</ele>
<time>2013-11-21T08:52:02Z</time>
<speed>2.380000</speed>
<extensions>
<speed>2.4</speed>
<temp>0.00</temp>
<bpm>0</bpm>
<rpm>0.00</rpm>
</extensions>
</trkpt>
<trkpt lat="30.888633728" lon="34.853088379">
<ele>556.546875</ele>
<time>2013-11-21T08:52:07Z</time>
<speed>2.610000</speed>
<extensions>
<speed>2.6</speed>
<temp>0.00</temp>
<bpm>0</bpm>
<rpm>0.00</rpm>
</extensions>
</trkpt>
<trkpt lat="30.888769150" lon="34.853076935">
<ele>555.109375</ele>
<time>2013-11-21T08:52:12Z</time>
<speed>2.980000</speed>
<extensions>
<speed>3.0</speed>
<temp>0.00</temp>
<bpm>0</bpm>
<rpm>0.00</rpm>
</extensions>
</trkpt>
<trkpt lat="30.888942719" lon="34.853073120">
<ele>554.437500</ele>
<time>2013-11-21T08:52:17Z</time>
<speed>3.300000</speed>
<extensions>
<speed>3.3</speed>
<temp>0.00</temp>
<bpm>0</bpm>
<rpm>0.00</rpm>
</extensions>
</trkpt>
<trkpt lat="30.889160156" lon="34.852989197">
<ele>554.109375</ele>
<time>2013-11-21T08:52:22Z</time>
<speed>6.720000</speed>
<extensions>
<speed>6.7</speed>
<temp>0.00</temp>
<bpm>0</bpm>
<rpm>0.00</rpm>
</extensions>
</trkpt>
<trkpt lat="30.889366150" lon="34.852928162">
<ele>552.843750</ele>
<time>2013-11-21T08:52:27Z</time>
<speed>3.720000</speed>
<extensions>
<speed>3.7</speed>
<temp>0.00</temp>
<bpm>0</bpm>
<rpm>0.00</rpm>
</extensions>
</trkpt>
<trkpt lat="30.889499664" lon="34.852863312">
<ele>550.671875</ele>
<time>2013-11-21T08:52:32Z</time>
<speed>4.080000</speed>
<extensions>
<speed>4.1</speed>
<temp>0.00</temp>
<bpm>0</bpm>
<rpm>0.00</rpm>
</extensions>
</trkpt>
<trkpt lat="30.889717102" lon="34.852817535">
<ele>550.203125</ele>
<time>2013-11-21T08:52:37Z</time>
<speed>4.220000</speed>
<extensions>
<speed>4.2</speed>
<temp>0.00</temp>
<bpm>0</bpm>
<rpm>0.00</rpm>
</extensions>
</trkpt>
<trkpt lat="30.889923096" lon="34.852722168">
<ele>550.312500</ele>
<time>2013-11-21T08:52:42Z</time>
<speed>4.770000</speed>
<extensions>
<speed>4.8</speed>
<temp>0.00</temp>
<bpm>0</bpm>
<rpm>0.00</rpm>
</extensions>
</trkpt>
<trkpt lat="30.890048981" lon="34.852684021">
<ele>547.937500</ele>
<time>2013-11-21T08:52:47Z</time>
<speed>1.300000</speed>
<extensions>
<speed>1.3</speed>
<temp>0.00</temp>
<bpm>0</bpm>
<rpm>0.00</rpm>
</extensions>
</trkpt>
<trkpt lat="30.890071869" lon="34.852680206">
<ele>547.843750</ele>
<time>2013-11-21T08:52:52Z</time>
<speed>0.110000</speed>
<extensions>
<speed>0.1</speed>
<temp>0.00</temp>
<bpm>0</bpm>
<rpm>0.00</rpm>
</extensions>
</trkpt>
<trkpt lat="30.890077591" lon="34.852680206">
<ele>547.484375</ele>
<time>2013-11-21T08:52:57Z</time>
<speed>0.050000</speed>
<extensions>
<speed>0.1</speed>
<temp>0.00</temp>
<bpm>0</bpm>
<rpm>0.00</rpm>
</extensions>
</trkpt>
<trkpt lat="30.890089035" lon="34.852680206">
<ele>547.281250</ele>
<time>2013-11-21T08:53:02Z</time>
<speed>1.020000</speed>
<extensions>
<speed>1.0</speed>
<temp>0.00</temp>
<bpm>0</bpm>
<rpm>0.00</rpm>
</extensions>
</trkpt>
<trkpt lat="30.890241623" lon="34.852581024">
<ele>545.875000</ele>
<time>2013-11-21T08:53:07Z</time>
<speed>5.680000</speed>
<extensions>
<speed>5.7</speed>
<temp>0.00</temp>
<bpm>0</bpm>
<rpm>0.00</rpm>
</extensions>
</trkpt>
<trkpt lat="30.890449524" lon="34.852390289">
<ele>545.828125</ele>
<time>2013-11-21T08:53:12Z</time>
<speed>5.410000</speed>
<extensions>
<speed>5.4</speed>
<temp>0.00</temp>
<bpm>0</bpm>
<rpm>0.00</rpm>
</extensions>
</trkpt>
<trkpt lat="30.890686035" lon="34.852279663">
<ele>545.218750</ele>
<time>2013-11-21T08:53:17Z</time>
<speed>5.230000</speed>
<extensions>
<speed>5.2</speed>
<temp>0.00</temp>
<bpm>0</bpm>
<rpm>0.00</rpm>
</extensions>
</trkpt>
<trkpt lat="30.890914917" lon="34.852279663">
<ele>544.031250</ele>
<time>2013-11-21T08:53:22Z</time>
<speed>5.160000</speed>
<extensions>
<speed>5.2</speed>
<temp>0.00</temp>
<bpm>0</bpm>
<rpm>0.00</rpm>
</extensions>
</trkpt>
<trkpt lat="30.891120911" lon="34.852302551">
<ele>543.062500</ele>
<time>2013-11-21T08:53:27Z</time>
<speed>3.380000</speed>
<extensions>
<speed>3.4</speed>
<temp>0.00</temp>
<bpm>0</bpm>
<rpm>0.00</rpm>
</extensions>
</trkpt>
<trkpt lat="30.891117096" lon="34.852264404">
<ele>540.265625</ele>
<time>2013-11-21T08:53:32Z</time>
<speed>0.200000</speed>
<extensions>
<speed>0.2</speed>
<temp>0.00</temp>
<bpm>0</bpm>
<rpm>0.00</rpm>
</extensions>
</trkpt>
<trkpt lat="30.891113281" lon="34.852264404">
<ele>539.140625</ele>
<time>2013-11-21T08:53:37Z</time>
<speed>0.780000</speed>
<extensions>
<speed>0.8</speed>
<temp>0.00</temp>
<bpm>0</bpm>
<rpm>0.00</rpm>
</extensions>
</trkpt>
<trkpt lat="30.891143799" lon="34.852210999">
<ele>538.500000</ele>
<time>2013-11-21T08:53:42Z</time>
<speed>1.380000</speed>
<extensions>
<speed>1.4</speed>
<temp>0.00</temp>
<bpm>0</bpm>
<rpm>0.00</rpm>
</extensions>
</trkpt>
<trkpt lat="30.891160965" lon="34.852138519">
<ele>538.328125</ele>
<time>2013-11-21T08:53:47Z</time>
<speed>1.310000</speed>
<extensions>
<speed>1.3</speed>
<temp>0.00</temp>
<bpm>0</bpm>
<rpm>0.00</rpm>
</extensions>
</trkpt>
<trkpt lat="30.891166687" lon="34.852058411">
<ele>538.187500</ele>
<time>2013-11-21T08:53:52Z</time>
<speed>1.830000</speed>
<extensions>
<speed>1.8</speed>
<temp>0.00</temp>
<bpm>0</bpm>
<rpm>0.00</rpm>
</extensions>
</trkpt>
<trkpt lat="30.891201019" lon="34.851997375">
<ele>537.984375</ele>
<time>2013-11-21T08:53:57Z</time>
<speed>1.970000</speed>
<extensions>
<speed>2.0</speed>
<temp>0.00</temp>
<bpm>0</bpm>
<rpm>0.00</rpm>
</extensions>
</trkpt>
<trkpt lat="30.891241074" lon="34.851863861">
<ele>537.546875</ele>
<time>2013-11-21T08:54:02Z</time>
<speed>2.390000</speed>
<extensions>
<speed>2.4</speed>
<temp>0.00</temp>
<bpm>0</bpm>
<rpm>0.00</rpm>
</extensions>
</trkpt>
<trkpt lat="30.891284943" lon="34.851764679">
<ele>537.156250</ele>
<time>2013-11-21T08:54:07Z</time>
<speed>2.250000</speed>
<extensions>
<speed>2.3</speed>
<temp>0.00</temp>
<bpm>0</bpm>
<rpm>0.00</rpm>
</extensions>
</trkpt>
<trkpt lat="30.891319275" lon="34.851604462">
<ele>537.281250</ele>
<time>2013-11-21T08:54:12Z</time>
<speed>3.390000</speed>
<extensions>
<speed>3.4</speed>
<temp>0.00</temp>
<bpm>0</bpm>
<rpm>0.00</rpm>
</extensions>
</trkpt>
<trkpt lat="30.891269684" lon="34.851440430">
<ele>537.156250</ele>
<time>2013-11-21T08:54:17Z</time>
<speed>3.330000</speed>
<extensions>
<speed>3.3</speed>
<temp>0.00</temp>
<bpm>0</bpm>
<rpm>0.00</rpm>
</extensions>
</trkpt>
<trkpt lat="30.891225815" lon="34.851257324">
<ele>535.578125</ele>
<time>2013-11-21T08:54:22Z</time>
<speed>3.750000</speed>
<extensions>
<speed>3.8</speed>
<temp>0.00</temp>
<bpm>0</bpm>
<rpm>0.00</rpm>
</extensions>
</trkpt>
<trkpt lat="30.891201019" lon="34.851043701">
<ele>532.921875</ele>
<time>2013-11-21T08:54:27Z</time>
<speed>5.170000</speed>
<extensions>
<speed>5.2</speed>
<temp>0.00</temp>
<bpm>0</bpm>
<rpm>0.00</rpm>
</extensions>
</trkpt>
<trkpt lat="30.891218185" lon="34.850818634">
<ele>532.203125</ele>
<time>2013-11-21T08:54:32Z</time>
<speed>4.200000</speed>
<extensions>
<speed>4.2</speed>
<temp>0.00</temp>
<bpm>0</bpm>
<rpm>0.00</rpm>
</extensions>
</trkpt>
<trkpt lat="30.891223907" lon="34.850582123">
<ele>530.750000</ele>
<time>2013-11-21T08:54:37Z</time>
<speed>5.080000</speed>
<extensions>
<speed>5.1</speed>
<temp>0.00</temp>
<bpm>0</bpm>
<rpm>0.00</rpm>
</extensions>
</trkpt>
<trkpt lat="30.891138077" lon="34.850330353">
<ele>529.640625</ele>
<time>2013-11-21T08:54:42Z</time>
<speed>5.140000</speed>
<extensions>
<speed>5.1</speed>
<temp>0.00</temp>
<bpm>0</bpm>
<rpm>0.00</rpm>
</extensions>
</trkpt>
<trkpt lat="30.890968323" lon="34.850063324">
<ele>530.796875</ele>
<time>2013-11-21T08:54:47Z</time>
<speed>5.340000</speed>
<extensions>
<speed>5.3</speed>
<temp>0.00</temp>
<bpm>0</bpm>
<rpm>0.00</rpm>
</extensions>
</trkpt>
<trkpt lat="30.890855789" lon="34.849849701">
<ele>532.062500</ele>
<time>2013-11-21T08:54:52Z</time>
<speed>5.010000</speed>
<extensions>
<speed>5.0</speed>
<temp>0.00</temp>
<bpm>0</bpm>
<rpm>0.00</rpm>
</extensions>
</trkpt>
<trkpt lat="30.890649796" lon="34.849781036">
<ele>532.468750</ele>
<time>2013-11-21T08:54:57Z</time>
<speed>4.370000</speed>
<extensions>
<speed>4.4</speed>
<temp>0.00</temp>
<bpm>0</bpm>
<rpm>0.00</rpm>
</extensions>
</trkpt>
<trkpt lat="30.890516281" lon="34.849617004">
<ele>533.125000</ele>
<time>2013-11-21T08:55:02Z</time>
<speed>4.620000</speed>
<extensions>
<speed>4.6</speed>
<temp>0.00</temp>
<bpm>0</bpm>
<rpm>0.00</rpm>
</extensions>
</trkpt>
<trkpt lat="30.890590668" lon="34.849464417">
<ele>534.312500</ele>
<time>2013-11-21T08:55:07Z</time>
<speed>4.320000</speed>
<extensions>
<speed>4.3</speed>
<temp>0.00</temp>
<bpm>0</bpm>
<rpm>0.00</rpm>
</extensions>
</trkpt>
<trkpt lat="30.890731812" lon="34.849296570">
<ele>532.921875</ele>
<time>2013-11-21T08:55:12Z</time>
<speed>4.930000</speed>
<extensions>
<speed>4.9</speed>
<temp>0.00</temp>
<bpm>0</bpm>
<rpm>0.00</rpm>
</extensions>
</trkpt>
<trkpt lat="30.890918732" lon="34.849079132">
<ele>532.625000</ele>
<time>2013-11-21T08:55:17Z</time>
<speed>6.280000</speed>
<extensions>
<speed>6.3</speed>
<temp>0.00</temp>
<bpm>0</bpm>
<rpm>0.00</rpm>
</extensions>
</trkpt>
<trkpt lat="30.891019821" lon="34.848716736">
<ele>533.000000</ele>
<time>2013-11-21T08:55:22Z</time>
<speed>7.960000</speed>
<extensions>
<speed>8.0</speed>
<temp>0.00</temp>
<bpm>0</bpm>
<rpm>0.00</rpm>
</extensions>
</trkpt>
<trkpt lat="30.891109467" lon="34.848300934">
<ele>534.187500</ele>
<time>2013-11-21T08:55:27Z</time>
<speed>8.190000</speed>
<extensions>
<speed>8.2</speed>
<temp>0.00</temp>
<bpm>0</bpm>
<rpm>0.00</rpm>
</extensions>
</trkpt>
<trkpt lat="30.891246796" lon="34.847900391">
<ele>533.078125</ele>
<time>2013-11-21T08:55:32Z</time>
<speed>7.860000</speed>
<extensions>
<speed>7.9</speed>
<temp>0.00</temp>
<bpm>0</bpm>
<rpm>0.00</rpm>
</extensions>
</trkpt>
<trkpt lat="30.891347885" lon="34.847515106">
<ele>533.015625</ele>
<time>2013-11-21T08:55:37Z</time>
<speed>7.410000</speed>
<extensions>
<speed>7.4</speed>
<temp>0.00</temp>
<bpm>0</bpm>
<rpm>0.00</rpm>
</extensions>
</trkpt>
<trkpt lat="30.891447067" lon="34.847167969">
<ele>532.953125</ele>
<time>2013-11-21T08:55:42Z</time>
<speed>6.940000</speed>
<extensions>
<speed>6.9</speed>
<temp>0.00</temp>
<bpm>0</bpm>
<rpm>0.00</rpm>
</extensions>
</trkpt>
<trkpt lat="30.891422272" lon="34.846794128">
<ele>533.156250</ele>
<time>2013-11-21T08:55:47Z</time>
<speed>5.970000</speed>
<extensions>
<speed>6.0</speed>
<temp>0.00</temp>
<bpm>0</bpm>
<rpm>0.00</rpm>
</extensions>
</trkpt>
<trkpt lat="30.891410828" lon="34.846557617">
<ele>532.625000</ele>
<time>2013-11-21T08:55:52Z</time>
<speed>2.620000</speed>
<extensions>
<speed>2.6</speed>
<temp>0.00</temp>
<bpm>0</bpm>
<rpm>0.00</rpm>
</extensions>
</trkpt>
<trkpt lat="30.891408920" lon="34.846546173">
<ele>531.953125</ele>
<time>2013-11-21T08:55:57Z</time>
<speed>0.230000</speed>
<extensions>
<speed>0.2</speed>
<temp>0.00</temp>
<bpm>0</bpm>
<rpm>0.00</rpm>
</extensions>
</trkpt>
<trkpt lat="30.891412735" lon="34.846561432">
<ele>532.046875</ele>
<time>2013-11-21T08:56:02Z</time>
<speed>1.210000</speed>
<extensions>
<speed>1.2</speed>
<temp>0.00</temp>
<bpm>0</bpm>
<rpm>0.00</rpm>
</extensions>
</trkpt>
<trkpt lat="30.891386032" lon="34.846591949">
<ele>531.296875</ele>
<time>2013-11-21T08:56:07Z</time>
<speed>0.200000</speed>
<extensions>
<speed>0.2</speed>
<temp>0.00</temp>
<bpm>0</bpm>
<rpm>0.00</rpm>
</extensions>
</trkpt>
<trkpt lat="30.891389847" lon="34.846607208">
<ele>531.140625</ele>
<time>2013-11-21T08:56:12Z</time>
<speed>0.170000</speed>
<extensions>
<speed>0.2</speed>
<temp>0.00</temp>
<bpm>0</bpm>
<rpm>0.00</rpm>
</extensions>
</trkpt>
<trkpt lat="30.891387939" lon="34.846611023">
<ele>531.140625</ele>
<time>2013-11-21T08:56:17Z</time>
<speed>0.200000</speed>
<extensions>
<speed>0.2</speed>
<temp>0.00</temp>
<bpm>0</bpm>
<rpm>0.00</rpm>
</extensions>
</trkpt>
<trkpt lat="30.891380310" lon="34.846607208">
<ele>531.140625</ele>
<time>2013-11-21T08:56:22Z</time>
<speed>0.140000</speed>
<extensions>
<speed>0.1</speed>
<temp>0.00</temp>
<bpm>0</bpm>
<rpm>0.00</rpm>
</extensions>
</trkpt>
<trkpt lat="30.891380310" lon="34.846607208">
<ele>531.187500</ele>
<time>2013-11-21T08:56:27Z</time>
<speed>0.200000</speed>
<extensions>
<speed>0.2</speed>
<temp>0.00</temp>
<bpm>0</bpm>
<rpm>0.00</rpm>
</extensions>
</trkpt>
<trkpt lat="30.891395569" lon="34.846607208">
<ele>531.156250</ele>
<time>2013-11-21T08:56:32Z</time>
<speed>0.320000</speed>
<extensions>
<speed>0.3</speed>
<temp>0.00</temp>
<bpm>0</bpm>
<rpm>0.00</rpm>
</extensions>
</trkpt>
<trkpt lat="30.891387939" lon="34.846637726">
<ele>531.046875</ele>
<time>2013-11-21T08:56:37Z</time>
<speed>0.370000</speed>
<extensions>
<speed>0.4</speed>
<temp>0.00</temp>
<bpm>0</bpm>
<rpm>0.00</rpm>
</extensions>
</trkpt>
<trkpt lat="30.891366959" lon="34.846622467">
<ele>531.078125</ele>
<time>2013-11-21T08:56:42Z</time>
<speed>0.220000</speed>
<extensions>
<speed>0.2</speed>
<temp>0.00</temp>
<bpm>0</bpm>
<rpm>0.00</rpm>
</extensions>
</trkpt>
<trkpt lat="30.891363144" lon="34.846614838">
<ele>531.093750</ele>
<time>2013-11-21T08:56:47Z</time>
<speed>0.120000</speed>
<extensions>
<speed>0.1</speed>
<temp>0.00</temp>
<bpm>0</bpm>
<rpm>0.00</rpm>
</extensions>
</trkpt>
<trkpt lat="30.891366959" lon="34.846614838">
<ele>531.093750</ele>
<time>2013-11-21T08:56:52Z</time>
<speed>0.020000</speed>
<extensions>
<speed>0.0</speed>
<temp>0.00</temp>
<bpm>0</bpm>
<rpm>0.00</rpm>
</extensions>
</trkpt>
<trkpt lat="30.891359329" lon="34.846614838">
<ele>531.062500</ele>
<time>2013-11-21T08:56:57Z</time>
<speed>0.150000</speed>
<extensions>
<speed>0.2</speed>
<temp>0.00</temp>
<bpm>0</bpm>
<rpm>0.00</rpm>
</extensions>
</trkpt>
<trkpt lat="30.891349792" lon="34.846614838">
<ele>531.015625</ele>
<time>2013-11-21T08:57:02Z</time>
<speed>0.170000</speed>
<extensions>
<speed>0.2</speed>
<temp>0.00</temp>
<bpm>0</bpm>
<rpm>0.00</rpm>
</extensions>
</trkpt>
<trkpt lat="30.891351700" lon="34.846614838">
<ele>530.953125</ele>
<time>2013-11-21T08:57:07Z</time>
<speed>0.250000</speed>
<extensions>
<speed>0.2</speed>
<temp>0.00</temp>
<bpm>0</bpm>
<rpm>0.00</rpm>
</extensions>
</trkpt>
<trkpt lat="30.891305923" lon="34.846599579">
<ele>530.218750</ele>
<time>2013-11-21T08:57:12Z</time>
<speed>0.620000</speed>
<extensions>
<speed>0.6</speed>
<temp>0.00</temp>
<bpm>0</bpm>
<rpm>0.00</rpm>
</extensions>
</trkpt>
<trkpt lat="30.891304016" lon="34.846580505">
<ele>529.828125</ele>
<time>2013-11-21T08:57:17Z</time>
<speed>0.180000</speed>
<extensions>
<speed>0.2</speed>
<temp>0.00</temp>
<bpm>0</bpm>
<rpm>0.00</rpm>
</extensions>
</trkpt>
<trkpt lat="30.891300201" lon="34.846569061">
<ele>530.453125</ele>
<time>2013-11-21T08:57:22Z</time>
<speed>0.270000</speed>
<extensions>
<speed>0.3</speed>
<temp>0.00</temp>
<bpm>0</bpm>
<rpm>0.00</rpm>
</extensions>
</trkpt>
<trkpt lat="30.891300201" lon="34.846569061">
<ele>530.500000</ele>
<time>2013-11-21T08:57:27Z</time>
<speed>0.090000</speed>
<extensions>
<speed>0.1</speed>
<temp>0.00</temp>
<bpm>0</bpm>
<rpm>0.00</rpm>
</extensions>
</trkpt>
<trkpt lat="30.891307831" lon="34.846569061">
<ele>530.515625</ele>
<time>2013-11-21T08:57:32Z</time>
<speed>0.170000</speed>
<extensions>
<speed>0.2</speed>
<temp>0.00</temp>
<bpm>0</bpm>
<rpm>0.00</rpm>
</extensions>
</trkpt>
<trkpt lat="30.891290665" lon="34.846576691">
<ele>530.703125</ele>
<time>2013-11-21T08:57:37Z</time>
<speed>0.280000</speed>
<extensions>
<speed>0.3</speed>
<temp>0.00</temp>
<bpm>0</bpm>
<rpm>0.00</rpm>
</extensions>
</trkpt>
<trkpt lat="30.891281128" lon="34.846580505">
<ele>530.437500</ele>
<time>2013-11-21T08:57:42Z</time>
<speed>0.210000</speed>
<extensions>
<speed>0.2</speed>
<temp>0.00</temp>
<bpm>0</bpm>
<rpm>0.00</rpm>
</extensions>
</trkpt>
<trkpt lat="30.891277313" lon="34.846584320">
<ele>530.437500</ele>
<time>2013-11-21T08:57:47Z</time>
<speed>0.300000</speed>
<extensions>
<speed>0.3</speed>
<temp>0.00</temp>
<bpm>0</bpm>
<rpm>0.00</rpm>
</extensions>
</trkpt>
<trkpt lat="30.891307831" lon="34.846603394">
<ele>530.453125</ele>
<time>2013-11-21T08:57:52Z</time>
<speed>0.370000</speed>
<extensions>
<speed>0.4</speed>
<temp>0.00</temp>
<bpm>0</bpm>
<rpm>0.00</rpm>
</extensions>
</trkpt>
<trkpt lat="30.891296387" lon="34.846591949">
<ele>529.890625</ele>
<time>2013-11-21T08:57:57Z</time>
<speed>0.320000</speed>
<extensions>
<speed>0.3</speed>
<temp>0.00</temp>
<bpm>0</bpm>
<rpm>0.00</rpm>
</extensions>
</trkpt>
<trkpt lat="30.891317368" lon="34.846603394">
<ele>529.531250</ele>
<time>2013-11-21T08:58:02Z</time>
<speed>0.120000</speed>
<extensions>
<speed>0.1</speed>
<temp>0.00</temp>
<bpm>0</bpm>
<rpm>0.00</rpm>
</extensions>
</trkpt>
<trkpt lat="30.891324997" lon="34.846607208">
<ele>529.515625</ele>
<time>2013-11-21T08:58:07Z</time>
<speed>0.260000</speed>
<extensions>
<speed>0.3</speed>
<temp>0.00</temp>
<bpm>0</bpm>
<rpm>0.00</rpm>
</extensions>
</trkpt>
<trkpt lat="30.891349792" lon="34.846622467">
<ele>529.359375</ele>
<time>2013-11-21T08:58:12Z</time>
<speed>0.320000</speed>
<extensions>
<speed>0.3</speed>
<temp>0.00</temp>
<bpm>0</bpm>
<rpm>0.00</rpm>
</extensions>
</trkpt>
<trkpt lat="30.891393661" lon="34.846656799">
<ele>528.687500</ele>
<time>2013-11-21T08:58:17Z</time>
<speed>0.470000</speed>
<extensions>
<speed>0.5</speed>
<temp>0.00</temp>
<bpm>0</bpm>
<rpm>0.00</rpm>
</extensions>
</trkpt>
<trkpt lat="30.891399384" lon="34.846664429">
<ele>527.187500</ele>
<time>2013-11-21T08:58:22Z</time>
<speed>0.300000</speed>
<extensions>
<speed>0.3</speed>
<temp>0.00</temp>
<bpm>0</bpm>
<rpm>0.00</rpm>
</extensions>
</trkpt>
<trkpt lat="30.891429901" lon="34.846672058">
<ele>525.937500</ele>
<time>2013-11-21T08:58:27Z</time>
<speed>0.150000</speed>
<extensions>
<speed>0.2</speed>
<temp>0.00</temp>
<bpm>0</bpm>
<rpm>0.00</rpm>
</extensions>
</trkpt>
<trkpt lat="30.891408920" lon="34.846652985">
<ele>525.968750</ele>
<time>2013-11-21T08:58:32Z</time>
<speed>0.560000</speed>
<extensions>
<speed>0.6</speed>
<temp>0.00</temp>
<bpm>0</bpm>
<rpm>0.00</rpm>
</extensions>
</trkpt>
<trkpt lat="30.891386032" lon="34.846530914">
<ele>526.328125</ele>
<time>2013-11-21T08:58:37Z</time>
<speed>3.020000</speed>
<extensions>
<speed>3.0</speed>
<temp>0.00</temp>
<bpm>0</bpm>
<rpm>0.00</rpm>
</extensions>
</trkpt>
<trkpt lat="30.891340256" lon="34.846340179">
<ele>526.171875</ele>
<time>2013-11-21T08:58:42Z</time>
<speed>3.660000</speed>
<extensions>
<speed>3.7</speed>
<temp>0.00</temp>
<bpm>0</bpm>
<rpm>0.00</rpm>
</extensions>
</trkpt>
<trkpt lat="30.891305923" lon="34.846126556">
<ele>525.171875</ele>
<time>2013-11-21T08:58:47Z</time>
<speed>5.470000</speed>
<extensions>
<speed>5.5</speed>
<temp>0.00</temp>
<bpm>0</bpm>
<rpm>0.00</rpm>
</extensions>
</trkpt>
<trkpt lat="30.891269684" lon="34.845756531">
<ele>524.109375</ele>
<time>2013-11-21T08:58:52Z</time>
<speed>7.340000</speed>
<extensions>
<speed>7.3</speed>
<temp>0.00</temp>
<bpm>0</bpm>
<rpm>0.00</rpm>
</extensions>
</trkpt>
<trkpt lat="30.891199112" lon="34.845405579">
<ele>523.375000</ele>
<time>2013-11-21T08:58:57Z</time>
<speed>6.490000</speed>
<extensions>
<speed>6.5</speed>
<temp>0.00</temp>
<bpm>0</bpm>
<rpm>0.00</rpm>
</extensions>
</trkpt>
<trkpt lat="30.891134262" lon="34.845066071">
<ele>523.078125</ele>
<time>2013-11-21T08:59:02Z</time>
<speed>6.120000</speed>
<extensions>
<speed>6.1</speed>
<temp>0.00</temp>
<bpm>0</bpm>
<rpm>0.00</rpm>
</extensions>
</trkpt>
<trkpt lat="30.891098022" lon="34.844738007">
<ele>524.328125</ele>
<time>2013-11-21T08:59:07Z</time>
<speed>5.120000</speed>
<extensions>
<speed>5.1</speed>
<temp>0.00</temp>
<bpm>0</bpm>
<rpm>0.00</rpm>
</extensions>
</trkpt>
<trkpt lat="30.891023636" lon="34.844482422">
<ele>523.953125</ele>
<time>2013-11-21T08:59:12Z</time>
<speed>4.730000</speed>
<extensions>
<speed>4.7</speed>
<temp>0.00</temp>
<bpm>0</bpm>
<rpm>0.00</rpm>
</extensions>
</trkpt>
<trkpt lat="30.891029358" lon="34.844242096">
<ele>524.703125</ele>
<time>2013-11-21T08:59:17Z</time>
<speed>3.920000</speed>
<extensions>
<speed>3.9</speed>
<temp>0.00</temp>
<bpm>0</bpm>
<rpm>0.00</rpm>
</extensions>
</trkpt>
<trkpt lat="30.891035080" lon="34.844104767">
<ele>523.765625</ele>
<time>2013-11-21T08:59:22Z</time>
<speed>2.340000</speed>
<extensions>
<speed>2.3</speed>
<temp>0.00</temp>
<bpm>0</bpm>
<rpm>0.00</rpm>
</extensions>
</trkpt>
<trkpt lat="30.891019821" lon="34.844013214">
<ele>523.343750</ele>
<time>2013-11-21T08:59:27Z</time>
<speed>1.490000</speed>
<extensions>
<speed>1.5</speed>
<temp>0.00</temp>
<bpm>0</bpm>
<rpm>0.00</rpm>
</extensions>
</trkpt>
<trkpt lat="30.891078949" lon="34.843940735">
<ele>523.406250</ele>
<time>2013-11-21T08:59:32Z</time>
<speed>2.130000</speed>
<extensions>
<speed>2.1</speed>
<temp>0.00</temp>
<bpm>0</bpm>
<rpm>0.00</rpm>
</extensions>
</trkpt>
<trkpt lat="30.891134262" lon="34.843830109">
<ele>522.375000</ele>
<time>2013-11-21T08:59:37Z</time>
<speed>2.340000</speed>
<extensions>
<speed>2.3</speed>
<temp>0.00</temp>
<bpm>0</bpm>
<rpm>0.00</rpm>
</extensions>
</trkpt>
<trkpt lat="30.891162872" lon="34.843708038">
<ele>520.687500</ele>
<time>2013-11-21T08:59:42Z</time>
<speed>1.680000</speed>
<extensions>
<speed>1.7</speed>
<temp>0.00</temp>
<bpm>0</bpm>
<rpm>0.00</rpm>
</extensions>
</trkpt>
<trkpt lat="30.891233444" lon="34.843654633">
<ele>519.593750</ele>
<time>2013-11-21T08:59:47Z</time>
<speed>2.360000</speed>
<extensions>
<speed>2.4</speed>
<temp>0.00</temp>
<bpm>0</bpm>
<rpm>0.00</rpm>
</extensions>
</trkpt>
<trkpt lat="30.891342163" lon="34.843589783">
<ele>520.203125</ele>
<time>2013-11-21T08:59:52Z</time>
<speed>1.970000</speed>
<extensions>
<speed>2.0</speed>
<temp>0.00</temp>
<bpm>0</bpm>
<rpm>0.00</rpm>
</extensions>
</trkpt>
<trkpt lat="30.891464233" lon="34.843547821">
<ele>521.765625</ele>
<time>2013-11-21T08:59:57Z</time>
<speed>2.530000</speed>
<extensions>
<speed>2.5</speed>
<temp>0.00</temp>
<bpm>0</bpm>
<rpm>0.00</rpm>
</extensions>
</trkpt>
<trkpt lat="30.891624451" lon="34.843486786">
<ele>523.812500</ele>
<time>2013-11-21T09:00:02Z</time>
<speed>3.940000</speed>
<extensions>
<speed>3.9</speed>
<temp>0.00</temp>
<bpm>0</bpm>
<rpm>0.00</rpm>
</extensions>
</trkpt>
<trkpt lat="30.891790390" lon="34.843421936">
<ele>524.671875</ele>
<time>2013-11-21T09:00:07Z</time>
<speed>4.030000</speed>
<extensions>
<speed>4.0</speed>
<temp>0.00</temp>
<bpm>0</bpm>
<rpm>0.00</rpm>
</extensions>
</trkpt>
<trkpt lat="30.891931534" lon="34.843288422">
<ele>524.500000</ele>
<time>2013-11-21T09:00:12Z</time>
<speed>3.800000</speed>
<extensions>
<speed>3.8</speed>
<temp>0.00</temp>
<bpm>0</bpm>
<rpm>0.00</rpm>
</extensions>
</trkpt>
<trkpt lat="30.892145157" lon="34.843200684">
<ele>524.109375</ele>
<time>2013-11-21T09:00:17Z</time>
<speed>4.250000</speed>
<extensions>
<speed>4.3</speed>
<temp>0.00</temp>
<bpm>0</bpm>
<rpm>0.00</rpm>
</extensions>
</trkpt>
<trkpt lat="30.892217636" lon="34.843074799">
<ele>522.921875</ele>
<time>2013-11-21T09:00:22Z</time>
<speed>2.230000</speed>
<extensions>
<speed>2.2</speed>
<temp>0.00</temp>
<bpm>0</bpm>
<rpm>0.00</rpm>
</extensions>
</trkpt>
<trkpt lat="30.892230988" lon="34.842964172">
<ele>523.171875</ele>
<time>2013-11-21T09:00:27Z</time>
<speed>2.580000</speed>
<extensions>
<speed>2.6</speed>
<temp>0.00</temp>
<bpm>0</bpm>
<rpm>0.00</rpm>
</extensions>
</trkpt>
<trkpt lat="30.892250061" lon="34.842796326">
<ele>522.500000</ele>
<time>2013-11-21T09:00:32Z</time>
<speed>3.450000</speed>
<extensions>
<speed>3.5</speed>
<temp>0.00</temp>
<bpm>0</bpm>
<rpm>0.00</rpm>
</extensions>
</trkpt>
<trkpt lat="30.892356873" lon="34.842601776">
<ele>523.828125</ele>
<time>2013-11-21T09:00:37Z</time>
<speed>5.090000</speed>
<extensions>
<speed>5.1</speed>
<temp>0.00</temp>
<bpm>0</bpm>
<rpm>0.00</rpm>
</extensions>
</trkpt>
<trkpt lat="30.892503738" lon="34.842380524">
<ele>524.515625</ele>
<time>2013-11-21T09:00:42Z</time>
<speed>4.900000</speed>
<extensions>
<speed>4.9</speed>
<temp>0.00</temp>
<bpm>0</bpm>
<rpm>0.00</rpm>
</extensions>
</trkpt>
<trkpt lat="30.892621994" lon="34.842262268">
<ele>524.578125</ele>
<time>2013-11-21T09:00:47Z</time>
<speed>3.650000</speed>
<extensions>
<speed>3.7</speed>
<temp>0.00</temp>
<bpm>0</bpm>
<rpm>0.00</rpm>
</extensions>
</trkpt>
<trkpt lat="30.892719269" lon="34.842082977">
<ele>525.390625</ele>
<time>2013-11-21T09:00:52Z</time>
<speed>3.320000</speed>
<extensions>
<speed>3.3</speed>
<temp>0.00</temp>
<bpm>0</bpm>
<rpm>0.00</rpm>
</extensions>
</trkpt>
<trkpt lat="30.892749786" lon="34.842067719">
<ele>526.703125</ele>
<time>2013-11-21T09:00:57Z</time>
<speed>0.050000</speed>
<extensions>
<speed>0.1</speed>
<temp>0.00</temp>
<bpm>0</bpm>
<rpm>0.00</rpm>
</extensions>
</trkpt>
<trkpt lat="30.892745972" lon="34.842071533">
<ele>526.671875</ele>
<time>2013-11-21T09:01:02Z</time>
<speed>0.070000</speed>
<extensions>
<speed>0.1</speed>
<temp>0.00</temp>
<bpm>0</bpm>
<rpm>0.00</rpm>
</extensions>
</trkpt>
<trkpt lat="30.892744064" lon="34.842071533">
<ele>526.671875</ele>
<time>2013-11-21T09:01:07Z</time>
<speed>0.140000</speed>
<extensions>
<speed>0.1</speed>
<temp>0.00</temp>
<bpm>0</bpm>
<rpm>0.00</rpm>
</extensions>
</trkpt>
<trkpt lat="30.892745972" lon="34.842075348">
<ele>526.656250</ele>
<time>2013-11-21T09:01:12Z</time>
<speed>0.080000</speed>
<extensions>
<speed>0.1</speed>
<temp>0.00</temp>
<bpm>0</bpm>
<rpm>0.00</rpm>
</extensions>
</trkpt>
<trkpt lat="30.892744064" lon="34.842071533">
<ele>526.656250</ele>
<time>2013-11-21T09:01:17Z</time>
<speed>0.070000</speed>
<extensions>
<speed>0.1</speed>
<temp>0.00</temp>
<bpm>0</bpm>
<rpm>0.00</rpm>
</extensions>
</trkpt>
<trkpt lat="30.892742157" lon="34.842079163">
<ele>526.671875</ele>
<time>2013-11-21T09:01:22Z</time>
<speed>0.230000</speed>
<extensions>
<speed>0.2</speed>
<temp>0.00</temp>
<bpm>0</bpm>
<rpm>0.00</rpm>
</extensions>
</trkpt>
<trkpt lat="30.892745972" lon="34.842063904">
<ele>526.687500</ele>
<time>2013-11-21T09:01:27Z</time>
<speed>1.100000</speed>
<extensions>
<speed>1.1</speed>
<temp>0.00</temp>
<bpm>0</bpm>
<rpm>0.00</rpm>
</extensions>
</trkpt>
<trkpt lat="30.892791748" lon="34.841941833">
<ele>527.125000</ele>
<time>2013-11-21T09:01:32Z</time>
<speed>3.540000</speed>
<extensions>
<speed>3.5</speed>
<temp>0.00</temp>
<bpm>0</bpm>
<rpm>0.00</rpm>
</extensions>
</trkpt>
<trkpt lat="30.892900467" lon="34.841766357">
<ele>527.375000</ele>
<time>2013-11-21T09:01:37Z</time>
<speed>4.000000</speed>
<extensions>
<speed>4.0</speed>
<temp>0.00</temp>
<bpm>0</bpm>
<rpm>0.00</rpm>
</extensions>
</trkpt>
<trkpt lat="30.892999649" lon="34.841598511">
<ele>527.468750</ele>
<time>2013-11-21T09:01:42Z</time>
<speed>4.700000</speed>
<extensions>
<speed>4.7</speed>
<temp>0.00</temp>
<bpm>0</bpm>
<rpm>0.00</rpm>
</extensions>
</trkpt>
<trkpt lat="30.893106461" lon="34.841323853">
<ele>525.937500</ele>
<time>2013-11-21T09:01:47Z</time>
<speed>6.150000</speed>
<extensions>
<speed>6.1</speed>
<temp>0.00</temp>
<bpm>0</bpm>
<rpm>0.00</rpm>
</extensions>
</trkpt>
<trkpt lat="30.893199921" lon="34.841045380">
<ele>524.875000</ele>
<time>2013-11-21T09:01:52Z</time>
<speed>5.150000</speed>
<extensions>
<speed>5.2</speed>
<temp>0.00</temp>
<bpm>0</bpm>
<rpm>0.00</rpm>
</extensions>
</trkpt>
<trkpt lat="30.893424988" lon="34.840930939">
<ele>524.109375</ele>
<time>2013-11-21T09:01:57Z</time>
<speed>4.390000</speed>
<extensions>
<speed>4.4</speed>
<temp>0.00</temp>
<bpm>0</bpm>
<rpm>0.00</rpm>
</extensions>
</trkpt>
<trkpt lat="30.893547058" lon="34.840808868">
<ele>523.296875</ele>
<time>2013-11-21T09:02:02Z</time>
<speed>3.420000</speed>
<extensions>
<speed>3.4</speed>
<temp>0.00</temp>
<bpm>0</bpm>
<rpm>0.00</rpm>
</extensions>
</trkpt>
<trkpt lat="30.893665314" lon="34.840721130">
<ele>524.656250</ele>
<time>2013-11-21T09:02:07Z</time>
<speed>3.320000</speed>
<extensions>
<speed>3.3</speed>
<temp>0.00</temp>
<bpm>0</bpm>
<rpm>0.00</rpm>
</extensions>
</trkpt>
<trkpt lat="30.893766403" lon="34.840560913">
<ele>524.390625</ele>
<time>2013-11-21T09:02:12Z</time>
<speed>4.170000</speed>
<extensions>
<speed>4.2</speed>
<temp>0.00</temp>
<bpm>0</bpm>
<rpm>0.00</rpm>
</extensions>
</trkpt>
<trkpt lat="30.893899918" lon="34.840373993">
<ele>523.375000</ele>
<time>2013-11-21T09:02:17Z</time>
<speed>4.030000</speed>
<extensions>
<speed>4.0</speed>
<temp>0.00</temp>
<bpm>0</bpm>
<rpm>0.00</rpm>
</extensions>
</trkpt>
<trkpt lat="30.894071579" lon="34.840316772">
<ele>522.968750</ele>
<time>2013-11-21T09:02:22Z</time>
<speed>2.250000</speed>
<extensions>
<speed>2.3</speed>
<temp>0.00</temp>
<bpm>0</bpm>
<rpm>0.00</rpm>
</extensions>
</trkpt>
<trkpt lat="30.894157410" lon="34.840305328">
<ele>523.187500</ele>
<time>2013-11-21T09:02:27Z</time>
<speed>0.510000</speed>
<extensions>
<speed>0.5</speed>
<temp>0.00</temp>
<bpm>0</bpm>
<rpm>0.00</rpm>
</extensions>
</trkpt>
<trkpt lat="30.894153595" lon="34.840305328">
<ele>522.750000</ele>
<time>2013-11-21T09:02:32Z</time>
<speed>0.110000</speed>
<extensions>
<speed>0.1</speed>
<temp>0.00</temp>
<bpm>0</bpm>
<rpm>0.00</rpm>
</extensions>
</trkpt>
<trkpt lat="30.894155502" lon="34.840305328">
<ele>522.500000</ele>
<time>2013-11-21T09:02:37Z</time>
<speed>0.030000</speed>
<extensions>
<speed>0.0</speed>
<temp>0.00</temp>
<bpm>0</bpm>
<rpm>0.00</rpm>
</extensions>
</trkpt>
<trkpt lat="30.894151688" lon="34.840305328">
<ele>522.437500</ele>
<time>2013-11-21T09:02:42Z</time>
<speed>0.140000</speed>
<extensions>
<speed>0.1</speed>
<temp>0.00</temp>
<bpm>0</bpm>
<rpm>0.00</rpm>
</extensions>
</trkpt>
<trkpt lat="30.894149780" lon="34.840305328">
<ele>522.390625</ele>
<time>2013-11-21T09:02:47Z</time>
<speed>0.070000</speed>
<extensions>
<speed>0.1</speed>
<temp>0.00</temp>
<bpm>0</bpm>
<rpm>0.00</rpm>
</extensions>
</trkpt>
<trkpt lat="30.894151688" lon="34.840305328">
<ele>522.375000</ele>
<time>2013-11-21T09:02:52Z</time>
<speed>0.070000</speed>
<extensions>
<speed>0.1</speed>
<temp>0.00</temp>
<bpm>0</bpm>
<rpm>0.00</rpm>
</extensions>
</trkpt>
<trkpt lat="30.894151688" lon="34.840305328">
<ele>522.359375</ele>
<time>2013-11-21T09:02:57Z</time>
<speed>0.140000</speed>
<extensions>
<speed>0.1</speed>
<temp>0.00</temp>
<bpm>0</bpm>
<rpm>0.00</rpm>
</extensions>
</trkpt>
<trkpt lat="30.894145966" lon="34.840305328">
<ele>522.328125</ele>
<time>2013-11-21T09:03:02Z</time>
<speed>0.130000</speed>
<extensions>
<speed>0.1</speed>
<temp>0.00</temp>
<bpm>0</bpm>
<rpm>0.00</rpm>
</extensions>
</trkpt>
<trkpt lat="30.894149780" lon="34.840309143">
<ele>522.296875</ele>
<time>2013-11-21T09:03:07Z</time>
<speed>0.300000</speed>
<extensions>
<speed>0.3</speed>
<temp>0.00</temp>
<bpm>0</bpm>
<rpm>0.00</rpm>
</extensions>
</trkpt>
<trkpt lat="30.894163132" lon="34.840309143">
<ele>522.265625</ele>
<time>2013-11-21T09:03:12Z</time>
<speed>0.170000</speed>
<extensions>
<speed>0.2</speed>
<temp>0.00</temp>
<bpm>0</bpm>
<rpm>0.00</rpm>
</extensions>
</trkpt>
<trkpt lat="30.894176483" lon="34.840312958">
<ele>522.265625</ele>
<time>2013-11-21T09:03:17Z</time>
<speed>0.280000</speed>
<extensions>
<speed>0.3</speed>
<temp>0.00</temp>
<bpm>0</bpm>
<rpm>0.00</rpm>
</extensions>
</trkpt>
<trkpt lat="30.894186020" lon="34.840312958">
<ele>522.265625</ele>
<time>2013-11-21T09:03:22Z</time>
<speed>0.140000</speed>
<extensions>
<speed>0.1</speed>
<temp>0.00</temp>
<bpm>0</bpm>
<rpm>0.00</rpm>
</extensions>
</trkpt>
<trkpt lat="30.894189835" lon="34.840312958">
<ele>522.265625</ele>
<time>2013-11-21T09:03:27Z</time>
<speed>0.140000</speed>
<extensions>
<speed>0.1</speed>
<temp>0.00</temp>
<bpm>0</bpm>
<rpm>0.00</rpm>
</extensions>
</trkpt>
<trkpt lat="30.894193649" lon="34.840312958">
<ele>522.296875</ele>
<time>2013-11-21T09:03:32Z</time>
<speed>0.040000</speed>
<extensions>
<speed>0.0</speed>
<temp>0.00</temp>
<bpm>0</bpm>
<rpm>0.00</rpm>
</extensions>
</trkpt>
<trkpt lat="30.894193649" lon="34.840312958">
<ele>522.312500</ele>
<time>2013-11-21T09:03:37Z</time>
<speed>0.050000</speed>
<extensions>
<speed>0.1</speed>
<temp>0.00</temp>
<bpm>0</bpm>
<rpm>0.00</rpm>
</extensions>
</trkpt>
<trkpt lat="30.894191742" lon="34.840312958">
<ele>522.328125</ele>
<time>2013-11-21T09:03:42Z</time>
<speed>0.010000</speed>
<extensions>
<speed>0.0</speed>
<temp>0.00</temp>
<bpm>0</bpm>
<rpm>0.00</rpm>
</extensions>
</trkpt>
<trkpt lat="30.894191742" lon="34.840312958">
<ele>522.328125</ele>
<time>2013-11-21T09:03:47Z</time>
<speed>0.010000</speed>
<extensions>
<speed>0.0</speed>
<temp>0.00</temp>
<bpm>0</bpm>
<rpm>0.00</rpm>
</extensions>
</trkpt>
<trkpt lat="30.894189835" lon="34.840312958">
<ele>522.343750</ele>
<time>2013-11-21T09:03:52Z</time>
<speed>0.040000</speed>
<extensions>
<speed>0.0</speed>
<temp>0.00</temp>
<bpm>0</bpm>
<rpm>0.00</rpm>
</extensions>
</trkpt>
<trkpt lat="30.894189835" lon="34.840312958">
<ele>522.328125</ele>
<time>2013-11-21T09:03:57Z</time>
<speed>0.030000</speed>
<extensions>
<speed>0.0</speed>
<temp>0.00</temp>
<bpm>0</bpm>
<rpm>0.00</rpm>
</extensions>
</trkpt>
<trkpt lat="30.894189835" lon="34.840312958">
<ele>522.312500</ele>
<time>2013-11-21T09:04:02Z</time>
<speed>0.010000</speed>
<extensions>
<speed>0.0</speed>
<temp>0.00</temp>
<bpm>0</bpm>
<rpm>0.00</rpm>
</extensions>
</trkpt>
<trkpt lat="30.894189835" lon="34.840312958">
<ele>522.312500</ele>
<time>2013-11-21T09:04:07Z</time>
<speed>0.010000</speed>
<extensions>
<speed>0.0</speed>
<temp>0.00</temp>
<bpm>0</bpm>
<rpm>0.00</rpm>
</extensions>
</trkpt>
<trkpt lat="30.894189835" lon="34.840312958">
<ele>522.296875</ele>
<time>2013-11-21T09:04:12Z</time>
<speed>0.010000</speed>
<extensions>
<speed>0.0</speed>
<temp>0.00</temp>
<bpm>0</bpm>
<rpm>0.00</rpm>
</extensions>
</trkpt>
<trkpt lat="30.894189835" lon="34.840312958">
<ele>522.296875</ele>
<time>2013-11-21T09:04:17Z</time>
<speed>0.040000</speed>
<extensions>
<speed>0.0</speed>
<temp>0.00</temp>
<bpm>0</bpm>
<rpm>0.00</rpm>
</extensions>
</trkpt>
<trkpt lat="30.894189835" lon="34.840312958">
<ele>522.281250</ele>
<time>2013-11-21T09:04:22Z</time>
<speed>0.010000</speed>
<extensions>
<speed>0.0</speed>
<temp>0.00</temp>
<bpm>0</bpm>
<rpm>0.00</rpm>
</extensions>
</trkpt>
<trkpt lat="30.894189835" lon="34.840312958">
<ele>522.281250</ele>
<time>2013-11-21T09:04:27Z</time>
<extensions>
<speed>0.0</speed>
<temp>0.00</temp>
<bpm>0</bpm>
<rpm>0.00</rpm>
</extensions>
</trkpt>
<trkpt lat="30.894187927" lon="34.840312958">
<ele>522.312500</ele>
<time>2013-11-21T09:04:32Z</time>
<speed>0.060000</speed>
<extensions>
<speed>0.1</speed>
<temp>0.00</temp>
<bpm>0</bpm>
<rpm>0.00</rpm>
</extensions>
</trkpt>
<trkpt lat="30.894189835" lon="34.840312958">
<ele>522.328125</ele>
<time>2013-11-21T09:04:37Z</time>
<speed>0.060000</speed>
<extensions>
<speed>0.1</speed>
<temp>0.00</temp>
<bpm>0</bpm>
<rpm>0.00</rpm>
</extensions>
</trkpt>
<trkpt lat="30.894201279" lon="34.840293884">
<ele>522.171875</ele>
<time>2013-11-21T09:04:42Z</time>
<speed>2.460000</speed>
<extensions>
<speed>2.5</speed>
<temp>0.00</temp>
<bpm>0</bpm>
<rpm>0.00</rpm>
</extensions>
</trkpt>
<trkpt lat="30.894325256" lon="34.840049744">
<ele>520.578125</ele>
<time>2013-11-21T09:04:47Z</time>
<speed>4.230000</speed>
<extensions>
<speed>4.2</speed>
<temp>0.00</temp>
<bpm>0</bpm>
<rpm>0.00</rpm>
</extensions>
</trkpt>
<trkpt lat="30.894439697" lon="34.839817047">
<ele>519.562500</ele>
<time>2013-11-21T09:04:52Z</time>
<speed>4.630000</speed>
<extensions>
<speed>4.6</speed>
<temp>0.00</temp>
<bpm>0</bpm>
<rpm>0.00</rpm>
</extensions>
</trkpt>
<trkpt lat="30.894525528" lon="34.839584351">
<ele>518.406250</ele>
<time>2013-11-21T09:04:57Z</time>
<speed>4.380000</speed>
<extensions>
<speed>4.4</speed>
<temp>0.00</temp>
<bpm>0</bpm>
<rpm>0.00</rpm>
</extensions>
</trkpt>
<trkpt lat="30.894653320" lon="34.839351654">
<ele>518.468750</ele>
<time>2013-11-21T09:05:02Z</time>
<speed>5.340000</speed>
<extensions>
<speed>5.3</speed>
<temp>0.00</temp>
<bpm>0</bpm>
<rpm>0.00</rpm>
</extensions>
</trkpt>
<trkpt lat="30.894758224" lon="34.839160919">
<ele>517.984375</ele>
<time>2013-11-21T09:05:07Z</time>
<speed>4.470000</speed>
<extensions>
<speed>4.5</speed>
<temp>0.00</temp>
<bpm>0</bpm>
<rpm>0.00</rpm>
</extensions>
</trkpt>
<trkpt lat="30.894853592" lon="34.838935852">
<ele>517.500000</ele>
<time>2013-11-21T09:05:12Z</time>
<speed>4.170000</speed>
<extensions>
<speed>4.2</speed>
<temp>0.00</temp>
<bpm>0</bpm>
<rpm>0.00</rpm>
</extensions>
</trkpt>
<trkpt lat="30.894969940" lon="34.838733673">
<ele>515.953125</ele>
<time>2013-11-21T09:05:17Z</time>
<speed>4.950000</speed>
<extensions>
<speed>4.9</speed>
<temp>0.00</temp>
<bpm>0</bpm>
<rpm>0.00</rpm>
</extensions>
</trkpt>
<trkpt lat="30.895053864" lon="34.838527679">
<ele>514.968750</ele>
<time>2013-11-21T09:05:22Z</time>
<speed>1.680000</speed>
<extensions>
<speed>1.7</speed>
<temp>0.00</temp>
<bpm>0</bpm>
<rpm>0.00</rpm>
</extensions>
</trkpt>
<trkpt lat="30.895044327" lon="34.838516235">
<ele>510.453125</ele>
<time>2013-11-21T09:05:27Z</time>
<speed>0.030000</speed>
<extensions>
<speed>0.0</speed>
<temp>0.00</temp>
<bpm>0</bpm>
<rpm>0.00</rpm>
</extensions>
</trkpt>
<trkpt lat="30.895040512" lon="34.838512421">
<ele>510.632813</ele>
<time>2013-11-21T09:05:32Z</time>
<speed>0.120000</speed>
<extensions>
<speed>0.1</speed>
<temp>0.00</temp>
<bpm>0</bpm>
<rpm>0.00</rpm>
</extensions>
</trkpt>
<trkpt lat="30.895040512" lon="34.838512421">
<ele>510.664063</ele>
<time>2013-11-21T09:05:37Z</time>
<speed>0.050000</speed>
<extensions>
<speed>0.1</speed>
<temp>0.00</temp>
<bpm>0</bpm>
<rpm>0.00</rpm>
</extensions>
</trkpt>
<trkpt lat="30.895042419" lon="34.838512421">
<ele>510.718750</ele>
<time>2013-11-21T09:05:42Z</time>
<speed>0.090000</speed>
<extensions>
<speed>0.1</speed>
<temp>0.00</temp>
<bpm>0</bpm>
<rpm>0.00</rpm>
</extensions>
</trkpt>
<trkpt lat="30.895038605" lon="34.838512421">
<ele>510.796875</ele>
<time>2013-11-21T09:05:47Z</time>
<speed>0.090000</speed>
<extensions>
<speed>0.1</speed>
<temp>0.00</temp>
<bpm>0</bpm>
<rpm>0.00</rpm>
</extensions>
</trkpt>
<trkpt lat="30.895034790" lon="34.838512421">
<ele>510.789063</ele>
<time>2013-11-21T09:05:52Z</time>
<speed>0.180000</speed>
<extensions>
<speed>0.2</speed>
<temp>0.00</temp>
<bpm>0</bpm>
<rpm>0.00</rpm>
</extensions>
</trkpt>
<trkpt lat="30.895048141" lon="34.838565826">
<ele>512.109375</ele>
<time>2013-11-21T09:05:57Z</time>
<speed>2.070000</speed>
<extensions>
<speed>2.1</speed>
<temp>0.00</temp>
<bpm>0</bpm>
<rpm>0.00</rpm>
</extensions>
</trkpt>
<trkpt lat="30.894979477" lon="34.838687897">
<ele>512.625000</ele>
<time>2013-11-21T09:06:02Z</time>
<speed>4.260000</speed>
<extensions>
<speed>4.3</speed>
<temp>0.00</temp>
<bpm>0</bpm>
<rpm>0.00</rpm>
</extensions>
</trkpt>
<trkpt lat="30.894865036" lon="34.838867188">
<ele>512.890625</ele>
<time>2013-11-21T09:06:07Z</time>
<speed>4.510000</speed>
<extensions>
<speed>4.5</speed>
<temp>0.00</temp>
<bpm>0</bpm>
<rpm>0.00</rpm>
</extensions>
</trkpt>
<trkpt lat="30.894762039" lon="34.839080811">
<ele>512.828125</ele>
<time>2013-11-21T09:06:12Z</time>
<speed>3.540000</speed>
<extensions>
<speed>3.5</speed>
<temp>0.00</temp>
<bpm>0</bpm>
<rpm>0.00</rpm>
</extensions>
</trkpt>
<trkpt lat="30.894649506" lon="34.839290619">
<ele>512.968750</ele>
<time>2013-11-21T09:06:17Z</time>
<speed>4.840000</speed>
<extensions>
<speed>4.8</speed>
<temp>0.00</temp>
<bpm>0</bpm>
<rpm>0.00</rpm>
</extensions>
</trkpt>
<trkpt lat="30.894536972" lon="34.839488983">
<ele>513.281250</ele>
<time>2013-11-21T09:06:22Z</time>
<speed>4.190000</speed>
<extensions>
<speed>4.2</speed>
<temp>0.00</temp>
<bpm>0</bpm>
<rpm>0.00</rpm>
</extensions>
</trkpt>
<trkpt lat="30.894451141" lon="34.839672089">
<ele>514.140625</ele>
<time>2013-11-21T09:06:27Z</time>
<speed>4.240000</speed>
<extensions>
<speed>4.2</speed>
<temp>0.00</temp>
<bpm>0</bpm>
<rpm>0.00</rpm>
</extensions>
</trkpt>
<trkpt lat="30.894336700" lon="34.839889526">
<ele>515.203125</ele>
<time>2013-11-21T09:06:32Z</time>
<speed>4.080000</speed>
<extensions>
<speed>4.1</speed>
<temp>0.00</temp>
<bpm>0</bpm>
<rpm>0.00</rpm>
</extensions>
</trkpt>
<trkpt lat="30.894252777" lon="34.840061188">
<ele>515.656250</ele>
<time>2013-11-21T09:06:37Z</time>
<speed>3.120000</speed>
<extensions>
<speed>3.1</speed>
<temp>0.00</temp>
<bpm>0</bpm>
<rpm>0.00</rpm>
</extensions>
</trkpt>
<trkpt lat="30.894235611" lon="34.840209961">
<ele>516.046875</ele>
<time>2013-11-21T09:06:42Z</time>
<speed>2.500000</speed>
<extensions>
<speed>2.5</speed>
<temp>0.00</temp>
<bpm>0</bpm>
<rpm>0.00</rpm>
</extensions>
</trkpt>
<trkpt lat="30.894186020" lon="34.840278625">
<ele>516.515625</ele>
<time>2013-11-21T09:06:47Z</time>
<speed>2.010000</speed>
<extensions>
<speed>2.0</speed>
<temp>0.00</temp>
<bpm>0</bpm>
<rpm>0.00</rpm>
</extensions>
</trkpt>
<trkpt lat="30.894155502" lon="34.840324402">
<ele>517.031250</ele>
<time>2013-11-21T09:06:52Z</time>
<speed>0.760000</speed>
<extensions>
<speed>0.8</speed>
<temp>0.00</temp>
<bpm>0</bpm>
<rpm>0.00</rpm>
</extensions>
</trkpt>
<trkpt lat="30.894172668" lon="34.840312958">
<ele>517.515625</ele>
<time>2013-11-21T09:06:57Z</time>
<speed>0.140000</speed>
<extensions>
<speed>0.1</speed>
<temp>0.00</temp>
<bpm>0</bpm>
<rpm>0.00</rpm>
</extensions>
</trkpt>
<trkpt lat="30.894168854" lon="34.840324402">
<ele>517.625000</ele>
<time>2013-11-21T09:07:02Z</time>
<speed>0.240000</speed>
<extensions>
<speed>0.2</speed>
<temp>0.00</temp>
<bpm>0</bpm>
<rpm>0.00</rpm>
</extensions>
</trkpt>
<trkpt lat="30.894178391" lon="34.840339661">
<ele>517.687500</ele>
<time>2013-11-21T09:07:07Z</time>
<speed>0.860000</speed>
<extensions>
<speed>0.9</speed>
<temp>0.00</temp>
<bpm>0</bpm>
<rpm>0.00</rpm>
</extensions>
</trkpt>
<trkpt lat="30.894289017" lon="34.840328217">
<ele>516.515625</ele>
<time>2013-11-21T09:07:12Z</time>
<speed>2.600000</speed>
<extensions>
<speed>2.6</speed>
<temp>0.00</temp>
<bpm>0</bpm>
<rpm>0.00</rpm>
</extensions>
</trkpt>
<trkpt lat="30.894403458" lon="34.840324402">
<ele>517.125000</ele>
<time>2013-11-21T09:07:17Z</time>
<speed>3.770000</speed>
<extensions>
<speed>3.8</speed>
<temp>0.00</temp>
<bpm>0</bpm>
<rpm>0.00</rpm>
</extensions>
</trkpt>
<trkpt lat="30.894454956" lon="34.840347290">
<ele>517.609375</ele>
<time>2013-11-21T09:07:22Z</time>
<speed>0.280000</speed>
<extensions>
<speed>0.3</speed>
<temp>0.00</temp>
<bpm>0</bpm>
<rpm>0.00</rpm>
</extensions>
</trkpt>
<trkpt lat="30.894515991" lon="34.840362549">
<ele>517.765625</ele>
<time>2013-11-21T09:07:27Z</time>
<speed>0.940000</speed>
<extensions>
<speed>0.9</speed>
<temp>0.00</temp>
<bpm>0</bpm>
<rpm>0.00</rpm>
</extensions>
</trkpt>
<trkpt lat="30.894557953" lon="34.840381622">
<ele>518.453125</ele>
<time>2013-11-21T09:07:32Z</time>
<speed>1.190000</speed>
<extensions>
<speed>1.2</speed>
<temp>0.00</temp>
<bpm>0</bpm>
<rpm>0.00</rpm>
</extensions>
</trkpt>
<trkpt lat="30.894653320" lon="34.840431213">
<ele>518.562500</ele>
<time>2013-11-21T09:07:37Z</time>
<speed>2.200000</speed>
<extensions>
<speed>2.2</speed>
<temp>0.00</temp>
<bpm>0</bpm>
<rpm>0.00</rpm>
</extensions>
</trkpt>
<trkpt lat="30.894746780" lon="34.840499878">
<ele>518.859375</ele>
<time>2013-11-21T09:07:42Z</time>
<speed>1.720000</speed>
<extensions>
<speed>1.7</speed>
<temp>0.00</temp>
<bpm>0</bpm>
<rpm>0.00</rpm>
</extensions>
</trkpt>
<trkpt lat="30.894815445" lon="34.840557098">
<ele>519.187500</ele>
<time>2013-11-21T09:07:47Z</time>
<speed>1.610000</speed>
<extensions>
<speed>1.6</speed>
<temp>0.00</temp>
<bpm>0</bpm>
<rpm>0.00</rpm>
</extensions>
</trkpt>
<trkpt lat="30.894874573" lon="34.840641022">
<ele>519.437500</ele>
<time>2013-11-21T09:07:52Z</time>
<speed>1.580000</speed>
<extensions>
<speed>1.6</speed>
<temp>0.00</temp>
<bpm>0</bpm>
<rpm>0.00</rpm>
</extensions>
</trkpt>
<trkpt lat="30.894933701" lon="34.840740204">
<ele>519.875000</ele>
<time>2013-11-21T09:07:57Z</time>
<speed>2.880000</speed>
<extensions>
<speed>2.9</speed>
<temp>0.00</temp>
<bpm>0</bpm>
<rpm>0.00</rpm>
</extensions>
</trkpt>
<trkpt lat="30.894954681" lon="34.840866089">
<ele>520.687500</ele>
<time>2013-11-21T09:08:02Z</time>
<speed>2.810000</speed>
<extensions>
<speed>2.8</speed>
<temp>0.00</temp>
<bpm>0</bpm>
<rpm>0.00</rpm>
</extensions>
</trkpt>
<trkpt lat="30.894977570" lon="34.840995789">
<ele>521.265625</ele>
<time>2013-11-21T09:08:07Z</time>
<speed>2.540000</speed>
<extensions>
<speed>2.5</speed>
<temp>0.00</temp>
<bpm>0</bpm>
<rpm>0.00</rpm>
</extensions>
</trkpt>
<trkpt lat="30.895019531" lon="34.841125488">
<ele>522.359375</ele>
<time>2013-11-21T09:08:12Z</time>
<speed>2.540000</speed>
<extensions>
<speed>2.5</speed>
<temp>0.00</temp>
<bpm>0</bpm>
<rpm>0.00</rpm>
</extensions>
</trkpt>
<trkpt lat="30.895044327" lon="34.841278076">
<ele>523.406250</ele>
<time>2013-11-21T09:08:17Z</time>
<speed>3.230000</speed>
<extensions>
<speed>3.2</speed>
<temp>0.00</temp>
<bpm>0</bpm>
<rpm>0.00</rpm>
</extensions>
</trkpt>
<trkpt lat="30.895135880" lon="34.841415405">
<ele>524.515625</ele>
<time>2013-11-21T09:08:22Z</time>
<speed>3.710000</speed>
<extensions>
<speed>3.7</speed>
<temp>0.00</temp>
<bpm>0</bpm>
<rpm>0.00</rpm>
</extensions>
</trkpt>
<trkpt lat="30.895246506" lon="34.841533661">
<ele>525.343750</ele>
<time>2013-11-21T09:08:27Z</time>
<speed>2.820000</speed>
<extensions>
<speed>2.8</speed>
<temp>0.00</temp>
<bpm>0</bpm>
<rpm>0.00</rpm>
</extensions>
</trkpt>
<trkpt lat="30.895282745" lon="34.841621399">
<ele>526.625000</ele>
<time>2013-11-21T09:08:32Z</time>
<speed>1.810000</speed>
<extensions>
<speed>1.8</speed>
<temp>0.00</temp>
<bpm>0</bpm>
<rpm>0.00</rpm>
</extensions>
</trkpt>
<trkpt lat="30.895328522" lon="34.841705322">
<ele>526.781250</ele>
<time>2013-11-21T09:08:37Z</time>
<speed>2.310000</speed>
<extensions>
<speed>2.3</speed>
<temp>0.00</temp>
<bpm>0</bpm>
<rpm>0.00</rpm>
</extensions>
</trkpt>
<trkpt lat="30.895383835" lon="34.841732025">
<ele>525.890625</ele>
<time>2013-11-21T09:08:42Z</time>
<speed>1.920000</speed>
<extensions>
<speed>1.9</speed>
<temp>0.00</temp>
<bpm>0</bpm>
<rpm>0.00</rpm>
</extensions>
</trkpt>
<trkpt lat="30.895484924" lon="34.841796875">
<ele>527.593750</ele>
<time>2013-11-21T09:08:47Z</time>
<speed>2.580000</speed>
<extensions>
<speed>2.6</speed>
<temp>0.00</temp>
<bpm>0</bpm>
<rpm>0.00</rpm>
</extensions>
</trkpt>
<trkpt lat="30.895555496" lon="34.841861725">
<ele>528.265625</ele>
<time>2013-11-21T09:08:52Z</time>
<speed>1.500000</speed>
<extensions>
<speed>1.5</speed>
<temp>0.00</temp>
<bpm>0</bpm>
<rpm>0.00</rpm>
</extensions>
</trkpt>
<trkpt lat="30.895566940" lon="34.841918945">
<ele>529.093750</ele>
<time>2013-11-21T09:08:57Z</time>
<speed>1.540000</speed>
<extensions>
<speed>1.5</speed>
<temp>0.00</temp>
<bpm>0</bpm>
<rpm>0.00</rpm>
</extensions>
</trkpt>
<trkpt lat="30.895568848" lon="34.841999054">
<ele>530.109375</ele>
<time>2013-11-21T09:09:02Z</time>
<speed>1.570000</speed>
<extensions>
<speed>1.6</speed>
<temp>0.00</temp>
<bpm>0</bpm>
<rpm>0.00</rpm>
</extensions>
</trkpt>
<trkpt lat="30.895547867" lon="34.842075348">
<ele>531.593750</ele>
<time>2013-11-21T09:09:07Z</time>
<speed>1.670000</speed>
<extensions>
<speed>1.7</speed>
<temp>0.00</temp>
<bpm>0</bpm>
<rpm>0.00</rpm>
</extensions>
</trkpt>
<trkpt lat="30.895542145" lon="34.842151642">
<ele>533.109375</ele>
<time>2013-11-21T09:09:12Z</time>
<speed>0.950000</speed>
<extensions>
<speed>1.0</speed>
<temp>0.00</temp>
<bpm>0</bpm>
<rpm>0.00</rpm>
</extensions>
</trkpt>
<trkpt lat="30.895563126" lon="34.842159271">
<ele>533.437500</ele>
<time>2013-11-21T09:09:17Z</time>
<speed>0.560000</speed>
<extensions>
<speed>0.6</speed>
<temp>0.00</temp>
<bpm>0</bpm>
<rpm>0.00</rpm>
</extensions>
</trkpt>
<trkpt lat="30.895568848" lon="34.842201233">
<ele>534.421875</ele>
<time>2013-11-21T09:09:22Z</time>
<speed>1.040000</speed>
<extensions>
<speed>1.0</speed>
<temp>0.00</temp>
<bpm>0</bpm>
<rpm>0.00</rpm>
</extensions>
</trkpt>
<trkpt lat="30.895635605" lon="34.842254639">
<ele>534.484375</ele>
<time>2013-11-21T09:09:27Z</time>
<speed>0.970000</speed>
<extensions>
<speed>1.0</speed>
<temp>0.00</temp>
<bpm>0</bpm>
<rpm>0.00</rpm>
</extensions>
</trkpt>
<trkpt lat="30.895639420" lon="34.842319489">
<ele>534.953125</ele>
<time>2013-11-21T09:09:32Z</time>
<speed>0.980000</speed>
<extensions>
<speed>1.0</speed>
<temp>0.00</temp>
<bpm>0</bpm>
<rpm>0.00</rpm>
</extensions>
</trkpt>
<trkpt lat="30.895631790" lon="34.842357635">
<ele>534.390625</ele>
<time>2013-11-21T09:09:37Z</time>
<speed>0.600000</speed>
<extensions>
<speed>0.6</speed>
<temp>0.00</temp>
<bpm>0</bpm>
<rpm>0.00</rpm>
</extensions>
</trkpt>
<trkpt lat="30.895654678" lon="34.842414856">
<ele>533.765625</ele>
<time>2013-11-21T09:09:42Z</time>
<speed>1.410000</speed>
<extensions>
<speed>1.4</speed>
<temp>0.00</temp>
<bpm>0</bpm>
<rpm>0.00</rpm>
</extensions>
</trkpt>
<trkpt lat="30.895662308" lon="34.842468262">
<ele>532.968750</ele>
<time>2013-11-21T09:09:47Z</time>
<speed>1.100000</speed>
<extensions>
<speed>1.1</speed>
<temp>0.00</temp>
<bpm>0</bpm>
<rpm>0.00</rpm>
</extensions>
</trkpt>
<trkpt lat="30.895660400" lon="34.842536926">
<ele>533.593750</ele>
<time>2013-11-21T09:09:52Z</time>
<speed>1.260000</speed>
<extensions>
<speed>1.3</speed>
<temp>0.00</temp>
<bpm>0</bpm>
<rpm>0.00</rpm>
</extensions>
</trkpt>
<trkpt lat="30.895687103" lon="34.842590332">
<ele>534.484375</ele>
<time>2013-11-21T09:09:57Z</time>
<speed>0.610000</speed>
<extensions>
<speed>0.6</speed>
<temp>0.00</temp>
<bpm>0</bpm>
<rpm>0.00</rpm>
</extensions>
</trkpt>
<trkpt lat="30.895694733" lon="34.842613220">
<ele>535.718750</ele>
<time>2013-11-21T09:10:02Z</time>
<speed>0.150000</speed>
<extensions>
<speed>0.2</speed>
<temp>0.00</temp>
<bpm>0</bpm>
<rpm>0.00</rpm>
</extensions>
</trkpt>
<trkpt lat="30.895702362" lon="34.842620850">
<ele>535.750000</ele>
<time>2013-11-21T09:10:07Z</time>
<speed>0.470000</speed>
<extensions>
<speed>0.5</speed>
<temp>0.00</temp>
<bpm>0</bpm>
<rpm>0.00</rpm>
</extensions>
</trkpt>
<trkpt lat="30.895746231" lon="34.842609406">
<ele>535.906250</ele>
<time>2013-11-21T09:10:12Z</time>
<speed>0.970000</speed>
<extensions>
<speed>1.0</speed>
<temp>0.00</temp>
<bpm>0</bpm>
<rpm>0.00</rpm>
</extensions>
</trkpt>
<trkpt lat="30.895795822" lon="34.842594147">
<ele>536.171875</ele>
<time>2013-11-21T09:10:17Z</time>
<speed>0.650000</speed>
<extensions>
<speed>0.6</speed>
<temp>0.00</temp>
<bpm>0</bpm>
<rpm>0.00</rpm>
</extensions>
</trkpt>
<trkpt lat="30.895820618" lon="34.842590332">
<ele>535.484375</ele>
<time>2013-11-21T09:10:22Z</time>
<speed>0.160000</speed>
<extensions>
<speed>0.2</speed>
<temp>0.00</temp>
<bpm>0</bpm>
<rpm>0.00</rpm>
</extensions>
</trkpt>
<trkpt lat="30.895822525" lon="34.842590332">
<ele>535.296875</ele>
<time>2013-11-21T09:10:27Z</time>
<speed>0.010000</speed>
<extensions>
<speed>0.0</speed>
<temp>0.00</temp>
<bpm>0</bpm>
<rpm>0.00</rpm>
</extensions>
</trkpt>
<trkpt lat="30.895818710" lon="34.842590332">
<ele>535.312500</ele>
<time>2013-11-21T09:10:32Z</time>
<speed>0.210000</speed>
<extensions>
<speed>0.2</speed>
<temp>0.00</temp>
<bpm>0</bpm>
<rpm>0.00</rpm>
</extensions>
</trkpt>
<trkpt lat="30.895839691" lon="34.842613220">
<ele>535.359375</ele>
<time>2013-11-21T09:10:37Z</time>
<speed>0.850000</speed>
<extensions>
<speed>0.8</speed>
<temp>0.00</temp>
<bpm>0</bpm>
<rpm>0.00</rpm>
</extensions>
</trkpt>
<trkpt lat="30.895891190" lon="34.842643738">
<ele>535.203125</ele>
<time>2013-11-21T09:10:42Z</time>
<speed>1.100000</speed>
<extensions>
<speed>1.1</speed>
<temp>0.00</temp>
<bpm>0</bpm>
<rpm>0.00</rpm>
</extensions>
</trkpt>
<trkpt lat="30.895952225" lon="34.842609406">
<ele>535.203125</ele>
<time>2013-11-21T09:10:47Z</time>
<speed>1.200000</speed>
<extensions>
<speed>1.2</speed>
<temp>0.00</temp>
<bpm>0</bpm>
<rpm>0.00</rpm>
</extensions>
</trkpt>
<trkpt lat="30.895978928" lon="34.842620850">
<ele>534.890625</ele>
<time>2013-11-21T09:10:52Z</time>
<speed>0.580000</speed>
<extensions>
<speed>0.6</speed>
<temp>0.00</temp>
<bpm>0</bpm>
<rpm>0.00</rpm>
</extensions>
</trkpt>
<trkpt lat="30.895957947" lon="34.842605591">
<ele>534.734375</ele>
<time>2013-11-21T09:10:57Z</time>
<speed>0.010000</speed>
<extensions>
<speed>0.0</speed>
<temp>0.00</temp>
<bpm>0</bpm>
<rpm>0.00</rpm>
</extensions>
</trkpt>
<trkpt lat="30.895948410" lon="34.842609406">
<ele>534.625000</ele>
<time>2013-11-21T09:11:02Z</time>
<speed>0.270000</speed>
<extensions>
<speed>0.3</speed>
<temp>0.00</temp>
<bpm>0</bpm>
<rpm>0.00</rpm>
</extensions>
</trkpt>
<trkpt lat="30.895940781" lon="34.842628479">
<ele>534.765625</ele>
<time>2013-11-21T09:11:07Z</time>
<speed>0.400000</speed>
<extensions>
<speed>0.4</speed>
<temp>0.00</temp>
<bpm>0</bpm>
<rpm>0.00</rpm>
</extensions>
</trkpt>
<trkpt lat="30.895877838" lon="34.842643738">
<ele>534.687500</ele>
<time>2013-11-21T09:11:12Z</time>
<speed>1.390000</speed>
<extensions>
<speed>1.4</speed>
<temp>0.00</temp>
<bpm>0</bpm>
<rpm>0.00</rpm>
</extensions>
</trkpt>
<trkpt lat="30.895801544" lon="34.842582703">
<ele>534.765625</ele>
<time>2013-11-21T09:11:17Z</time>
<speed>2.710000</speed>
<extensions>
<speed>2.7</speed>
<temp>0.00</temp>
<bpm>0</bpm>
<rpm>0.00</rpm>
</extensions>
</trkpt>
<trkpt lat="30.895788193" lon="34.842536926">
<ele>535.406250</ele>
<time>2013-11-21T09:11:22Z</time>
<speed>0.170000</speed>
<extensions>
<speed>0.2</speed>
<temp>0.00</temp>
<bpm>0</bpm>
<rpm>0.00</rpm>
</extensions>
</trkpt>
<trkpt lat="30.895776749" lon="34.842536926">
<ele>535.437500</ele>
<time>2013-11-21T09:11:27Z</time>
<speed>0.320000</speed>
<extensions>
<speed>0.3</speed>
<temp>0.00</temp>
<bpm>0</bpm>
<rpm>0.00</rpm>
</extensions>
</trkpt>
<trkpt lat="30.895759583" lon="34.842514038">
<ele>535.375000</ele>
<time>2013-11-21T09:11:32Z</time>
<speed>0.420000</speed>
<extensions>
<speed>0.4</speed>
<temp>0.00</temp>
<bpm>0</bpm>
<rpm>0.00</rpm>
</extensions>
</trkpt>
<trkpt lat="30.895755768" lon="34.842517853">
<ele>535.890625</ele>
<time>2013-11-21T09:11:37Z</time>
<speed>0.290000</speed>
<extensions>
<speed>0.3</speed>
<temp>0.00</temp>
<bpm>0</bpm>
<rpm>0.00</rpm>
</extensions>
</trkpt>
<trkpt lat="30.895727158" lon="34.842491150">
<ele>536.187500</ele>
<time>2013-11-21T09:11:42Z</time>
<speed>0.820000</speed>
<extensions>
<speed>0.8</speed>
<temp>0.00</temp>
<bpm>0</bpm>
<rpm>0.00</rpm>
</extensions>
</trkpt>
<trkpt lat="30.895654678" lon="34.842372894">
<ele>536.781250</ele>
<time>2013-11-21T09:11:47Z</time>
<speed>2.240000</speed>
<extensions>
<speed>2.2</speed>
<temp>0.00</temp>
<bpm>0</bpm>
<rpm>0.00</rpm>
</extensions>
</trkpt>
<trkpt lat="30.895622253" lon="34.842262268">
<ele>537.171875</ele>
<time>2013-11-21T09:11:52Z</time>
<speed>1.940000</speed>
<extensions>
<speed>1.9</speed>
<temp>0.00</temp>
<bpm>0</bpm>
<rpm>0.00</rpm>
</extensions>
</trkpt>
<trkpt lat="30.895574570" lon="34.842151642">
<ele>536.968750</ele>
<time>2013-11-21T09:11:57Z</time>
<speed>1.390000</speed>
<extensions>
<speed>1.4</speed>
<temp>0.00</temp>
<bpm>0</bpm>
<rpm>0.00</rpm>
</extensions>
</trkpt>
<trkpt lat="30.895544052" lon="34.842105865">
<ele>535.796875</ele>
<time>2013-11-21T09:12:02Z</time>
<speed>0.170000</speed>
<extensions>
<speed>0.2</speed>
<temp>0.00</temp>
<bpm>0</bpm>
<rpm>0.00</rpm>
</extensions>
</trkpt>
<trkpt lat="30.895547867" lon="34.842082977">
<ele>535.859375</ele>
<time>2013-11-21T09:12:07Z</time>
<speed>1.010000</speed>
<extensions>
<speed>1.0</speed>
<temp>0.00</temp>
<bpm>0</bpm>
<rpm>0.00</rpm>
</extensions>
</trkpt>
<trkpt lat="30.895566940" lon="34.841876984">
<ele>536.203125</ele>
<time>2013-11-21T09:12:12Z</time>
<speed>5.140000</speed>
<extensions>
<speed>5.1</speed>
<temp>0.00</temp>
<bpm>0</bpm>
<rpm>0.00</rpm>
</extensions>
</trkpt>
<trkpt lat="30.895374298" lon="34.841678619">
<ele>536.218750</ele>
<time>2013-11-21T09:12:17Z</time>
<speed>5.810000</speed>
<extensions>
<speed>5.8</speed>
<temp>0.00</temp>
<bpm>0</bpm>
<rpm>0.00</rpm>
</extensions>
</trkpt>
<trkpt lat="30.895269394" lon="34.841541290">
<ele>535.437500</ele>
<time>2013-11-21T09:12:22Z</time>
<speed>2.600000</speed>
<extensions>
<speed>2.6</speed>
<temp>0.00</temp>
<bpm>0</bpm>
<rpm>0.00</rpm>
</extensions>
</trkpt>
<trkpt lat="30.895135880" lon="34.841434479">
<ele>534.703125</ele>
<time>2013-11-21T09:12:27Z</time>
<speed>4.180000</speed>
<extensions>
<speed>4.2</speed>
<temp>0.00</temp>
<bpm>0</bpm>
<rpm>0.00</rpm>
</extensions>
</trkpt>
<trkpt lat="30.895046234" lon="34.841285706">
<ele>534.296875</ele>
<time>2013-11-21T09:12:32Z</time>
<speed>2.470000</speed>
<extensions>
<speed>2.5</speed>
<temp>0.00</temp>
<bpm>0</bpm>
<rpm>0.00</rpm>
</extensions>
</trkpt>
<trkpt lat="30.895011902" lon="34.841156006">
<ele>533.203125</ele>
<time>2013-11-21T09:12:37Z</time>
<speed>2.100000</speed>
<extensions>
<speed>2.1</speed>
<temp>0.00</temp>
<bpm>0</bpm>
<rpm>0.00</rpm>
</extensions>
</trkpt>
<trkpt lat="30.894956589" lon="34.840900421">
<ele>532.312500</ele>
<time>2013-11-21T09:12:42Z</time>
<speed>5.390000</speed>
<extensions>
<speed>5.4</speed>
<temp>0.00</temp>
<bpm>0</bpm>
<rpm>0.00</rpm>
</extensions>
</trkpt>
<trkpt lat="30.894840240" lon="34.840656281">
<ele>531.609375</ele>
<time>2013-11-21T09:12:47Z</time>
<speed>4.390000</speed>
<extensions>
<speed>4.4</speed>
<temp>0.00</temp>
<bpm>0</bpm>
<rpm>0.00</rpm>
</extensions>
</trkpt>
<trkpt lat="30.894657135" lon="34.840461731">
<ele>531.359375</ele>
<time>2013-11-21T09:12:52Z</time>
<speed>5.580000</speed>
<extensions>
<speed>5.6</speed>
<temp>0.00</temp>
<bpm>0</bpm>
<rpm>0.00</rpm>
</extensions>
</trkpt>
<trkpt lat="30.894550323" lon="34.840469360">
<ele>531.406250</ele>
<time>2013-11-21T09:12:57Z</time>
<speed>1.040000</speed>
<extensions>
<speed>1.0</speed>
<temp>0.00</temp>
<bpm>0</bpm>
<rpm>0.00</rpm>
</extensions>
</trkpt>
<trkpt lat="30.894481659" lon="34.840457916">
<ele>531.734375</ele>
<time>2013-11-21T09:13:02Z</time>
<speed>2.700000</speed>
<extensions>
<speed>2.7</speed>
<temp>0.00</temp>
<bpm>0</bpm>
<rpm>0.00</rpm>
</extensions>
</trkpt>
<trkpt lat="30.894390106" lon="34.840435028">
<ele>531.531250</ele>
<time>2013-11-21T09:13:07Z</time>
<speed>0.200000</speed>
<extensions>
<speed>0.2</speed>
<temp>0.00</temp>
<bpm>0</bpm>
<rpm>0.00</rpm>
</extensions>
</trkpt>
<trkpt lat="30.894384384" lon="34.840415955">
<ele>530.718750</ele>
<time>2013-11-21T09:13:12Z</time>
<speed>0.370000</speed>
<extensions>
<speed>0.4</speed>
<temp>0.00</temp>
<bpm>0</bpm>
<rpm>0.00</rpm>
</extensions>
</trkpt>
<trkpt lat="30.894363403" lon="34.840393066">
<ele>530.671875</ele>
<time>2013-11-21T09:13:17Z</time>
<speed>0.940000</speed>
<extensions>
<speed>0.9</speed>
<temp>0.00</temp>
<bpm>0</bpm>
<rpm>0.00</rpm>
</extensions>
</trkpt>
<trkpt lat="30.894323349" lon="34.840206146">
<ele>530.593750</ele>
<time>2013-11-21T09:13:22Z</time>
<speed>3.970000</speed>
<extensions>
<speed>4.0</speed>
<temp>0.00</temp>
<bpm>0</bpm>
<rpm>0.00</rpm>
</extensions>
</trkpt>
<trkpt lat="30.894327164" lon="34.840030670">
<ele>529.765625</ele>
<time>2013-11-21T09:13:27Z</time>
<speed>3.400000</speed>
<extensions>
<speed>3.4</speed>
<temp>0.00</temp>
<bpm>0</bpm>
<rpm>0.00</rpm>
</extensions>
</trkpt>
<trkpt lat="30.894411087" lon="34.839801788">
<ele>528.453125</ele>
<time>2013-11-21T09:13:32Z</time>
<speed>4.520000</speed>
<extensions>
<speed>4.5</speed>
<temp>0.00</temp>
<bpm>0</bpm>
<rpm>0.00</rpm>
</extensions>
</trkpt>
<trkpt lat="30.894489288" lon="34.839630127">
<ele>527.359375</ele>
<time>2013-11-21T09:13:37Z</time>
<speed>2.950000</speed>
<extensions>
<speed>2.9</speed>
<temp>0.00</temp>
<bpm>0</bpm>
<rpm>0.00</rpm>
</extensions>
</trkpt>
<trkpt lat="30.894563675" lon="34.839469910">
<ele>526.046875</ele>
<time>2013-11-21T09:13:42Z</time>
<speed>3.910000</speed>
<extensions>
<speed>3.9</speed>
<temp>0.00</temp>
<bpm>0</bpm>
<rpm>0.00</rpm>
</extensions>
</trkpt>
<trkpt lat="30.894636154" lon="34.839275360">
<ele>524.171875</ele>
<time>2013-11-21T09:13:47Z</time>
<speed>3.830000</speed>
<extensions>
<speed>3.8</speed>
<temp>0.00</temp>
<bpm>0</bpm>
<rpm>0.00</rpm>
</extensions>
</trkpt>
<trkpt lat="30.894720078" lon="34.839130402">
<ele>523.828125</ele>
<time>2013-11-21T09:13:52Z</time>
<speed>3.890000</speed>
<extensions>
<speed>3.9</speed>
<temp>0.00</temp>
<bpm>0</bpm>
<rpm>0.00</rpm>
</extensions>
</trkpt>
<trkpt lat="30.894813538" lon="34.838954926">
<ele>523.031250</ele>
<time>2013-11-21T09:13:57Z</time>
<speed>4.230000</speed>
<extensions>
<speed>4.2</speed>
<temp>0.00</temp>
<bpm>0</bpm>
<rpm>0.00</rpm>
</extensions>
</trkpt>
<trkpt lat="30.894922256" lon="34.838764191">
<ele>522.078125</ele>
<time>2013-11-21T09:14:02Z</time>
<speed>4.490000</speed>
<extensions>
<speed>4.5</speed>
<temp>0.00</temp>
<bpm>0</bpm>
<rpm>0.00</rpm>
</extensions>
</trkpt>
<trkpt lat="30.895061493" lon="34.838577271">
<ele>521.093750</ele>
<time>2013-11-21T09:14:07Z</time>
<speed>4.830000</speed>
<extensions>
<speed>4.8</speed>
<temp>0.00</temp>
<bpm>0</bpm>
<rpm>0.00</rpm>
</extensions>
</trkpt>
<trkpt lat="30.895223618" lon="34.838401794">
<ele>520.953125</ele>
<time>2013-11-21T09:14:12Z</time>
<speed>4.800000</speed>
<extensions>
<speed>4.8</speed>
<temp>0.00</temp>
<bpm>0</bpm>
<rpm>0.00</rpm>
</extensions>
</trkpt>
<trkpt lat="30.895418167" lon="34.838272095">
<ele>521.031250</ele>
<time>2013-11-21T09:14:17Z</time>
<speed>4.600000</speed>
<extensions>
<speed>4.6</speed>
<temp>0.00</temp>
<bpm>0</bpm>
<rpm>0.00</rpm>
</extensions>
</trkpt>
<trkpt lat="30.895593643" lon="34.838108063">
<ele>519.750000</ele>
<time>2013-11-21T09:14:22Z</time>
<speed>5.020000</speed>
<extensions>
<speed>5.0</speed>
<temp>0.00</temp>
<bpm>0</bpm>
<rpm>0.00</rpm>
</extensions>
</trkpt>
<trkpt lat="30.895727158" lon="34.837905884">
<ele>518.187500</ele>
<time>2013-11-21T09:14:27Z</time>
<speed>4.940000</speed>
<extensions>
<speed>4.9</speed>
<temp>0.00</temp>
<bpm>0</bpm>
<rpm>0.00</rpm>
</extensions>
</trkpt>
<trkpt lat="30.895805359" lon="34.837665558">
<ele>517.953125</ele>
<time>2013-11-21T09:14:32Z</time>
<speed>4.960000</speed>
<extensions>
<speed>5.0</speed>
<temp>0.00</temp>
<bpm>0</bpm>
<rpm>0.00</rpm>
</extensions>
</trkpt>
<trkpt lat="30.895912170" lon="34.837413788">
<ele>517.218750</ele>
<time>2013-11-21T09:14:37Z</time>
<speed>5.460000</speed>
<extensions>
<speed>5.5</speed>
<temp>0.00</temp>
<bpm>0</bpm>
<rpm>0.00</rpm>
</extensions>
</trkpt>
<trkpt lat="30.896005630" lon="34.837158203">
<ele>517.515625</ele>
<time>2013-11-21T09:14:42Z</time>
<speed>4.840000</speed>
<extensions>
<speed>4.8</speed>
<temp>0.00</temp>
<bpm>0</bpm>
<rpm>0.00</rpm>
</extensions>
</trkpt>
<trkpt lat="30.896074295" lon="34.836925507">
<ele>516.437500</ele>
<time>2013-11-21T09:14:47Z</time>
<speed>5.160000</speed>
<extensions>
<speed>5.2</speed>
<temp>0.00</temp>
<bpm>0</bpm>
<rpm>0.00</rpm>
</extensions>
</trkpt>
<trkpt lat="30.896093369" lon="34.836658478">
<ele>515.937500</ele>
<time>2013-11-21T09:14:52Z</time>
<speed>6.090000</speed>
<extensions>
<speed>6.1</speed>
<temp>0.00</temp>
<bpm>0</bpm>
<rpm>0.00</rpm>
</extensions>
</trkpt>
<trkpt lat="30.896102905" lon="34.836376190">
<ele>516.625000</ele>
<time>2013-11-21T09:14:57Z</time>
<speed>5.140000</speed>
<extensions>
<speed>5.1</speed>
<temp>0.00</temp>
<bpm>0</bpm>
<rpm>0.00</rpm>
</extensions>
</trkpt>
<trkpt lat="30.896215439" lon="34.836170197">
<ele>515.984375</ele>
<time>2013-11-21T09:15:02Z</time>
<speed>4.600000</speed>
<extensions>
<speed>4.6</speed>
<temp>0.00</temp>
<bpm>0</bpm>
<rpm>0.00</rpm>
</extensions>
</trkpt>
<trkpt lat="30.896322250" lon="34.835979462">
<ele>517.015625</ele>
<time>2013-11-21T09:15:07Z</time>
<speed>3.950000</speed>
<extensions>
<speed>4.0</speed>
<temp>0.00</temp>
<bpm>0</bpm>
<rpm>0.00</rpm>
</extensions>
</trkpt>
<trkpt lat="30.896324158" lon="34.835731506">
<ele>515.968750</ele>
<time>2013-11-21T09:15:12Z</time>
<speed>4.940000</speed>
<extensions>
<speed>4.9</speed>
<temp>0.00</temp>
<bpm>0</bpm>
<rpm>0.00</rpm>
</extensions>
</trkpt>
<trkpt lat="30.896373749" lon="34.835460663">
<ele>516.609375</ele>
<time>2013-11-21T09:15:17Z</time>
<speed>4.830000</speed>
<extensions>
<speed>4.8</speed>
<temp>0.00</temp>
<bpm>0</bpm>
<rpm>0.00</rpm>
</extensions>
</trkpt>
<trkpt lat="30.896511078" lon="34.835296631">
<ele>514.546875</ele>
<time>2013-11-21T09:15:22Z</time>
<speed>4.720000</speed>
<extensions>
<speed>4.7</speed>
<temp>0.00</temp>
<bpm>0</bpm>
<rpm>0.00</rpm>
</extensions>
</trkpt>
<trkpt lat="30.896617889" lon="34.835048676">
<ele>514.484375</ele>
<time>2013-11-21T09:15:27Z</time>
<speed>5.590000</speed>
<extensions>
<speed>5.6</speed>
<temp>0.00</temp>
<bpm>0</bpm>
<rpm>0.00</rpm>
</extensions>
</trkpt>
<trkpt lat="30.896677017" lon="34.834774017">
<ele>512.250000</ele>
<time>2013-11-21T09:15:32Z</time>
<speed>5.070000</speed>
<extensions>
<speed>5.1</speed>
<temp>0.00</temp>
<bpm>0</bpm>
<rpm>0.00</rpm>
</extensions>
</trkpt>
<trkpt lat="30.896692276" lon="34.834518433">
<ele>510.984375</ele>
<time>2013-11-21T09:15:37Z</time>
<speed>5.210000</speed>
<extensions>
<speed>5.2</speed>
<temp>0.00</temp>
<bpm>0</bpm>
<rpm>0.00</rpm>
</extensions>
</trkpt>
<trkpt lat="30.896749496" lon="34.834243774">
<ele>509.500000</ele>
<time>2013-11-21T09:15:42Z</time>
<speed>5.220000</speed>
<extensions>
<speed>5.2</speed>
<temp>0.00</temp>
<bpm>0</bpm>
<rpm>0.00</rpm>
</extensions>
</trkpt>
<trkpt lat="30.896743774" lon="34.833946228">
<ele>508.523438</ele>
<time>2013-11-21T09:15:47Z</time>
<speed>4.890000</speed>
<extensions>
<speed>4.9</speed>
<temp>0.00</temp>
<bpm>0</bpm>
<rpm>0.00</rpm>
</extensions>
</trkpt>
<trkpt lat="30.896780014" lon="34.833675385">
<ele>507.742188</ele>
<time>2013-11-21T09:15:52Z</time>
<speed>5.340000</speed>
<extensions>
<speed>5.3</speed>
<temp>0.00</temp>
<bpm>0</bpm>
<rpm>0.00</rpm>
</extensions>
</trkpt>
<trkpt lat="30.896783829" lon="34.833404541">
<ele>506.585938</ele>
<time>2013-11-21T09:15:57Z</time>
<speed>5.040000</speed>
<extensions>
<speed>5.0</speed>
<temp>0.00</temp>
<bpm>0</bpm>
<rpm>0.00</rpm>
</extensions>
</trkpt>
<trkpt lat="30.896718979" lon="34.833099365">
<ele>506.585938</ele>
<time>2013-11-21T09:16:02Z</time>
<speed>5.630000</speed>
<extensions>
<speed>5.6</speed>
<temp>0.00</temp>
<bpm>0</bpm>
<rpm>0.00</rpm>
</extensions>
</trkpt>
<trkpt lat="30.896787643" lon="34.832878113">
<ele>506.085938</ele>
<time>2013-11-21T09:16:07Z</time>
<speed>4.430000</speed>
<extensions>
<speed>4.4</speed>
<temp>0.00</temp>
<bpm>0</bpm>
<rpm>0.00</rpm>
</extensions>
</trkpt>
<trkpt lat="30.896862030" lon="34.832672119">
<ele>504.703125</ele>
<time>2013-11-21T09:16:12Z</time>
<speed>3.290000</speed>
<extensions>
<speed>3.3</speed>
<temp>0.00</temp>
<bpm>0</bpm>
<rpm>0.00</rpm>
</extensions>
</trkpt>
<trkpt lat="30.896915436" lon="34.832427979">
<ele>502.703125</ele>
<time>2013-11-21T09:16:17Z</time>
<speed>5.600000</speed>
<extensions>
<speed>5.6</speed>
<temp>0.00</temp>
<bpm>0</bpm>
<rpm>0.00</rpm>
</extensions>
</trkpt>
<trkpt lat="30.896959305" lon="34.832160950">
<ele>500.937500</ele>
<time>2013-11-21T09:16:22Z</time>
<speed>4.470000</speed>
<extensions>
<speed>4.5</speed>
<temp>0.00</temp>
<bpm>0</bpm>
<rpm>0.00</rpm>
</extensions>
</trkpt>
<trkpt lat="30.897052765" lon="34.831989288">
<ele>499.601563</ele>
<time>2013-11-21T09:16:27Z</time>
<speed>3.340000</speed>
<extensions>
<speed>3.3</speed>
<temp>0.00</temp>
<bpm>0</bpm>
<rpm>0.00</rpm>
</extensions>
</trkpt>
<trkpt lat="30.897178650" lon="34.831794739">
<ele>498.976563</ele>
<time>2013-11-21T09:16:32Z</time>
<speed>4.340000</speed>
<extensions>
<speed>4.3</speed>
<temp>0.00</temp>
<bpm>0</bpm>
<rpm>0.00</rpm>
</extensions>
</trkpt>
<trkpt lat="30.897264481" lon="34.831626892">
<ele>498.531250</ele>
<time>2013-11-21T09:16:37Z</time>
<speed>3.660000</speed>
<extensions>
<speed>3.7</speed>
<temp>0.00</temp>
<bpm>0</bpm>
<rpm>0.00</rpm>
</extensions>
</trkpt>
<trkpt lat="30.897331238" lon="34.831508636">
<ele>498.015625</ele>
<time>2013-11-21T09:16:42Z</time>
<speed>2.820000</speed>
<extensions>
<speed>2.8</speed>
<temp>0.00</temp>
<bpm>0</bpm>
<rpm>0.00</rpm>
</extensions>
</trkpt>
<trkpt lat="30.897407532" lon="34.831398010">
<ele>498.562500</ele>
<time>2013-11-21T09:16:47Z</time>
<speed>3.480000</speed>
<extensions>
<speed>3.5</speed>
<temp>0.00</temp>
<bpm>0</bpm>
<rpm>0.00</rpm>
</extensions>
</trkpt>
<trkpt lat="30.897537231" lon="34.831237793">
<ele>498.882813</ele>
<time>2013-11-21T09:16:52Z</time>
<speed>4.040000</speed>
<extensions>
<speed>4.0</speed>
<temp>0.00</temp>
<bpm>0</bpm>
<rpm>0.00</rpm>
</extensions>
</trkpt>
<trkpt lat="30.897645950" lon="34.831157684">
<ele>499.703125</ele>
<time>2013-11-21T09:16:57Z</time>
<speed>2.550000</speed>
<extensions>
<speed>2.6</speed>
<temp>0.00</temp>
<bpm>0</bpm>
<rpm>0.00</rpm>
</extensions>
</trkpt>
<trkpt lat="30.897672653" lon="34.831020355">
<ele>500.593750</ele>
<time>2013-11-21T09:17:02Z</time>
<speed>3.300000</speed>
<extensions>
<speed>3.3</speed>
<temp>0.00</temp>
<bpm>0</bpm>
<rpm>0.00</rpm>
</extensions>
</trkpt>
<trkpt lat="30.897706985" lon="34.830883026">
<ele>502.656250</ele>
<time>2013-11-21T09:17:07Z</time>
<speed>3.650000</speed>
<extensions>
<speed>3.7</speed>
<temp>0.00</temp>
<bpm>0</bpm>
<rpm>0.00</rpm>
</extensions>
</trkpt>
<trkpt lat="30.897768021" lon="34.830718994">
<ele>503.578125</ele>
<time>2013-11-21T09:17:12Z</time>
<speed>3.180000</speed>
<extensions>
<speed>3.2</speed>
<temp>0.00</temp>
<bpm>0</bpm>
<rpm>0.00</rpm>
</extensions>
</trkpt>
<trkpt lat="30.897844315" lon="34.830577850">
<ele>503.171875</ele>
<time>2013-11-21T09:17:17Z</time>
<speed>4.020000</speed>
<extensions>
<speed>4.0</speed>
<temp>0.00</temp>
<bpm>0</bpm>
<rpm>0.00</rpm>
</extensions>
</trkpt>
<trkpt lat="30.897935867" lon="34.830398560">
<ele>503.835938</ele>
<time>2013-11-21T09:17:22Z</time>
<speed>3.850000</speed>
<extensions>
<speed>3.8</speed>
<temp>0.00</temp>
<bpm>0</bpm>
<rpm>0.00</rpm>
</extensions>
</trkpt>
<trkpt lat="30.898021698" lon="34.830223083">
<ele>506.093750</ele>
<time>2013-11-21T09:17:27Z</time>
<speed>3.470000</speed>
<extensions>
<speed>3.5</speed>
<temp>0.00</temp>
<bpm>0</bpm>
<rpm>0.00</rpm>
</extensions>
</trkpt>
<trkpt lat="30.898052216" lon="34.830032349">
<ele>507.632813</ele>
<time>2013-11-21T09:17:32Z</time>
<speed>4.550000</speed>
<extensions>
<speed>4.5</speed>
<temp>0.00</temp>
<bpm>0</bpm>
<rpm>0.00</rpm>
</extensions>
</trkpt>
<trkpt lat="30.898101807" lon="34.829849243">
<ele>508.843750</ele>
<time>2013-11-21T09:17:37Z</time>
<speed>3.230000</speed>
<extensions>
<speed>3.2</speed>
<temp>0.00</temp>
<bpm>0</bpm>
<rpm>0.00</rpm>
</extensions>
</trkpt>
<trkpt lat="30.898185730" lon="34.829685211">
<ele>509.031250</ele>
<time>2013-11-21T09:17:42Z</time>
<speed>3.760000</speed>
<extensions>
<speed>3.8</speed>
<temp>0.00</temp>
<bpm>0</bpm>
<rpm>0.00</rpm>
</extensions>
</trkpt>
<trkpt lat="30.898242950" lon="34.829524994">
<ele>509.273438</ele>
<time>2013-11-21T09:17:47Z</time>
<speed>3.150000</speed>
<extensions>
<speed>3.2</speed>
<temp>0.00</temp>
<bpm>0</bpm>
<rpm>0.00</rpm>
</extensions>
</trkpt>
<trkpt lat="30.898324966" lon="34.829345703">
<ele>511.148438</ele>
<time>2013-11-21T09:17:52Z</time>
<speed>3.460000</speed>
<extensions>
<speed>3.5</speed>
<temp>0.00</temp>
<bpm>0</bpm>
<rpm>0.00</rpm>
</extensions>
</trkpt>
<trkpt lat="30.898427963" lon="34.829196930">
<ele>511.906250</ele>
<time>2013-11-21T09:17:57Z</time>
<speed>2.980000</speed>
<extensions>
<speed>3.0</speed>
<temp>0.00</temp>
<bpm>0</bpm>
<rpm>0.00</rpm>
</extensions>
</trkpt>
<trkpt lat="30.898509979" lon="34.829074860">
<ele>511.062500</ele>
<time>2013-11-21T09:18:02Z</time>
<speed>3.210000</speed>
<extensions>
<speed>3.2</speed>
<temp>0.00</temp>
<bpm>0</bpm>
<rpm>0.00</rpm>
</extensions>
</trkpt>
<trkpt lat="30.898664474" lon="34.828983307">
<ele>510.484375</ele>
<time>2013-11-21T09:18:07Z</time>
<speed>4.140000</speed>
<extensions>
<speed>4.1</speed>
<temp>0.00</temp>
<bpm>0</bpm>
<rpm>0.00</rpm>
</extensions>
</trkpt>
<trkpt lat="30.898780823" lon="34.828826904">
<ele>509.835938</ele>
<time>2013-11-21T09:18:12Z</time>
<speed>4.030000</speed>
<extensions>
<speed>4.0</speed>
<temp>0.00</temp>
<bpm>0</bpm>
<rpm>0.00</rpm>
</extensions>
</trkpt>
<trkpt lat="30.898946762" lon="34.828712463">
<ele>510.179688</ele>
<time>2013-11-21T09:18:17Z</time>
<speed>3.330000</speed>
<extensions>
<speed>3.3</speed>
<temp>0.00</temp>
<bpm>0</bpm>
<rpm>0.00</rpm>
</extensions>
</trkpt>
<trkpt lat="30.899093628" lon="34.828632355">
<ele>509.851563</ele>
<time>2013-11-21T09:18:22Z</time>
<speed>3.820000</speed>
<extensions>
<speed>3.8</speed>
<temp>0.00</temp>
<bpm>0</bpm>
<rpm>0.00</rpm>
</extensions>
</trkpt>
<trkpt lat="30.899282455" lon="34.828571320">
<ele>509.070313</ele>
<time>2013-11-21T09:18:27Z</time>
<speed>5.270000</speed>
<extensions>
<speed>5.3</speed>
<temp>0.00</temp>
<bpm>0</bpm>
<rpm>0.00</rpm>
</extensions>
</trkpt>
<trkpt lat="30.899427414" lon="34.828475952">
<ele>508.562500</ele>
<time>2013-11-21T09:18:32Z</time>
<speed>2.950000</speed>
<extensions>
<speed>2.9</speed>
<temp>0.00</temp>
<bpm>0</bpm>
<rpm>0.00</rpm>
</extensions>
</trkpt>
<trkpt lat="30.899564743" lon="34.828475952">
<ele>508.765625</ele>
<time>2013-11-21T09:18:37Z</time>
<speed>3.570000</speed>
<extensions>
<speed>3.6</speed>
<temp>0.00</temp>
<bpm>0</bpm>
<rpm>0.00</rpm>
</extensions>
</trkpt>
<trkpt lat="30.899686813" lon="34.828380585">
<ele>508.414063</ele>
<time>2013-11-21T09:18:42Z</time>
<speed>2.050000</speed>
<extensions>
<speed>2.1</speed>
<temp>0.00</temp>
<bpm>0</bpm>
<rpm>0.00</rpm>
</extensions>
</trkpt>
<trkpt lat="30.899694443" lon="34.828308105">
<ele>508.171875</ele>
<time>2013-11-21T09:18:47Z</time>
<speed>2.180000</speed>
<extensions>
<speed>2.2</speed>
<temp>0.00</temp>
<bpm>0</bpm>
<rpm>0.00</rpm>
</extensions>
</trkpt>
<trkpt lat="30.899673462" lon="34.828208923">
<ele>506.796875</ele>
<time>2013-11-21T09:18:52Z</time>
<speed>1.860000</speed>
<extensions>
<speed>1.9</speed>
<temp>0.00</temp>
<bpm>0</bpm>
<rpm>0.00</rpm>
</extensions>
</trkpt>
<trkpt lat="30.899612427" lon="34.828113556">
<ele>507.429688</ele>
<time>2013-11-21T09:18:57Z</time>
<speed>3.450000</speed>
<extensions>
<speed>3.5</speed>
<temp>0.00</temp>
<bpm>0</bpm>
<rpm>0.00</rpm>
</extensions>
</trkpt>
<trkpt lat="30.899513245" lon="34.827941895">
<ele>508.960938</ele>
<time>2013-11-21T09:19:02Z</time>
<speed>4.230000</speed>
<extensions>
<speed>4.2</speed>
<temp>0.00</temp>
<bpm>0</bpm>
<rpm>0.00</rpm>
</extensions>
</trkpt>
<trkpt lat="30.899393082" lon="34.827793121">
<ele>509.812500</ele>
<time>2013-11-21T09:19:07Z</time>
<speed>3.740000</speed>
<extensions>
<speed>3.7</speed>
<temp>0.00</temp>
<bpm>0</bpm>
<rpm>0.00</rpm>
</extensions>
</trkpt>
<trkpt lat="30.899236679" lon="34.827583313">
<ele>511.789063</ele>
<time>2013-11-21T09:19:12Z</time>
<speed>4.720000</speed>
<extensions>
<speed>4.7</speed>
<temp>0.00</temp>
<bpm>0</bpm>
<rpm>0.00</rpm>
</extensions>
</trkpt>
<trkpt lat="30.899059296" lon="34.827362061">
<ele>513.656250</ele>
<time>2013-11-21T09:19:17Z</time>
<speed>5.430000</speed>
<extensions>
<speed>5.4</speed>
<temp>0.00</temp>
<bpm>0</bpm>
<rpm>0.00</rpm>
</extensions>
</trkpt>
<trkpt lat="30.898853302" lon="34.827140808">
<ele>514.453125</ele>
<time>2013-11-21T09:19:22Z</time>
<speed>5.320000</speed>
<extensions>
<speed>5.3</speed>
<temp>0.00</temp>
<bpm>0</bpm>
<rpm>0.00</rpm>
</extensions>
</trkpt>
<trkpt lat="30.898670197" lon="34.826915741">
<ele>515.187500</ele>
<time>2013-11-21T09:19:27Z</time>
<speed>6.640000</speed>
<extensions>
<speed>6.6</speed>
<temp>0.00</temp>
<bpm>0</bpm>
<rpm>0.00</rpm>
</extensions>
</trkpt>
<trkpt lat="30.898464203" lon="34.826671600">
<ele>516.953125</ele>
<time>2013-11-21T09:19:32Z</time>
<speed>6.760000</speed>
<extensions>
<speed>6.8</speed>
<temp>0.00</temp>
<bpm>0</bpm>
<rpm>0.00</rpm>
</extensions>
</trkpt>
<trkpt lat="30.898288727" lon="34.826446533">
<ele>517.812500</ele>
<time>2013-11-21T09:19:37Z</time>
<speed>6.520000</speed>
<extensions>
<speed>6.5</speed>
<temp>0.00</temp>
<bpm>0</bpm>
<rpm>0.00</rpm>
</extensions>
</trkpt>
<trkpt lat="30.898094177" lon="34.826194763">
<ele>518.140625</ele>
<time>2013-11-21T09:19:42Z</time>
<speed>7.340000</speed>
<extensions>
<speed>7.3</speed>
<temp>0.00</temp>
<bpm>0</bpm>
<rpm>0.00</rpm>
</extensions>
</trkpt>
<trkpt lat="30.897859573" lon="34.825866699">
<ele>518.468750</ele>
<time>2013-11-21T09:19:47Z</time>
<speed>8.790000</speed>
<extensions>
<speed>8.8</speed>
<temp>0.00</temp>
<bpm>0</bpm>
<rpm>0.00</rpm>
</extensions>
</trkpt>
<trkpt lat="30.897607803" lon="34.825542450">
<ele>518.562500</ele>
<time>2013-11-21T09:19:52Z</time>
<speed>8.370000</speed>
<extensions>
<speed>8.4</speed>
<temp>0.00</temp>
<bpm>0</bpm>
<rpm>0.00</rpm>
</extensions>
</trkpt>
<trkpt lat="30.897352219" lon="34.825229645">
<ele>518.765625</ele>
<time>2013-11-21T09:19:57Z</time>
<speed>8.330000</speed>
<extensions>
<speed>8.3</speed>
<temp>0.00</temp>
<bpm>0</bpm>
<rpm>0.00</rpm>
</extensions>
</trkpt>
<trkpt lat="30.897144318" lon="34.824947357">
<ele>518.640625</ele>
<time>2013-11-21T09:20:02Z</time>
<speed>7.270000</speed>
<extensions>
<speed>7.3</speed>
<temp>0.00</temp>
<bpm>0</bpm>
<rpm>0.00</rpm>
</extensions>
</trkpt>
<trkpt lat="30.896978378" lon="34.824691772">
<ele>519.000000</ele>
<time>2013-11-21T09:20:07Z</time>
<speed>6.380000</speed>
<extensions>
<speed>6.4</speed>
<temp>0.00</temp>
<bpm>0</bpm>
<rpm>0.00</rpm>
</extensions>
</trkpt>
<trkpt lat="30.896797180" lon="34.824470520">
<ele>520.531250</ele>
<time>2013-11-21T09:20:12Z</time>
<speed>5.880000</speed>
<extensions>
<speed>5.9</speed>
<temp>0.00</temp>
<bpm>0</bpm>
<rpm>0.00</rpm>
</extensions>
</trkpt>
<trkpt lat="30.896648407" lon="34.824268341">
<ele>521.187500</ele>
<time>2013-11-21T09:20:17Z</time>
<speed>5.300000</speed>
<extensions>
<speed>5.3</speed>
<temp>0.00</temp>
<bpm>0</bpm>
<rpm>0.00</rpm>
</extensions>
</trkpt>
<trkpt lat="30.896545410" lon="34.824096680">
<ele>520.921875</ele>
<time>2013-11-21T09:20:22Z</time>
<speed>5.580000</speed>
<extensions>
<speed>5.6</speed>
<temp>0.00</temp>
<bpm>0</bpm>
<rpm>0.00</rpm>
</extensions>
</trkpt>
<trkpt lat="30.896375656" lon="34.823871613">
<ele>521.437500</ele>
<time>2013-11-21T09:20:27Z</time>
<speed>6.000000</speed>
<extensions>
<speed>6.0</speed>
<temp>0.00</temp>
<bpm>0</bpm>
<rpm>0.00</rpm>
</extensions>
</trkpt>
<trkpt lat="30.896202087" lon="34.823581696">
<ele>522.312500</ele>
<time>2013-11-21T09:20:32Z</time>
<speed>6.490000</speed>
<extensions>
<speed>6.5</speed>
<temp>0.00</temp>
<bpm>0</bpm>
<rpm>0.00</rpm>
</extensions>
</trkpt>
<trkpt lat="30.896005630" lon="34.823280334">
<ele>520.671875</ele>
<time>2013-11-21T09:20:37Z</time>
<speed>7.590000</speed>
<extensions>
<speed>7.6</speed>
<temp>0.00</temp>
<bpm>0</bpm>
<rpm>0.00</rpm>
</extensions>
</trkpt>
<trkpt lat="30.895801544" lon="34.822952271">
<ele>520.765625</ele>
<time>2013-11-21T09:20:42Z</time>
<speed>8.410000</speed>
<extensions>
<speed>8.4</speed>
<temp>0.00</temp>
<bpm>0</bpm>
<rpm>0.00</rpm>
</extensions>
</trkpt>
<trkpt lat="30.895551682" lon="34.822616577">
<ele>521.484375</ele>
<time>2013-11-21T09:20:47Z</time>
<speed>8.050000</speed>
<extensions>
<speed>8.0</speed>
<temp>0.00</temp>
<bpm>0</bpm>
<rpm>0.00</rpm>
</extensions>
</trkpt>
<trkpt lat="30.895355225" lon="34.822273254">
<ele>522.359375</ele>
<time>2013-11-21T09:20:52Z</time>
<speed>7.980000</speed>
<extensions>
<speed>8.0</speed>
<temp>0.00</temp>
<bpm>0</bpm>
<rpm>0.00</rpm>
</extensions>
</trkpt>
<trkpt lat="30.895137787" lon="34.821910858">
<ele>522.359375</ele>
<time>2013-11-21T09:20:57Z</time>
<speed>8.480000</speed>
<extensions>
<speed>8.5</speed>
<temp>0.00</temp>
<bpm>0</bpm>
<rpm>0.00</rpm>
</extensions>
</trkpt>
<trkpt lat="30.894905090" lon="34.821571350">
<ele>523.046875</ele>
<time>2013-11-21T09:21:02Z</time>
<speed>8.230000</speed>
<extensions>
<speed>8.2</speed>
<temp>0.00</temp>
<bpm>0</bpm>
<rpm>0.00</rpm>
</extensions>
</trkpt>
<trkpt lat="30.894706726" lon="34.821296692">
<ele>523.671875</ele>
<time>2013-11-21T09:21:07Z</time>
<speed>7.090000</speed>
<extensions>
<speed>7.1</speed>
<temp>0.00</temp>
<bpm>0</bpm>
<rpm>0.00</rpm>
</extensions>
</trkpt>
<trkpt lat="30.894500732" lon="34.821063995">
<ele>524.625000</ele>
<time>2013-11-21T09:21:12Z</time>
<speed>6.090000</speed>
<extensions>
<speed>6.1</speed>
<temp>0.00</temp>
<bpm>0</bpm>
<rpm>0.00</rpm>
</extensions>
</trkpt>
<trkpt lat="30.894287109" lon="34.820831299">
<ele>525.359375</ele>
<time>2013-11-21T09:21:17Z</time>
<speed>6.710000</speed>
<extensions>
<speed>6.7</speed>
<temp>0.00</temp>
<bpm>0</bpm>
<rpm>0.00</rpm>
</extensions>
</trkpt>
<trkpt lat="30.894062042" lon="34.820621490">
<ele>525.468750</ele>
<time>2013-11-21T09:21:22Z</time>
<speed>6.480000</speed>
<extensions>
<speed>6.5</speed>
<temp>0.00</temp>
<bpm>0</bpm>
<rpm>0.00</rpm>
</extensions>
</trkpt>
<trkpt lat="30.893835068" lon="34.820396423">
<ele>524.796875</ele>
<time>2013-11-21T09:21:27Z</time>
<speed>6.300000</speed>
<extensions>
<speed>6.3</speed>
<temp>0.00</temp>
<bpm>0</bpm>
<rpm>0.00</rpm>
</extensions>
</trkpt>
<trkpt lat="30.893573761" lon="34.820194244">
<ele>525.000000</ele>
<time>2013-11-21T09:21:32Z</time>
<speed>6.810000</speed>
<extensions>
<speed>6.8</speed>
<temp>0.00</temp>
<bpm>0</bpm>
<rpm>0.00</rpm>
</extensions>
</trkpt>
<trkpt lat="30.893321991" lon="34.819980621">
<ele>526.046875</ele>
<time>2013-11-21T09:21:37Z</time>
<speed>6.590000</speed>
<extensions>
<speed>6.6</speed>
<temp>0.00</temp>
<bpm>0</bpm>
<rpm>0.00</rpm>
</extensions>
</trkpt>
<trkpt lat="30.893070221" lon="34.819770813">
<ele>526.718750</ele>
<time>2013-11-21T09:21:42Z</time>
<speed>7.130000</speed>
<extensions>
<speed>7.1</speed>
<temp>0.00</temp>
<bpm>0</bpm>
<rpm>0.00</rpm>
</extensions>
</trkpt>
<trkpt lat="30.892820358" lon="34.819522858">
<ele>527.937500</ele>
<time>2013-11-21T09:21:47Z</time>
<speed>6.610000</speed>
<extensions>
<speed>6.6</speed>
<temp>0.00</temp>
<bpm>0</bpm>
<rpm>0.00</rpm>
</extensions>
</trkpt>
<trkpt lat="30.892625809" lon="34.819259644">
<ele>529.359375</ele>
<time>2013-11-21T09:21:52Z</time>
<speed>5.990000</speed>
<extensions>
<speed>6.0</speed>
<temp>0.00</temp>
<bpm>0</bpm>
<rpm>0.00</rpm>
</extensions>
</trkpt>
<trkpt lat="30.892414093" lon="34.818992615">
<ele>531.046875</ele>
<time>2013-11-21T09:21:57Z</time>
<speed>6.630000</speed>
<extensions>
<speed>6.6</speed>
<temp>0.00</temp>
<bpm>0</bpm>
<rpm>0.00</rpm>
</extensions>
</trkpt>
<trkpt lat="30.892229080" lon="34.818752289">
<ele>530.687500</ele>
<time>2013-11-21T09:22:02Z</time>
<speed>5.900000</speed>
<extensions>
<speed>5.9</speed>
<temp>0.00</temp>
<bpm>0</bpm>
<rpm>0.00</rpm>
</extensions>
</trkpt>
<trkpt lat="30.892053604" lon="34.818534851">
<ele>530.531250</ele>
<time>2013-11-21T09:22:07Z</time>
<speed>5.620000</speed>
<extensions>
<speed>5.6</speed>
<temp>0.00</temp>
<bpm>0</bpm>
<rpm>0.00</rpm>
</extensions>
</trkpt>
<trkpt lat="30.891851425" lon="34.818252563">
<ele>529.625000</ele>
<time>2013-11-21T09:22:12Z</time>
<speed>6.870000</speed>
<extensions>
<speed>6.9</speed>
<temp>0.00</temp>
<bpm>0</bpm>
<rpm>0.00</rpm>
</extensions>
</trkpt>
<trkpt lat="30.891693115" lon="34.817955017">
<ele>528.093750</ele>
<time>2013-11-21T09:22:17Z</time>
<speed>7.160000</speed>
<extensions>
<speed>7.2</speed>
<temp>0.00</temp>
<bpm>0</bpm>
<rpm>0.00</rpm>
</extensions>
</trkpt>
<trkpt lat="30.891502380" lon="34.817646027">
<ele>525.953125</ele>
<time>2013-11-21T09:22:22Z</time>
<speed>6.920000</speed>
<extensions>
<speed>6.9</speed>
<temp>0.00</temp>
<bpm>0</bpm>
<rpm>0.00</rpm>
</extensions>
</trkpt>
<trkpt lat="30.891302109" lon="34.817295074">
<ele>521.625000</ele>
<time>2013-11-21T09:22:27Z</time>
<speed>7.240000</speed>
<extensions>
<speed>7.2</speed>
<temp>0.00</temp>
<bpm>0</bpm>
<rpm>0.00</rpm>
</extensions>
</trkpt>
<trkpt lat="30.891128540" lon="34.816940308">
<ele>518.656250</ele>
<time>2013-11-21T09:22:32Z</time>
<speed>8.260000</speed>
<extensions>
<speed>8.3</speed>
<temp>0.00</temp>
<bpm>0</bpm>
<rpm>0.00</rpm>
</extensions>
</trkpt>
<trkpt lat="30.890977859" lon="34.816524506">
<ele>515.281250</ele>
<time>2013-11-21T09:22:37Z</time>
<speed>8.700000</speed>
<extensions>
<speed>8.7</speed>
<temp>0.00</temp>
<bpm>0</bpm>
<rpm>0.00</rpm>
</extensions>
</trkpt>
<trkpt lat="30.890882492" lon="34.816112518">
<ele>511.789063</ele>
<time>2013-11-21T09:22:42Z</time>
<speed>8.090000</speed>
<extensions>
<speed>8.1</speed>
<temp>0.00</temp>
<bpm>0</bpm>
<rpm>0.00</rpm>
</extensions>
</trkpt>
<trkpt lat="30.890798569" lon="34.815734863">
<ele>508.687500</ele>
<time>2013-11-21T09:22:47Z</time>
<speed>7.120000</speed>
<extensions>
<speed>7.1</speed>
<temp>0.00</temp>
<bpm>0</bpm>
<rpm>0.00</rpm>
</extensions>
</trkpt>
<trkpt lat="30.890691757" lon="34.815357208">
<ele>506.187500</ele>
<time>2013-11-21T09:22:52Z</time>
<speed>6.900000</speed>
<extensions>
<speed>6.9</speed>
<temp>0.00</temp>
<bpm>0</bpm>
<rpm>0.00</rpm>
</extensions>
</trkpt>
<trkpt lat="30.890542984" lon="34.814949036">
<ele>506.187500</ele>
<time>2013-11-21T09:22:57Z</time>
<speed>7.710000</speed>
<extensions>
<speed>7.7</speed>
<temp>0.00</temp>
<bpm>0</bpm>
<rpm>0.00</rpm>
</extensions>
</trkpt>
<trkpt lat="30.890460968" lon="34.814628601">
<ele>507.757813</ele>
<time>2013-11-21T09:23:02Z</time>
<speed>6.080000</speed>
<extensions>
<speed>6.1</speed>
<temp>0.00</temp>
<bpm>0</bpm>
<rpm>0.00</rpm>
</extensions>
</trkpt>
<trkpt lat="30.890371323" lon="34.814254761">
<ele>504.867188</ele>
<time>2013-11-21T09:23:07Z</time>
<speed>7.900000</speed>
<extensions>
<speed>7.9</speed>
<temp>0.00</temp>
<bpm>0</bpm>
<rpm>0.00</rpm>
</extensions>
</trkpt>
<trkpt lat="30.890249252" lon="34.813877106">
<ele>502.148438</ele>
<time>2013-11-21T09:23:12Z</time>
<speed>6.580000</speed>
<extensions>
<speed>6.6</speed>
<temp>0.00</temp>
<bpm>0</bpm>
<rpm>0.00</rpm>
</extensions>
</trkpt>
<trkpt lat="30.890129089" lon="34.813537598">
<ele>499.484375</ele>
<time>2013-11-21T09:23:17Z</time>
<speed>6.360000</speed>
<extensions>
<speed>6.4</speed>
<temp>0.00</temp>
<bpm>0</bpm>
<rpm>0.00</rpm>
</extensions>
</trkpt>
<trkpt lat="30.890087128" lon="34.813316345">
<ele>502.765625</ele>
<time>2013-11-21T09:23:22Z</time>
<speed>4.360000</speed>
<extensions>
<speed>4.4</speed>
<temp>0.00</temp>
<bpm>0</bpm>
<rpm>0.00</rpm>
</extensions>
</trkpt>
<trkpt lat="30.890056610" lon="34.813114166">
<ele>502.132813</ele>
<time>2013-11-21T09:23:27Z</time>
<speed>5.070000</speed>
<extensions>
<speed>5.1</speed>
<temp>0.00</temp>
<bpm>0</bpm>
<rpm>0.00</rpm>
</extensions>
</trkpt>
<trkpt lat="30.890012741" lon="34.812870026">
<ele>501.757813</ele>
<time>2013-11-21T09:23:32Z</time>
<speed>5.240000</speed>
<extensions>
<speed>5.2</speed>
<temp>0.00</temp>
<bpm>0</bpm>
<rpm>0.00</rpm>
</extensions>
</trkpt>
<trkpt lat="30.889949799" lon="34.812602997">
<ele>501.507813</ele>
<time>2013-11-21T09:23:37Z</time>
<speed>5.970000</speed>
<extensions>
<speed>6.0</speed>
<temp>0.00</temp>
<bpm>0</bpm>
<rpm>0.00</rpm>
</extensions>
</trkpt>
<trkpt lat="30.889842987" lon="34.812316895">
<ele>502.406250</ele>
<time>2013-11-21T09:23:42Z</time>
<speed>5.620000</speed>
<extensions>
<speed>5.6</speed>
<temp>0.00</temp>
<bpm>0</bpm>
<rpm>0.00</rpm>
</extensions>
</trkpt>
<trkpt lat="30.889745712" lon="34.812026978">
<ele>502.453125</ele>
<time>2013-11-21T09:23:47Z</time>
<speed>6.300000</speed>
<extensions>
<speed>6.3</speed>
<temp>0.00</temp>
<bpm>0</bpm>
<rpm>0.00</rpm>
</extensions>
</trkpt>
<trkpt lat="30.889631271" lon="34.811714172">
<ele>503.171875</ele>
<time>2013-11-21T09:23:52Z</time>
<speed>7.110000</speed>
<extensions>
<speed>7.1</speed>
<temp>0.00</temp>
<bpm>0</bpm>
<rpm>0.00</rpm>
</extensions>
</trkpt>
<trkpt lat="30.889524460" lon="34.811389923">
<ele>504.687500</ele>
<time>2013-11-21T09:23:57Z</time>
<speed>6.390000</speed>
<extensions>
<speed>6.4</speed>
<temp>0.00</temp>
<bpm>0</bpm>
<rpm>0.00</rpm>
</extensions>
</trkpt>
<trkpt lat="30.889383316" lon="34.811050415">
<ele>506.882813</ele>
<time>2013-11-21T09:24:02Z</time>
<speed>7.100000</speed>
<extensions>
<speed>7.1</speed>
<temp>0.00</temp>
<bpm>0</bpm>
<rpm>0.00</rpm>
</extensions>
</trkpt>
<trkpt lat="30.889307022" lon="34.810752869">
<ele>508.789063</ele>
<time>2013-11-21T09:24:07Z</time>
<speed>6.380000</speed>
<extensions>
<speed>6.4</speed>
<temp>0.00</temp>
<bpm>0</bpm>
<rpm>0.00</rpm>
</extensions>
</trkpt>
<trkpt lat="30.889188766" lon="34.810478210">
<ele>511.546875</ele>
<time>2013-11-21T09:24:12Z</time>
<speed>5.440000</speed>
<extensions>
<speed>5.4</speed>
<temp>0.00</temp>
<bpm>0</bpm>
<rpm>0.00</rpm>
</extensions>
</trkpt>
<trkpt lat="30.889101028" lon="34.810203552">
<ele>513.140625</ele>
<time>2013-11-21T09:24:17Z</time>
<speed>5.720000</speed>
<extensions>
<speed>5.7</speed>
<temp>0.00</temp>
<bpm>0</bpm>
<rpm>0.00</rpm>
</extensions>
</trkpt>
<trkpt lat="30.888984680" lon="34.809822083">
<ele>513.687500</ele>
<time>2013-11-21T09:24:22Z</time>
<speed>7.240000</speed>
<extensions>
<speed>7.2</speed>
<temp>0.00</temp>
<bpm>0</bpm>
<rpm>0.00</rpm>
</extensions>
</trkpt>
<trkpt lat="30.888885498" lon="34.809482574">
<ele>514.625000</ele>
<time>2013-11-21T09:24:27Z</time>
<speed>6.240000</speed>
<extensions>
<speed>6.2</speed>
<temp>0.00</temp>
<bpm>0</bpm>
<rpm>0.00</rpm>
</extensions>
</trkpt>
<trkpt lat="30.888771057" lon="34.809070587">
<ele>515.296875</ele>
<time>2013-11-21T09:24:32Z</time>
<speed>7.550000</speed>
<extensions>
<speed>7.6</speed>
<temp>0.00</temp>
<bpm>0</bpm>
<rpm>0.00</rpm>
</extensions>
</trkpt>
<trkpt lat="30.888675690" lon="34.808624268">
<ele>515.890625</ele>
<time>2013-11-21T09:24:37Z</time>
<speed>8.630000</speed>
<extensions>
<speed>8.6</speed>
<temp>0.00</temp>
<bpm>0</bpm>
<rpm>0.00</rpm>
</extensions>
</trkpt>
<trkpt lat="30.888599396" lon="34.808116913">
<ele>514.187500</ele>
<time>2013-11-21T09:24:42Z</time>
<speed>9.310000</speed>
<extensions>
<speed>9.3</speed>
<temp>0.00</temp>
<bpm>0</bpm>
<rpm>0.00</rpm>
</extensions>
</trkpt>
<trkpt lat="30.888553619" lon="34.807636261">
<ele>512.625000</ele>
<time>2013-11-21T09:24:47Z</time>
<speed>8.810000</speed>
<extensions>
<speed>8.8</speed>
<temp>0.00</temp>
<bpm>0</bpm>
<rpm>0.00</rpm>
</extensions>
</trkpt>
<trkpt lat="30.888500214" lon="34.807174683">
<ele>511.500000</ele>
<time>2013-11-21T09:24:52Z</time>
<speed>8.680000</speed>
<extensions>
<speed>8.7</speed>
<temp>0.00</temp>
<bpm>0</bpm>
<rpm>0.00</rpm>
</extensions>
</trkpt>
<trkpt lat="30.888444901" lon="34.806735992">
<ele>511.460938</ele>
<time>2013-11-21T09:24:57Z</time>
<speed>9.319999</speed>
<extensions>
<speed>9.3</speed>
<temp>0.00</temp>
<bpm>0</bpm>
<rpm>0.00</rpm>
</extensions>
</trkpt>
<trkpt lat="30.888362885" lon="34.806308746">
<ele>514.296875</ele>
<time>2013-11-21T09:25:02Z</time>
<speed>7.370000</speed>
<extensions>
<speed>7.4</speed>
<temp>0.00</temp>
<bpm>0</bpm>
<rpm>0.00</rpm>
</extensions>
</trkpt>
<trkpt lat="30.888362885" lon="34.805984497">
<ele>516.906250</ele>
<time>2013-11-21T09:25:07Z</time>
<speed>5.990000</speed>
<extensions>
<speed>6.0</speed>
<temp>0.00</temp>
<bpm>0</bpm>
<rpm>0.00</rpm>
</extensions>
</trkpt>
<trkpt lat="30.888339996" lon="34.805706024">
<ele>518.187500</ele>
<time>2013-11-21T09:25:12Z</time>
<speed>5.830000</speed>
<extensions>
<speed>5.8</speed>
<temp>0.00</temp>
<bpm>0</bpm>
<rpm>0.00</rpm>
</extensions>
</trkpt>
<trkpt lat="30.888301849" lon="34.805435181">
<ele>517.968750</ele>
<time>2013-11-21T09:25:17Z</time>
<speed>5.330000</speed>
<extensions>
<speed>5.3</speed>
<temp>0.00</temp>
<bpm>0</bpm>
<rpm>0.00</rpm>
</extensions>
</trkpt>
<trkpt lat="30.888250351" lon="34.805107117">
<ele>518.703125</ele>
<time>2013-11-21T09:25:22Z</time>
<speed>7.210000</speed>
<extensions>
<speed>7.2</speed>
<temp>0.00</temp>
<bpm>0</bpm>
<rpm>0.00</rpm>
</extensions>
</trkpt>
<trkpt lat="30.888221741" lon="34.804752350">
<ele>517.781250</ele>
<time>2013-11-21T09:25:27Z</time>
<speed>6.720000</speed>
<extensions>
<speed>6.7</speed>
<temp>0.00</temp>
<bpm>0</bpm>
<rpm>0.00</rpm>
</extensions>
</trkpt>
<trkpt lat="30.888202667" lon="34.804443359">
<ele>519.656250</ele>
<time>2013-11-21T09:25:32Z</time>
<speed>6.160000</speed>
<extensions>
<speed>6.2</speed>
<temp>0.00</temp>
<bpm>0</bpm>
<rpm>0.00</rpm>
</extensions>
</trkpt>
<trkpt lat="30.888191223" lon="34.804115295">
<ele>521.281250</ele>
<time>2013-11-21T09:25:37Z</time>
<speed>6.640000</speed>
<extensions>
<speed>6.6</speed>
<temp>0.00</temp>
<bpm>0</bpm>
<rpm>0.00</rpm>
</extensions>
</trkpt>
<trkpt lat="30.888177872" lon="34.803806305">
<ele>522.359375</ele>
<time>2013-11-21T09:25:42Z</time>
<speed>6.020000</speed>
<extensions>
<speed>6.0</speed>
<temp>0.00</temp>
<bpm>0</bpm>
<rpm>0.00</rpm>
</extensions>
</trkpt>
<trkpt lat="30.888143539" lon="34.803527832">
<ele>524.765625</ele>
<time>2013-11-21T09:25:47Z</time>
<speed>5.580000</speed>
<extensions>
<speed>5.6</speed>
<temp>0.00</temp>
<bpm>0</bpm>
<rpm>0.00</rpm>
</extensions>
</trkpt>
<trkpt lat="30.888124466" lon="34.803245544">
<ele>525.015625</ele>
<time>2013-11-21T09:25:52Z</time>
<speed>5.280000</speed>
<extensions>
<speed>5.3</speed>
<temp>0.00</temp>
<bpm>0</bpm>
<rpm>0.00</rpm>
</extensions>
</trkpt>
<trkpt lat="30.888099670" lon="34.802928925">
<ele>523.531250</ele>
<time>2013-11-21T09:25:57Z</time>
<speed>5.670000</speed>
<extensions>
<speed>5.7</speed>
<temp>0.00</temp>
<bpm>0</bpm>
<rpm>0.00</rpm>
</extensions>
</trkpt>
<trkpt lat="30.888065338" lon="34.802612305">
<ele>521.640625</ele>
<time>2013-11-21T09:26:02Z</time>
<speed>5.750000</speed>
<extensions>
<speed>5.8</speed>
<temp>0.00</temp>
<bpm>0</bpm>
<rpm>0.00</rpm>
</extensions>
</trkpt>
<trkpt lat="30.888067245" lon="34.802276611">
<ele>520.718750</ele>
<time>2013-11-21T09:26:07Z</time>
<speed>6.180000</speed>
<extensions>
<speed>6.2</speed>
<temp>0.00</temp>
<bpm>0</bpm>
<rpm>0.00</rpm>
</extensions>
</trkpt>
<trkpt lat="30.888059616" lon="34.801937103">
<ele>519.546875</ele>
<time>2013-11-21T09:26:12Z</time>
<speed>6.660000</speed>
<extensions>
<speed>6.7</speed>
<temp>0.00</temp>
<bpm>0</bpm>
<rpm>0.00</rpm>
</extensions>
</trkpt>
<trkpt lat="30.888032913" lon="34.801593781">
<ele>517.109375</ele>
<time>2013-11-21T09:26:17Z</time>
<speed>6.090000</speed>
<extensions>
<speed>6.1</speed>
<temp>0.00</temp>
<bpm>0</bpm>
<rpm>0.00</rpm>
</extensions>
</trkpt>
<trkpt lat="30.887989044" lon="34.801200867">
<ele>514.796875</ele>
<time>2013-11-21T09:26:22Z</time>
<speed>7.670000</speed>
<extensions>
<speed>7.7</speed>
<temp>0.00</temp>
<bpm>0</bpm>
<rpm>0.00</rpm>
</extensions>
</trkpt>
<trkpt lat="30.887973785" lon="34.800842285">
<ele>512.281250</ele>
<time>2013-11-21T09:26:27Z</time>
<speed>4.900000</speed>
<extensions>
<speed>4.9</speed>
<temp>0.00</temp>
<bpm>0</bpm>
<rpm>0.00</rpm>
</extensions>
</trkpt>
<trkpt lat="30.887928009" lon="34.800491333">
<ele>511.859375</ele>
<time>2013-11-21T09:26:32Z</time>
<speed>7.090000</speed>
<extensions>
<speed>7.1</speed>
<temp>0.00</temp>
<bpm>0</bpm>
<rpm>0.00</rpm>
</extensions>
</trkpt>
<trkpt lat="30.887878418" lon="34.800128937">
<ele>510.429688</ele>
<time>2013-11-21T09:26:37Z</time>
<speed>6.970000</speed>
<extensions>
<speed>7.0</speed>
<temp>0.00</temp>
<bpm>0</bpm>
<rpm>0.00</rpm>
</extensions>
</trkpt>
<trkpt lat="30.887826920" lon="34.799724579">
<ele>507.101563</ele>
<time>2013-11-21T09:26:42Z</time>
<speed>7.400000</speed>
<extensions>
<speed>7.4</speed>
<temp>0.00</temp>
<bpm>0</bpm>
<rpm>0.00</rpm>
</extensions>
</trkpt>
<trkpt lat="30.887790680" lon="34.799354553">
<ele>504.859375</ele>
<time>2013-11-21T09:26:47Z</time>
<speed>7.690000</speed>
<extensions>
<speed>7.7</speed>
<temp>0.00</temp>
<bpm>0</bpm>
<rpm>0.00</rpm>
</extensions>
</trkpt>
<trkpt lat="30.887750626" lon="34.798999786">
<ele>502.843750</ele>
<time>2013-11-21T09:26:52Z</time>
<speed>6.880000</speed>
<extensions>
<speed>6.9</speed>
<temp>0.00</temp>
<bpm>0</bpm>
<rpm>0.00</rpm>
</extensions>
</trkpt>
<trkpt lat="30.887716293" lon="34.798664093">
<ele>502.234375</ele>
<time>2013-11-21T09:26:57Z</time>
<speed>6.100000</speed>
<extensions>
<speed>6.1</speed>
<temp>0.00</temp>
<bpm>0</bpm>
<rpm>0.00</rpm>
</extensions>
</trkpt>
<trkpt lat="30.887666702" lon="34.798358917">
<ele>501.203125</ele>
<time>2013-11-21T09:27:02Z</time>
<speed>6.240000</speed>
<extensions>
<speed>6.2</speed>
<temp>0.00</temp>
<bpm>0</bpm>
<rpm>0.00</rpm>
</extensions>
</trkpt>
<trkpt lat="30.887611389" lon="34.798072815">
<ele>499.492188</ele>
<time>2013-11-21T09:27:07Z</time>
<speed>5.620000</speed>
<extensions>
<speed>5.6</speed>
<temp>0.00</temp>
<bpm>0</bpm>
<rpm>0.00</rpm>
</extensions>
</trkpt>
<trkpt lat="30.887512207" lon="34.797786713">
<ele>497.125000</ele>
<time>2013-11-21T09:27:12Z</time>
<speed>5.720000</speed>
<extensions>
<speed>5.7</speed>
<temp>0.00</temp>
<bpm>0</bpm>
<rpm>0.00</rpm>
</extensions>
</trkpt>
<trkpt lat="30.887403488" lon="34.797512054">
<ele>495.109375</ele>
<time>2013-11-21T09:27:17Z</time>
<speed>5.350000</speed>
<extensions>
<speed>5.4</speed>
<temp>0.00</temp>
<bpm>0</bpm>
<rpm>0.00</rpm>
</extensions>
</trkpt>
<trkpt lat="30.887281418" lon="34.797248840">
<ele>493.671875</ele>
<time>2013-11-21T09:27:22Z</time>
<speed>5.360000</speed>
<extensions>
<speed>5.4</speed>
<temp>0.00</temp>
<bpm>0</bpm>
<rpm>0.00</rpm>
</extensions>
</trkpt>
<trkpt lat="30.887145996" lon="34.796974182">
<ele>491.710938</ele>
<time>2013-11-21T09:27:27Z</time>
<speed>6.650000</speed>
<extensions>
<speed>6.7</speed>
<temp>0.00</temp>
<bpm>0</bpm>
<rpm>0.00</rpm>
</extensions>
</trkpt>
<trkpt lat="30.887004852" lon="34.796695709">
<ele>490.468750</ele>
<time>2013-11-21T09:27:32Z</time>
<speed>6.170000</speed>
<extensions>
<speed>6.2</speed>
<temp>0.00</temp>
<bpm>0</bpm>
<rpm>0.00</rpm>
</extensions>
</trkpt>
<trkpt lat="30.886859894" lon="34.796417236">
<ele>490.781250</ele>
<time>2013-11-21T09:27:37Z</time>
<speed>6.450000</speed>
<extensions>
<speed>6.4</speed>
<temp>0.00</temp>
<bpm>0</bpm>
<rpm>0.00</rpm>
</extensions>
</trkpt>
<trkpt lat="30.886718750" lon="34.796142578">
<ele>490.460938</ele>
<time>2013-11-21T09:27:42Z</time>
<speed>5.750000</speed>
<extensions>
<speed>5.8</speed>
<temp>0.00</temp>
<bpm>0</bpm>
<rpm>0.00</rpm>
</extensions>
</trkpt>
<trkpt lat="30.886568069" lon="34.795886993">
<ele>490.242188</ele>
<time>2013-11-21T09:27:47Z</time>
<speed>6.750000</speed>
<extensions>
<speed>6.7</speed>
<temp>0.00</temp>
<bpm>0</bpm>
<rpm>0.00</rpm>
</extensions>
</trkpt>
<trkpt lat="30.886373520" lon="34.795642853">
<ele>488.812500</ele>
<time>2013-11-21T09:27:52Z</time>
<speed>6.750000</speed>
<extensions>
<speed>6.7</speed>
<temp>0.00</temp>
<bpm>0</bpm>
<rpm>0.00</rpm>
</extensions>
</trkpt>
<trkpt lat="30.886144638" lon="34.795383453">
<ele>489.250000</ele>
<time>2013-11-21T09:27:57Z</time>
<speed>7.040000</speed>
<extensions>
<speed>7.0</speed>
<temp>0.00</temp>
<bpm>0</bpm>
<rpm>0.00</rpm>
</extensions>
</trkpt>
<trkpt lat="30.885927200" lon="34.795139313">
<ele>490.843750</ele>
<time>2013-11-21T09:28:02Z</time>
<speed>7.160000</speed>
<extensions>
<speed>7.2</speed>
<temp>0.00</temp>
<bpm>0</bpm>
<rpm>0.00</rpm>
</extensions>
</trkpt>
<trkpt lat="30.885736465" lon="34.794914246">
<ele>491.320313</ele>
<time>2013-11-21T09:28:07Z</time>
<speed>6.700000</speed>
<extensions>
<speed>6.7</speed>
<temp>0.00</temp>
<bpm>0</bpm>
<rpm>0.00</rpm>
</extensions>
</trkpt>
<trkpt lat="30.885540009" lon="34.794742584">
<ele>490.328125</ele>
<time>2013-11-21T09:28:12Z</time>
<speed>5.660000</speed>
<extensions>
<speed>5.7</speed>
<temp>0.00</temp>
<bpm>0</bpm>
<rpm>0.00</rpm>
</extensions>
</trkpt>
<trkpt lat="30.885322571" lon="34.794605255">
<ele>489.546875</ele>
<time>2013-11-21T09:28:17Z</time>
<speed>6.390000</speed>
<extensions>
<speed>6.4</speed>
<temp>0.00</temp>
<bpm>0</bpm>
<rpm>0.00</rpm>
</extensions>
</trkpt>
<trkpt lat="30.885063171" lon="34.794483185">
<ele>488.914063</ele>
<time>2013-11-21T09:28:22Z</time>
<speed>6.450000</speed>
<extensions>
<speed>6.4</speed>
<temp>0.00</temp>
<bpm>0</bpm>
<rpm>0.00</rpm>
</extensions>
</trkpt>
<trkpt lat="30.884811401" lon="34.794361115">
<ele>487.609375</ele>
<time>2013-11-21T09:28:27Z</time>
<speed>6.040000</speed>
<extensions>
<speed>6.0</speed>
<temp>0.00</temp>
<bpm>0</bpm>
<rpm>0.00</rpm>
</extensions>
</trkpt>
<trkpt lat="30.884555817" lon="34.794273376">
<ele>483.742188</ele>
<time>2013-11-21T09:28:32Z</time>
<speed>5.630000</speed>
<extensions>
<speed>5.6</speed>
<temp>0.00</temp>
<bpm>0</bpm>
<rpm>0.00</rpm>
</extensions>
</trkpt>
<trkpt lat="30.884313583" lon="34.794189453">
<ele>480.914063</ele>
<time>2013-11-21T09:28:37Z</time>
<speed>6.040000</speed>
<extensions>
<speed>6.0</speed>
<temp>0.00</temp>
<bpm>0</bpm>
<rpm>0.00</rpm>
</extensions>
</trkpt>
<trkpt lat="30.884050369" lon="34.794128418">
<ele>478.273438</ele>
<time>2013-11-21T09:28:42Z</time>
<speed>6.020000</speed>
<extensions>
<speed>6.0</speed>
<temp>0.00</temp>
<bpm>0</bpm>
<rpm>0.00</rpm>
</extensions>
</trkpt>
<trkpt lat="30.883781433" lon="34.794071198">
<ele>476.875000</ele>
<time>2013-11-21T09:28:47Z</time>
<speed>6.290000</speed>
<extensions>
<speed>6.3</speed>
<temp>0.00</temp>
<bpm>0</bpm>
<rpm>0.00</rpm>
</extensions>
</trkpt>
<trkpt lat="30.883430481" lon="34.793979645">
<ele>476.289063</ele>
<time>2013-11-21T09:28:52Z</time>
<speed>8.330000</speed>
<extensions>
<speed>8.3</speed>
<temp>0.00</temp>
<bpm>0</bpm>
<rpm>0.00</rpm>
</extensions>
</trkpt>
<trkpt lat="30.883045197" lon="34.793857574">
<ele>476.421875</ele>
<time>2013-11-21T09:28:57Z</time>
<speed>8.530000</speed>
<extensions>
<speed>8.5</speed>
<temp>0.00</temp>
<bpm>0</bpm>
<rpm>0.00</rpm>
</extensions>
</trkpt>
<trkpt lat="30.882656097" lon="34.793720245">
<ele>474.468750</ele>
<time>2013-11-21T09:29:02Z</time>
<speed>9.210000</speed>
<extensions>
<speed>9.2</speed>
<temp>0.00</temp>
<bpm>0</bpm>
<rpm>0.00</rpm>
</extensions>
</trkpt>
<trkpt lat="30.882240295" lon="34.793582916">
<ele>473.226563</ele>
<time>2013-11-21T09:29:07Z</time>
<speed>9.760000</speed>
<extensions>
<speed>9.8</speed>
<temp>0.00</temp>
<bpm>0</bpm>
<rpm>0.00</rpm>
</extensions>
</trkpt>
<trkpt lat="30.881875992" lon="34.793426514">
<ele>472.796875</ele>
<time>2013-11-21T09:29:12Z</time>
<speed>8.310000</speed>
<extensions>
<speed>8.3</speed>
<temp>0.00</temp>
<bpm>0</bpm>
<rpm>0.00</rpm>
</extensions>
</trkpt>
<trkpt lat="30.881521225" lon="34.793258667">
<ele>473.562500</ele>
<time>2013-11-21T09:29:17Z</time>
<speed>8.350000</speed>
<extensions>
<speed>8.3</speed>
<temp>0.00</temp>
<bpm>0</bpm>
<rpm>0.00</rpm>
</extensions>
</trkpt>
<trkpt lat="30.881216049" lon="34.793067932">
<ele>475.750000</ele>
<time>2013-11-21T09:29:22Z</time>
<speed>7.780000</speed>
<extensions>
<speed>7.8</speed>
<temp>0.00</temp>
<bpm>0</bpm>
<rpm>0.00</rpm>
</extensions>
</trkpt>
<trkpt lat="30.880905151" lon="34.792854309">
<ele>479.015625</ele>
<time>2013-11-21T09:29:27Z</time>
<speed>6.990000</speed>
<extensions>
<speed>7.0</speed>
<temp>0.00</temp>
<bpm>0</bpm>
<rpm>0.00</rpm>
</extensions>
</trkpt>
<trkpt lat="30.880645752" lon="34.792675018">
<ele>481.695313</ele>
<time>2013-11-21T09:29:32Z</time>
<speed>5.990000</speed>
<extensions>
<speed>6.0</speed>
<temp>0.00</temp>
<bpm>0</bpm>
<rpm>0.00</rpm>
</extensions>
</trkpt>
<trkpt lat="30.880386353" lon="34.792503357">
<ele>483.070313</ele>
<time>2013-11-21T09:29:37Z</time>
<speed>5.900000</speed>
<extensions>
<speed>5.9</speed>
<temp>0.00</temp>
<bpm>0</bpm>
<rpm>0.00</rpm>
</extensions>
</trkpt>
<trkpt lat="30.880146027" lon="34.792327881">
<ele>483.546875</ele>
<time>2013-11-21T09:29:42Z</time>
<speed>5.760000</speed>
<extensions>
<speed>5.8</speed>
<temp>0.00</temp>
<bpm>0</bpm>
<rpm>0.00</rpm>
</extensions>
</trkpt>
<trkpt lat="30.879878998" lon="34.792083740">
<ele>485.156250</ele>
<time>2013-11-21T09:29:47Z</time>
<speed>7.990000</speed>
<extensions>
<speed>8.0</speed>
<temp>0.00</temp>
<bpm>0</bpm>
<rpm>0.00</rpm>
</extensions>
</trkpt>
<trkpt lat="30.879568100" lon="34.791778564">
<ele>487.695313</ele>
<time>2013-11-21T09:29:52Z</time>
<speed>7.950000</speed>
<extensions>
<speed>8.0</speed>
<temp>0.00</temp>
<bpm>0</bpm>
<rpm>0.00</rpm>
</extensions>
</trkpt>
<trkpt lat="30.879199982" lon="34.791427612">
<ele>490.757813</ele>
<time>2013-11-21T09:29:57Z</time>
<speed>8.850000</speed>
<extensions>
<speed>8.9</speed>
<temp>0.00</temp>
<bpm>0</bpm>
<rpm>0.00</rpm>
</extensions>
</trkpt>
<trkpt lat="30.878889084" lon="34.791130066">
<ele>492.890625</ele>
<time>2013-11-21T09:30:02Z</time>
<speed>8.700000</speed>
<extensions>
<speed>8.7</speed>
<temp>0.00</temp>
<bpm>0</bpm>
<rpm>0.00</rpm>
</extensions>
</trkpt>
<trkpt lat="30.878637314" lon="34.790878296">
<ele>493.921875</ele>
<time>2013-11-21T09:30:07Z</time>
<speed>7.550000</speed>
<extensions>
<speed>7.6</speed>
<temp>0.00</temp>
<bpm>0</bpm>
<rpm>0.00</rpm>
</extensions>
</trkpt>
<trkpt lat="30.878377914" lon="34.790626526">
<ele>495.250000</ele>
<time>2013-11-21T09:30:12Z</time>
<speed>7.760000</speed>
<extensions>
<speed>7.8</speed>
<temp>0.00</temp>
<bpm>0</bpm>
<rpm>0.00</rpm>
</extensions>
</trkpt>
<trkpt lat="30.878128052" lon="34.790390015">
<ele>495.484375</ele>
<time>2013-11-21T09:30:17Z</time>
<speed>7.350000</speed>
<extensions>
<speed>7.3</speed>
<temp>0.00</temp>
<bpm>0</bpm>
<rpm>0.00</rpm>
</extensions>
</trkpt>
<trkpt lat="30.877849579" lon="34.790134430">
<ele>496.625000</ele>
<time>2013-11-21T09:30:22Z</time>
<speed>8.170000</speed>
<extensions>
<speed>8.2</speed>
<temp>0.00</temp>
<bpm>0</bpm>
<rpm>0.00</rpm>
</extensions>
</trkpt>
<trkpt lat="30.877620697" lon="34.789886475">
<ele>498.398438</ele>
<time>2013-11-21T09:30:27Z</time>
<speed>6.430000</speed>
<extensions>
<speed>6.4</speed>
<temp>0.00</temp>
<bpm>0</bpm>
<rpm>0.00</rpm>
</extensions>
</trkpt>
<trkpt lat="30.877389908" lon="34.789646149">
<ele>499.031250</ele>
<time>2013-11-21T09:30:32Z</time>
<speed>7.230000</speed>
<extensions>
<speed>7.2</speed>
<temp>0.00</temp>
<bpm>0</bpm>
<rpm>0.00</rpm>
</extensions>
</trkpt>
<trkpt lat="30.877141953" lon="34.789337158">
<ele>496.640625</ele>
<time>2013-11-21T09:30:37Z</time>
<speed>7.120000</speed>
<extensions>
<speed>7.1</speed>
<temp>0.00</temp>
<bpm>0</bpm>
<rpm>0.00</rpm>
</extensions>
</trkpt>
<trkpt lat="30.876907349" lon="34.789047241">
<ele>496.210938</ele>
<time>2013-11-21T09:30:42Z</time>
<speed>7.590000</speed>
<extensions>
<speed>7.6</speed>
<temp>0.00</temp>
<bpm>0</bpm>
<rpm>0.00</rpm>
</extensions>
</trkpt>
<trkpt lat="30.876674652" lon="34.788688660">
<ele>495.414063</ele>
<time>2013-11-21T09:30:47Z</time>
<speed>8.670000</speed>
<extensions>
<speed>8.7</speed>
<temp>0.00</temp>
<bpm>0</bpm>
<rpm>0.00</rpm>
</extensions>
</trkpt>
<trkpt lat="30.876482010" lon="34.788391113">
<ele>494.976563</ele>
<time>2013-11-21T09:30:52Z</time>
<speed>6.670000</speed>
<extensions>
<speed>6.7</speed>
<temp>0.00</temp>
<bpm>0</bpm>
<rpm>0.00</rpm>
</extensions>
</trkpt>
<trkpt lat="30.876274109" lon="34.788082123">
<ele>494.835938</ele>
<time>2013-11-21T09:30:57Z</time>
<speed>7.260000</speed>
<extensions>
<speed>7.3</speed>
<temp>0.00</temp>
<bpm>0</bpm>
<rpm>0.00</rpm>
</extensions>
</trkpt>
<trkpt lat="30.876029968" lon="34.787704468">
<ele>491.851563</ele>
<time>2013-11-21T09:31:02Z</time>
<speed>8.250000</speed>
<extensions>
<speed>8.3</speed>
<temp>0.00</temp>
<bpm>0</bpm>
<rpm>0.00</rpm>
</extensions>
</trkpt>
<trkpt lat="30.875825882" lon="34.787368774">
<ele>488.835938</ele>
<time>2013-11-21T09:31:07Z</time>
<speed>8.420000</speed>
<extensions>
<speed>8.4</speed>
<temp>0.00</temp>
<bpm>0</bpm>
<rpm>0.00</rpm>
</extensions>
</trkpt>
<trkpt lat="30.875604630" lon="34.787036896">
<ele>488.132813</ele>
<time>2013-11-21T09:31:12Z</time>
<speed>7.480000</speed>
<extensions>
<speed>7.5</speed>
<temp>0.00</temp>
<bpm>0</bpm>
<rpm>0.00</rpm>
</extensions>
</trkpt>
<trkpt lat="30.875371933" lon="34.786693573">
<ele>484.968750</ele>
<time>2013-11-21T09:31:17Z</time>
<speed>8.610000</speed>
<extensions>
<speed>8.6</speed>
<temp>0.00</temp>
<bpm>0</bpm>
<rpm>0.00</rpm>
</extensions>
</trkpt>
<trkpt lat="30.875181198" lon="34.786392212">
<ele>482.437500</ele>
<time>2013-11-21T09:31:22Z</time>
<speed>7.550000</speed>
<extensions>
<speed>7.6</speed>
<temp>0.00</temp>
<bpm>0</bpm>
<rpm>0.00</rpm>
</extensions>
</trkpt>
<trkpt lat="30.874940872" lon="34.786075592">
<ele>481.351563</ele>
<time>2013-11-21T09:31:27Z</time>
<speed>8.190000</speed>
<extensions>
<speed>8.2</speed>
<temp>0.00</temp>
<bpm>0</bpm>
<rpm>0.00</rpm>
</extensions>
</trkpt>
<trkpt lat="30.874683380" lon="34.785758972">
<ele>479.312500</ele>
<time>2013-11-21T09:31:32Z</time>
<speed>8.010000</speed>
<extensions>
<speed>8.0</speed>
<temp>0.00</temp>
<bpm>0</bpm>
<rpm>0.00</rpm>
</extensions>
</trkpt>
<trkpt lat="30.874473572" lon="34.785533905">
<ele>474.468750</ele>
<time>2013-11-21T09:31:37Z</time>
<speed>6.970000</speed>
<extensions>
<speed>7.0</speed>
<temp>0.00</temp>
<bpm>0</bpm>
<rpm>0.00</rpm>
</extensions>
</trkpt>
<trkpt lat="30.874227524" lon="34.785255432">
<ele>472.585938</ele>
<time>2013-11-21T09:31:42Z</time>
<speed>6.900000</speed>
<extensions>
<speed>6.9</speed>
<temp>0.00</temp>
<bpm>0</bpm>
<rpm>0.00</rpm>
</extensions>
</trkpt>
<trkpt lat="30.873989105" lon="34.785011292">
<ele>471.867188</ele>
<time>2013-11-21T09:31:47Z</time>
<speed>7.830000</speed>
<extensions>
<speed>7.8</speed>
<temp>0.00</temp>
<bpm>0</bpm>
<rpm>0.00</rpm>
</extensions>
</trkpt>
<trkpt lat="30.873722076" lon="34.784721375">
<ele>470.250000</ele>
<time>2013-11-21T09:31:52Z</time>
<speed>7.670000</speed>
<extensions>
<speed>7.7</speed>
<temp>0.00</temp>
<bpm>0</bpm>
<rpm>0.00</rpm>
</extensions>
</trkpt>
<trkpt lat="30.873500824" lon="34.784519196">
<ele>471.046875</ele>
<time>2013-11-21T09:31:57Z</time>
<speed>6.750000</speed>
<extensions>
<speed>6.7</speed>
<temp>0.00</temp>
<bpm>0</bpm>
<rpm>0.00</rpm>
</extensions>
</trkpt>
<trkpt lat="30.873304367" lon="34.784305573">
<ele>472.835938</ele>
<time>2013-11-21T09:32:02Z</time>
<speed>5.320000</speed>
<extensions>
<speed>5.3</speed>
<temp>0.00</temp>
<bpm>0</bpm>
<rpm>0.00</rpm>
</extensions>
</trkpt>
<trkpt lat="30.873130798" lon="34.784126282">
<ele>476.507813</ele>
<time>2013-11-21T09:32:07Z</time>
<speed>5.640000</speed>
<extensions>
<speed>5.6</speed>
<temp>0.00</temp>
<bpm>0</bpm>
<rpm>0.00</rpm>
</extensions>
</trkpt>
<trkpt lat="30.872947693" lon="34.783924103">
<ele>477.796875</ele>
<time>2013-11-21T09:32:12Z</time>
<speed>5.130000</speed>
<extensions>
<speed>5.1</speed>
<temp>0.00</temp>
<bpm>0</bpm>
<rpm>0.00</rpm>
</extensions>
</trkpt>
<trkpt lat="30.872821808" lon="34.783802032">
<ele>477.914063</ele>
<time>2013-11-21T09:32:17Z</time>
<speed>4.300000</speed>
<extensions>
<speed>4.3</speed>
<temp>0.00</temp>
<bpm>0</bpm>
<rpm>0.00</rpm>
</extensions>
</trkpt>
<trkpt lat="30.872655869" lon="34.783657074">
<ele>480.125000</ele>
<time>2013-11-21T09:32:22Z</time>
<speed>4.750000</speed>
<extensions>
<speed>4.8</speed>
<temp>0.00</temp>
<bpm>0</bpm>
<rpm>0.00</rpm>
</extensions>
</trkpt>
<trkpt lat="30.872524261" lon="34.783515930">
<ele>483.000000</ele>
<time>2013-11-21T09:32:27Z</time>
<speed>4.010000</speed>
<extensions>
<speed>4.0</speed>
<temp>0.00</temp>
<bpm>0</bpm>
<rpm>0.00</rpm>
</extensions>
</trkpt>
<trkpt lat="30.872348785" lon="34.783340454">
<ele>484.742188</ele>
<time>2013-11-21T09:32:32Z</time>
<speed>5.410000</speed>
<extensions>
<speed>5.4</speed>
<temp>0.00</temp>
<bpm>0</bpm>
<rpm>0.00</rpm>
</extensions>
</trkpt>
<trkpt lat="30.872224808" lon="34.783210754">
<ele>484.726563</ele>
<time>2013-11-21T09:32:37Z</time>
<speed>4.190000</speed>
<extensions>
<speed>4.2</speed>
<temp>0.00</temp>
<bpm>0</bpm>
<rpm>0.00</rpm>
</extensions>
</trkpt>
<trkpt lat="30.872064590" lon="34.783046722">
<ele>485.312500</ele>
<time>2013-11-21T09:32:42Z</time>
<speed>4.150000</speed>
<extensions>
<speed>4.1</speed>
<temp>0.00</temp>
<bpm>0</bpm>
<rpm>0.00</rpm>
</extensions>
</trkpt>
<trkpt lat="30.871910095" lon="34.782890320">
<ele>485.671875</ele>
<time>2013-11-21T09:32:47Z</time>
<speed>5.410000</speed>
<extensions>
<speed>5.4</speed>
<temp>0.00</temp>
<bpm>0</bpm>
<rpm>0.00</rpm>
</extensions>
</trkpt>
<trkpt lat="30.871721268" lon="34.782711029">
<ele>486.039063</ele>
<time>2013-11-21T09:32:52Z</time>
<speed>5.110000</speed>
<extensions>
<speed>5.1</speed>
<temp>0.00</temp>
<bpm>0</bpm>
<rpm>0.00</rpm>
</extensions>
</trkpt>
<trkpt lat="30.871580124" lon="34.782569885">
<ele>487.210938</ele>
<time>2013-11-21T09:32:57Z</time>
<speed>5.350000</speed>
<extensions>
<speed>5.4</speed>
<temp>0.00</temp>
<bpm>0</bpm>
<rpm>0.00</rpm>
</extensions>
</trkpt>
<trkpt lat="30.871406555" lon="34.782382965">
<ele>489.312500</ele>
<time>2013-11-21T09:33:02Z</time>
<speed>4.860000</speed>
<extensions>
<speed>4.9</speed>
<temp>0.00</temp>
<bpm>0</bpm>
<rpm>0.00</rpm>
</extensions>
</trkpt>
<trkpt lat="30.871271133" lon="34.782234192">
<ele>489.281250</ele>
<time>2013-11-21T09:33:07Z</time>
<speed>4.860000</speed>
<extensions>
<speed>4.9</speed>
<temp>0.00</temp>
<bpm>0</bpm>
<rpm>0.00</rpm>
</extensions>
</trkpt>
<trkpt lat="30.871126175" lon="34.782073975">
<ele>490.515625</ele>
<time>2013-11-21T09:33:12Z</time>
<speed>5.240000</speed>
<extensions>
<speed>5.2</speed>
<temp>0.00</temp>
<bpm>0</bpm>
<rpm>0.00</rpm>
</extensions>
</trkpt>
<trkpt lat="30.870952606" lon="34.781883240">
<ele>491.531250</ele>
<time>2013-11-21T09:33:17Z</time>
<speed>5.790000</speed>
<extensions>
<speed>5.8</speed>
<temp>0.00</temp>
<bpm>0</bpm>
<rpm>0.00</rpm>
</extensions>
</trkpt>
<trkpt lat="30.870771408" lon="34.781707764">
<ele>489.140625</ele>
<time>2013-11-21T09:33:22Z</time>
<speed>5.490000</speed>
<extensions>
<speed>5.5</speed>
<temp>0.00</temp>
<bpm>0</bpm>
<rpm>0.00</rpm>
</extensions>
</trkpt>
<trkpt lat="30.870578766" lon="34.781528473">
<ele>488.132813</ele>
<time>2013-11-21T09:33:27Z</time>
<speed>5.790000</speed>
<extensions>
<speed>5.8</speed>
<temp>0.00</temp>
<bpm>0</bpm>
<rpm>0.00</rpm>
</extensions>
</trkpt>
<trkpt lat="30.870372772" lon="34.781326294">
<ele>489.703125</ele>
<time>2013-11-21T09:33:32Z</time>
<speed>6.840000</speed>
<extensions>
<speed>6.8</speed>
<temp>0.00</temp>
<bpm>0</bpm>
<rpm>0.00</rpm>
</extensions>
</trkpt>
<trkpt lat="30.870143890" lon="34.781097412">
<ele>492.335938</ele>
<time>2013-11-21T09:33:37Z</time>
<speed>5.860000</speed>
<extensions>
<speed>5.9</speed>
<temp>0.00</temp>
<bpm>0</bpm>
<rpm>0.00</rpm>
</extensions>
</trkpt>
<trkpt lat="30.869976044" lon="34.780944824">
<ele>492.429688</ele>
<time>2013-11-21T09:33:42Z</time>
<speed>5.190000</speed>
<extensions>
<speed>5.2</speed>
<temp>0.00</temp>
<bpm>0</bpm>
<rpm>0.00</rpm>
</extensions>
</trkpt>
<trkpt lat="30.869777679" lon="34.780780792">
<ele>494.476563</ele>
<time>2013-11-21T09:33:47Z</time>
<speed>6.190000</speed>
<extensions>
<speed>6.2</speed>
<temp>0.00</temp>
<bpm>0</bpm>
<rpm>0.00</rpm>
</extensions>
</trkpt>
<trkpt lat="30.869562149" lon="34.780620575">
<ele>495.546875</ele>
<time>2013-11-21T09:33:52Z</time>
<speed>5.860000</speed>
<extensions>
<speed>5.9</speed>
<temp>0.00</temp>
<bpm>0</bpm>
<rpm>0.00</rpm>
</extensions>
</trkpt>
<trkpt lat="30.869356155" lon="34.780475616">
<ele>493.171875</ele>
<time>2013-11-21T09:33:57Z</time>
<speed>6.190000</speed>
<extensions>
<speed>6.2</speed>
<temp>0.00</temp>
<bpm>0</bpm>
<rpm>0.00</rpm>
</extensions>
</trkpt>
<trkpt lat="30.869123459" lon="34.780326843">
<ele>494.414063</ele>
<time>2013-11-21T09:34:02Z</time>
<speed>5.650000</speed>
<extensions>
<speed>5.7</speed>
<temp>0.00</temp>
<bpm>0</bpm>
<rpm>0.00</rpm>
</extensions>
</trkpt>
<trkpt lat="30.868927002" lon="34.780231476">
<ele>495.945313</ele>
<time>2013-11-21T09:34:07Z</time>
<speed>5.040000</speed>
<extensions>
<speed>5.0</speed>
<temp>0.00</temp>
<bpm>0</bpm>
<rpm>0.00</rpm>
</extensions>
</trkpt>
<trkpt lat="30.868690491" lon="34.780086517">
<ele>495.070313</ele>
<time>2013-11-21T09:34:12Z</time>
<speed>5.460000</speed>
<extensions>
<speed>5.5</speed>
<temp>0.00</temp>
<bpm>0</bpm>
<rpm>0.00</rpm>
</extensions>
</trkpt>
<trkpt lat="30.868469238" lon="34.779949188">
<ele>498.187500</ele>
<time>2013-11-21T09:34:17Z</time>
<speed>5.330000</speed>
<extensions>
<speed>5.3</speed>
<temp>0.00</temp>
<bpm>0</bpm>
<rpm>0.00</rpm>
</extensions>
</trkpt>
<trkpt lat="30.868284225" lon="34.779838562">
<ele>497.148438</ele>
<time>2013-11-21T09:34:22Z</time>
<speed>5.250000</speed>
<extensions>
<speed>5.2</speed>
<temp>0.00</temp>
<bpm>0</bpm>
<rpm>0.00</rpm>
</extensions>
</trkpt>
<trkpt lat="30.868076324" lon="34.779705048">
<ele>498.164063</ele>
<time>2013-11-21T09:34:27Z</time>
<speed>5.740000</speed>
<extensions>
<speed>5.7</speed>
<temp>0.00</temp>
<bpm>0</bpm>
<rpm>0.00</rpm>
</extensions>
</trkpt>
<trkpt lat="30.867853165" lon="34.779567719">
<ele>498.820313</ele>
<time>2013-11-21T09:34:32Z</time>
<speed>5.650000</speed>
<extensions>
<speed>5.7</speed>
<temp>0.00</temp>
<bpm>0</bpm>
<rpm>0.00</rpm>
</extensions>
</trkpt>
<trkpt lat="30.867647171" lon="34.779449463">
<ele>499.000000</ele>
<time>2013-11-21T09:34:37Z</time>
<speed>5.200000</speed>
<extensions>
<speed>5.2</speed>
<temp>0.00</temp>
<bpm>0</bpm>
<rpm>0.00</rpm>
</extensions>
</trkpt>
<trkpt lat="30.867389679" lon="34.779251099">
<ele>498.835938</ele>
<time>2013-11-21T09:34:42Z</time>
<speed>5.480000</speed>
<extensions>
<speed>5.5</speed>
<temp>0.00</temp>
<bpm>0</bpm>
<rpm>0.00</rpm>
</extensions>
</trkpt>
<trkpt lat="30.867136002" lon="34.779083252">
<ele>500.156250</ele>
<time>2013-11-21T09:34:47Z</time>
<speed>6.560000</speed>
<extensions>
<speed>6.6</speed>
<temp>0.00</temp>
<bpm>0</bpm>
<rpm>0.00</rpm>
</extensions>
</trkpt>
<trkpt lat="30.866910934" lon="34.778919220">
<ele>501.242188</ele>
<time>2013-11-21T09:34:52Z</time>
<speed>5.780000</speed>
<extensions>
<speed>5.8</speed>
<temp>0.00</temp>
<bpm>0</bpm>
<rpm>0.00</rpm>
</extensions>
</trkpt>
<trkpt lat="30.866691589" lon="34.778755188">
<ele>499.984375</ele>
<time>2013-11-21T09:34:57Z</time>
<speed>5.660000</speed>
<extensions>
<speed>5.7</speed>
<temp>0.00</temp>
<bpm>0</bpm>
<rpm>0.00</rpm>
</extensions>
</trkpt>
<trkpt lat="30.866495132" lon="34.778621674">
<ele>498.906250</ele>
<time>2013-11-21T09:35:02Z</time>
<speed>5.460000</speed>
<extensions>
<speed>5.5</speed>
<temp>0.00</temp>
<bpm>0</bpm>
<rpm>0.00</rpm>
</extensions>
</trkpt>
<trkpt lat="30.866279602" lon="34.778469086">
<ele>498.390625</ele>
<time>2013-11-21T09:35:07Z</time>
<speed>5.640000</speed>
<extensions>
<speed>5.6</speed>
<temp>0.00</temp>
<bpm>0</bpm>
<rpm>0.00</rpm>
</extensions>
</trkpt>
<trkpt lat="30.866069794" lon="34.778297424">
<ele>496.484375</ele>
<time>2013-11-21T09:35:12Z</time>
<speed>5.520000</speed>
<extensions>
<speed>5.5</speed>
<temp>0.00</temp>
<bpm>0</bpm>
<rpm>0.00</rpm>
</extensions>
</trkpt>
<trkpt lat="30.865848541" lon="34.778141022">
<ele>496.648438</ele>
<time>2013-11-21T09:35:17Z</time>
<speed>6.130000</speed>
<extensions>
<speed>6.1</speed>
<temp>0.00</temp>
<bpm>0</bpm>
<rpm>0.00</rpm>
</extensions>
</trkpt>
<trkpt lat="30.865598679" lon="34.777984619">
<ele>495.046875</ele>
<time>2013-11-21T09:35:22Z</time>
<speed>5.180000</speed>
<extensions>
<speed>5.2</speed>
<temp>0.00</temp>
<bpm>0</bpm>
<rpm>0.00</rpm>
</extensions>
</trkpt>
<trkpt lat="30.865392685" lon="34.777862549">
<ele>496.945313</ele>
<time>2013-11-21T09:35:27Z</time>
<speed>6.100000</speed>
<extensions>
<speed>6.1</speed>
<temp>0.00</temp>
<bpm>0</bpm>
<rpm>0.00</rpm>
</extensions>
</trkpt>
<trkpt lat="30.865169525" lon="34.777706146">
<ele>496.085938</ele>
<time>2013-11-21T09:35:32Z</time>
<speed>6.200000</speed>
<extensions>
<speed>6.2</speed>
<temp>0.00</temp>
<bpm>0</bpm>
<rpm>0.00</rpm>
</extensions>
</trkpt>
<trkpt lat="30.864938736" lon="34.777557373">
<ele>495.078125</ele>
<time>2013-11-21T09:35:37Z</time>
<speed>5.790000</speed>
<extensions>
<speed>5.8</speed>
<temp>0.00</temp>
<bpm>0</bpm>
<rpm>0.00</rpm>
</extensions>
</trkpt>
<trkpt lat="30.864711761" lon="34.777408600">
<ele>494.921875</ele>
<time>2013-11-21T09:35:42Z</time>
<speed>5.000000</speed>
<extensions>
<speed>5.0</speed>
<temp>0.00</temp>
<bpm>0</bpm>
<rpm>0.00</rpm>
</extensions>
</trkpt>
<trkpt lat="30.864507675" lon="34.777278900">
<ele>493.406250</ele>
<time>2013-11-21T09:35:47Z</time>
<speed>5.840000</speed>
<extensions>
<speed>5.8</speed>
<temp>0.00</temp>
<bpm>0</bpm>
<rpm>0.00</rpm>
</extensions>
</trkpt>
<trkpt lat="30.864284515" lon="34.777114868">
<ele>495.031250</ele>
<time>2013-11-21T09:35:52Z</time>
<speed>5.650000</speed>
<extensions>
<speed>5.7</speed>
<temp>0.00</temp>
<bpm>0</bpm>
<rpm>0.00</rpm>
</extensions>
</trkpt>
<trkpt lat="30.864109039" lon="34.777019501">
<ele>494.617188</ele>
<time>2013-11-21T09:35:57Z</time>
<speed>4.410000</speed>
<extensions>
<speed>4.4</speed>
<temp>0.00</temp>
<bpm>0</bpm>
<rpm>0.00</rpm>
</extensions>
</trkpt>
<trkpt lat="30.863903046" lon="34.776874542">
<ele>495.484375</ele>
<time>2013-11-21T09:36:02Z</time>
<speed>5.250000</speed>
<extensions>
<speed>5.2</speed>
<temp>0.00</temp>
<bpm>0</bpm>
<rpm>0.00</rpm>
</extensions>
</trkpt>
<trkpt lat="30.863681793" lon="34.776729584">
<ele>496.781250</ele>
<time>2013-11-21T09:36:07Z</time>
<speed>5.840000</speed>
<extensions>
<speed>5.8</speed>
<temp>0.00</temp>
<bpm>0</bpm>
<rpm>0.00</rpm>
</extensions>
</trkpt>
<trkpt lat="30.863458633" lon="34.776576996">
<ele>496.382813</ele>
<time>2013-11-21T09:36:12Z</time>
<speed>5.810000</speed>
<extensions>
<speed>5.8</speed>
<temp>0.00</temp>
<bpm>0</bpm>
<rpm>0.00</rpm>
</extensions>
</trkpt>
<trkpt lat="30.863201141" lon="34.776386261">
<ele>495.046875</ele>
<time>2013-11-21T09:36:17Z</time>
<speed>7.040000</speed>
<extensions>
<speed>7.0</speed>
<temp>0.00</temp>
<bpm>0</bpm>
<rpm>0.00</rpm>
</extensions>
</trkpt>
<trkpt lat="30.862947464" lon="34.776203156">
<ele>491.593750</ele>
<time>2013-11-21T09:36:22Z</time>
<speed>6.190000</speed>
<extensions>
<speed>6.2</speed>
<temp>0.00</temp>
<bpm>0</bpm>
<rpm>0.00</rpm>
</extensions>
</trkpt>
<trkpt lat="30.862739563" lon="34.776058197">
<ele>491.156250</ele>
<time>2013-11-21T09:36:27Z</time>
<speed>5.550000</speed>
<extensions>
<speed>5.5</speed>
<temp>0.00</temp>
<bpm>0</bpm>
<rpm>0.00</rpm>
</extensions>
</trkpt>
<trkpt lat="30.862510681" lon="34.775913239">
<ele>492.031250</ele>
<time>2013-11-21T09:36:32Z</time>
<speed>6.450000</speed>
<extensions>
<speed>6.4</speed>
<temp>0.00</temp>
<bpm>0</bpm>
<rpm>0.00</rpm>
</extensions>
</trkpt>
<trkpt lat="30.862295151" lon="34.775791168">
<ele>491.617188</ele>
<time>2013-11-21T09:36:37Z</time>
<speed>5.870000</speed>
<extensions>
<speed>5.9</speed>
<temp>0.00</temp>
<bpm>0</bpm>
<rpm>0.00</rpm>
</extensions>
</trkpt>
<trkpt lat="30.862083435" lon="34.775657654">
<ele>491.437500</ele>
<time>2013-11-21T09:36:42Z</time>
<speed>5.410000</speed>
<extensions>
<speed>5.4</speed>
<temp>0.00</temp>
<bpm>0</bpm>
<rpm>0.00</rpm>
</extensions>
</trkpt>
<trkpt lat="30.861871719" lon="34.775520325">
<ele>491.351563</ele>
<time>2013-11-21T09:36:47Z</time>
<speed>5.360000</speed>
<extensions>
<speed>5.4</speed>
<temp>0.00</temp>
<bpm>0</bpm>
<rpm>0.00</rpm>
</extensions>
</trkpt>
<trkpt lat="30.861621857" lon="34.775341034">
<ele>491.804688</ele>
<time>2013-11-21T09:36:52Z</time>
<speed>5.990000</speed>
<extensions>
<speed>6.0</speed>
<temp>0.00</temp>
<bpm>0</bpm>
<rpm>0.00</rpm>
</extensions>
</trkpt>
<trkpt lat="30.861438751" lon="34.775211334">
<ele>491.742188</ele>
<time>2013-11-21T09:36:57Z</time>
<speed>3.550000</speed>
<extensions>
<speed>3.5</speed>
<temp>0.00</temp>
<bpm>0</bpm>
<rpm>0.00</rpm>
</extensions>
</trkpt>
<trkpt lat="30.861268997" lon="34.775112152">
<ele>491.625000</ele>
<time>2013-11-21T09:37:02Z</time>
<speed>4.990000</speed>
<extensions>
<speed>5.0</speed>
<temp>0.00</temp>
<bpm>0</bpm>
<rpm>0.00</rpm>
</extensions>
</trkpt>
<trkpt lat="30.861068726" lon="34.774978638">
<ele>490.898438</ele>
<time>2013-11-21T09:37:07Z</time>
<speed>5.610000</speed>
<extensions>
<speed>5.6</speed>
<temp>0.00</temp>
<bpm>0</bpm>
<rpm>0.00</rpm>
</extensions>
</trkpt>
<trkpt lat="30.860839844" lon="34.774803162">
<ele>491.117188</ele>
<time>2013-11-21T09:37:12Z</time>
<speed>5.890000</speed>
<extensions>
<speed>5.9</speed>
<temp>0.00</temp>
<bpm>0</bpm>
<rpm>0.00</rpm>
</extensions>
</trkpt>
<trkpt lat="30.860654831" lon="34.774684906">
<ele>491.101563</ele>
<time>2013-11-21T09:37:17Z</time>
<speed>4.740000</speed>
<extensions>
<speed>4.7</speed>
<temp>0.00</temp>
<bpm>0</bpm>
<rpm>0.00</rpm>
</extensions>
</trkpt>
<trkpt lat="30.860445023" lon="34.774528503">
<ele>490.406250</ele>
<time>2013-11-21T09:37:22Z</time>
<speed>5.320000</speed>
<extensions>
<speed>5.3</speed>
<temp>0.00</temp>
<bpm>0</bpm>
<rpm>0.00</rpm>
</extensions>
</trkpt>
<trkpt lat="30.860206604" lon="34.774360657">
<ele>488.796875</ele>
<time>2013-11-21T09:37:27Z</time>
<speed>6.610000</speed>
<extensions>
<speed>6.6</speed>
<temp>0.00</temp>
<bpm>0</bpm>
<rpm>0.00</rpm>
</extensions>
</trkpt>
<trkpt lat="30.859941483" lon="34.774196625">
<ele>488.546875</ele>
<time>2013-11-21T09:37:32Z</time>
<speed>7.090000</speed>
<extensions>
<speed>7.1</speed>
<temp>0.00</temp>
<bpm>0</bpm>
<rpm>0.00</rpm>
</extensions>
</trkpt>
<trkpt lat="30.859703064" lon="34.774032593">
<ele>488.093750</ele>
<time>2013-11-21T09:37:37Z</time>
<speed>5.250000</speed>
<extensions>
<speed>5.2</speed>
<temp>0.00</temp>
<bpm>0</bpm>
<rpm>0.00</rpm>
</extensions>
</trkpt>
<trkpt lat="30.859451294" lon="34.773845673">
<ele>488.132813</ele>
<time>2013-11-21T09:37:42Z</time>
<speed>5.900000</speed>
<extensions>
<speed>5.9</speed>
<temp>0.00</temp>
<bpm>0</bpm>
<rpm>0.00</rpm>
</extensions>
</trkpt>
<trkpt lat="30.859230042" lon="34.773677826">
<ele>487.937500</ele>
<time>2013-11-21T09:37:47Z</time>
<speed>5.960000</speed>
<extensions>
<speed>6.0</speed>
<temp>0.00</temp>
<bpm>0</bpm>
<rpm>0.00</rpm>
</extensions>
</trkpt>
<trkpt lat="30.858997345" lon="34.773540497">
<ele>487.390625</ele>
<time>2013-11-21T09:37:52Z</time>
<speed>5.850000</speed>
<extensions>
<speed>5.8</speed>
<temp>0.00</temp>
<bpm>0</bpm>
<rpm>0.00</rpm>
</extensions>
</trkpt>
<trkpt lat="30.858762741" lon="34.773384094">
<ele>487.585938</ele>
<time>2013-11-21T09:37:57Z</time>
<speed>5.660000</speed>
<extensions>
<speed>5.7</speed>
<temp>0.00</temp>
<bpm>0</bpm>
<rpm>0.00</rpm>
</extensions>
</trkpt>
<trkpt lat="30.858554840" lon="34.773246765">
<ele>489.101563</ele>
<time>2013-11-21T09:38:02Z</time>
<speed>5.260000</speed>
<extensions>
<speed>5.3</speed>
<temp>0.00</temp>
<bpm>0</bpm>
<rpm>0.00</rpm>
</extensions>
</trkpt>
<trkpt lat="30.858362198" lon="34.773124695">
<ele>499.914063</ele>
<time>2013-11-21T09:38:07Z</time>
<speed>4.200000</speed>
<extensions>
<speed>4.2</speed>
<temp>0.00</temp>
<bpm>0</bpm>
<rpm>0.00</rpm>
</extensions>
</trkpt>
<trkpt lat="30.858156204" lon="34.773025513">
<ele>504.507813</ele>
<time>2013-11-21T09:38:12Z</time>
<speed>4.380000</speed>
<extensions>
<speed>4.4</speed>
<temp>0.00</temp>
<bpm>0</bpm>
<rpm>0.00</rpm>
</extensions>
</trkpt>
<trkpt lat="30.857912064" lon="34.772876740">
<ele>504.687500</ele>
<time>2013-11-21T09:38:17Z</time>
<speed>6.040000</speed>
<extensions>
<speed>6.0</speed>
<temp>0.00</temp>
<bpm>0</bpm>
<rpm>0.00</rpm>
</extensions>
</trkpt>
<trkpt lat="30.857681274" lon="34.772735596">
<ele>505.453125</ele>
<time>2013-11-21T09:38:22Z</time>
<speed>5.410000</speed>
<extensions>
<speed>5.4</speed>
<temp>0.00</temp>
<bpm>0</bpm>
<rpm>0.00</rpm>
</extensions>
</trkpt>
<trkpt lat="30.857446671" lon="34.772575378">
<ele>505.203125</ele>
<time>2013-11-21T09:38:27Z</time>
<speed>6.150000</speed>
<extensions>
<speed>6.1</speed>
<temp>0.00</temp>
<bpm>0</bpm>
<rpm>0.00</rpm>
</extensions>
</trkpt>
<trkpt lat="30.857179642" lon="34.772418976">
<ele>507.453125</ele>
<time>2013-11-21T09:38:32Z</time>
<speed>6.180000</speed>
<extensions>
<speed>6.2</speed>
<temp>0.00</temp>
<bpm>0</bpm>
<rpm>0.00</rpm>
</extensions>
</trkpt>
<trkpt lat="30.856945038" lon="34.772251129">
<ele>506.281250</ele>
<time>2013-11-21T09:38:37Z</time>
<speed>5.320000</speed>
<extensions>
<speed>5.3</speed>
<temp>0.00</temp>
<bpm>0</bpm>
<rpm>0.00</rpm>
</extensions>
</trkpt>
<trkpt lat="30.856706619" lon="34.772083282">
<ele>506.765625</ele>
<time>2013-11-21T09:38:42Z</time>
<speed>6.310000</speed>
<extensions>
<speed>6.3</speed>
<temp>0.00</temp>
<bpm>0</bpm>
<rpm>0.00</rpm>
</extensions>
</trkpt>
<trkpt lat="30.856431961" lon="34.771907806">
<ele>508.679688</ele>
<time>2013-11-21T09:38:47Z</time>
<speed>7.330000</speed>
<extensions>
<speed>7.3</speed>
<temp>0.00</temp>
<bpm>0</bpm>
<rpm>0.00</rpm>
</extensions>
</trkpt>
<trkpt lat="30.856170654" lon="34.771728516">
<ele>508.851563</ele>
<time>2013-11-21T09:38:52Z</time>
<speed>6.880000</speed>
<extensions>
<speed>6.9</speed>
<temp>0.00</temp>
<bpm>0</bpm>
<rpm>0.00</rpm>
</extensions>
</trkpt>
<trkpt lat="30.855897903" lon="34.771503448">
<ele>507.226563</ele>
<time>2013-11-21T09:38:57Z</time>
<speed>6.910000</speed>
<extensions>
<speed>6.9</speed>
<temp>0.00</temp>
<bpm>0</bpm>
<rpm>0.00</rpm>
</extensions>
</trkpt>
<trkpt lat="30.855642319" lon="34.771297455">
<ele>506.984375</ele>
<time>2013-11-21T09:39:02Z</time>
<speed>5.880000</speed>
<extensions>
<speed>5.9</speed>
<temp>0.00</temp>
<bpm>0</bpm>
<rpm>0.00</rpm>
</extensions>
</trkpt>
<trkpt lat="30.855434418" lon="34.771129608">
<ele>505.929688</ele>
<time>2013-11-21T09:39:07Z</time>
<speed>6.230000</speed>
<extensions>
<speed>6.2</speed>
<temp>0.00</temp>
<bpm>0</bpm>
<rpm>0.00</rpm>
</extensions>
</trkpt>
<trkpt lat="30.855209351" lon="34.770954132">
<ele>507.656250</ele>
<time>2013-11-21T09:39:12Z</time>
<speed>7.130000</speed>
<extensions>
<speed>7.1</speed>
<temp>0.00</temp>
<bpm>0</bpm>
<rpm>0.00</rpm>
</extensions>
</trkpt>
<trkpt lat="30.855009079" lon="34.770771027">
<ele>508.179688</ele>
<time>2013-11-21T09:39:17Z</time>
<speed>5.700000</speed>
<extensions>
<speed>5.7</speed>
<temp>0.00</temp>
<bpm>0</bpm>
<rpm>0.00</rpm>
</extensions>
</trkpt>
<trkpt lat="30.854812622" lon="34.770587921">
<ele>508.609375</ele>
<time>2013-11-21T09:39:22Z</time>
<speed>5.380000</speed>
<extensions>
<speed>5.4</speed>
<temp>0.00</temp>
<bpm>0</bpm>
<rpm>0.00</rpm>
</extensions>
</trkpt>
<trkpt lat="30.854644775" lon="34.770416260">
<ele>508.890625</ele>
<time>2013-11-21T09:39:27Z</time>
<speed>3.950000</speed>
<extensions>
<speed>4.0</speed>
<temp>0.00</temp>
<bpm>0</bpm>
<rpm>0.00</rpm>
</extensions>
</trkpt>
<trkpt lat="30.854526520" lon="34.770290375">
<ele>505.984375</ele>
<time>2013-11-21T09:39:32Z</time>
<speed>1.110000</speed>
<extensions>
<speed>1.1</speed>
<temp>0.00</temp>
<bpm>0</bpm>
<rpm>0.00</rpm>
</extensions>
</trkpt>
<trkpt lat="30.854496002" lon="34.770290375">
<ele>504.625000</ele>
<time>2013-11-21T09:39:37Z</time>
<speed>1.100000</speed>
<extensions>
<speed>1.1</speed>
<temp>0.00</temp>
<bpm>0</bpm>
<rpm>0.00</rpm>
</extensions>
</trkpt>
<trkpt lat="30.854402542" lon="34.770336151">
<ele>501.023438</ele>
<time>2013-11-21T09:39:42Z</time>
<speed>3.160000</speed>
<extensions>
<speed>3.2</speed>
<temp>0.00</temp>
<bpm>0</bpm>
<rpm>0.00</rpm>
</extensions>
</trkpt>
<trkpt lat="30.854305267" lon="34.770545959">
<ele>495.726563</ele>
<time>2013-11-21T09:39:47Z</time>
<speed>4.930000</speed>
<extensions>
<speed>4.9</speed>
<temp>0.00</temp>
<bpm>0</bpm>
<rpm>0.00</rpm>
</extensions>
</trkpt>
<trkpt lat="30.854238510" lon="34.770877838">
<ele>494.156250</ele>
<time>2013-11-21T09:39:52Z</time>
<speed>5.930000</speed>
<extensions>
<speed>5.9</speed>
<temp>0.00</temp>
<bpm>0</bpm>
<rpm>0.00</rpm>
</extensions>
</trkpt>
<trkpt lat="30.854156494" lon="34.771240234">
<ele>495.328125</ele>
<time>2013-11-21T09:39:57Z</time>
<speed>6.100000</speed>
<extensions>
<speed>6.1</speed>
<temp>0.00</temp>
<bpm>0</bpm>
<rpm>0.00</rpm>
</extensions>
</trkpt>
<trkpt lat="30.854072571" lon="34.771595001">
<ele>493.054688</ele>
<time>2013-11-21T09:40:02Z</time>
<speed>6.690000</speed>
<extensions>
<speed>6.7</speed>
<temp>0.00</temp>
<bpm>0</bpm>
<rpm>0.00</rpm>
</extensions>
</trkpt>
<trkpt lat="30.854000092" lon="34.771949768">
<ele>490.906250</ele>
<time>2013-11-21T09:40:07Z</time>
<speed>7.320000</speed>
<extensions>
<speed>7.3</speed>
<temp>0.00</temp>
<bpm>0</bpm>
<rpm>0.00</rpm>
</extensions>
</trkpt>
<trkpt lat="30.853908539" lon="34.772342682">
<ele>489.195313</ele>
<time>2013-11-21T09:40:12Z</time>
<speed>7.860000</speed>
<extensions>
<speed>7.9</speed>
<temp>0.00</temp>
<bpm>0</bpm>
<rpm>0.00</rpm>
</extensions>
</trkpt>
<trkpt lat="30.853792191" lon="34.772766113">
<ele>487.679688</ele>
<time>2013-11-21T09:40:17Z</time>
<speed>7.870000</speed>
<extensions>
<speed>7.9</speed>
<temp>0.00</temp>
<bpm>0</bpm>
<rpm>0.00</rpm>
</extensions>
</trkpt>
<trkpt lat="30.853694916" lon="34.773143768">
<ele>486.687500</ele>
<time>2013-11-21T09:40:22Z</time>
<speed>7.190000</speed>
<extensions>
<speed>7.2</speed>
<temp>0.00</temp>
<bpm>0</bpm>
<rpm>0.00</rpm>
</extensions>
</trkpt>
<trkpt lat="30.853601456" lon="34.773506165">
<ele>485.750000</ele>
<time>2013-11-21T09:40:27Z</time>
<speed>7.030000</speed>
<extensions>
<speed>7.0</speed>
<temp>0.00</temp>
<bpm>0</bpm>
<rpm>0.00</rpm>
</extensions>
</trkpt>
<trkpt lat="30.853544235" lon="34.773887634">
<ele>484.671875</ele>
<time>2013-11-21T09:40:32Z</time>
<speed>7.300000</speed>
<extensions>
<speed>7.3</speed>
<temp>0.00</temp>
<bpm>0</bpm>
<rpm>0.00</rpm>
</extensions>
</trkpt>
<trkpt lat="30.853464127" lon="34.774242401">
<ele>483.781250</ele>
<time>2013-11-21T09:40:37Z</time>
<speed>7.090000</speed>
<extensions>
<speed>7.1</speed>
<temp>0.00</temp>
<bpm>0</bpm>
<rpm>0.00</rpm>
</extensions>
</trkpt>
<trkpt lat="30.853334427" lon="34.774547577">
<ele>483.554688</ele>
<time>2013-11-21T09:40:42Z</time>
<speed>7.400000</speed>
<extensions>
<speed>7.4</speed>
<temp>0.00</temp>
<bpm>0</bpm>
<rpm>0.00</rpm>
</extensions>
</trkpt>
<trkpt lat="30.853172302" lon="34.774883270">
<ele>483.632813</ele>
<time>2013-11-21T09:40:47Z</time>
<speed>6.960000</speed>
<extensions>
<speed>7.0</speed>
<temp>0.00</temp>
<bpm>0</bpm>
<rpm>0.00</rpm>
</extensions>
</trkpt>
<trkpt lat="30.853012085" lon="34.775222778">
<ele>482.109375</ele>
<time>2013-11-21T09:40:52Z</time>
<speed>7.910000</speed>
<extensions>
<speed>7.9</speed>
<temp>0.00</temp>
<bpm>0</bpm>
<rpm>0.00</rpm>
</extensions>
</trkpt>
<trkpt lat="30.852806091" lon="34.775527954">
<ele>482.656250</ele>
<time>2013-11-21T09:40:57Z</time>
<speed>7.250000</speed>
<extensions>
<speed>7.3</speed>
<temp>0.00</temp>
<bpm>0</bpm>
<rpm>0.00</rpm>
</extensions>
</trkpt>
<trkpt lat="30.852600098" lon="34.775840759">
<ele>482.781250</ele>
<time>2013-11-21T09:41:02Z</time>
<speed>7.720000</speed>
<extensions>
<speed>7.7</speed>
<temp>0.00</temp>
<bpm>0</bpm>
<rpm>0.00</rpm>
</extensions>
</trkpt>
<trkpt lat="30.852401733" lon="34.776142120">
<ele>482.632813</ele>
<time>2013-11-21T09:41:07Z</time>
<speed>7.180000</speed>
<extensions>
<speed>7.2</speed>
<temp>0.00</temp>
<bpm>0</bpm>
<rpm>0.00</rpm>
</extensions>
</trkpt>
<trkpt lat="30.852220535" lon="34.776405334">
<ele>482.304688</ele>
<time>2013-11-21T09:41:12Z</time>
<speed>6.300000</speed>
<extensions>
<speed>6.3</speed>
<temp>0.00</temp>
<bpm>0</bpm>
<rpm>0.00</rpm>
</extensions>
</trkpt>
<trkpt lat="30.852054596" lon="34.776618958">
<ele>482.414063</ele>
<time>2013-11-21T09:41:17Z</time>
<speed>6.460000</speed>
<extensions>
<speed>6.5</speed>
<temp>0.00</temp>
<bpm>0</bpm>
<rpm>0.00</rpm>
</extensions>
</trkpt>
<trkpt lat="30.851877213" lon="34.776828766">
<ele>482.148438</ele>
<time>2013-11-21T09:41:22Z</time>
<speed>5.670000</speed>
<extensions>
<speed>5.7</speed>
<temp>0.00</temp>
<bpm>0</bpm>
<rpm>0.00</rpm>
</extensions>
</trkpt>
<trkpt lat="30.851713181" lon="34.777084351">
<ele>480.007813</ele>
<time>2013-11-21T09:41:27Z</time>
<speed>5.990000</speed>
<extensions>
<speed>6.0</speed>
<temp>0.00</temp>
<bpm>0</bpm>
<rpm>0.00</rpm>
</extensions>
</trkpt>
<trkpt lat="30.851552963" lon="34.777332306">
<ele>480.843750</ele>
<time>2013-11-21T09:41:32Z</time>
<speed>4.990000</speed>
<extensions>
<speed>5.0</speed>
<temp>0.00</temp>
<bpm>0</bpm>
<rpm>0.00</rpm>
</extensions>
</trkpt>
<trkpt lat="30.851413727" lon="34.777530670">
<ele>483.242188</ele>
<time>2013-11-21T09:41:37Z</time>
<speed>4.370000</speed>
<extensions>
<speed>4.4</speed>
<temp>0.00</temp>
<bpm>0</bpm>
<rpm>0.00</rpm>
</extensions>
</trkpt>
<trkpt lat="30.851301193" lon="34.777736664">
<ele>483.585938</ele>
<time>2013-11-21T09:41:42Z</time>
<speed>4.910000</speed>
<extensions>
<speed>4.9</speed>
<temp>0.00</temp>
<bpm>0</bpm>
<rpm>0.00</rpm>
</extensions>
</trkpt>
<trkpt lat="30.851161957" lon="34.777942657">
<ele>484.257813</ele>
<time>2013-11-21T09:41:47Z</time>
<speed>4.170000</speed>
<extensions>
<speed>4.2</speed>
<temp>0.00</temp>
<bpm>0</bpm>
<rpm>0.00</rpm>
</extensions>
</trkpt>
<trkpt lat="30.851039886" lon="34.778148651">
<ele>486.203125</ele>
<time>2013-11-21T09:41:52Z</time>
<speed>4.620000</speed>
<extensions>
<speed>4.6</speed>
<temp>0.00</temp>
<bpm>0</bpm>
<rpm>0.00</rpm>
</extensions>
</trkpt>
<trkpt lat="30.850875854" lon="34.778373718">
<ele>485.921875</ele>
<time>2013-11-21T09:41:57Z</time>
<speed>5.250000</speed>
<extensions>
<speed>5.2</speed>
<temp>0.00</temp>
<bpm>0</bpm>
<rpm>0.00</rpm>
</extensions>
</trkpt>
<trkpt lat="30.850721359" lon="34.778556824">
<ele>485.875000</ele>
<time>2013-11-21T09:42:02Z</time>
<speed>3.740000</speed>
<extensions>
<speed>3.7</speed>
<temp>0.00</temp>
<bpm>0</bpm>
<rpm>0.00</rpm>
</extensions>
</trkpt>
<trkpt lat="30.850627899" lon="34.778694153">
<ele>483.976563</ele>
<time>2013-11-21T09:42:07Z</time>
<speed>3.390000</speed>
<extensions>
<speed>3.4</speed>
<temp>0.00</temp>
<bpm>0</bpm>
<rpm>0.00</rpm>
</extensions>
</trkpt>
<trkpt lat="30.850534439" lon="34.778816223">
<ele>483.195313</ele>
<time>2013-11-21T09:42:12Z</time>
<speed>2.690000</speed>
<extensions>
<speed>2.7</speed>
<temp>0.00</temp>
<bpm>0</bpm>
<rpm>0.00</rpm>
</extensions>
</trkpt>
<trkpt lat="30.850425720" lon="34.778907776">
<ele>482.664063</ele>
<time>2013-11-21T09:42:17Z</time>
<speed>1.890000</speed>
<extensions>
<speed>1.9</speed>
<temp>0.00</temp>
<bpm>0</bpm>
<rpm>0.00</rpm>
</extensions>
</trkpt>
<trkpt lat="30.850292206" lon="34.778926849">
<ele>482.335938</ele>
<time>2013-11-21T09:42:22Z</time>
<speed>2.790000</speed>
<extensions>
<speed>2.8</speed>
<temp>0.00</temp>
<bpm>0</bpm>
<rpm>0.00</rpm>
</extensions>
</trkpt>
<trkpt lat="30.850185394" lon="34.778949738">
<ele>482.992188</ele>
<time>2013-11-21T09:42:27Z</time>
<speed>2.170000</speed>
<extensions>
<speed>2.2</speed>
<temp>0.00</temp>
<bpm>0</bpm>
<rpm>0.00</rpm>
</extensions>
</trkpt>
<trkpt lat="30.850028992" lon="34.778957367">
<ele>482.593750</ele>
<time>2013-11-21T09:42:32Z</time>
<speed>2.350000</speed>
<extensions>
<speed>2.4</speed>
<temp>0.00</temp>
<bpm>0</bpm>
<rpm>0.00</rpm>
</extensions>
</trkpt>
<trkpt lat="30.849891663" lon="34.778942108">
<ele>482.406250</ele>
<time>2013-11-21T09:42:37Z</time>
<speed>4.070000</speed>
<extensions>
<speed>4.1</speed>
<temp>0.00</temp>
<bpm>0</bpm>
<rpm>0.00</rpm>
</extensions>
</trkpt>
<trkpt lat="30.849691391" lon="34.779037476">
<ele>481.710938</ele>
<time>2013-11-21T09:42:42Z</time>
<speed>4.260000</speed>
<extensions>
<speed>4.3</speed>
<temp>0.00</temp>
<bpm>0</bpm>
<rpm>0.00</rpm>
</extensions>
</trkpt>
<trkpt lat="30.849466324" lon="34.779201508">
<ele>480.156250</ele>
<time>2013-11-21T09:42:47Z</time>
<speed>4.440000</speed>
<extensions>
<speed>4.4</speed>
<temp>0.00</temp>
<bpm>0</bpm>
<rpm>0.00</rpm>
</extensions>
</trkpt>
<trkpt lat="30.849311829" lon="34.779384613">
<ele>478.531250</ele>
<time>2013-11-21T09:42:52Z</time>
<speed>4.380000</speed>
<extensions>
<speed>4.4</speed>
<temp>0.00</temp>
<bpm>0</bpm>
<rpm>0.00</rpm>
</extensions>
</trkpt>
<trkpt lat="30.849206924" lon="34.779506683">
<ele>476.382813</ele>
<time>2013-11-21T09:42:57Z</time>
<speed>2.230000</speed>
<extensions>
<speed>2.2</speed>
<temp>0.00</temp>
<bpm>0</bpm>
<rpm>0.00</rpm>
</extensions>
</trkpt>
<trkpt lat="30.849140167" lon="34.779586792">
<ele>477.609375</ele>
<time>2013-11-21T09:43:02Z</time>
<speed>2.870000</speed>
<extensions>
<speed>2.9</speed>
<temp>0.00</temp>
<bpm>0</bpm>
<rpm>0.00</rpm>
</extensions>
</trkpt>
<trkpt lat="30.849098206" lon="34.779693604">
<ele>477.351563</ele>
<time>2013-11-21T09:43:07Z</time>
<speed>0.850000</speed>
<extensions>
<speed>0.8</speed>
<temp>0.00</temp>
<bpm>0</bpm>
<rpm>0.00</rpm>
</extensions>
</trkpt>
<trkpt lat="30.849073410" lon="34.779769897">
<ele>477.046875</ele>
<time>2013-11-21T09:43:12Z</time>
<speed>0.970000</speed>
<extensions>
<speed>1.0</speed>
<temp>0.00</temp>
<bpm>0</bpm>
<rpm>0.00</rpm>
</extensions>
</trkpt>
<trkpt lat="30.849027634" lon="34.779907227">
<ele>475.906250</ele>
<time>2013-11-21T09:43:17Z</time>
<speed>2.470000</speed>
<extensions>
<speed>2.5</speed>
<temp>0.00</temp>
<bpm>0</bpm>
<rpm>0.00</rpm>
</extensions>
</trkpt>
<trkpt lat="30.848913193" lon="34.780021667">
<ele>475.250000</ele>
<time>2013-11-21T09:43:22Z</time>
<speed>3.880000</speed>
<extensions>
<speed>3.9</speed>
<temp>0.00</temp>
<bpm>0</bpm>
<rpm>0.00</rpm>
</extensions>
</trkpt>
<trkpt lat="30.848810196" lon="34.780284882">
<ele>472.789063</ele>
<time>2013-11-21T09:43:27Z</time>
<speed>4.170000</speed>
<extensions>
<speed>4.2</speed>
<temp>0.00</temp>
<bpm>0</bpm>
<rpm>0.00</rpm>
</extensions>
</trkpt>
<trkpt lat="30.848896027" lon="34.780471802">
<ele>470.320313</ele>
<time>2013-11-21T09:43:32Z</time>
<speed>3.650000</speed>
<extensions>
<speed>3.7</speed>
<temp>0.00</temp>
<bpm>0</bpm>
<rpm>0.00</rpm>
</extensions>
</trkpt>
<trkpt lat="30.848896027" lon="34.780673981">
<ele>470.984375</ele>
<time>2013-11-21T09:43:37Z</time>
<speed>2.780000</speed>
<extensions>
<speed>2.8</speed>
<temp>0.00</temp>
<bpm>0</bpm>
<rpm>0.00</rpm>
</extensions>
</trkpt>
<trkpt lat="30.848924637" lon="34.780864716">
<ele>471.757813</ele>
<time>2013-11-21T09:43:42Z</time>
<speed>1.870000</speed>
<extensions>
<speed>1.9</speed>
<temp>0.00</temp>
<bpm>0</bpm>
<rpm>0.00</rpm>
</extensions>
</trkpt>
<trkpt lat="30.848850250" lon="34.780956268">
<ele>472.945313</ele>
<time>2013-11-21T09:43:47Z</time>
<speed>2.260000</speed>
<extensions>
<speed>2.3</speed>
<temp>0.00</temp>
<bpm>0</bpm>
<rpm>0.00</rpm>
</extensions>
</trkpt>
<trkpt lat="30.848754883" lon="34.781089783">
<ele>474.765625</ele>
<time>2013-11-21T09:43:52Z</time>
<speed>3.050000</speed>
<extensions>
<speed>3.0</speed>
<temp>0.00</temp>
<bpm>0</bpm>
<rpm>0.00</rpm>
</extensions>
</trkpt>
<trkpt lat="30.848636627" lon="34.781188965">
<ele>472.101563</ele>
<time>2013-11-21T09:43:57Z</time>
<speed>2.660000</speed>
<extensions>
<speed>2.7</speed>
<temp>0.00</temp>
<bpm>0</bpm>
<rpm>0.00</rpm>
</extensions>
</trkpt>
<trkpt lat="30.848501205" lon="34.781242371">
<ele>470.078125</ele>
<time>2013-11-21T09:44:02Z</time>
<speed>2.010000</speed>
<extensions>
<speed>2.0</speed>
<temp>0.00</temp>
<bpm>0</bpm>
<rpm>0.00</rpm>
</extensions>
</trkpt>
<trkpt lat="30.848386765" lon="34.781394958">
<ele>466.765625</ele>
<time>2013-11-21T09:44:07Z</time>
<speed>2.370000</speed>
<extensions>
<speed>2.4</speed>
<temp>0.00</temp>
<bpm>0</bpm>
<rpm>0.00</rpm>
</extensions>
</trkpt>
<trkpt lat="30.848350525" lon="34.781589508">
<ele>462.296875</ele>
<time>2013-11-21T09:44:12Z</time>
<speed>2.610000</speed>
<extensions>
<speed>2.6</speed>
<temp>0.00</temp>
<bpm>0</bpm>
<rpm>0.00</rpm>
</extensions>
</trkpt>
<trkpt lat="30.848335266" lon="34.781784058">
<ele>460.382813</ele>
<time>2013-11-21T09:44:17Z</time>
<speed>2.000000</speed>
<extensions>
<speed>2.0</speed>
<temp>0.00</temp>
<bpm>0</bpm>
<rpm>0.00</rpm>
</extensions>
</trkpt>
<trkpt lat="30.848333359" lon="34.781875610">
<ele>460.953125</ele>
<time>2013-11-21T09:44:22Z</time>
<speed>0.280000</speed>
<extensions>
<speed>0.3</speed>
<temp>0.00</temp>
<bpm>0</bpm>
<rpm>0.00</rpm>
</extensions>
</trkpt>
<trkpt lat="30.848306656" lon="34.781967163">
<ele>463.835938</ele>
<time>2013-11-21T09:44:27Z</time>
<speed>1.060000</speed>
<extensions>
<speed>1.1</speed>
<temp>0.00</temp>
<bpm>0</bpm>
<rpm>0.00</rpm>
</extensions>
</trkpt>
<trkpt lat="30.848270416" lon="34.782066345">
<ele>469.703125</ele>
<time>2013-11-21T09:44:32Z</time>
<speed>0.180000</speed>
<extensions>
<speed>0.2</speed>
<temp>0.00</temp>
<bpm>0</bpm>
<rpm>0.00</rpm>
</extensions>
</trkpt>
<trkpt lat="30.848251343" lon="34.782093048">
<ele>470.601563</ele>
<time>2013-11-21T09:44:37Z</time>
<speed>0.220000</speed>
<extensions>
<speed>0.2</speed>
<temp>0.00</temp>
<bpm>0</bpm>
<rpm>0.00</rpm>
</extensions>
</trkpt>
<trkpt lat="30.848247528" lon="34.782096863">
<ele>470.304688</ele>
<time>2013-11-21T09:44:42Z</time>
<speed>0.040000</speed>
<extensions>
<speed>0.0</speed>
<temp>0.00</temp>
<bpm>0</bpm>
<rpm>0.00</rpm>
</extensions>
</trkpt>
<trkpt lat="30.848251343" lon="34.782096863">
<ele>470.218750</ele>
<time>2013-11-21T09:44:47Z</time>
<speed>0.070000</speed>
<extensions>
<speed>0.1</speed>
<temp>0.00</temp>
<bpm>0</bpm>
<rpm>0.00</rpm>
</extensions>
</trkpt>
<trkpt lat="30.848251343" lon="34.782108307">
<ele>470.406250</ele>
<time>2013-11-21T09:44:52Z</time>
<speed>0.540000</speed>
<extensions>
<speed>0.5</speed>
<temp>0.00</temp>
<bpm>0</bpm>
<rpm>0.00</rpm>
</extensions>
</trkpt>
<trkpt lat="30.848249435" lon="34.782211304">
<ele>470.820313</ele>
<time>2013-11-21T09:44:57Z</time>
<speed>1.440000</speed>
<extensions>
<speed>1.4</speed>
<temp>0.00</temp>
<bpm>0</bpm>
<rpm>0.00</rpm>
</extensions>
</trkpt>
<trkpt lat="30.848234177" lon="34.782287598">
<ele>473.414063</ele>
<time>2013-11-21T09:45:02Z</time>
<speed>0.230000</speed>
<extensions>
<speed>0.2</speed>
<temp>0.00</temp>
<bpm>0</bpm>
<rpm>0.00</rpm>
</extensions>
</trkpt>
<trkpt lat="30.848228455" lon="34.782325745">
<ele>473.562500</ele>
<time>2013-11-21T09:45:07Z</time>
<extensions>
<speed>0.0</speed>
<temp>0.00</temp>
<bpm>0</bpm>
<rpm>0.00</rpm>
</extensions>
</trkpt>
<trkpt lat="30.848230362" lon="34.782329559">
<ele>473.617188</ele>
<time>2013-11-21T09:45:12Z</time>
<speed>0.050000</speed>
<extensions>
<speed>0.1</speed>
<temp>0.00</temp>
<bpm>0</bpm>
<rpm>0.00</rpm>
</extensions>
</trkpt>
<trkpt lat="30.848230362" lon="34.782329559">
<ele>473.640625</ele>
<time>2013-11-21T09:45:17Z</time>
<speed>0.010000</speed>
<extensions>
<speed>0.0</speed>
<temp>0.00</temp>
<bpm>0</bpm>
<rpm>0.00</rpm>
</extensions>
</trkpt>
<trkpt lat="30.848230362" lon="34.782329559">
<ele>473.679688</ele>
<time>2013-11-21T09:45:22Z</time>
<speed>0.030000</speed>
<extensions>
<speed>0.0</speed>
<temp>0.00</temp>
<bpm>0</bpm>
<rpm>0.00</rpm>
</extensions>
</trkpt>
<trkpt lat="30.848230362" lon="34.782329559">
<ele>473.703125</ele>
<time>2013-11-21T09:45:27Z</time>
<extensions>
<speed>0.0</speed>
<temp>0.00</temp>
<bpm>0</bpm>
<rpm>0.00</rpm>
</extensions>
</trkpt>
<trkpt lat="30.848232269" lon="34.782329559">
<ele>473.695313</ele>
<time>2013-11-21T09:45:32Z</time>
<speed>0.010000</speed>
<extensions>
<speed>0.0</speed>
<temp>0.00</temp>
<bpm>0</bpm>
<rpm>0.00</rpm>
</extensions>
</trkpt>
<trkpt lat="30.848232269" lon="34.782329559">
<ele>473.679688</ele>
<time>2013-11-21T09:45:37Z</time>
<speed>0.080000</speed>
<extensions>
<speed>0.1</speed>
<temp>0.00</temp>
<bpm>0</bpm>
<rpm>0.00</rpm>
</extensions>
</trkpt>
<trkpt lat="30.848285675" lon="34.782344818">
<ele>473.429688</ele>
<time>2013-11-21T09:45:42Z</time>
<speed>1.040000</speed>
<extensions>
<speed>1.0</speed>
<temp>0.00</temp>
<bpm>0</bpm>
<rpm>0.00</rpm>
</extensions>
</trkpt>
<trkpt lat="30.848413467" lon="34.782367706">
<ele>473.164063</ele>
<time>2013-11-21T09:45:47Z</time>
<speed>3.030000</speed>
<extensions>
<speed>3.0</speed>
<temp>0.00</temp>
<bpm>0</bpm>
<rpm>0.00</rpm>
</extensions>
</trkpt>
<trkpt lat="30.848592758" lon="34.782463074">
<ele>472.296875</ele>
<time>2013-11-21T09:45:52Z</time>
<speed>2.640000</speed>
<extensions>
<speed>2.6</speed>
<temp>0.00</temp>
<bpm>0</bpm>
<rpm>0.00</rpm>
</extensions>
</trkpt>
<trkpt lat="30.848730087" lon="34.782535553">
<ele>471.554688</ele>
<time>2013-11-21T09:45:57Z</time>
<speed>2.100000</speed>
<extensions>
<speed>2.1</speed>
<temp>0.00</temp>
<bpm>0</bpm>
<rpm>0.00</rpm>
</extensions>
</trkpt>
<trkpt lat="30.848819733" lon="34.782524109">
<ele>470.781250</ele>
<time>2013-11-21T09:46:02Z</time>
<speed>1.360000</speed>
<extensions>
<speed>1.4</speed>
<temp>0.00</temp>
<bpm>0</bpm>
<rpm>0.00</rpm>
</extensions>
</trkpt>
<trkpt lat="30.848869324" lon="34.782512665">
<ele>470.359375</ele>
<time>2013-11-21T09:46:07Z</time>
<speed>0.650000</speed>
<extensions>
<speed>0.6</speed>
<temp>0.00</temp>
<bpm>0</bpm>
<rpm>0.00</rpm>
</extensions>
</trkpt>
<trkpt lat="30.848997116" lon="34.782588959">
<ele>470.375000</ele>
<time>2013-11-21T09:46:12Z</time>
<speed>3.080000</speed>
<extensions>
<speed>3.1</speed>
<temp>0.00</temp>
<bpm>0</bpm>
<rpm>0.00</rpm>
</extensions>
</trkpt>
<trkpt lat="30.849113464" lon="34.782707214">
<ele>470.414063</ele>
<time>2013-11-21T09:46:17Z</time>
<speed>3.150000</speed>
<extensions>
<speed>3.2</speed>
<temp>0.00</temp>
<bpm>0</bpm>
<rpm>0.00</rpm>
</extensions>
</trkpt>
<trkpt lat="30.849258423" lon="34.782829285">
<ele>471.640625</ele>
<time>2013-11-21T09:46:22Z</time>
<speed>2.120000</speed>
<extensions>
<speed>2.1</speed>
<temp>0.00</temp>
<bpm>0</bpm>
<rpm>0.00</rpm>
</extensions>
</trkpt>
<trkpt lat="30.849349976" lon="34.782775879">
<ele>469.015625</ele>
<time>2013-11-21T09:46:27Z</time>
<speed>2.200000</speed>
<extensions>
<speed>2.2</speed>
<temp>0.00</temp>
<bpm>0</bpm>
<rpm>0.00</rpm>
</extensions>
</trkpt>
<trkpt lat="30.849512100" lon="34.782772064">
<ele>469.718750</ele>
<time>2013-11-21T09:46:32Z</time>
<speed>3.960000</speed>
<extensions>
<speed>4.0</speed>
<temp>0.00</temp>
<bpm>0</bpm>
<rpm>0.00</rpm>
</extensions>
</trkpt>
<trkpt lat="30.849664688" lon="34.782791138">
<ele>466.773438</ele>
<time>2013-11-21T09:46:37Z</time>
<speed>3.810000</speed>
<extensions>
<speed>3.8</speed>
<temp>0.00</temp>
<bpm>0</bpm>
<rpm>0.00</rpm>
</extensions>
</trkpt>
<trkpt lat="30.849861145" lon="34.782760620">
<ele>465.843750</ele>
<time>2013-11-21T09:46:42Z</time>
<speed>3.170000</speed>
<extensions>
<speed>3.2</speed>
<temp>0.00</temp>
<bpm>0</bpm>
<rpm>0.00</rpm>
</extensions>
</trkpt>
<trkpt lat="30.850023270" lon="34.782726288">
<ele>467.062500</ele>
<time>2013-11-21T09:46:47Z</time>
<speed>4.070000</speed>
<extensions>
<speed>4.1</speed>
<temp>0.00</temp>
<bpm>0</bpm>
<rpm>0.00</rpm>
</extensions>
</trkpt>
<trkpt lat="30.850238800" lon="34.782661438">
<ele>466.281250</ele>
<time>2013-11-21T09:46:52Z</time>
<speed>4.730000</speed>
<extensions>
<speed>4.7</speed>
<temp>0.00</temp>
<bpm>0</bpm>
<rpm>0.00</rpm>
</extensions>
</trkpt>
<trkpt lat="30.850439072" lon="34.782634735">
<ele>465.242188</ele>
<time>2013-11-21T09:46:57Z</time>
<speed>3.400000</speed>
<extensions>
<speed>3.4</speed>
<temp>0.00</temp>
<bpm>0</bpm>
<rpm>0.00</rpm>
</extensions>
</trkpt>
<trkpt lat="30.850610733" lon="34.782592773">
<ele>464.484375</ele>
<time>2013-11-21T09:47:02Z</time>
<speed>3.760000</speed>
<extensions>
<speed>3.8</speed>
<temp>0.00</temp>
<bpm>0</bpm>
<rpm>0.00</rpm>
</extensions>
</trkpt>
<trkpt lat="30.850843430" lon="34.782520294">
<ele>463.968750</ele>
<time>2013-11-21T09:47:07Z</time>
<speed>3.980000</speed>
<extensions>
<speed>4.0</speed>
<temp>0.00</temp>
<bpm>0</bpm>
<rpm>0.00</rpm>
</extensions>
</trkpt>
<trkpt lat="30.851018906" lon="34.782482147">
<ele>464.882813</ele>
<time>2013-11-21T09:47:12Z</time>
<speed>2.930000</speed>
<extensions>
<speed>2.9</speed>
<temp>0.00</temp>
<bpm>0</bpm>
<rpm>0.00</rpm>
</extensions>
</trkpt>
<trkpt lat="30.851119995" lon="34.782451630">
<ele>463.523438</ele>
<time>2013-11-21T09:47:17Z</time>
<speed>0.880000</speed>
<extensions>
<speed>0.9</speed>
<temp>0.00</temp>
<bpm>0</bpm>
<rpm>0.00</rpm>
</extensions>
</trkpt>
<trkpt lat="30.851209641" lon="34.782428741">
<ele>461.781250</ele>
<time>2013-11-21T09:47:22Z</time>
<speed>2.620000</speed>
<extensions>
<speed>2.6</speed>
<temp>0.00</temp>
<bpm>0</bpm>
<rpm>0.00</rpm>
</extensions>
</trkpt>
<trkpt lat="30.851387024" lon="34.782394409">
<ele>459.687500</ele>
<time>2013-11-21T09:47:27Z</time>
<speed>2.950000</speed>
<extensions>
<speed>2.9</speed>
<temp>0.00</temp>
<bpm>0</bpm>
<rpm>0.00</rpm>
</extensions>
</trkpt>
<trkpt lat="30.851598740" lon="34.782337189">
<ele>457.984375</ele>
<time>2013-11-21T09:47:32Z</time>
<speed>3.700000</speed>
<extensions>
<speed>3.7</speed>
<temp>0.00</temp>
<bpm>0</bpm>
<rpm>0.00</rpm>
</extensions>
</trkpt>
<trkpt lat="30.851839066" lon="34.782279968">
<ele>457.953125</ele>
<time>2013-11-21T09:47:37Z</time>
<speed>4.520000</speed>
<extensions>
<speed>4.5</speed>
<temp>0.00</temp>
<bpm>0</bpm>
<rpm>0.00</rpm>
</extensions>
</trkpt>
<trkpt lat="30.852081299" lon="34.782218933">
<ele>458.210938</ele>
<time>2013-11-21T09:47:42Z</time>
<speed>4.930000</speed>
<extensions>
<speed>4.9</speed>
<temp>0.00</temp>
<bpm>0</bpm>
<rpm>0.00</rpm>
</extensions>
</trkpt>
<trkpt lat="30.852321625" lon="34.782165527">
<ele>459.984375</ele>
<time>2013-11-21T09:47:47Z</time>
<speed>4.490000</speed>
<extensions>
<speed>4.5</speed>
<temp>0.00</temp>
<bpm>0</bpm>
<rpm>0.00</rpm>
</extensions>
</trkpt>
<trkpt lat="30.852546692" lon="34.782085419">
<ele>461.054688</ele>
<time>2013-11-21T09:47:52Z</time>
<speed>4.510000</speed>
<extensions>
<speed>4.5</speed>
<temp>0.00</temp>
<bpm>0</bpm>
<rpm>0.00</rpm>
</extensions>
</trkpt>
<trkpt lat="30.852758408" lon="34.782024384">
<ele>463.609375</ele>
<time>2013-11-21T09:47:57Z</time>
<speed>4.870000</speed>
<extensions>
<speed>4.9</speed>
<temp>0.00</temp>
<bpm>0</bpm>
<rpm>0.00</rpm>
</extensions>
</trkpt>
<trkpt lat="30.852802277" lon="34.781810760">
<ele>466.523438</ele>
<time>2013-11-21T09:48:02Z</time>
<speed>4.420000</speed>
<extensions>
<speed>4.4</speed>
<temp>0.00</temp>
<bpm>0</bpm>
<rpm>0.00</rpm>
</extensions>
</trkpt>
<trkpt lat="30.852758408" lon="34.781608582">
<ele>469.414063</ele>
<time>2013-11-21T09:48:07Z</time>
<speed>2.610000</speed>
<extensions>
<speed>2.6</speed>
<temp>0.00</temp>
<bpm>0</bpm>
<rpm>0.00</rpm>
</extensions>
</trkpt>
<trkpt lat="30.852727890" lon="34.781421661">
<ele>472.984375</ele>
<time>2013-11-21T09:48:12Z</time>
<speed>2.800000</speed>
<extensions>
<speed>2.8</speed>
<temp>0.00</temp>
<bpm>0</bpm>
<rpm>0.00</rpm>
</extensions>
</trkpt>
<trkpt lat="30.852748871" lon="34.781311035">
<ele>473.304688</ele>
<time>2013-11-21T09:48:17Z</time>
<speed>1.600000</speed>
<extensions>
<speed>1.6</speed>
<temp>0.00</temp>
<bpm>0</bpm>
<rpm>0.00</rpm>
</extensions>
</trkpt>
<trkpt lat="30.852809906" lon="34.781337738">
<ele>471.109375</ele>
<time>2013-11-21T09:48:22Z</time>
<speed>1.760000</speed>
<extensions>
<speed>1.8</speed>
<temp>0.00</temp>
<bpm>0</bpm>
<rpm>0.00</rpm>
</extensions>
</trkpt>
<trkpt lat="30.852849960" lon="34.781337738">
<ele>469.546875</ele>
<time>2013-11-21T09:48:27Z</time>
<speed>0.860000</speed>
<extensions>
<speed>0.9</speed>
<temp>0.00</temp>
<bpm>0</bpm>
<rpm>0.00</rpm>
</extensions>
</trkpt>
<trkpt lat="30.852884293" lon="34.781360626">
<ele>469.437500</ele>
<time>2013-11-21T09:48:32Z</time>
<speed>1.300000</speed>
<extensions>
<speed>1.3</speed>
<temp>0.00</temp>
<bpm>0</bpm>
<rpm>0.00</rpm>
</extensions>
</trkpt>
<trkpt lat="30.852937698" lon="34.781440735">
<ele>468.578125</ele>
<time>2013-11-21T09:48:37Z</time>
<speed>2.410000</speed>
<extensions>
<speed>2.4</speed>
<temp>0.00</temp>
<bpm>0</bpm>
<rpm>0.00</rpm>
</extensions>
</trkpt>
<trkpt lat="30.852996826" lon="34.781475067">
<ele>470.054688</ele>
<time>2013-11-21T09:48:42Z</time>
<speed>1.280000</speed>
<extensions>
<speed>1.3</speed>
<temp>0.00</temp>
<bpm>0</bpm>
<rpm>0.00</rpm>
</extensions>
</trkpt>
<trkpt lat="30.853128433" lon="34.781444550">
<ele>471.890625</ele>
<time>2013-11-21T09:48:47Z</time>
<speed>3.660000</speed>
<extensions>
<speed>3.7</speed>
<temp>0.00</temp>
<bpm>0</bpm>
<rpm>0.00</rpm>
</extensions>
</trkpt>
<trkpt lat="30.853258133" lon="34.781406403">
<ele>472.281250</ele>
<time>2013-11-21T09:48:52Z</time>
<speed>1.760000</speed>
<extensions>
<speed>1.8</speed>
<temp>0.00</temp>
<bpm>0</bpm>
<rpm>0.00</rpm>
</extensions>
</trkpt>
<trkpt lat="30.853326797" lon="34.781414032">
<ele>472.171875</ele>
<time>2013-11-21T09:48:57Z</time>
<speed>0.870000</speed>
<extensions>
<speed>0.9</speed>
<temp>0.00</temp>
<bpm>0</bpm>
<rpm>0.00</rpm>
</extensions>
</trkpt>
<trkpt lat="30.853393555" lon="34.781494141">
<ele>473.187500</ele>
<time>2013-11-21T09:49:02Z</time>
<speed>0.510000</speed>
<extensions>
<speed>0.5</speed>
<temp>0.00</temp>
<bpm>0</bpm>
<rpm>0.00</rpm>
</extensions>
</trkpt>
<trkpt lat="30.853395462" lon="34.781494141">
<ele>470.898438</ele>
<time>2013-11-21T09:49:07Z</time>
<speed>0.130000</speed>
<extensions>
<speed>0.1</speed>
<temp>0.00</temp>
<bpm>0</bpm>
<rpm>0.00</rpm>
</extensions>
</trkpt>
<trkpt lat="30.853404999" lon="34.781497955">
<ele>470.632813</ele>
<time>2013-11-21T09:49:12Z</time>
<speed>0.090000</speed>
<extensions>
<speed>0.1</speed>
<temp>0.00</temp>
<bpm>0</bpm>
<rpm>0.00</rpm>
</extensions>
</trkpt>
<trkpt lat="30.853403091" lon="34.781497955">
<ele>470.562500</ele>
<time>2013-11-21T09:49:17Z</time>
<speed>0.120000</speed>
<extensions>
<speed>0.1</speed>
<temp>0.00</temp>
<bpm>0</bpm>
<rpm>0.00</rpm>
</extensions>
</trkpt>
<trkpt lat="30.853406906" lon="34.781494141">
<ele>470.570313</ele>
<time>2013-11-21T09:49:22Z</time>
<speed>0.350000</speed>
<extensions>
<speed>0.3</speed>
<temp>0.00</temp>
<bpm>0</bpm>
<rpm>0.00</rpm>
</extensions>
</trkpt>
</trkseg>
</trk>
</gpx>